<?xml version="1.0" encoding="UTF-8" standalone="no" ?>
<gpx xmlns="http://www.topografix.com/GPX/1/1" xmlns:xsi="http://www.w3.org/2001/XMLSchema-instance" xsi:schemaLocation="http://www.topografix.com/GPX/1/1 http://www.topografix.com/GPX/1/1/gpx.xsd" version="1.1" creator="VisuGPX - https://www.visugpx.com">
  <metadata>
    <name>Port de Balès</name>
    <desc><![CDATA[Pointis Inard, col des Ares, Port de Balès et retour par la piste cyclable du CG31.]]></desc>
  </metadata>
  <trk>
    <name><![CDATA[22 août 2012 08:19 (Cyclisme)]]></name>
    <trkseg>
      <trkpt lat="43.08793" lon="0.78633">
        <ele>351.8</ele>
        <time>2012-08-22T06:19:46Z</time>
      </trkpt>
      <trkpt lat="43.08775" lon="0.78639">
        <ele>350.5</ele>
        <time>2012-08-22T06:20:08Z</time>
      </trkpt>
      <trkpt lat="43.08766" lon="0.78593">
        <ele>354</ele>
        <time>2012-08-22T06:20:54Z</time>
      </trkpt>
      <trkpt lat="43.08759" lon="0.78567">
        <ele>355.5</ele>
        <time>2012-08-22T06:21:02Z</time>
      </trkpt>
      <trkpt lat="43.08757" lon="0.78542">
        <ele>355.5</ele>
        <time>2012-08-22T06:21:11Z</time>
      </trkpt>
      <trkpt lat="43.08755" lon="0.78515">
        <ele>355.5</ele>
        <time>2012-08-22T06:21:19Z</time>
      </trkpt>
      <trkpt lat="43.08752" lon="0.78488">
        <ele>355.25</ele>
        <time>2012-08-22T06:21:24Z</time>
      </trkpt>
      <trkpt lat="43.0874" lon="0.78435">
        <ele>355.25</ele>
        <time>2012-08-22T06:21:33Z</time>
      </trkpt>
      <trkpt lat="43.08723" lon="0.78381">
        <ele>355.25</ele>
        <time>2012-08-22T06:21:43Z</time>
      </trkpt>
      <trkpt lat="43.08714" lon="0.78326">
        <ele>355.25</ele>
        <time>2012-08-22T06:21:53Z</time>
      </trkpt>
      <trkpt lat="43.08708" lon="0.78298">
        <ele>355.25</ele>
        <time>2012-08-22T06:21:58Z</time>
      </trkpt>
      <trkpt lat="43.08696" lon="0.78247">
        <ele>353.833344</ele>
        <time>2012-08-22T06:22:07Z</time>
      </trkpt>
      <trkpt lat="43.0869" lon="0.78217">
        <ele>353.833344</ele>
        <time>2012-08-22T06:22:12Z</time>
      </trkpt>
      <trkpt lat="43.08686" lon="0.78188">
        <ele>353.833344</ele>
        <time>2012-08-22T06:22:17Z</time>
      </trkpt>
      <trkpt lat="43.08681" lon="0.78139">
        <ele>353.833344</ele>
        <time>2012-08-22T06:22:25Z</time>
      </trkpt>
      <trkpt lat="43.0867" lon="0.78083">
        <ele>353.833344</ele>
        <time>2012-08-22T06:22:34Z</time>
      </trkpt>
      <trkpt lat="43.0866" lon="0.78027">
        <ele>353.833344</ele>
        <time>2012-08-22T06:22:42Z</time>
      </trkpt>
      <trkpt lat="43.0865" lon="0.77977">
        <ele>353.833344</ele>
        <time>2012-08-22T06:22:50Z</time>
      </trkpt>
      <trkpt lat="43.08632" lon="0.77935">
        <ele>353.833344</ele>
        <time>2012-08-22T06:22:57Z</time>
      </trkpt>
      <trkpt lat="43.08617" lon="0.77879">
        <ele>356.083344</ele>
        <time>2012-08-22T06:23:07Z</time>
      </trkpt>
      <trkpt lat="43.08608" lon="0.77831">
        <ele>356.083344</ele>
        <time>2012-08-22T06:23:14Z</time>
      </trkpt>
      <trkpt lat="43.08599" lon="0.77807">
        <ele>356.083344</ele>
        <time>2012-08-22T06:23:19Z</time>
      </trkpt>
      <trkpt lat="43.08583" lon="0.7776">
        <ele>356.083344</ele>
        <time>2012-08-22T06:23:28Z</time>
      </trkpt>
      <trkpt lat="43.08576" lon="0.77706">
        <ele>356.083344</ele>
        <time>2012-08-22T06:23:37Z</time>
      </trkpt>
      <trkpt lat="43.0857" lon="0.77678">
        <ele>356.083344</ele>
        <time>2012-08-22T06:23:42Z</time>
      </trkpt>
      <trkpt lat="43.08553" lon="0.77624">
        <ele>356.083344</ele>
        <time>2012-08-22T06:23:51Z</time>
      </trkpt>
      <trkpt lat="43.08533" lon="0.77571">
        <ele>356.083344</ele>
        <time>2012-08-22T06:24:00Z</time>
      </trkpt>
      <trkpt lat="43.08509" lon="0.77529">
        <ele>351.083344</ele>
        <time>2012-08-22T06:24:06Z</time>
      </trkpt>
      <trkpt lat="43.08484" lon="0.77485">
        <ele>351.083344</ele>
        <time>2012-08-22T06:24:13Z</time>
      </trkpt>
      <trkpt lat="43.08459" lon="0.77434">
        <ele>351.083344</ele>
        <time>2012-08-22T06:24:21Z</time>
      </trkpt>
      <trkpt lat="43.08439" lon="0.77389">
        <ele>351.083344</ele>
        <time>2012-08-22T06:24:28Z</time>
      </trkpt>
      <trkpt lat="43.08416" lon="0.77345">
        <ele>351.083344</ele>
        <time>2012-08-22T06:24:35Z</time>
      </trkpt>
      <trkpt lat="43.08391" lon="0.77298">
        <ele>351.083344</ele>
        <time>2012-08-22T06:24:43Z</time>
      </trkpt>
      <trkpt lat="43.08371" lon="0.77243">
        <ele>351.083344</ele>
        <time>2012-08-22T06:24:51Z</time>
      </trkpt>
      <trkpt lat="43.08352" lon="0.77186">
        <ele>351.083344</ele>
        <time>2012-08-22T06:24:59Z</time>
      </trkpt>
      <trkpt lat="43.08337" lon="0.77132">
        <ele>354.333344</ele>
        <time>2012-08-22T06:25:07Z</time>
      </trkpt>
      <trkpt lat="43.08322" lon="0.77075">
        <ele>354.333344</ele>
        <time>2012-08-22T06:25:15Z</time>
      </trkpt>
      <trkpt lat="43.08306" lon="0.77018">
        <ele>354.333344</ele>
        <time>2012-08-22T06:25:23Z</time>
      </trkpt>
      <trkpt lat="43.08295" lon="0.76965">
        <ele>354.333344</ele>
        <time>2012-08-22T06:25:31Z</time>
      </trkpt>
      <trkpt lat="43.0828" lon="0.76914">
        <ele>354.333344</ele>
        <time>2012-08-22T06:25:39Z</time>
      </trkpt>
      <trkpt lat="43.08259" lon="0.76864">
        <ele>354.333344</ele>
        <time>2012-08-22T06:25:47Z</time>
      </trkpt>
      <trkpt lat="43.08228" lon="0.7682">
        <ele>354.333344</ele>
        <time>2012-08-22T06:25:55Z</time>
      </trkpt>
      <trkpt lat="43.082" lon="0.76777">
        <ele>359.5</ele>
        <time>2012-08-22T06:26:03Z</time>
      </trkpt>
      <trkpt lat="43.08173" lon="0.76735">
        <ele>359.5</ele>
        <time>2012-08-22T06:26:11Z</time>
      </trkpt>
      <trkpt lat="43.08147" lon="0.76691">
        <ele>359.5</ele>
        <time>2012-08-22T06:26:18Z</time>
      </trkpt>
      <trkpt lat="43.08123" lon="0.76641">
        <ele>359.5</ele>
        <time>2012-08-22T06:26:26Z</time>
      </trkpt>
      <trkpt lat="43.081" lon="0.76589">
        <ele>359.5</ele>
        <time>2012-08-22T06:26:34Z</time>
      </trkpt>
      <trkpt lat="43.08081" lon="0.76542">
        <ele>359.5</ele>
        <time>2012-08-22T06:26:42Z</time>
      </trkpt>
      <trkpt lat="43.08054" lon="0.76499">
        <ele>359.5</ele>
        <time>2012-08-22T06:26:50Z</time>
      </trkpt>
      <trkpt lat="43.08032" lon="0.76451">
        <ele>359.5</ele>
        <time>2012-08-22T06:26:59Z</time>
      </trkpt>
      <trkpt lat="43.08007" lon="0.76407">
        <ele>366.666656</ele>
        <time>2012-08-22T06:27:06Z</time>
      </trkpt>
      <trkpt lat="43.07989" lon="0.7636">
        <ele>366.666656</ele>
        <time>2012-08-22T06:27:15Z</time>
      </trkpt>
      <trkpt lat="43.07975" lon="0.76311">
        <ele>366.666656</ele>
        <time>2012-08-22T06:27:24Z</time>
      </trkpt>
      <trkpt lat="43.07962" lon="0.7626">
        <ele>366.666656</ele>
        <time>2012-08-22T06:27:32Z</time>
      </trkpt>
      <trkpt lat="43.07956" lon="0.76231">
        <ele>366.666656</ele>
        <time>2012-08-22T06:27:37Z</time>
      </trkpt>
      <trkpt lat="43.07944" lon="0.76208">
        <ele>366.666656</ele>
        <time>2012-08-22T06:27:42Z</time>
      </trkpt>
      <trkpt lat="43.07916" lon="0.76171">
        <ele>366.666656</ele>
        <time>2012-08-22T06:27:53Z</time>
      </trkpt>
      <trkpt lat="43.07883" lon="0.76201">
        <ele>362.416656</ele>
        <time>2012-08-22T06:27:58Z</time>
      </trkpt>
      <trkpt lat="43.07844" lon="0.76234">
        <ele>362.416656</ele>
        <time>2012-08-22T06:28:04Z</time>
      </trkpt>
      <trkpt lat="43.07803" lon="0.76265">
        <ele>362.416656</ele>
        <time>2012-08-22T06:28:10Z</time>
      </trkpt>
      <trkpt lat="43.07761" lon="0.76295">
        <ele>362.416656</ele>
        <time>2012-08-22T06:28:16Z</time>
      </trkpt>
      <trkpt lat="43.07699" lon="0.76315">
        <ele>362.416656</ele>
        <time>2012-08-22T06:28:23Z</time>
      </trkpt>
      <trkpt lat="43.07657" lon="0.76323">
        <ele>362.416656</ele>
        <time>2012-08-22T06:28:29Z</time>
      </trkpt>
      <trkpt lat="43.07615" lon="0.76319">
        <ele>362.416656</ele>
        <time>2012-08-22T06:28:35Z</time>
      </trkpt>
      <trkpt lat="43.07574" lon="0.76305">
        <ele>362.416656</ele>
        <time>2012-08-22T06:28:41Z</time>
      </trkpt>
      <trkpt lat="43.0753" lon="0.76276">
        <ele>362.416656</ele>
        <time>2012-08-22T06:28:47Z</time>
      </trkpt>
      <trkpt lat="43.07491" lon="0.76242">
        <ele>362.416656</ele>
        <time>2012-08-22T06:28:53Z</time>
      </trkpt>
      <trkpt lat="43.07452" lon="0.76213">
        <ele>364.75</ele>
        <time>2012-08-22T06:28:59Z</time>
      </trkpt>
      <trkpt lat="43.07418" lon="0.76179">
        <ele>364.75</ele>
        <time>2012-08-22T06:29:05Z</time>
      </trkpt>
      <trkpt lat="43.0738" lon="0.76153">
        <ele>364.75</ele>
        <time>2012-08-22T06:29:11Z</time>
      </trkpt>
      <trkpt lat="43.07345" lon="0.76128">
        <ele>364.75</ele>
        <time>2012-08-22T06:29:17Z</time>
      </trkpt>
      <trkpt lat="43.07311" lon="0.76101">
        <ele>364.75</ele>
        <time>2012-08-22T06:29:23Z</time>
      </trkpt>
      <trkpt lat="43.07273" lon="0.76075">
        <ele>364.75</ele>
        <time>2012-08-22T06:29:30Z</time>
      </trkpt>
      <trkpt lat="43.07234" lon="0.76048">
        <ele>364.75</ele>
        <time>2012-08-22T06:29:37Z</time>
      </trkpt>
      <trkpt lat="43.07201" lon="0.76022">
        <ele>364.75</ele>
        <time>2012-08-22T06:29:43Z</time>
      </trkpt>
      <trkpt lat="43.07163" lon="0.75996">
        <ele>364.75</ele>
        <time>2012-08-22T06:29:50Z</time>
      </trkpt>
      <trkpt lat="43.07124" lon="0.75969">
        <ele>360.416656</ele>
        <time>2012-08-22T06:29:57Z</time>
      </trkpt>
      <trkpt lat="43.07087" lon="0.75944">
        <ele>360.416656</ele>
        <time>2012-08-22T06:30:04Z</time>
      </trkpt>
      <trkpt lat="43.07046" lon="0.75913">
        <ele>360.416656</ele>
        <time>2012-08-22T06:30:12Z</time>
      </trkpt>
      <trkpt lat="43.07005" lon="0.75895">
        <ele>360.416656</ele>
        <time>2012-08-22T06:30:20Z</time>
      </trkpt>
      <trkpt lat="43.06968" lon="0.75869">
        <ele>360.416656</ele>
        <time>2012-08-22T06:30:28Z</time>
      </trkpt>
      <trkpt lat="43.06932" lon="0.75848">
        <ele>360.416656</ele>
        <time>2012-08-22T06:30:34Z</time>
      </trkpt>
      <trkpt lat="43.06886" lon="0.75841">
        <ele>360.416656</ele>
        <time>2012-08-22T06:30:41Z</time>
      </trkpt>
      <trkpt lat="43.06839" lon="0.75839">
        <ele>360.416656</ele>
        <time>2012-08-22T06:30:48Z</time>
      </trkpt>
      <trkpt lat="43.06796" lon="0.75835">
        <ele>360.416656</ele>
        <time>2012-08-22T06:30:54Z</time>
      </trkpt>
      <trkpt lat="43.06755" lon="0.75838">
        <ele>353.25</ele>
        <time>2012-08-22T06:31:00Z</time>
      </trkpt>
      <trkpt lat="43.06715" lon="0.7584">
        <ele>353.25</ele>
        <time>2012-08-22T06:31:06Z</time>
      </trkpt>
      <trkpt lat="43.06681" lon="0.75822">
        <ele>353.25</ele>
        <time>2012-08-22T06:31:12Z</time>
      </trkpt>
      <trkpt lat="43.06645" lon="0.75788">
        <ele>353.25</ele>
        <time>2012-08-22T06:31:19Z</time>
      </trkpt>
      <trkpt lat="43.06609" lon="0.75761">
        <ele>353.25</ele>
        <time>2012-08-22T06:31:26Z</time>
      </trkpt>
      <trkpt lat="43.06575" lon="0.75728">
        <ele>353.25</ele>
        <time>2012-08-22T06:31:33Z</time>
      </trkpt>
      <trkpt lat="43.06538" lon="0.75689">
        <ele>353.25</ele>
        <time>2012-08-22T06:31:41Z</time>
      </trkpt>
      <trkpt lat="43.06503" lon="0.75651">
        <ele>353.25</ele>
        <time>2012-08-22T06:31:49Z</time>
      </trkpt>
      <trkpt lat="43.06473" lon="0.75617">
        <ele>353.25</ele>
        <time>2012-08-22T06:31:55Z</time>
      </trkpt>
      <trkpt lat="43.06437" lon="0.75585">
        <ele>357.666656</ele>
        <time>2012-08-22T06:32:02Z</time>
      </trkpt>
      <trkpt lat="43.06404" lon="0.75544">
        <ele>357.666656</ele>
        <time>2012-08-22T06:32:10Z</time>
      </trkpt>
      <trkpt lat="43.06372" lon="0.75513">
        <ele>357.666656</ele>
        <time>2012-08-22T06:32:16Z</time>
      </trkpt>
      <trkpt lat="43.06343" lon="0.75479">
        <ele>357.666656</ele>
        <time>2012-08-22T06:32:22Z</time>
      </trkpt>
      <trkpt lat="43.06313" lon="0.75437">
        <ele>357.666656</ele>
        <time>2012-08-22T06:32:29Z</time>
      </trkpt>
      <trkpt lat="43.06281" lon="0.75403">
        <ele>357.666656</ele>
        <time>2012-08-22T06:32:35Z</time>
      </trkpt>
      <trkpt lat="43.06248" lon="0.75367">
        <ele>357.666656</ele>
        <time>2012-08-22T06:32:42Z</time>
      </trkpt>
      <trkpt lat="43.06217" lon="0.75324">
        <ele>357.666656</ele>
        <time>2012-08-22T06:32:50Z</time>
      </trkpt>
      <trkpt lat="43.06181" lon="0.75293">
        <ele>357.666656</ele>
        <time>2012-08-22T06:32:56Z</time>
      </trkpt>
      <trkpt lat="43.06149" lon="0.75259">
        <ele>356.666656</ele>
        <time>2012-08-22T06:33:02Z</time>
      </trkpt>
      <trkpt lat="43.0612" lon="0.75226">
        <ele>356.666656</ele>
        <time>2012-08-22T06:33:08Z</time>
      </trkpt>
      <trkpt lat="43.0609" lon="0.75193">
        <ele>356.666656</ele>
        <time>2012-08-22T06:33:14Z</time>
      </trkpt>
      <trkpt lat="43.06059" lon="0.75158">
        <ele>356.666656</ele>
        <time>2012-08-22T06:33:20Z</time>
      </trkpt>
      <trkpt lat="43.06026" lon="0.75125">
        <ele>356.666656</ele>
        <time>2012-08-22T06:33:26Z</time>
      </trkpt>
      <trkpt lat="43.05998" lon="0.75092">
        <ele>356.666656</ele>
        <time>2012-08-22T06:33:32Z</time>
      </trkpt>
      <trkpt lat="43.05965" lon="0.75062">
        <ele>356.666656</ele>
        <time>2012-08-22T06:33:38Z</time>
      </trkpt>
      <trkpt lat="43.05934" lon="0.7503">
        <ele>356.666656</ele>
        <time>2012-08-22T06:33:44Z</time>
      </trkpt>
      <trkpt lat="43.059" lon="0.74997">
        <ele>356.666656</ele>
        <time>2012-08-22T06:33:50Z</time>
      </trkpt>
      <trkpt lat="43.05867" lon="0.7496">
        <ele>364.083344</ele>
        <time>2012-08-22T06:33:57Z</time>
      </trkpt>
      <trkpt lat="43.05838" lon="0.74923">
        <ele>364.083344</ele>
        <time>2012-08-22T06:34:04Z</time>
      </trkpt>
      <trkpt lat="43.05801" lon="0.74894">
        <ele>364.083344</ele>
        <time>2012-08-22T06:34:12Z</time>
      </trkpt>
      <trkpt lat="43.0576" lon="0.74881">
        <ele>364.083344</ele>
        <time>2012-08-22T06:34:20Z</time>
      </trkpt>
      <trkpt lat="43.05713" lon="0.74883">
        <ele>364.083344</ele>
        <time>2012-08-22T06:34:28Z</time>
      </trkpt>
      <trkpt lat="43.05675" lon="0.74886">
        <ele>364.083344</ele>
        <time>2012-08-22T06:34:34Z</time>
      </trkpt>
      <trkpt lat="43.05631" lon="0.74883">
        <ele>364.083344</ele>
        <time>2012-08-22T06:34:41Z</time>
      </trkpt>
      <trkpt lat="43.05593" lon="0.74878">
        <ele>364.083344</ele>
        <time>2012-08-22T06:34:47Z</time>
      </trkpt>
      <trkpt lat="43.05555" lon="0.74848">
        <ele>364.083344</ele>
        <time>2012-08-22T06:34:53Z</time>
      </trkpt>
      <trkpt lat="43.05519" lon="0.748">
        <ele>368.916656</ele>
        <time>2012-08-22T06:34:59Z</time>
      </trkpt>
      <trkpt lat="43.05486" lon="0.7476">
        <ele>368.916656</ele>
        <time>2012-08-22T06:35:05Z</time>
      </trkpt>
      <trkpt lat="43.0545" lon="0.74722">
        <ele>368.916656</ele>
        <time>2012-08-22T06:35:11Z</time>
      </trkpt>
      <trkpt lat="43.05413" lon="0.74686">
        <ele>368.916656</ele>
        <time>2012-08-22T06:35:17Z</time>
      </trkpt>
      <trkpt lat="43.05382" lon="0.74654">
        <ele>368.916656</ele>
        <time>2012-08-22T06:35:23Z</time>
      </trkpt>
      <trkpt lat="43.05351" lon="0.74616">
        <ele>368.916656</ele>
        <time>2012-08-22T06:35:30Z</time>
      </trkpt>
      <trkpt lat="43.05319" lon="0.74577">
        <ele>368.916656</ele>
        <time>2012-08-22T06:35:38Z</time>
      </trkpt>
      <trkpt lat="43.05288" lon="0.74545">
        <ele>368.916656</ele>
        <time>2012-08-22T06:35:44Z</time>
      </trkpt>
      <trkpt lat="43.05252" lon="0.74511">
        <ele>368.916656</ele>
        <time>2012-08-22T06:35:51Z</time>
      </trkpt>
      <trkpt lat="43.05221" lon="0.74473">
        <ele>375.083344</ele>
        <time>2012-08-22T06:35:57Z</time>
      </trkpt>
      <trkpt lat="43.05187" lon="0.74438">
        <ele>375.083344</ele>
        <time>2012-08-22T06:36:04Z</time>
      </trkpt>
      <trkpt lat="43.05155" lon="0.744">
        <ele>375.083344</ele>
        <time>2012-08-22T06:36:11Z</time>
      </trkpt>
      <trkpt lat="43.05125" lon="0.74368">
        <ele>375.083344</ele>
        <time>2012-08-22T06:36:17Z</time>
      </trkpt>
      <trkpt lat="43.05092" lon="0.74334">
        <ele>375.083344</ele>
        <time>2012-08-22T06:36:25Z</time>
      </trkpt>
      <trkpt lat="43.05058" lon="0.74298">
        <ele>375.083344</ele>
        <time>2012-08-22T06:36:33Z</time>
      </trkpt>
      <trkpt lat="43.05026" lon="0.74262">
        <ele>375.083344</ele>
        <time>2012-08-22T06:36:41Z</time>
      </trkpt>
      <trkpt lat="43.04985" lon="0.74232">
        <ele>375.083344</ele>
        <time>2012-08-22T06:36:49Z</time>
      </trkpt>
      <trkpt lat="43.0495" lon="0.74202">
        <ele>375.083344</ele>
        <time>2012-08-22T06:36:57Z</time>
      </trkpt>
      <trkpt lat="43.04912" lon="0.74178">
        <ele>376.333344</ele>
        <time>2012-08-22T06:37:06Z</time>
      </trkpt>
      <trkpt lat="43.04884" lon="0.74148">
        <ele>376.333344</ele>
        <time>2012-08-22T06:37:15Z</time>
      </trkpt>
      <trkpt lat="43.049" lon="0.74097">
        <ele>376.333344</ele>
        <time>2012-08-22T06:37:22Z</time>
      </trkpt>
      <trkpt lat="43.04908" lon="0.74044">
        <ele>376.333344</ele>
        <time>2012-08-22T06:37:28Z</time>
      </trkpt>
      <trkpt lat="43.0491" lon="0.73986">
        <ele>376.333344</ele>
        <time>2012-08-22T06:37:35Z</time>
      </trkpt>
      <trkpt lat="43.04912" lon="0.73931">
        <ele>376.333344</ele>
        <time>2012-08-22T06:37:43Z</time>
      </trkpt>
      <trkpt lat="43.04882" lon="0.739">
        <ele>376.333344</ele>
        <time>2012-08-22T06:37:58Z</time>
      </trkpt>
      <trkpt lat="43.04837" lon="0.73911">
        <ele>376.333344</ele>
        <time>2012-08-22T06:38:04Z</time>
      </trkpt>
      <trkpt lat="43.04795" lon="0.73919">
        <ele>378.166656</ele>
        <time>2012-08-22T06:38:11Z</time>
      </trkpt>
      <trkpt lat="43.04752" lon="0.73931">
        <ele>378.166656</ele>
        <time>2012-08-22T06:38:18Z</time>
      </trkpt>
      <trkpt lat="43.04711" lon="0.73942">
        <ele>378.166656</ele>
        <time>2012-08-22T06:38:25Z</time>
      </trkpt>
      <trkpt lat="43.0467" lon="0.73944">
        <ele>378.166656</ele>
        <time>2012-08-22T06:38:32Z</time>
      </trkpt>
      <trkpt lat="43.04625" lon="0.73935">
        <ele>378.166656</ele>
        <time>2012-08-22T06:38:40Z</time>
      </trkpt>
      <trkpt lat="43.04582" lon="0.7393">
        <ele>378.166656</ele>
        <time>2012-08-22T06:38:47Z</time>
      </trkpt>
      <trkpt lat="43.04541" lon="0.73933">
        <ele>378.166656</ele>
        <time>2012-08-22T06:38:54Z</time>
      </trkpt>
      <trkpt lat="43.04501" lon="0.73937">
        <ele>380.916656</ele>
        <time>2012-08-22T06:39:02Z</time>
      </trkpt>
      <trkpt lat="43.04479" lon="0.73938">
        <ele>380.916656</ele>
        <time>2012-08-22T06:39:07Z</time>
      </trkpt>
      <trkpt lat="43.04442" lon="0.73918">
        <ele>380.916656</ele>
        <time>2012-08-22T06:39:17Z</time>
      </trkpt>
      <trkpt lat="43.04425" lon="0.73904">
        <ele>380.916656</ele>
        <time>2012-08-22T06:39:23Z</time>
      </trkpt>
      <trkpt lat="43.0441" lon="0.7389">
        <ele>380.916656</ele>
        <time>2012-08-22T06:39:28Z</time>
      </trkpt>
      <trkpt lat="43.04374" lon="0.73872">
        <ele>380.916656</ele>
        <time>2012-08-22T06:39:38Z</time>
      </trkpt>
      <trkpt lat="43.04339" lon="0.73852">
        <ele>380.916656</ele>
        <time>2012-08-22T06:39:48Z</time>
      </trkpt>
      <trkpt lat="43.0432" lon="0.73841">
        <ele>380.916656</ele>
        <time>2012-08-22T06:39:54Z</time>
      </trkpt>
      <trkpt lat="43.04283" lon="0.73818">
        <ele>380.916656</ele>
        <time>2012-08-22T06:40:04Z</time>
      </trkpt>
      <trkpt lat="43.04244" lon="0.73799">
        <ele>383</ele>
        <time>2012-08-22T06:40:15Z</time>
      </trkpt>
      <trkpt lat="43.04224" lon="0.73807">
        <ele>383</ele>
        <time>2012-08-22T06:40:21Z</time>
      </trkpt>
      <trkpt lat="43.04183" lon="0.7382">
        <ele>383</ele>
        <time>2012-08-22T06:40:31Z</time>
      </trkpt>
      <trkpt lat="43.04142" lon="0.73822">
        <ele>383</ele>
        <time>2012-08-22T06:40:39Z</time>
      </trkpt>
      <trkpt lat="43.04096" lon="0.73826">
        <ele>383</ele>
        <time>2012-08-22T06:40:47Z</time>
      </trkpt>
      <trkpt lat="43.04058" lon="0.73839">
        <ele>383</ele>
        <time>2012-08-22T06:40:54Z</time>
      </trkpt>
      <trkpt lat="43.04038" lon="0.73847">
        <ele>397.5</ele>
        <time>2012-08-22T06:40:59Z</time>
      </trkpt>
      <trkpt lat="43.04001" lon="0.73856">
        <ele>397.5</ele>
        <time>2012-08-22T06:41:07Z</time>
      </trkpt>
      <trkpt lat="43.03963" lon="0.73871">
        <ele>397.5</ele>
        <time>2012-08-22T06:41:15Z</time>
      </trkpt>
      <trkpt lat="43.03925" lon="0.73887">
        <ele>397.5</ele>
        <time>2012-08-22T06:41:24Z</time>
      </trkpt>
      <trkpt lat="43.03885" lon="0.73885">
        <ele>397.5</ele>
        <time>2012-08-22T06:41:31Z</time>
      </trkpt>
      <trkpt lat="43.03845" lon="0.73872">
        <ele>397.5</ele>
        <time>2012-08-22T06:41:38Z</time>
      </trkpt>
      <trkpt lat="43.03805" lon="0.7389">
        <ele>397.5</ele>
        <time>2012-08-22T06:41:45Z</time>
      </trkpt>
      <trkpt lat="43.03764" lon="0.73916">
        <ele>397.5</ele>
        <time>2012-08-22T06:41:53Z</time>
      </trkpt>
      <trkpt lat="43.03726" lon="0.73935">
        <ele>404.5</ele>
        <time>2012-08-22T06:41:59Z</time>
      </trkpt>
      <trkpt lat="43.03688" lon="0.73958">
        <ele>404.5</ele>
        <time>2012-08-22T06:42:05Z</time>
      </trkpt>
      <trkpt lat="43.03651" lon="0.73983">
        <ele>404.5</ele>
        <time>2012-08-22T06:42:11Z</time>
      </trkpt>
      <trkpt lat="43.03618" lon="0.74009">
        <ele>404.5</ele>
        <time>2012-08-22T06:42:17Z</time>
      </trkpt>
      <trkpt lat="43.03577" lon="0.74014">
        <ele>404.5</ele>
        <time>2012-08-22T06:42:23Z</time>
      </trkpt>
      <trkpt lat="43.03537" lon="0.7402">
        <ele>404.5</ele>
        <time>2012-08-22T06:42:29Z</time>
      </trkpt>
      <trkpt lat="43.035" lon="0.74025">
        <ele>404.5</ele>
        <time>2012-08-22T06:42:36Z</time>
      </trkpt>
      <trkpt lat="43.03459" lon="0.74015">
        <ele>404.5</ele>
        <time>2012-08-22T06:42:43Z</time>
      </trkpt>
      <trkpt lat="43.03422" lon="0.74018">
        <ele>404.5</ele>
        <time>2012-08-22T06:42:49Z</time>
      </trkpt>
      <trkpt lat="43.03397" lon="0.73981">
        <ele>404.5</ele>
        <time>2012-08-22T06:42:57Z</time>
      </trkpt>
      <trkpt lat="43.03393" lon="0.73925">
        <ele>410.75</ele>
        <time>2012-08-22T06:43:06Z</time>
      </trkpt>
      <trkpt lat="43.0339" lon="0.73897">
        <ele>410.75</ele>
        <time>2012-08-22T06:43:11Z</time>
      </trkpt>
      <trkpt lat="43.0338" lon="0.73841">
        <ele>410.75</ele>
        <time>2012-08-22T06:43:21Z</time>
      </trkpt>
      <trkpt lat="43.03369" lon="0.73791">
        <ele>410.75</ele>
        <time>2012-08-22T06:43:30Z</time>
      </trkpt>
      <trkpt lat="43.03365" lon="0.73764">
        <ele>410.75</ele>
        <time>2012-08-22T06:43:35Z</time>
      </trkpt>
      <trkpt lat="43.03347" lon="0.73719">
        <ele>410.75</ele>
        <time>2012-08-22T06:43:45Z</time>
      </trkpt>
      <trkpt lat="43.03308" lon="0.73731">
        <ele>410.75</ele>
        <time>2012-08-22T06:43:53Z</time>
      </trkpt>
      <trkpt lat="43.03265" lon="0.73739">
        <ele>410.5</ele>
        <time>2012-08-22T06:44:01Z</time>
      </trkpt>
      <trkpt lat="43.03226" lon="0.73754">
        <ele>410.5</ele>
        <time>2012-08-22T06:44:08Z</time>
      </trkpt>
      <trkpt lat="43.03187" lon="0.7377">
        <ele>410.5</ele>
        <time>2012-08-22T06:44:15Z</time>
      </trkpt>
      <trkpt lat="43.03145" lon="0.73787">
        <ele>410.5</ele>
        <time>2012-08-22T06:44:22Z</time>
      </trkpt>
      <trkpt lat="43.03105" lon="0.73795">
        <ele>410.5</ele>
        <time>2012-08-22T06:44:29Z</time>
      </trkpt>
      <trkpt lat="43.03064" lon="0.73805">
        <ele>410.5</ele>
        <time>2012-08-22T06:44:36Z</time>
      </trkpt>
      <trkpt lat="43.0302" lon="0.73819">
        <ele>410.5</ele>
        <time>2012-08-22T06:44:42Z</time>
      </trkpt>
      <trkpt lat="43.02981" lon="0.73831">
        <ele>410.5</ele>
        <time>2012-08-22T06:44:48Z</time>
      </trkpt>
      <trkpt lat="43.02939" lon="0.73846">
        <ele>410.5</ele>
        <time>2012-08-22T06:44:55Z</time>
      </trkpt>
      <trkpt lat="43.02898" lon="0.73862">
        <ele>412.333344</ele>
        <time>2012-08-22T06:45:02Z</time>
      </trkpt>
      <trkpt lat="43.0286" lon="0.73895">
        <ele>412.333344</ele>
        <time>2012-08-22T06:45:09Z</time>
      </trkpt>
      <trkpt lat="43.02829" lon="0.73929">
        <ele>412.333344</ele>
        <time>2012-08-22T06:45:16Z</time>
      </trkpt>
      <trkpt lat="43.02796" lon="0.73963">
        <ele>412.333344</ele>
        <time>2012-08-22T06:45:26Z</time>
      </trkpt>
      <trkpt lat="43.02735" lon="0.7402">
        <ele>412.333344</ele>
        <time>2012-08-22T06:45:40Z</time>
      </trkpt>
      <trkpt lat="43.02696" lon="0.74043">
        <ele>412.333344</ele>
        <time>2012-08-22T06:45:46Z</time>
      </trkpt>
      <trkpt lat="43.02657" lon="0.7407">
        <ele>412.333344</ele>
        <time>2012-08-22T06:45:54Z</time>
      </trkpt>
      <trkpt lat="43.02616" lon="0.74086">
        <ele>412.333344</ele>
        <time>2012-08-22T06:46:01Z</time>
      </trkpt>
      <trkpt lat="43.0258" lon="0.74115">
        <ele>412.75</ele>
        <time>2012-08-22T06:46:09Z</time>
      </trkpt>
      <trkpt lat="43.02537" lon="0.74139">
        <ele>412.75</ele>
        <time>2012-08-22T06:46:15Z</time>
      </trkpt>
      <trkpt lat="43.0249" lon="0.74151">
        <ele>412.75</ele>
        <time>2012-08-22T06:46:21Z</time>
      </trkpt>
      <trkpt lat="43.02432" lon="0.74176">
        <ele>412.75</ele>
        <time>2012-08-22T06:46:27Z</time>
      </trkpt>
      <trkpt lat="43.0237" lon="0.74203">
        <ele>412.75</ele>
        <time>2012-08-22T06:46:34Z</time>
      </trkpt>
      <trkpt lat="43.02323" lon="0.74244">
        <ele>412.75</ele>
        <time>2012-08-22T06:46:40Z</time>
      </trkpt>
      <trkpt lat="43.02288" lon="0.7428">
        <ele>412.75</ele>
        <time>2012-08-22T06:46:46Z</time>
      </trkpt>
      <trkpt lat="43.02257" lon="0.74315">
        <ele>412.75</ele>
        <time>2012-08-22T06:46:52Z</time>
      </trkpt>
      <trkpt lat="43.02227" lon="0.74359">
        <ele>410.75</ele>
        <time>2012-08-22T06:46:58Z</time>
      </trkpt>
      <trkpt lat="43.02203" lon="0.74401">
        <ele>410.75</ele>
        <time>2012-08-22T06:47:04Z</time>
      </trkpt>
      <trkpt lat="43.02179" lon="0.74451">
        <ele>410.75</ele>
        <time>2012-08-22T06:47:12Z</time>
      </trkpt>
      <trkpt lat="43.02153" lon="0.745">
        <ele>410.75</ele>
        <time>2012-08-22T06:47:21Z</time>
      </trkpt>
      <trkpt lat="43.02116" lon="0.7453">
        <ele>410.75</ele>
        <time>2012-08-22T06:47:29Z</time>
      </trkpt>
      <trkpt lat="43.0208" lon="0.74553">
        <ele>410.75</ele>
        <time>2012-08-22T06:47:36Z</time>
      </trkpt>
      <trkpt lat="43.02043" lon="0.74584">
        <ele>410.75</ele>
        <time>2012-08-22T06:47:44Z</time>
      </trkpt>
      <trkpt lat="43.02014" lon="0.74624">
        <ele>410.75</ele>
        <time>2012-08-22T06:47:51Z</time>
      </trkpt>
      <trkpt lat="43.01985" lon="0.74658">
        <ele>410.75</ele>
        <time>2012-08-22T06:47:57Z</time>
      </trkpt>
      <trkpt lat="43.01956" lon="0.74696">
        <ele>410.5</ele>
        <time>2012-08-22T06:48:03Z</time>
      </trkpt>
      <trkpt lat="43.0193" lon="0.74733">
        <ele>410.5</ele>
        <time>2012-08-22T06:48:09Z</time>
      </trkpt>
      <trkpt lat="43.01903" lon="0.74775">
        <ele>410.5</ele>
        <time>2012-08-22T06:48:16Z</time>
      </trkpt>
      <trkpt lat="43.01877" lon="0.74819">
        <ele>410.5</ele>
        <time>2012-08-22T06:48:23Z</time>
      </trkpt>
      <trkpt lat="43.01844" lon="0.74865">
        <ele>410.5</ele>
        <time>2012-08-22T06:48:31Z</time>
      </trkpt>
      <trkpt lat="43.01817" lon="0.74909">
        <ele>410.5</ele>
        <time>2012-08-22T06:48:38Z</time>
      </trkpt>
      <trkpt lat="43.01789" lon="0.74952">
        <ele>410.5</ele>
        <time>2012-08-22T06:48:45Z</time>
      </trkpt>
      <trkpt lat="43.01768" lon="0.75004">
        <ele>410.5</ele>
        <time>2012-08-22T06:48:52Z</time>
      </trkpt>
      <trkpt lat="43.01749" lon="0.75051">
        <ele>410.5</ele>
        <time>2012-08-22T06:48:58Z</time>
      </trkpt>
      <trkpt lat="43.01733" lon="0.75097">
        <ele>415.833344</ele>
        <time>2012-08-22T06:49:04Z</time>
      </trkpt>
      <trkpt lat="43.01708" lon="0.75141">
        <ele>415.833344</ele>
        <time>2012-08-22T06:49:13Z</time>
      </trkpt>
      <trkpt lat="43.0168" lon="0.75185">
        <ele>415.833344</ele>
        <time>2012-08-22T06:49:21Z</time>
      </trkpt>
      <trkpt lat="43.01643" lon="0.75213">
        <ele>415.833344</ele>
        <time>2012-08-22T06:49:27Z</time>
      </trkpt>
      <trkpt lat="43.01617" lon="0.75249">
        <ele>415.833344</ele>
        <time>2012-08-22T06:49:33Z</time>
      </trkpt>
      <trkpt lat="43.01582" lon="0.75294">
        <ele>415.833344</ele>
        <time>2012-08-22T06:49:41Z</time>
      </trkpt>
      <trkpt lat="43.0156" lon="0.75343">
        <ele>415.833344</ele>
        <time>2012-08-22T06:49:47Z</time>
      </trkpt>
      <trkpt lat="43.01547" lon="0.75393">
        <ele>415.833344</ele>
        <time>2012-08-22T06:49:53Z</time>
      </trkpt>
      <trkpt lat="43.01539" lon="0.75457">
        <ele>419</ele>
        <time>2012-08-22T06:50:01Z</time>
      </trkpt>
      <trkpt lat="43.01503" lon="0.7549">
        <ele>419</ele>
        <time>2012-08-22T06:50:09Z</time>
      </trkpt>
      <trkpt lat="43.01464" lon="0.75499">
        <ele>419</ele>
        <time>2012-08-22T06:50:17Z</time>
      </trkpt>
      <trkpt lat="43.01423" lon="0.75504">
        <ele>419</ele>
        <time>2012-08-22T06:50:25Z</time>
      </trkpt>
      <trkpt lat="43.01384" lon="0.75494">
        <ele>419</ele>
        <time>2012-08-22T06:50:33Z</time>
      </trkpt>
      <trkpt lat="43.01344" lon="0.75477">
        <ele>419</ele>
        <time>2012-08-22T06:50:41Z</time>
      </trkpt>
      <trkpt lat="43.01305" lon="0.75465">
        <ele>419</ele>
        <time>2012-08-22T06:50:48Z</time>
      </trkpt>
      <trkpt lat="43.01264" lon="0.75466">
        <ele>419</ele>
        <time>2012-08-22T06:50:55Z</time>
      </trkpt>
      <trkpt lat="43.01224" lon="0.75491">
        <ele>419</ele>
        <time>2012-08-22T06:51:03Z</time>
      </trkpt>
      <trkpt lat="43.01196" lon="0.75534">
        <ele>415.833344</ele>
        <time>2012-08-22T06:51:11Z</time>
      </trkpt>
      <trkpt lat="43.01162" lon="0.75566">
        <ele>415.833344</ele>
        <time>2012-08-22T06:51:19Z</time>
      </trkpt>
      <trkpt lat="43.01125" lon="0.75565">
        <ele>415.833344</ele>
        <time>2012-08-22T06:51:26Z</time>
      </trkpt>
      <trkpt lat="43.01089" lon="0.75547">
        <ele>415.833344</ele>
        <time>2012-08-22T06:51:34Z</time>
      </trkpt>
      <trkpt lat="43.01048" lon="0.75528">
        <ele>415.833344</ele>
        <time>2012-08-22T06:51:42Z</time>
      </trkpt>
      <trkpt lat="43.01013" lon="0.7555">
        <ele>415.833344</ele>
        <time>2012-08-22T06:51:50Z</time>
      </trkpt>
      <trkpt lat="43.00996" lon="0.75597">
        <ele>415.833344</ele>
        <time>2012-08-22T06:51:57Z</time>
      </trkpt>
      <trkpt lat="43.00986" lon="0.7565">
        <ele>419.083344</ele>
        <time>2012-08-22T06:52:06Z</time>
      </trkpt>
      <trkpt lat="43.00976" lon="0.75673">
        <ele>419.083344</ele>
        <time>2012-08-22T06:52:11Z</time>
      </trkpt>
      <trkpt lat="43.00966" lon="0.75698">
        <ele>419.083344</ele>
        <time>2012-08-22T06:52:17Z</time>
      </trkpt>
      <trkpt lat="43.0095" lon="0.75714">
        <ele>419.083344</ele>
        <time>2012-08-22T06:52:24Z</time>
      </trkpt>
      <trkpt lat="43.0093" lon="0.7571">
        <ele>419.083344</ele>
        <time>2012-08-22T06:52:30Z</time>
      </trkpt>
      <trkpt lat="43.00892" lon="0.75682">
        <ele>419.083344</ele>
        <time>2012-08-22T06:52:39Z</time>
      </trkpt>
      <trkpt lat="43.00853" lon="0.75658">
        <ele>419.083344</ele>
        <time>2012-08-22T06:52:47Z</time>
      </trkpt>
      <trkpt lat="43.0081" lon="0.75645">
        <ele>419.083344</ele>
        <time>2012-08-22T06:52:55Z</time>
      </trkpt>
      <trkpt lat="43.00766" lon="0.75632">
        <ele>419.083344</ele>
        <time>2012-08-22T06:53:03Z</time>
      </trkpt>
      <trkpt lat="43.00726" lon="0.75613">
        <ele>425.416656</ele>
        <time>2012-08-22T06:53:10Z</time>
      </trkpt>
      <trkpt lat="43.00688" lon="0.75592">
        <ele>425.416656</ele>
        <time>2012-08-22T06:53:17Z</time>
      </trkpt>
      <trkpt lat="43.00649" lon="0.75571">
        <ele>425.416656</ele>
        <time>2012-08-22T06:53:25Z</time>
      </trkpt>
      <trkpt lat="43.00607" lon="0.75573">
        <ele>425.416656</ele>
        <time>2012-08-22T06:53:33Z</time>
      </trkpt>
      <trkpt lat="43.00568" lon="0.75576">
        <ele>425.416656</ele>
        <time>2012-08-22T06:53:41Z</time>
      </trkpt>
      <trkpt lat="43.0053" lon="0.75564">
        <ele>425.416656</ele>
        <time>2012-08-22T06:53:49Z</time>
      </trkpt>
      <trkpt lat="43.00497" lon="0.75538">
        <ele>425.416656</ele>
        <time>2012-08-22T06:53:57Z</time>
      </trkpt>
      <trkpt lat="43.00464" lon="0.75508">
        <ele>425.416656</ele>
        <time>2012-08-22T06:54:05Z</time>
      </trkpt>
      <trkpt lat="43.00429" lon="0.75489">
        <ele>434.083344</ele>
        <time>2012-08-22T06:54:16Z</time>
      </trkpt>
      <trkpt lat="43.00411" lon="0.75479">
        <ele>434.083344</ele>
        <time>2012-08-22T06:54:24Z</time>
      </trkpt>
      <trkpt lat="43.00392" lon="0.75467">
        <ele>434.083344</ele>
        <time>2012-08-22T06:54:32Z</time>
      </trkpt>
      <trkpt lat="43.00373" lon="0.75457">
        <ele>434.083344</ele>
        <time>2012-08-22T06:54:38Z</time>
      </trkpt>
      <trkpt lat="43.00338" lon="0.7543">
        <ele>434.083344</ele>
        <time>2012-08-22T06:54:48Z</time>
      </trkpt>
      <trkpt lat="43.00323" lon="0.7541">
        <ele>434.083344</ele>
        <time>2012-08-22T06:54:55Z</time>
      </trkpt>
      <trkpt lat="43.0031" lon="0.7539">
        <ele>434.083344</ele>
        <time>2012-08-22T06:55:02Z</time>
      </trkpt>
      <trkpt lat="43.00296" lon="0.75372">
        <ele>433.666656</ele>
        <time>2012-08-22T06:55:09Z</time>
      </trkpt>
      <trkpt lat="43.00279" lon="0.75356">
        <ele>433.666656</ele>
        <time>2012-08-22T06:55:16Z</time>
      </trkpt>
      <trkpt lat="43.00264" lon="0.7534">
        <ele>433.666656</ele>
        <time>2012-08-22T06:55:24Z</time>
      </trkpt>
      <trkpt lat="43.00247" lon="0.7533">
        <ele>433.666656</ele>
        <time>2012-08-22T06:55:32Z</time>
      </trkpt>
      <trkpt lat="43.002" lon="0.75318">
        <ele>433.666656</ele>
        <time>2012-08-22T06:55:49Z</time>
      </trkpt>
      <trkpt lat="43.00181" lon="0.75311">
        <ele>433.666656</ele>
        <time>2012-08-22T06:55:55Z</time>
      </trkpt>
      <trkpt lat="43.00162" lon="0.75305">
        <ele>433.666656</ele>
        <time>2012-08-22T06:56:01Z</time>
      </trkpt>
      <trkpt lat="43.00142" lon="0.75304">
        <ele>433.666656</ele>
        <time>2012-08-22T06:56:08Z</time>
      </trkpt>
      <trkpt lat="43.00124" lon="0.75304">
        <ele>451.583344</ele>
        <time>2012-08-22T06:56:17Z</time>
      </trkpt>
      <trkpt lat="43.00106" lon="0.75295">
        <ele>451.583344</ele>
        <time>2012-08-22T06:56:23Z</time>
      </trkpt>
      <trkpt lat="43.00091" lon="0.75281">
        <ele>451.583344</ele>
        <time>2012-08-22T06:56:30Z</time>
      </trkpt>
      <trkpt lat="43.00074" lon="0.75272">
        <ele>451.583344</ele>
        <time>2012-08-22T06:56:38Z</time>
      </trkpt>
      <trkpt lat="43.00053" lon="0.75267">
        <ele>451.583344</ele>
        <time>2012-08-22T06:56:45Z</time>
      </trkpt>
      <trkpt lat="43.00032" lon="0.7526">
        <ele>451.583344</ele>
        <time>2012-08-22T06:56:51Z</time>
      </trkpt>
      <trkpt lat="43.00013" lon="0.75253">
        <ele>451.583344</ele>
        <time>2012-08-22T06:56:57Z</time>
      </trkpt>
      <trkpt lat="42.99993" lon="0.75245">
        <ele>462.5</ele>
        <time>2012-08-22T06:57:04Z</time>
      </trkpt>
      <trkpt lat="42.99974" lon="0.75235">
        <ele>462.5</ele>
        <time>2012-08-22T06:57:12Z</time>
      </trkpt>
      <trkpt lat="42.99956" lon="0.7523">
        <ele>462.5</ele>
        <time>2012-08-22T06:57:19Z</time>
      </trkpt>
      <trkpt lat="42.99937" lon="0.75228">
        <ele>462.5</ele>
        <time>2012-08-22T06:57:26Z</time>
      </trkpt>
      <trkpt lat="42.99916" lon="0.75231">
        <ele>462.5</ele>
        <time>2012-08-22T06:57:33Z</time>
      </trkpt>
      <trkpt lat="42.99896" lon="0.75229">
        <ele>462.5</ele>
        <time>2012-08-22T06:57:39Z</time>
      </trkpt>
      <trkpt lat="42.99857" lon="0.7521">
        <ele>462.5</ele>
        <time>2012-08-22T06:57:49Z</time>
      </trkpt>
      <trkpt lat="42.99839" lon="0.75203">
        <ele>462.5</ele>
        <time>2012-08-22T06:57:55Z</time>
      </trkpt>
      <trkpt lat="42.99821" lon="0.75197">
        <ele>462.5</ele>
        <time>2012-08-22T06:58:01Z</time>
      </trkpt>
      <trkpt lat="42.99801" lon="0.75199">
        <ele>479.416656</ele>
        <time>2012-08-22T06:58:08Z</time>
      </trkpt>
      <trkpt lat="42.9978" lon="0.75204">
        <ele>479.416656</ele>
        <time>2012-08-22T06:58:15Z</time>
      </trkpt>
      <trkpt lat="42.99762" lon="0.75206">
        <ele>479.416656</ele>
        <time>2012-08-22T06:58:21Z</time>
      </trkpt>
      <trkpt lat="42.99742" lon="0.75214">
        <ele>479.416656</ele>
        <time>2012-08-22T06:58:28Z</time>
      </trkpt>
      <trkpt lat="42.99722" lon="0.75222">
        <ele>479.416656</ele>
        <time>2012-08-22T06:58:34Z</time>
      </trkpt>
      <trkpt lat="42.99703" lon="0.7523">
        <ele>479.416656</ele>
        <time>2012-08-22T06:58:41Z</time>
      </trkpt>
      <trkpt lat="42.99682" lon="0.75232">
        <ele>479.416656</ele>
        <time>2012-08-22T06:58:48Z</time>
      </trkpt>
      <trkpt lat="42.99663" lon="0.75239">
        <ele>479.416656</ele>
        <time>2012-08-22T06:58:54Z</time>
      </trkpt>
      <trkpt lat="42.99647" lon="0.75251">
        <ele>479.416656</ele>
        <time>2012-08-22T06:59:00Z</time>
      </trkpt>
      <trkpt lat="42.9963" lon="0.75265">
        <ele>501.25</ele>
        <time>2012-08-22T06:59:06Z</time>
      </trkpt>
      <trkpt lat="42.99614" lon="0.75282">
        <ele>501.25</ele>
        <time>2012-08-22T06:59:13Z</time>
      </trkpt>
      <trkpt lat="42.99594" lon="0.75281">
        <ele>501.25</ele>
        <time>2012-08-22T06:59:20Z</time>
      </trkpt>
      <trkpt lat="42.99576" lon="0.75279">
        <ele>501.25</ele>
        <time>2012-08-22T06:59:26Z</time>
      </trkpt>
      <trkpt lat="42.99557" lon="0.75278">
        <ele>501.25</ele>
        <time>2012-08-22T06:59:32Z</time>
      </trkpt>
      <trkpt lat="42.99539" lon="0.75277">
        <ele>501.25</ele>
        <time>2012-08-22T06:59:39Z</time>
      </trkpt>
      <trkpt lat="42.9952" lon="0.75284">
        <ele>501.25</ele>
        <time>2012-08-22T06:59:46Z</time>
      </trkpt>
      <trkpt lat="42.99502" lon="0.75286">
        <ele>501.25</ele>
        <time>2012-08-22T06:59:52Z</time>
      </trkpt>
      <trkpt lat="42.99483" lon="0.75284">
        <ele>501.25</ele>
        <time>2012-08-22T07:00:00Z</time>
      </trkpt>
      <trkpt lat="42.99464" lon="0.75289">
        <ele>519.333313</ele>
        <time>2012-08-22T07:00:06Z</time>
      </trkpt>
      <trkpt lat="42.99445" lon="0.7529">
        <ele>519.333313</ele>
        <time>2012-08-22T07:00:12Z</time>
      </trkpt>
      <trkpt lat="42.99427" lon="0.75288">
        <ele>519.333313</ele>
        <time>2012-08-22T07:00:19Z</time>
      </trkpt>
      <trkpt lat="42.99407" lon="0.75281">
        <ele>519.333313</ele>
        <time>2012-08-22T07:00:26Z</time>
      </trkpt>
      <trkpt lat="42.99386" lon="0.75286">
        <ele>519.333313</ele>
        <time>2012-08-22T07:00:33Z</time>
      </trkpt>
      <trkpt lat="42.9937" lon="0.753">
        <ele>519.333313</ele>
        <time>2012-08-22T07:00:40Z</time>
      </trkpt>
      <trkpt lat="42.99352" lon="0.75312">
        <ele>519.333313</ele>
        <time>2012-08-22T07:00:50Z</time>
      </trkpt>
      <trkpt lat="42.99332" lon="0.75318">
        <ele>519.333313</ele>
        <time>2012-08-22T07:00:59Z</time>
      </trkpt>
      <trkpt lat="42.99313" lon="0.75321">
        <ele>519.333313</ele>
        <time>2012-08-22T07:01:04Z</time>
      </trkpt>
      <trkpt lat="42.99296" lon="0.75331">
        <ele>531.583313</ele>
        <time>2012-08-22T07:01:12Z</time>
      </trkpt>
      <trkpt lat="42.99315" lon="0.75338">
        <ele>531.583313</ele>
        <time>2012-08-22T07:01:19Z</time>
      </trkpt>
      <trkpt lat="42.99334" lon="0.75333">
        <ele>531.583313</ele>
        <time>2012-08-22T07:01:24Z</time>
      </trkpt>
      <trkpt lat="42.99371" lon="0.75315">
        <ele>531.583313</ele>
        <time>2012-08-22T07:01:35Z</time>
      </trkpt>
      <trkpt lat="42.99353" lon="0.75316">
        <ele>531.583313</ele>
        <time>2012-08-22T07:01:48Z</time>
      </trkpt>
      <trkpt lat="42.99333" lon="0.75315">
        <ele>531.583313</ele>
        <time>2012-08-22T07:01:55Z</time>
      </trkpt>
      <trkpt lat="42.99292" lon="0.75331">
        <ele>531.583313</ele>
        <time>2012-08-22T07:02:05Z</time>
      </trkpt>
      <trkpt lat="42.99265" lon="0.7537">
        <ele>531.583313</ele>
        <time>2012-08-22T07:02:15Z</time>
      </trkpt>
      <trkpt lat="42.99249" lon="0.75389">
        <ele>543.916687</ele>
        <time>2012-08-22T07:02:21Z</time>
      </trkpt>
      <trkpt lat="42.99233" lon="0.75405">
        <ele>543.916687</ele>
        <time>2012-08-22T07:02:26Z</time>
      </trkpt>
      <trkpt lat="42.99205" lon="0.7545">
        <ele>543.916687</ele>
        <time>2012-08-22T07:02:36Z</time>
      </trkpt>
      <trkpt lat="42.99163" lon="0.75469">
        <ele>543.916687</ele>
        <time>2012-08-22T07:02:46Z</time>
      </trkpt>
      <trkpt lat="42.99125" lon="0.75494">
        <ele>543.916687</ele>
        <time>2012-08-22T07:02:52Z</time>
      </trkpt>
      <trkpt lat="42.99086" lon="0.7552">
        <ele>543.916687</ele>
        <time>2012-08-22T07:02:58Z</time>
      </trkpt>
      <trkpt lat="42.99042" lon="0.75548">
        <ele>543.916687</ele>
        <time>2012-08-22T07:03:04Z</time>
      </trkpt>
      <trkpt lat="42.98992" lon="0.75555">
        <ele>550.583313</ele>
        <time>2012-08-22T07:03:10Z</time>
      </trkpt>
      <trkpt lat="42.98921" lon="0.75564">
        <ele>550.583313</ele>
        <time>2012-08-22T07:03:17Z</time>
      </trkpt>
      <trkpt lat="42.98857" lon="0.75601">
        <ele>550.583313</ele>
        <time>2012-08-22T07:03:23Z</time>
      </trkpt>
      <trkpt lat="42.98796" lon="0.75641">
        <ele>550.583313</ele>
        <time>2012-08-22T07:03:29Z</time>
      </trkpt>
      <trkpt lat="42.9873" lon="0.75655">
        <ele>550.583313</ele>
        <time>2012-08-22T07:03:36Z</time>
      </trkpt>
      <trkpt lat="42.98673" lon="0.75608">
        <ele>550.583313</ele>
        <time>2012-08-22T07:03:42Z</time>
      </trkpt>
      <trkpt lat="42.98613" lon="0.75558">
        <ele>550.583313</ele>
        <time>2012-08-22T07:03:50Z</time>
      </trkpt>
      <trkpt lat="42.98568" lon="0.75564">
        <ele>550.583313</ele>
        <time>2012-08-22T07:03:56Z</time>
      </trkpt>
      <trkpt lat="42.98527" lon="0.75551">
        <ele>550.583313</ele>
        <time>2012-08-22T07:04:02Z</time>
      </trkpt>
      <trkpt lat="42.98484" lon="0.75554">
        <ele>548.5</ele>
        <time>2012-08-22T07:04:08Z</time>
      </trkpt>
      <trkpt lat="42.98443" lon="0.75565">
        <ele>548.5</ele>
        <time>2012-08-22T07:04:16Z</time>
      </trkpt>
      <trkpt lat="42.98404" lon="0.75582">
        <ele>548.5</ele>
        <time>2012-08-22T07:04:24Z</time>
      </trkpt>
      <trkpt lat="42.9837" lon="0.75564">
        <ele>548.5</ele>
        <time>2012-08-22T07:04:34Z</time>
      </trkpt>
      <trkpt lat="42.98352" lon="0.75554">
        <ele>548.5</ele>
        <time>2012-08-22T07:04:40Z</time>
      </trkpt>
      <trkpt lat="42.98316" lon="0.75558">
        <ele>548.5</ele>
        <time>2012-08-22T07:04:51Z</time>
      </trkpt>
      <trkpt lat="42.98299" lon="0.75573">
        <ele>548.5</ele>
        <time>2012-08-22T07:04:57Z</time>
      </trkpt>
      <trkpt lat="42.98283" lon="0.75585">
        <ele>548.5</ele>
        <time>2012-08-22T07:05:06Z</time>
      </trkpt>
      <trkpt lat="42.98266" lon="0.75596">
        <ele>533.083313</ele>
        <time>2012-08-22T07:05:13Z</time>
      </trkpt>
      <trkpt lat="42.98247" lon="0.75603">
        <ele>533.083313</ele>
        <time>2012-08-22T07:05:20Z</time>
      </trkpt>
      <trkpt lat="42.98228" lon="0.75603">
        <ele>533.083313</ele>
        <time>2012-08-22T07:05:27Z</time>
      </trkpt>
      <trkpt lat="42.98209" lon="0.75606">
        <ele>533.083313</ele>
        <time>2012-08-22T07:05:34Z</time>
      </trkpt>
      <trkpt lat="42.98166" lon="0.75601">
        <ele>533.083313</ele>
        <time>2012-08-22T07:05:54Z</time>
      </trkpt>
      <trkpt lat="42.9815" lon="0.75611">
        <ele>533.083313</ele>
        <time>2012-08-22T07:05:59Z</time>
      </trkpt>
      <trkpt lat="42.98133" lon="0.75623">
        <ele>533.083313</ele>
        <time>2012-08-22T07:06:04Z</time>
      </trkpt>
      <trkpt lat="42.98117" lon="0.75642">
        <ele>533.083313</ele>
        <time>2012-08-22T07:06:10Z</time>
      </trkpt>
      <trkpt lat="42.98103" lon="0.75662">
        <ele>536.5</ele>
        <time>2012-08-22T07:06:16Z</time>
      </trkpt>
      <trkpt lat="42.98089" lon="0.75681">
        <ele>536.5</ele>
        <time>2012-08-22T07:06:23Z</time>
      </trkpt>
      <trkpt lat="42.98069" lon="0.75686">
        <ele>536.5</ele>
        <time>2012-08-22T07:06:31Z</time>
      </trkpt>
      <trkpt lat="42.9805" lon="0.75679">
        <ele>536.5</ele>
        <time>2012-08-22T07:06:38Z</time>
      </trkpt>
      <trkpt lat="42.9803" lon="0.75674">
        <ele>536.5</ele>
        <time>2012-08-22T07:06:46Z</time>
      </trkpt>
      <trkpt lat="42.98011" lon="0.75677">
        <ele>536.5</ele>
        <time>2012-08-22T07:06:53Z</time>
      </trkpt>
      <trkpt lat="42.9799" lon="0.75677">
        <ele>536.5</ele>
        <time>2012-08-22T07:06:59Z</time>
      </trkpt>
      <trkpt lat="42.97972" lon="0.75684">
        <ele>536.5</ele>
        <time>2012-08-22T07:07:05Z</time>
      </trkpt>
      <trkpt lat="42.9796" lon="0.75707">
        <ele>550.166687</ele>
        <time>2012-08-22T07:07:11Z</time>
      </trkpt>
      <trkpt lat="42.97949" lon="0.75726">
        <ele>550.166687</ele>
        <time>2012-08-22T07:07:18Z</time>
      </trkpt>
      <trkpt lat="42.97933" lon="0.75742">
        <ele>550.166687</ele>
        <time>2012-08-22T07:07:25Z</time>
      </trkpt>
      <trkpt lat="42.97917" lon="0.75756">
        <ele>550.166687</ele>
        <time>2012-08-22T07:07:32Z</time>
      </trkpt>
      <trkpt lat="42.97904" lon="0.75777">
        <ele>550.166687</ele>
        <time>2012-08-22T07:07:40Z</time>
      </trkpt>
      <trkpt lat="42.97889" lon="0.75791">
        <ele>550.166687</ele>
        <time>2012-08-22T07:07:47Z</time>
      </trkpt>
      <trkpt lat="42.97872" lon="0.75807">
        <ele>550.166687</ele>
        <time>2012-08-22T07:07:53Z</time>
      </trkpt>
      <trkpt lat="42.9784" lon="0.75838">
        <ele>550.166687</ele>
        <time>2012-08-22T07:08:04Z</time>
      </trkpt>
      <trkpt lat="42.97823" lon="0.75852">
        <ele>564.333313</ele>
        <time>2012-08-22T07:08:11Z</time>
      </trkpt>
      <trkpt lat="42.9781" lon="0.75834">
        <ele>564.333313</ele>
        <time>2012-08-22T07:08:23Z</time>
      </trkpt>
      <trkpt lat="42.97811" lon="0.7581">
        <ele>564.333313</ele>
        <time>2012-08-22T07:08:31Z</time>
      </trkpt>
      <trkpt lat="42.97811" lon="0.75782">
        <ele>564.333313</ele>
        <time>2012-08-22T07:08:42Z</time>
      </trkpt>
      <trkpt lat="42.97802" lon="0.75749">
        <ele>564.333313</ele>
        <time>2012-08-22T07:08:47Z</time>
      </trkpt>
      <trkpt lat="42.97792" lon="0.75693">
        <ele>564.333313</ele>
        <time>2012-08-22T07:08:54Z</time>
      </trkpt>
      <trkpt lat="42.97781" lon="0.75633">
        <ele>564.333313</ele>
        <time>2012-08-22T07:09:00Z</time>
      </trkpt>
      <trkpt lat="42.97791" lon="0.75575">
        <ele>576.583313</ele>
        <time>2012-08-22T07:09:06Z</time>
      </trkpt>
      <trkpt lat="42.97819" lon="0.75524">
        <ele>576.583313</ele>
        <time>2012-08-22T07:09:33Z</time>
      </trkpt>
      <trkpt lat="42.97851" lon="0.75492">
        <ele>576.583313</ele>
        <time>2012-08-22T07:09:39Z</time>
      </trkpt>
      <trkpt lat="42.97881" lon="0.75454">
        <ele>576.583313</ele>
        <time>2012-08-22T07:09:45Z</time>
      </trkpt>
      <trkpt lat="42.97892" lon="0.75386">
        <ele>576.583313</ele>
        <time>2012-08-22T07:09:51Z</time>
      </trkpt>
      <trkpt lat="42.97881" lon="0.75321">
        <ele>576.583313</ele>
        <time>2012-08-22T07:09:57Z</time>
      </trkpt>
      <trkpt lat="42.97903" lon="0.75266">
        <ele>578.333313</ele>
        <time>2012-08-22T07:10:03Z</time>
      </trkpt>
      <trkpt lat="42.97952" lon="0.75264">
        <ele>578.333313</ele>
        <time>2012-08-22T07:10:08Z</time>
      </trkpt>
      <trkpt lat="42.97999" lon="0.75255">
        <ele>578.333313</ele>
        <time>2012-08-22T07:10:13Z</time>
      </trkpt>
      <trkpt lat="42.98038" lon="0.75196">
        <ele>578.333313</ele>
        <time>2012-08-22T07:10:20Z</time>
      </trkpt>
      <trkpt lat="42.98027" lon="0.75117">
        <ele>578.333313</ele>
        <time>2012-08-22T07:10:26Z</time>
      </trkpt>
      <trkpt lat="42.98024" lon="0.75036">
        <ele>578.333313</ele>
        <time>2012-08-22T07:10:32Z</time>
      </trkpt>
      <trkpt lat="42.98056" lon="0.74987">
        <ele>578.333313</ele>
        <time>2012-08-22T07:10:37Z</time>
      </trkpt>
      <trkpt lat="42.98114" lon="0.74974">
        <ele>578.333313</ele>
        <time>2012-08-22T07:10:43Z</time>
      </trkpt>
      <trkpt lat="42.98177" lon="0.74961">
        <ele>578.333313</ele>
        <time>2012-08-22T07:10:49Z</time>
      </trkpt>
      <trkpt lat="42.98237" lon="0.74924">
        <ele>578.333313</ele>
        <time>2012-08-22T07:10:55Z</time>
      </trkpt>
      <trkpt lat="42.98285" lon="0.74869">
        <ele>578.333313</ele>
        <time>2012-08-22T07:11:01Z</time>
      </trkpt>
      <trkpt lat="42.98332" lon="0.74815">
        <ele>575.416687</ele>
        <time>2012-08-22T07:11:07Z</time>
      </trkpt>
      <trkpt lat="42.98383" lon="0.74762">
        <ele>575.416687</ele>
        <time>2012-08-22T07:11:13Z</time>
      </trkpt>
      <trkpt lat="42.98443" lon="0.74727">
        <ele>575.416687</ele>
        <time>2012-08-22T07:11:19Z</time>
      </trkpt>
      <trkpt lat="42.98507" lon="0.74714">
        <ele>575.416687</ele>
        <time>2012-08-22T07:11:25Z</time>
      </trkpt>
      <trkpt lat="42.98582" lon="0.74686">
        <ele>575.416687</ele>
        <time>2012-08-22T07:11:31Z</time>
      </trkpt>
      <trkpt lat="42.98648" lon="0.74639">
        <ele>575.416687</ele>
        <time>2012-08-22T07:11:37Z</time>
      </trkpt>
      <trkpt lat="42.98698" lon="0.74577">
        <ele>575.416687</ele>
        <time>2012-08-22T07:11:43Z</time>
      </trkpt>
      <trkpt lat="42.98726" lon="0.74495">
        <ele>575.416687</ele>
        <time>2012-08-22T07:11:49Z</time>
      </trkpt>
      <trkpt lat="42.98682" lon="0.74406">
        <ele>575.416687</ele>
        <time>2012-08-22T07:11:55Z</time>
      </trkpt>
      <trkpt lat="42.98663" lon="0.74336">
        <ele>575.416687</ele>
        <time>2012-08-22T07:12:01Z</time>
      </trkpt>
      <trkpt lat="42.98699" lon="0.74294">
        <ele>570.833313</ele>
        <time>2012-08-22T07:12:06Z</time>
      </trkpt>
      <trkpt lat="42.98743" lon="0.74233">
        <ele>570.833313</ele>
        <time>2012-08-22T07:12:12Z</time>
      </trkpt>
      <trkpt lat="42.98759" lon="0.74152">
        <ele>570.833313</ele>
        <time>2012-08-22T07:12:18Z</time>
      </trkpt>
      <trkpt lat="42.98767" lon="0.7406">
        <ele>570.833313</ele>
        <time>2012-08-22T07:12:25Z</time>
      </trkpt>
      <trkpt lat="42.98744" lon="0.74001">
        <ele>570.833313</ele>
        <time>2012-08-22T07:12:31Z</time>
      </trkpt>
      <trkpt lat="42.98719" lon="0.73959">
        <ele>570.833313</ele>
        <time>2012-08-22T07:12:36Z</time>
      </trkpt>
      <trkpt lat="42.98707" lon="0.73892">
        <ele>570.833313</ele>
        <time>2012-08-22T07:12:42Z</time>
      </trkpt>
      <trkpt lat="42.9869" lon="0.73832">
        <ele>570.833313</ele>
        <time>2012-08-22T07:12:47Z</time>
      </trkpt>
      <trkpt lat="42.98656" lon="0.73754">
        <ele>570.833313</ele>
        <time>2012-08-22T07:12:55Z</time>
      </trkpt>
      <trkpt lat="42.98619" lon="0.73721">
        <ele>570.833313</ele>
        <time>2012-08-22T07:13:01Z</time>
      </trkpt>
      <trkpt lat="42.98579" lon="0.73702">
        <ele>543.583313</ele>
        <time>2012-08-22T07:13:07Z</time>
      </trkpt>
      <trkpt lat="42.9855" lon="0.73662">
        <ele>543.583313</ele>
        <time>2012-08-22T07:13:14Z</time>
      </trkpt>
      <trkpt lat="42.9854" lon="0.7361">
        <ele>543.583313</ele>
        <time>2012-08-22T07:13:21Z</time>
      </trkpt>
      <trkpt lat="42.98523" lon="0.73562">
        <ele>543.583313</ele>
        <time>2012-08-22T07:13:31Z</time>
      </trkpt>
      <trkpt lat="42.98507" lon="0.73516">
        <ele>543.583313</ele>
        <time>2012-08-22T07:13:39Z</time>
      </trkpt>
      <trkpt lat="42.98494" lon="0.73468">
        <ele>543.583313</ele>
        <time>2012-08-22T07:13:49Z</time>
      </trkpt>
      <trkpt lat="42.98493" lon="0.73417">
        <ele>543.583313</ele>
        <time>2012-08-22T07:13:59Z</time>
      </trkpt>
      <trkpt lat="42.98493" lon="0.7339">
        <ele>543.583313</ele>
        <time>2012-08-22T07:14:04Z</time>
      </trkpt>
      <trkpt lat="42.98493" lon="0.73338">
        <ele>505.916656</ele>
        <time>2012-08-22T07:14:12Z</time>
      </trkpt>
      <trkpt lat="42.98496" lon="0.73284">
        <ele>505.916656</ele>
        <time>2012-08-22T07:14:21Z</time>
      </trkpt>
      <trkpt lat="42.98495" lon="0.7323">
        <ele>505.916656</ele>
        <time>2012-08-22T07:14:31Z</time>
      </trkpt>
      <trkpt lat="42.98489" lon="0.73205">
        <ele>505.916656</ele>
        <time>2012-08-22T07:14:36Z</time>
      </trkpt>
      <trkpt lat="42.98481" lon="0.7315">
        <ele>505.916656</ele>
        <time>2012-08-22T07:14:44Z</time>
      </trkpt>
      <trkpt lat="42.98466" lon="0.73101">
        <ele>505.916656</ele>
        <time>2012-08-22T07:14:50Z</time>
      </trkpt>
      <trkpt lat="42.98445" lon="0.73052">
        <ele>505.916656</ele>
        <time>2012-08-22T07:14:59Z</time>
      </trkpt>
      <trkpt lat="42.98439" lon="0.73026">
        <ele>505.916656</ele>
        <time>2012-08-22T07:15:04Z</time>
      </trkpt>
      <trkpt lat="42.98435" lon="0.72999">
        <ele>502</ele>
        <time>2012-08-22T07:15:09Z</time>
      </trkpt>
      <trkpt lat="42.9844" lon="0.72948">
        <ele>502</ele>
        <time>2012-08-22T07:15:20Z</time>
      </trkpt>
      <trkpt lat="42.98437" lon="0.7292">
        <ele>502</ele>
        <time>2012-08-22T07:15:27Z</time>
      </trkpt>
      <trkpt lat="42.98429" lon="0.72896">
        <ele>502</ele>
        <time>2012-08-22T07:15:33Z</time>
      </trkpt>
      <trkpt lat="42.98405" lon="0.72824">
        <ele>502</ele>
        <time>2012-08-22T07:15:50Z</time>
      </trkpt>
      <trkpt lat="42.98399" lon="0.72797">
        <ele>502</ele>
        <time>2012-08-22T07:15:56Z</time>
      </trkpt>
      <trkpt lat="42.98388" lon="0.72776">
        <ele>502</ele>
        <time>2012-08-22T07:16:02Z</time>
      </trkpt>
      <trkpt lat="42.98375" lon="0.72755">
        <ele>502</ele>
        <time>2012-08-22T07:16:09Z</time>
      </trkpt>
      <trkpt lat="42.9836" lon="0.72735">
        <ele>504.416656</ele>
        <time>2012-08-22T07:16:15Z</time>
      </trkpt>
      <trkpt lat="42.98346" lon="0.72715">
        <ele>504.416656</ele>
        <time>2012-08-22T07:16:21Z</time>
      </trkpt>
      <trkpt lat="42.98335" lon="0.72693">
        <ele>504.416656</ele>
        <time>2012-08-22T07:16:27Z</time>
      </trkpt>
      <trkpt lat="42.98326" lon="0.72643">
        <ele>504.416656</ele>
        <time>2012-08-22T07:16:38Z</time>
      </trkpt>
      <trkpt lat="42.98322" lon="0.72617">
        <ele>504.416656</ele>
        <time>2012-08-22T07:16:44Z</time>
      </trkpt>
      <trkpt lat="42.98317" lon="0.72592">
        <ele>504.416656</ele>
        <time>2012-08-22T07:16:50Z</time>
      </trkpt>
      <trkpt lat="42.98314" lon="0.72564">
        <ele>504.416656</ele>
        <time>2012-08-22T07:16:57Z</time>
      </trkpt>
      <trkpt lat="42.98318" lon="0.72538">
        <ele>504.416656</ele>
        <time>2012-08-22T07:17:04Z</time>
      </trkpt>
      <trkpt lat="42.98329" lon="0.72518">
        <ele>520.166687</ele>
        <time>2012-08-22T07:17:10Z</time>
      </trkpt>
      <trkpt lat="42.9833" lon="0.72492">
        <ele>520.166687</ele>
        <time>2012-08-22T07:17:18Z</time>
      </trkpt>
      <trkpt lat="42.98312" lon="0.72448">
        <ele>520.166687</ele>
        <time>2012-08-22T07:17:27Z</time>
      </trkpt>
      <trkpt lat="42.98316" lon="0.72395">
        <ele>520.166687</ele>
        <time>2012-08-22T07:17:38Z</time>
      </trkpt>
      <trkpt lat="42.98319" lon="0.72367">
        <ele>520.166687</ele>
        <time>2012-08-22T07:17:44Z</time>
      </trkpt>
      <trkpt lat="42.98319" lon="0.72314">
        <ele>520.166687</ele>
        <time>2012-08-22T07:17:56Z</time>
      </trkpt>
      <trkpt lat="42.98319" lon="0.72285">
        <ele>520.166687</ele>
        <time>2012-08-22T07:18:04Z</time>
      </trkpt>
      <trkpt lat="42.9832" lon="0.72257">
        <ele>520.166687</ele>
        <time>2012-08-22T07:18:10Z</time>
      </trkpt>
      <trkpt lat="42.98316" lon="0.7223">
        <ele>526.833313</ele>
        <time>2012-08-22T07:18:18Z</time>
      </trkpt>
      <trkpt lat="42.98315" lon="0.72202">
        <ele>526.833313</ele>
        <time>2012-08-22T07:18:24Z</time>
      </trkpt>
      <trkpt lat="42.98309" lon="0.72175">
        <ele>526.833313</ele>
        <time>2012-08-22T07:18:30Z</time>
      </trkpt>
      <trkpt lat="42.98303" lon="0.72152">
        <ele>526.833313</ele>
        <time>2012-08-22T07:18:35Z</time>
      </trkpt>
      <trkpt lat="42.98295" lon="0.72127">
        <ele>526.833313</ele>
        <time>2012-08-22T07:18:41Z</time>
      </trkpt>
      <trkpt lat="42.9829" lon="0.72102">
        <ele>526.833313</ele>
        <time>2012-08-22T07:18:47Z</time>
      </trkpt>
      <trkpt lat="42.98284" lon="0.72077">
        <ele>526.833313</ele>
        <time>2012-08-22T07:18:53Z</time>
      </trkpt>
      <trkpt lat="42.98278" lon="0.72053">
        <ele>526.833313</ele>
        <time>2012-08-22T07:18:59Z</time>
      </trkpt>
      <trkpt lat="42.98291" lon="0.72004">
        <ele>526.833313</ele>
        <time>2012-08-22T07:19:10Z</time>
      </trkpt>
      <trkpt lat="42.98306" lon="0.71986">
        <ele>539</ele>
        <time>2012-08-22T07:19:16Z</time>
      </trkpt>
      <trkpt lat="42.98315" lon="0.71961">
        <ele>539</ele>
        <time>2012-08-22T07:19:22Z</time>
      </trkpt>
      <trkpt lat="42.9832" lon="0.71933">
        <ele>539</ele>
        <time>2012-08-22T07:19:29Z</time>
      </trkpt>
      <trkpt lat="42.98327" lon="0.71911">
        <ele>539</ele>
        <time>2012-08-22T07:19:35Z</time>
      </trkpt>
      <trkpt lat="42.98337" lon="0.71889">
        <ele>539</ele>
        <time>2012-08-22T07:19:42Z</time>
      </trkpt>
      <trkpt lat="42.98342" lon="0.71865">
        <ele>539</ele>
        <time>2012-08-22T07:19:49Z</time>
      </trkpt>
      <trkpt lat="42.98344" lon="0.71838">
        <ele>539</ele>
        <time>2012-08-22T07:19:56Z</time>
      </trkpt>
      <trkpt lat="42.98345" lon="0.71811">
        <ele>539</ele>
        <time>2012-08-22T07:20:01Z</time>
      </trkpt>
      <trkpt lat="42.98327" lon="0.71766">
        <ele>555.5</ele>
        <time>2012-08-22T07:20:10Z</time>
      </trkpt>
      <trkpt lat="42.98307" lon="0.71754">
        <ele>555.5</ele>
        <time>2012-08-22T07:20:16Z</time>
      </trkpt>
      <trkpt lat="42.9829" lon="0.71744">
        <ele>555.5</ele>
        <time>2012-08-22T07:20:21Z</time>
      </trkpt>
      <trkpt lat="42.98269" lon="0.71756">
        <ele>555.5</ele>
        <time>2012-08-22T07:20:26Z</time>
      </trkpt>
      <trkpt lat="42.98234" lon="0.71779">
        <ele>555.5</ele>
        <time>2012-08-22T07:20:35Z</time>
      </trkpt>
      <trkpt lat="42.98217" lon="0.71764">
        <ele>555.5</ele>
        <time>2012-08-22T07:20:42Z</time>
      </trkpt>
      <trkpt lat="42.98225" lon="0.71738">
        <ele>555.5</ele>
        <time>2012-08-22T07:20:48Z</time>
      </trkpt>
      <trkpt lat="42.98236" lon="0.71714">
        <ele>555.5</ele>
        <time>2012-08-22T07:20:53Z</time>
      </trkpt>
      <trkpt lat="42.98256" lon="0.7167">
        <ele>555.5</ele>
        <time>2012-08-22T07:21:03Z</time>
      </trkpt>
      <trkpt lat="42.98263" lon="0.71644">
        <ele>565.416687</ele>
        <time>2012-08-22T07:21:09Z</time>
      </trkpt>
      <trkpt lat="42.98262" lon="0.71618">
        <ele>565.416687</ele>
        <time>2012-08-22T07:21:16Z</time>
      </trkpt>
      <trkpt lat="42.9826" lon="0.71592">
        <ele>565.416687</ele>
        <time>2012-08-22T07:21:23Z</time>
      </trkpt>
      <trkpt lat="42.98258" lon="0.71567">
        <ele>565.416687</ele>
        <time>2012-08-22T07:21:29Z</time>
      </trkpt>
      <trkpt lat="42.98251" lon="0.71541">
        <ele>565.416687</ele>
        <time>2012-08-22T07:21:35Z</time>
      </trkpt>
      <trkpt lat="42.98234" lon="0.71527">
        <ele>565.416687</ele>
        <time>2012-08-22T07:21:41Z</time>
      </trkpt>
      <trkpt lat="42.98214" lon="0.71523">
        <ele>565.416687</ele>
        <time>2012-08-22T07:21:47Z</time>
      </trkpt>
      <trkpt lat="42.98193" lon="0.71516">
        <ele>565.416687</ele>
        <time>2012-08-22T07:21:53Z</time>
      </trkpt>
      <trkpt lat="42.98176" lon="0.715">
        <ele>565.416687</ele>
        <time>2012-08-22T07:21:59Z</time>
      </trkpt>
      <trkpt lat="42.98167" lon="0.71478">
        <ele>565.416687</ele>
        <time>2012-08-22T07:22:05Z</time>
      </trkpt>
      <trkpt lat="42.98163" lon="0.71452">
        <ele>572.916687</ele>
        <time>2012-08-22T07:22:12Z</time>
      </trkpt>
      <trkpt lat="42.98162" lon="0.71425">
        <ele>572.916687</ele>
        <time>2012-08-22T07:22:20Z</time>
      </trkpt>
      <trkpt lat="42.98175" lon="0.71404">
        <ele>572.916687</ele>
        <time>2012-08-22T07:22:26Z</time>
      </trkpt>
      <trkpt lat="42.98206" lon="0.71373">
        <ele>572.916687</ele>
        <time>2012-08-22T07:22:38Z</time>
      </trkpt>
      <trkpt lat="42.98223" lon="0.7136">
        <ele>572.916687</ele>
        <time>2012-08-22T07:22:46Z</time>
      </trkpt>
      <trkpt lat="42.98239" lon="0.71345">
        <ele>572.916687</ele>
        <time>2012-08-22T07:22:52Z</time>
      </trkpt>
      <trkpt lat="42.98249" lon="0.71321">
        <ele>572.916687</ele>
        <time>2012-08-22T07:22:59Z</time>
      </trkpt>
      <trkpt lat="42.98253" lon="0.71294">
        <ele>572.916687</ele>
        <time>2012-08-22T07:23:07Z</time>
      </trkpt>
      <trkpt lat="42.98245" lon="0.71267">
        <ele>586.75</ele>
        <time>2012-08-22T07:23:13Z</time>
      </trkpt>
      <trkpt lat="42.98222" lon="0.71217">
        <ele>586.75</ele>
        <time>2012-08-22T07:23:21Z</time>
      </trkpt>
      <trkpt lat="42.98196" lon="0.71173">
        <ele>586.75</ele>
        <time>2012-08-22T07:23:31Z</time>
      </trkpt>
      <trkpt lat="42.98184" lon="0.7115">
        <ele>586.75</ele>
        <time>2012-08-22T07:23:37Z</time>
      </trkpt>
      <trkpt lat="42.98172" lon="0.71127">
        <ele>586.75</ele>
        <time>2012-08-22T07:23:43Z</time>
      </trkpt>
      <trkpt lat="42.98164" lon="0.71075">
        <ele>586.75</ele>
        <time>2012-08-22T07:23:53Z</time>
      </trkpt>
      <trkpt lat="42.9816" lon="0.71049">
        <ele>586.75</ele>
        <time>2012-08-22T07:23:58Z</time>
      </trkpt>
      <trkpt lat="42.98161" lon="0.71">
        <ele>586.75</ele>
        <time>2012-08-22T07:24:09Z</time>
      </trkpt>
      <trkpt lat="42.98163" lon="0.70975">
        <ele>601</ele>
        <time>2012-08-22T07:24:15Z</time>
      </trkpt>
      <trkpt lat="42.98157" lon="0.70948">
        <ele>601</ele>
        <time>2012-08-22T07:24:23Z</time>
      </trkpt>
      <trkpt lat="42.98144" lon="0.70926">
        <ele>601</ele>
        <time>2012-08-22T07:24:29Z</time>
      </trkpt>
      <trkpt lat="42.98135" lon="0.709">
        <ele>601</ele>
        <time>2012-08-22T07:24:36Z</time>
      </trkpt>
      <trkpt lat="42.98126" lon="0.70875">
        <ele>601</ele>
        <time>2012-08-22T07:24:42Z</time>
      </trkpt>
      <trkpt lat="42.98122" lon="0.70851">
        <ele>601</ele>
        <time>2012-08-22T07:24:47Z</time>
      </trkpt>
      <trkpt lat="42.98127" lon="0.70825">
        <ele>601</ele>
        <time>2012-08-22T07:24:53Z</time>
      </trkpt>
      <trkpt lat="42.98135" lon="0.70799">
        <ele>601</ele>
        <time>2012-08-22T07:25:00Z</time>
      </trkpt>
      <trkpt lat="42.98136" lon="0.70772">
        <ele>613.916687</ele>
        <time>2012-08-22T07:25:07Z</time>
      </trkpt>
      <trkpt lat="42.98121" lon="0.70754">
        <ele>613.916687</ele>
        <time>2012-08-22T07:25:14Z</time>
      </trkpt>
      <trkpt lat="42.98104" lon="0.70741">
        <ele>613.916687</ele>
        <time>2012-08-22T07:25:19Z</time>
      </trkpt>
      <trkpt lat="42.98079" lon="0.70701">
        <ele>613.916687</ele>
        <time>2012-08-22T07:25:28Z</time>
      </trkpt>
      <trkpt lat="42.98075" lon="0.70674">
        <ele>613.916687</ele>
        <time>2012-08-22T07:25:33Z</time>
      </trkpt>
      <trkpt lat="42.98073" lon="0.70645">
        <ele>613.916687</ele>
        <time>2012-08-22T07:25:39Z</time>
      </trkpt>
      <trkpt lat="42.9807" lon="0.70573">
        <ele>613.916687</ele>
        <time>2012-08-22T07:25:57Z</time>
      </trkpt>
      <trkpt lat="42.98063" lon="0.70546">
        <ele>613.916687</ele>
        <time>2012-08-22T07:26:04Z</time>
      </trkpt>
      <trkpt lat="42.98063" lon="0.70494">
        <ele>613.916687</ele>
        <time>2012-08-22T07:26:15Z</time>
      </trkpt>
      <trkpt lat="42.98058" lon="0.70466">
        <ele>613.916687</ele>
        <time>2012-08-22T07:26:21Z</time>
      </trkpt>
      <trkpt lat="42.98039" lon="0.70416">
        <ele>624.583313</ele>
        <time>2012-08-22T07:26:32Z</time>
      </trkpt>
      <trkpt lat="42.9803" lon="0.70391">
        <ele>624.583313</ele>
        <time>2012-08-22T07:26:38Z</time>
      </trkpt>
      <trkpt lat="42.98032" lon="0.70363">
        <ele>624.583313</ele>
        <time>2012-08-22T07:26:45Z</time>
      </trkpt>
      <trkpt lat="42.98029" lon="0.70337">
        <ele>624.583313</ele>
        <time>2012-08-22T07:26:51Z</time>
      </trkpt>
      <trkpt lat="42.98028" lon="0.70285">
        <ele>624.583313</ele>
        <time>2012-08-22T07:27:01Z</time>
      </trkpt>
      <trkpt lat="42.98018" lon="0.70263">
        <ele>624.583313</ele>
        <time>2012-08-22T07:27:06Z</time>
      </trkpt>
      <trkpt lat="42.98001" lon="0.70246">
        <ele>634.166687</ele>
        <time>2012-08-22T07:27:11Z</time>
      </trkpt>
      <trkpt lat="42.98009" lon="0.7021">
        <ele>634.166687</ele>
        <time>2012-08-22T07:27:22Z</time>
      </trkpt>
      <trkpt lat="42.98032" lon="0.70253">
        <ele>634.166687</ele>
        <time>2012-08-22T07:27:32Z</time>
      </trkpt>
      <trkpt lat="42.98038" lon="0.70276">
        <ele>634.166687</ele>
        <time>2012-08-22T07:27:37Z</time>
      </trkpt>
      <trkpt lat="42.98046" lon="0.70301">
        <ele>634.166687</ele>
        <time>2012-08-22T07:27:43Z</time>
      </trkpt>
      <trkpt lat="42.98052" lon="0.70325">
        <ele>634.166687</ele>
        <time>2012-08-22T07:27:50Z</time>
      </trkpt>
      <trkpt lat="42.98061" lon="0.70347">
        <ele>634.166687</ele>
        <time>2012-08-22T07:27:57Z</time>
      </trkpt>
      <trkpt lat="42.98068" lon="0.70373">
        <ele>634.166687</ele>
        <time>2012-08-22T07:28:03Z</time>
      </trkpt>
      <trkpt lat="42.98084" lon="0.70422">
        <ele>634.166687</ele>
        <time>2012-08-22T07:28:15Z</time>
      </trkpt>
      <trkpt lat="42.98091" lon="0.70446">
        <ele>642.833313</ele>
        <time>2012-08-22T07:28:21Z</time>
      </trkpt>
      <trkpt lat="42.98093" lon="0.70471">
        <ele>642.833313</ele>
        <time>2012-08-22T07:28:27Z</time>
      </trkpt>
      <trkpt lat="42.98093" lon="0.70498">
        <ele>642.833313</ele>
        <time>2012-08-22T07:28:33Z</time>
      </trkpt>
      <trkpt lat="42.98095" lon="0.70526">
        <ele>642.833313</ele>
        <time>2012-08-22T07:28:39Z</time>
      </trkpt>
      <trkpt lat="42.98102" lon="0.70551">
        <ele>642.833313</ele>
        <time>2012-08-22T07:28:45Z</time>
      </trkpt>
      <trkpt lat="42.98107" lon="0.70576">
        <ele>642.833313</ele>
        <time>2012-08-22T07:28:51Z</time>
      </trkpt>
      <trkpt lat="42.98113" lon="0.70599">
        <ele>642.833313</ele>
        <time>2012-08-22T07:28:56Z</time>
      </trkpt>
      <trkpt lat="42.98139" lon="0.70636">
        <ele>642.833313</ele>
        <time>2012-08-22T07:29:07Z</time>
      </trkpt>
      <trkpt lat="42.98172" lon="0.70658">
        <ele>652.75</ele>
        <time>2012-08-22T07:30:11Z</time>
      </trkpt>
      <trkpt lat="42.98199" lon="0.70698">
        <ele>652.75</ele>
        <time>2012-08-22T07:30:21Z</time>
      </trkpt>
      <trkpt lat="42.98203" lon="0.70723">
        <ele>652.75</ele>
        <time>2012-08-22T07:30:26Z</time>
      </trkpt>
      <trkpt lat="42.98206" lon="0.70777">
        <ele>652.75</ele>
        <time>2012-08-22T07:30:35Z</time>
      </trkpt>
      <trkpt lat="42.98228" lon="0.70828">
        <ele>660.5</ele>
        <time>2012-08-22T07:30:42Z</time>
      </trkpt>
      <trkpt lat="42.98262" lon="0.70864">
        <ele>660.5</ele>
        <time>2012-08-22T07:30:50Z</time>
      </trkpt>
      <trkpt lat="42.98292" lon="0.70898">
        <ele>660.5</ele>
        <time>2012-08-22T07:31:00Z</time>
      </trkpt>
      <trkpt lat="42.98318" lon="0.70945">
        <ele>660.5</ele>
        <time>2012-08-22T07:31:08Z</time>
      </trkpt>
      <trkpt lat="42.9832" lon="0.7097">
        <ele>660.5</ele>
        <time>2012-08-22T07:31:13Z</time>
      </trkpt>
      <trkpt lat="42.98331" lon="0.71022">
        <ele>674.166687</ele>
        <time>2012-08-22T07:31:22Z</time>
      </trkpt>
      <trkpt lat="42.98362" lon="0.71055">
        <ele>674.166687</ele>
        <time>2012-08-22T07:31:30Z</time>
      </trkpt>
      <trkpt lat="42.98401" lon="0.71068">
        <ele>674.166687</ele>
        <time>2012-08-22T07:31:40Z</time>
      </trkpt>
      <trkpt lat="42.98428" lon="0.71106">
        <ele>674.166687</ele>
        <time>2012-08-22T07:31:48Z</time>
      </trkpt>
      <trkpt lat="42.98456" lon="0.71144">
        <ele>674.166687</ele>
        <time>2012-08-22T07:31:56Z</time>
      </trkpt>
      <trkpt lat="42.98483" lon="0.71185">
        <ele>674.166687</ele>
        <time>2012-08-22T07:32:03Z</time>
      </trkpt>
      <trkpt lat="42.98517" lon="0.71222">
        <ele>674.166687</ele>
        <time>2012-08-22T07:32:13Z</time>
      </trkpt>
      <trkpt lat="42.98552" lon="0.71242">
        <ele>677</ele>
        <time>2012-08-22T07:32:21Z</time>
      </trkpt>
      <trkpt lat="42.98572" lon="0.71254">
        <ele>677</ele>
        <time>2012-08-22T07:32:26Z</time>
      </trkpt>
      <trkpt lat="42.9859" lon="0.71264">
        <ele>677</ele>
        <time>2012-08-22T07:32:31Z</time>
      </trkpt>
      <trkpt lat="42.98626" lon="0.71281">
        <ele>677</ele>
        <time>2012-08-22T07:32:39Z</time>
      </trkpt>
      <trkpt lat="42.98662" lon="0.71287">
        <ele>677</ele>
        <time>2012-08-22T07:32:47Z</time>
      </trkpt>
      <trkpt lat="42.98702" lon="0.71289">
        <ele>677</ele>
        <time>2012-08-22T07:32:56Z</time>
      </trkpt>
      <trkpt lat="42.98722" lon="0.71284">
        <ele>677</ele>
        <time>2012-08-22T07:33:01Z</time>
      </trkpt>
      <trkpt lat="42.98764" lon="0.71273">
        <ele>677</ele>
        <time>2012-08-22T07:33:12Z</time>
      </trkpt>
      <trkpt lat="42.98803" lon="0.71273">
        <ele>684.833313</ele>
        <time>2012-08-22T07:33:22Z</time>
      </trkpt>
      <trkpt lat="42.98822" lon="0.71275">
        <ele>684.833313</ele>
        <time>2012-08-22T07:33:28Z</time>
      </trkpt>
      <trkpt lat="42.9884" lon="0.71277">
        <ele>684.833313</ele>
        <time>2012-08-22T07:33:34Z</time>
      </trkpt>
      <trkpt lat="42.98859" lon="0.71276">
        <ele>684.833313</ele>
        <time>2012-08-22T07:33:39Z</time>
      </trkpt>
      <trkpt lat="42.9888" lon="0.71266">
        <ele>684.833313</ele>
        <time>2012-08-22T07:33:44Z</time>
      </trkpt>
      <trkpt lat="42.98896" lon="0.71248">
        <ele>684.833313</ele>
        <time>2012-08-22T07:33:50Z</time>
      </trkpt>
      <trkpt lat="42.98905" lon="0.71223">
        <ele>684.833313</ele>
        <time>2012-08-22T07:33:56Z</time>
      </trkpt>
      <trkpt lat="42.98912" lon="0.71198">
        <ele>684.833313</ele>
        <time>2012-08-22T07:34:02Z</time>
      </trkpt>
      <trkpt lat="42.98921" lon="0.71177">
        <ele>693.5</ele>
        <time>2012-08-22T07:34:08Z</time>
      </trkpt>
      <trkpt lat="42.9893" lon="0.71155">
        <ele>693.5</ele>
        <time>2012-08-22T07:34:14Z</time>
      </trkpt>
      <trkpt lat="42.98935" lon="0.71132">
        <ele>693.5</ele>
        <time>2012-08-22T07:34:19Z</time>
      </trkpt>
      <trkpt lat="42.98936" lon="0.71102">
        <ele>693.5</ele>
        <time>2012-08-22T07:34:24Z</time>
      </trkpt>
      <trkpt lat="42.98937" lon="0.71045">
        <ele>693.5</ele>
        <time>2012-08-22T07:34:34Z</time>
      </trkpt>
      <trkpt lat="42.98938" lon="0.71018">
        <ele>693.5</ele>
        <time>2012-08-22T07:34:39Z</time>
      </trkpt>
      <trkpt lat="42.98942" lon="0.70992">
        <ele>693.5</ele>
        <time>2012-08-22T07:34:45Z</time>
      </trkpt>
      <trkpt lat="42.98945" lon="0.70968">
        <ele>693.5</ele>
        <time>2012-08-22T07:34:52Z</time>
      </trkpt>
      <trkpt lat="42.98946" lon="0.70941">
        <ele>693.5</ele>
        <time>2012-08-22T07:34:59Z</time>
      </trkpt>
      <trkpt lat="42.98944" lon="0.70916">
        <ele>693.5</ele>
        <time>2012-08-22T07:35:07Z</time>
      </trkpt>
      <trkpt lat="42.98946" lon="0.70891">
        <ele>713.25</ele>
        <time>2012-08-22T07:35:13Z</time>
      </trkpt>
      <trkpt lat="42.98954" lon="0.70869">
        <ele>713.25</ele>
        <time>2012-08-22T07:35:18Z</time>
      </trkpt>
      <trkpt lat="42.98969" lon="0.70818">
        <ele>713.25</ele>
        <time>2012-08-22T07:35:30Z</time>
      </trkpt>
      <trkpt lat="42.98982" lon="0.70794">
        <ele>713.25</ele>
        <time>2012-08-22T07:35:36Z</time>
      </trkpt>
      <trkpt lat="42.99024" lon="0.70703">
        <ele>713.25</ele>
        <time>2012-08-22T07:35:56Z</time>
      </trkpt>
      <trkpt lat="42.9903" lon="0.70677">
        <ele>713.25</ele>
        <time>2012-08-22T07:36:03Z</time>
      </trkpt>
      <trkpt lat="42.99038" lon="0.70652">
        <ele>713.25</ele>
        <time>2012-08-22T07:36:08Z</time>
      </trkpt>
      <trkpt lat="42.99048" lon="0.70594">
        <ele>713.25</ele>
        <time>2012-08-22T07:36:18Z</time>
      </trkpt>
      <trkpt lat="42.99051" lon="0.7054">
        <ele>736.5</ele>
        <time>2012-08-22T07:36:28Z</time>
      </trkpt>
      <trkpt lat="42.99049" lon="0.70513">
        <ele>736.5</ele>
        <time>2012-08-22T07:36:34Z</time>
      </trkpt>
      <trkpt lat="42.99053" lon="0.70488">
        <ele>736.5</ele>
        <time>2012-08-22T07:36:40Z</time>
      </trkpt>
      <trkpt lat="42.99061" lon="0.70466">
        <ele>736.5</ele>
        <time>2012-08-22T07:36:45Z</time>
      </trkpt>
      <trkpt lat="42.99067" lon="0.70442">
        <ele>736.5</ele>
        <time>2012-08-22T07:36:51Z</time>
      </trkpt>
      <trkpt lat="42.99073" lon="0.70414">
        <ele>736.5</ele>
        <time>2012-08-22T07:36:57Z</time>
      </trkpt>
      <trkpt lat="42.99076" lon="0.70387">
        <ele>736.5</ele>
        <time>2012-08-22T07:37:03Z</time>
      </trkpt>
      <trkpt lat="42.99081" lon="0.70363">
        <ele>736.5</ele>
        <time>2012-08-22T07:37:09Z</time>
      </trkpt>
      <trkpt lat="42.99107" lon="0.70318">
        <ele>747.583313</ele>
        <time>2012-08-22T07:37:18Z</time>
      </trkpt>
      <trkpt lat="42.99141" lon="0.70287">
        <ele>747.583313</ele>
        <time>2012-08-22T07:37:26Z</time>
      </trkpt>
      <trkpt lat="42.99163" lon="0.70241">
        <ele>747.583313</ele>
        <time>2012-08-22T07:37:33Z</time>
      </trkpt>
      <trkpt lat="42.99163" lon="0.70216">
        <ele>747.583313</ele>
        <time>2012-08-22T07:37:38Z</time>
      </trkpt>
      <trkpt lat="42.99165" lon="0.70161">
        <ele>747.583313</ele>
        <time>2012-08-22T07:37:48Z</time>
      </trkpt>
      <trkpt lat="42.99167" lon="0.70105">
        <ele>747.583313</ele>
        <time>2012-08-22T07:37:56Z</time>
      </trkpt>
      <trkpt lat="42.99166" lon="0.70052">
        <ele>747.583313</ele>
        <time>2012-08-22T07:38:04Z</time>
      </trkpt>
      <trkpt lat="42.99158" lon="0.69995">
        <ele>747.583313</ele>
        <time>2012-08-22T07:38:10Z</time>
      </trkpt>
      <trkpt lat="42.99155" lon="0.6994">
        <ele>760.583313</ele>
        <time>2012-08-22T07:38:17Z</time>
      </trkpt>
      <trkpt lat="42.9916" lon="0.69884">
        <ele>760.583313</ele>
        <time>2012-08-22T07:38:25Z</time>
      </trkpt>
      <trkpt lat="42.99153" lon="0.69831">
        <ele>760.583313</ele>
        <time>2012-08-22T07:38:32Z</time>
      </trkpt>
      <trkpt lat="42.99149" lon="0.69772">
        <ele>760.583313</ele>
        <time>2012-08-22T07:38:40Z</time>
      </trkpt>
      <trkpt lat="42.99148" lon="0.69717">
        <ele>760.583313</ele>
        <time>2012-08-22T07:38:48Z</time>
      </trkpt>
      <trkpt lat="42.99143" lon="0.69658">
        <ele>760.583313</ele>
        <time>2012-08-22T07:38:56Z</time>
      </trkpt>
      <trkpt lat="42.99134" lon="0.69604">
        <ele>760.583313</ele>
        <time>2012-08-22T07:39:04Z</time>
      </trkpt>
      <trkpt lat="42.99124" lon="0.6955">
        <ele>760.583313</ele>
        <time>2012-08-22T07:39:13Z</time>
      </trkpt>
      <trkpt lat="42.99117" lon="0.69493">
        <ele>770.166687</ele>
        <time>2012-08-22T07:39:22Z</time>
      </trkpt>
      <trkpt lat="42.99115" lon="0.69435">
        <ele>770.166687</ele>
        <time>2012-08-22T07:39:31Z</time>
      </trkpt>
      <trkpt lat="42.99099" lon="0.69386">
        <ele>770.166687</ele>
        <time>2012-08-22T07:39:50Z</time>
      </trkpt>
      <trkpt lat="42.99054" lon="0.69337">
        <ele>770.166687</ele>
        <time>2012-08-22T07:41:50Z</time>
      </trkpt>
      <trkpt lat="42.99006" lon="0.6933">
        <ele>770.166687</ele>
        <time>2012-08-22T07:41:56Z</time>
      </trkpt>
      <trkpt lat="42.98965" lon="0.69359">
        <ele>770.166687</ele>
        <time>2012-08-22T07:42:01Z</time>
      </trkpt>
      <trkpt lat="42.98921" lon="0.6932">
        <ele>783.583313</ele>
        <time>2012-08-22T07:42:07Z</time>
      </trkpt>
      <trkpt lat="42.98881" lon="0.69253">
        <ele>799.083313</ele>
        <time>2012-08-22T07:42:13Z</time>
      </trkpt>
      <trkpt lat="42.98885" lon="0.69167">
        <ele>799.083313</ele>
        <time>2012-08-22T07:42:20Z</time>
      </trkpt>
      <trkpt lat="42.98871" lon="0.69085">
        <ele>799.083313</ele>
        <time>2012-08-22T07:42:26Z</time>
      </trkpt>
      <trkpt lat="42.98853" lon="0.69011">
        <ele>799.083313</ele>
        <time>2012-08-22T07:42:32Z</time>
      </trkpt>
      <trkpt lat="42.98822" lon="0.68939">
        <ele>799.083313</ele>
        <time>2012-08-22T07:42:38Z</time>
      </trkpt>
      <trkpt lat="42.98758" lon="0.68923">
        <ele>799.083313</ele>
        <time>2012-08-22T07:42:44Z</time>
      </trkpt>
      <trkpt lat="42.98736" lon="0.68845">
        <ele>799.083313</ele>
        <time>2012-08-22T07:42:51Z</time>
      </trkpt>
      <trkpt lat="42.98738" lon="0.68762">
        <ele>799.083313</ele>
        <time>2012-08-22T07:42:57Z</time>
      </trkpt>
      <trkpt lat="42.98725" lon="0.68681">
        <ele>799.083313</ele>
        <time>2012-08-22T07:43:03Z</time>
      </trkpt>
      <trkpt lat="42.98702" lon="0.6859">
        <ele>799.083313</ele>
        <time>2012-08-22T07:43:09Z</time>
      </trkpt>
      <trkpt lat="42.9866" lon="0.68515">
        <ele>799.083313</ele>
        <time>2012-08-22T07:43:15Z</time>
      </trkpt>
      <trkpt lat="42.98601" lon="0.68456">
        <ele>783.5</ele>
        <time>2012-08-22T07:43:21Z</time>
      </trkpt>
      <trkpt lat="42.98547" lon="0.68396">
        <ele>783.5</ele>
        <time>2012-08-22T07:43:27Z</time>
      </trkpt>
      <trkpt lat="42.98554" lon="0.68309">
        <ele>783.5</ele>
        <time>2012-08-22T07:43:33Z</time>
      </trkpt>
      <trkpt lat="42.98535" lon="0.68219">
        <ele>783.5</ele>
        <time>2012-08-22T07:43:39Z</time>
      </trkpt>
      <trkpt lat="42.98496" lon="0.68139">
        <ele>783.5</ele>
        <time>2012-08-22T07:43:45Z</time>
      </trkpt>
      <trkpt lat="42.98448" lon="0.68065">
        <ele>783.5</ele>
        <time>2012-08-22T07:43:51Z</time>
      </trkpt>
      <trkpt lat="42.98384" lon="0.68009">
        <ele>783.5</ele>
        <time>2012-08-22T07:43:57Z</time>
      </trkpt>
      <trkpt lat="42.98321" lon="0.67969">
        <ele>783.5</ele>
        <time>2012-08-22T07:44:03Z</time>
      </trkpt>
      <trkpt lat="42.98259" lon="0.67963">
        <ele>783.5</ele>
        <time>2012-08-22T07:44:09Z</time>
      </trkpt>
      <trkpt lat="42.98223" lon="0.67892">
        <ele>783.5</ele>
        <time>2012-08-22T07:44:15Z</time>
      </trkpt>
      <trkpt lat="42.98222" lon="0.67802">
        <ele>751.75</ele>
        <time>2012-08-22T07:44:21Z</time>
      </trkpt>
      <trkpt lat="42.98191" lon="0.67725">
        <ele>751.75</ele>
        <time>2012-08-22T07:44:27Z</time>
      </trkpt>
      <trkpt lat="42.98127" lon="0.67669">
        <ele>751.75</ele>
        <time>2012-08-22T07:44:33Z</time>
      </trkpt>
      <trkpt lat="42.98059" lon="0.67616">
        <ele>751.75</ele>
        <time>2012-08-22T07:44:39Z</time>
      </trkpt>
      <trkpt lat="42.97998" lon="0.67544">
        <ele>751.75</ele>
        <time>2012-08-22T07:44:45Z</time>
      </trkpt>
      <trkpt lat="42.97939" lon="0.67464">
        <ele>751.75</ele>
        <time>2012-08-22T07:44:51Z</time>
      </trkpt>
      <trkpt lat="42.97889" lon="0.67376">
        <ele>751.75</ele>
        <time>2012-08-22T07:44:57Z</time>
      </trkpt>
      <trkpt lat="42.97841" lon="0.67292">
        <ele>751.75</ele>
        <time>2012-08-22T07:45:03Z</time>
      </trkpt>
      <trkpt lat="42.97776" lon="0.67227">
        <ele>751.75</ele>
        <time>2012-08-22T07:45:09Z</time>
      </trkpt>
      <trkpt lat="42.97714" lon="0.6719">
        <ele>751.75</ele>
        <time>2012-08-22T07:45:15Z</time>
      </trkpt>
      <trkpt lat="42.97665" lon="0.67198">
        <ele>723.666687</ele>
        <time>2012-08-22T07:45:21Z</time>
      </trkpt>
      <trkpt lat="42.97623" lon="0.67169">
        <ele>723.666687</ele>
        <time>2012-08-22T07:45:28Z</time>
      </trkpt>
      <trkpt lat="42.97583" lon="0.67141">
        <ele>723.666687</ele>
        <time>2012-08-22T07:45:33Z</time>
      </trkpt>
      <trkpt lat="42.97527" lon="0.671">
        <ele>723.666687</ele>
        <time>2012-08-22T07:45:40Z</time>
      </trkpt>
      <trkpt lat="42.97407" lon="0.67051">
        <ele>723.666687</ele>
        <time>2012-08-22T07:45:53Z</time>
      </trkpt>
      <trkpt lat="42.97349" lon="0.67049">
        <ele>723.666687</ele>
        <time>2012-08-22T07:45:59Z</time>
      </trkpt>
      <trkpt lat="42.97291" lon="0.67032">
        <ele>723.666687</ele>
        <time>2012-08-22T07:46:05Z</time>
      </trkpt>
      <trkpt lat="42.97251" lon="0.67012">
        <ele>723.666687</ele>
        <time>2012-08-22T07:46:11Z</time>
      </trkpt>
      <trkpt lat="42.97234" lon="0.66949">
        <ele>723.666687</ele>
        <time>2012-08-22T07:46:17Z</time>
      </trkpt>
      <trkpt lat="42.97196" lon="0.66906">
        <ele>693.333313</ele>
        <time>2012-08-22T07:46:23Z</time>
      </trkpt>
      <trkpt lat="42.97188" lon="0.66856">
        <ele>693.333313</ele>
        <time>2012-08-22T07:46:30Z</time>
      </trkpt>
      <trkpt lat="42.97177" lon="0.66794">
        <ele>693.333313</ele>
        <time>2012-08-22T07:46:36Z</time>
      </trkpt>
      <trkpt lat="42.97142" lon="0.66744">
        <ele>693.333313</ele>
        <time>2012-08-22T07:46:42Z</time>
      </trkpt>
      <trkpt lat="42.97099" lon="0.66702">
        <ele>693.333313</ele>
        <time>2012-08-22T07:46:48Z</time>
      </trkpt>
      <trkpt lat="42.97053" lon="0.66648">
        <ele>693.333313</ele>
        <time>2012-08-22T07:46:55Z</time>
      </trkpt>
      <trkpt lat="42.97088" lon="0.6663">
        <ele>693.333313</ele>
        <time>2012-08-22T07:47:01Z</time>
      </trkpt>
      <trkpt lat="42.97131" lon="0.66685">
        <ele>693.333313</ele>
        <time>2012-08-22T07:47:07Z</time>
      </trkpt>
      <trkpt lat="42.97172" lon="0.66741">
        <ele>693.333313</ele>
        <time>2012-08-22T07:47:13Z</time>
      </trkpt>
      <trkpt lat="42.97212" lon="0.66796">
        <ele>693.333313</ele>
        <time>2012-08-22T07:47:19Z</time>
      </trkpt>
      <trkpt lat="42.97264" lon="0.66838">
        <ele>654.166687</ele>
        <time>2012-08-22T07:47:25Z</time>
      </trkpt>
      <trkpt lat="42.97319" lon="0.6679">
        <ele>654.166687</ele>
        <time>2012-08-22T07:47:31Z</time>
      </trkpt>
      <trkpt lat="42.97372" lon="0.66741">
        <ele>654.166687</ele>
        <time>2012-08-22T07:47:37Z</time>
      </trkpt>
      <trkpt lat="42.97425" lon="0.66694">
        <ele>654.166687</ele>
        <time>2012-08-22T07:47:43Z</time>
      </trkpt>
      <trkpt lat="42.97482" lon="0.66649">
        <ele>654.166687</ele>
        <time>2012-08-22T07:47:50Z</time>
      </trkpt>
      <trkpt lat="42.97523" lon="0.66615">
        <ele>654.166687</ele>
        <time>2012-08-22T07:47:56Z</time>
      </trkpt>
      <trkpt lat="42.97559" lon="0.66588">
        <ele>654.166687</ele>
        <time>2012-08-22T07:48:02Z</time>
      </trkpt>
      <trkpt lat="42.9759" lon="0.66563">
        <ele>654.166687</ele>
        <time>2012-08-22T07:48:08Z</time>
      </trkpt>
      <trkpt lat="42.97625" lon="0.66519">
        <ele>654.166687</ele>
        <time>2012-08-22T07:48:16Z</time>
      </trkpt>
      <trkpt lat="42.97646" lon="0.66466">
        <ele>620.25</ele>
        <time>2012-08-22T07:48:22Z</time>
      </trkpt>
      <trkpt lat="42.97673" lon="0.66406">
        <ele>620.25</ele>
        <time>2012-08-22T07:48:28Z</time>
      </trkpt>
      <trkpt lat="42.97705" lon="0.66329">
        <ele>620.25</ele>
        <time>2012-08-22T07:48:35Z</time>
      </trkpt>
      <trkpt lat="42.97732" lon="0.66253">
        <ele>620.25</ele>
        <time>2012-08-22T07:48:41Z</time>
      </trkpt>
      <trkpt lat="42.97758" lon="0.66172">
        <ele>620.25</ele>
        <time>2012-08-22T07:48:47Z</time>
      </trkpt>
      <trkpt lat="42.97752" lon="0.66085">
        <ele>620.25</ele>
        <time>2012-08-22T07:48:53Z</time>
      </trkpt>
      <trkpt lat="42.97694" lon="0.66063">
        <ele>620.25</ele>
        <time>2012-08-22T07:48:59Z</time>
      </trkpt>
      <trkpt lat="42.97638" lon="0.66099">
        <ele>620.25</ele>
        <time>2012-08-22T07:49:05Z</time>
      </trkpt>
      <trkpt lat="42.97585" lon="0.66124">
        <ele>620.25</ele>
        <time>2012-08-22T07:49:11Z</time>
      </trkpt>
      <trkpt lat="42.97515" lon="0.66117">
        <ele>620.25</ele>
        <time>2012-08-22T07:49:17Z</time>
      </trkpt>
      <trkpt lat="42.9745" lon="0.66118">
        <ele>601.166687</ele>
        <time>2012-08-22T07:49:24Z</time>
      </trkpt>
      <trkpt lat="42.97456" lon="0.66072">
        <ele>601.166687</ele>
        <time>2012-08-22T07:49:30Z</time>
      </trkpt>
      <trkpt lat="42.97503" lon="0.66061">
        <ele>601.166687</ele>
        <time>2012-08-22T07:49:35Z</time>
      </trkpt>
      <trkpt lat="42.97564" lon="0.66039">
        <ele>601.166687</ele>
        <time>2012-08-22T07:49:42Z</time>
      </trkpt>
      <trkpt lat="42.97592" lon="0.65994">
        <ele>601.166687</ele>
        <time>2012-08-22T07:49:47Z</time>
      </trkpt>
      <trkpt lat="42.97609" lon="0.65916">
        <ele>601.166687</ele>
        <time>2012-08-22T07:49:53Z</time>
      </trkpt>
      <trkpt lat="42.9762" lon="0.65868">
        <ele>601.166687</ele>
        <time>2012-08-22T07:50:03Z</time>
      </trkpt>
      <trkpt lat="42.97631" lon="0.65845">
        <ele>601.166687</ele>
        <time>2012-08-22T07:50:08Z</time>
      </trkpt>
      <trkpt lat="42.9766" lon="0.65798">
        <ele>601.166687</ele>
        <time>2012-08-22T07:50:16Z</time>
      </trkpt>
      <trkpt lat="42.97697" lon="0.65773">
        <ele>601.166687</ele>
        <time>2012-08-22T07:50:22Z</time>
      </trkpt>
      <trkpt lat="42.97703" lon="0.65724">
        <ele>580.5</ele>
        <time>2012-08-22T07:50:29Z</time>
      </trkpt>
      <trkpt lat="42.97662" lon="0.65692">
        <ele>580.5</ele>
        <time>2012-08-22T07:50:34Z</time>
      </trkpt>
      <trkpt lat="42.97593" lon="0.65661">
        <ele>580.5</ele>
        <time>2012-08-22T07:50:40Z</time>
      </trkpt>
      <trkpt lat="42.97519" lon="0.65633">
        <ele>580.5</ele>
        <time>2012-08-22T07:50:46Z</time>
      </trkpt>
      <trkpt lat="42.975" lon="0.65559">
        <ele>580.5</ele>
        <time>2012-08-22T07:50:54Z</time>
      </trkpt>
      <trkpt lat="42.97515" lon="0.6551">
        <ele>580.5</ele>
        <time>2012-08-22T07:51:00Z</time>
      </trkpt>
      <trkpt lat="42.9754" lon="0.65437">
        <ele>580.5</ele>
        <time>2012-08-22T07:51:08Z</time>
      </trkpt>
      <trkpt lat="42.97553" lon="0.65413">
        <ele>580.5</ele>
        <time>2012-08-22T07:51:15Z</time>
      </trkpt>
      <trkpt lat="42.97561" lon="0.65355">
        <ele>580.5</ele>
        <time>2012-08-22T07:51:22Z</time>
      </trkpt>
      <trkpt lat="42.97542" lon="0.65341">
        <ele>551</ele>
        <time>2012-08-22T07:51:31Z</time>
      </trkpt>
      <trkpt lat="42.97499" lon="0.65311">
        <ele>551</ele>
        <time>2012-08-22T07:51:38Z</time>
      </trkpt>
      <trkpt lat="42.97452" lon="0.65241">
        <ele>551</ele>
        <time>2012-08-22T07:51:46Z</time>
      </trkpt>
      <trkpt lat="42.97439" lon="0.65187">
        <ele>551</ele>
        <time>2012-08-22T07:51:51Z</time>
      </trkpt>
      <trkpt lat="42.97417" lon="0.65144">
        <ele>551</ele>
        <time>2012-08-22T07:52:03Z</time>
      </trkpt>
      <trkpt lat="42.97407" lon="0.65119">
        <ele>551</ele>
        <time>2012-08-22T07:52:09Z</time>
      </trkpt>
      <trkpt lat="42.97409" lon="0.65061">
        <ele>551</ele>
        <time>2012-08-22T07:52:16Z</time>
      </trkpt>
      <trkpt lat="42.97413" lon="0.65001">
        <ele>551</ele>
        <time>2012-08-22T07:52:24Z</time>
      </trkpt>
      <trkpt lat="42.97413" lon="0.64951">
        <ele>503.5</ele>
        <time>2012-08-22T07:52:30Z</time>
      </trkpt>
      <trkpt lat="42.97414" lon="0.64896">
        <ele>503.5</ele>
        <time>2012-08-22T07:52:36Z</time>
      </trkpt>
      <trkpt lat="42.97433" lon="0.64843">
        <ele>503.5</ele>
        <time>2012-08-22T07:52:43Z</time>
      </trkpt>
      <trkpt lat="42.97457" lon="0.64803">
        <ele>503.5</ele>
        <time>2012-08-22T07:52:49Z</time>
      </trkpt>
      <trkpt lat="42.97445" lon="0.64754">
        <ele>503.5</ele>
        <time>2012-08-22T07:52:55Z</time>
      </trkpt>
      <trkpt lat="42.9742" lon="0.64718">
        <ele>503.5</ele>
        <time>2012-08-22T07:53:02Z</time>
      </trkpt>
      <trkpt lat="42.9741" lon="0.64695">
        <ele>503.5</ele>
        <time>2012-08-22T07:53:08Z</time>
      </trkpt>
      <trkpt lat="42.97391" lon="0.64681">
        <ele>503.5</ele>
        <time>2012-08-22T07:53:16Z</time>
      </trkpt>
      <trkpt lat="42.9735" lon="0.64695">
        <ele>503.5</ele>
        <time>2012-08-22T07:53:23Z</time>
      </trkpt>
      <trkpt lat="42.97313" lon="0.64702">
        <ele>470.75</ele>
        <time>2012-08-22T07:53:29Z</time>
      </trkpt>
      <trkpt lat="42.97272" lon="0.64703">
        <ele>470.75</ele>
        <time>2012-08-22T07:53:35Z</time>
      </trkpt>
      <trkpt lat="42.97233" lon="0.64702">
        <ele>470.75</ele>
        <time>2012-08-22T07:53:41Z</time>
      </trkpt>
      <trkpt lat="42.9719" lon="0.64703">
        <ele>470.75</ele>
        <time>2012-08-22T07:53:47Z</time>
      </trkpt>
      <trkpt lat="42.97146" lon="0.64708">
        <ele>470.75</ele>
        <time>2012-08-22T07:53:53Z</time>
      </trkpt>
      <trkpt lat="42.97101" lon="0.64709">
        <ele>470.75</ele>
        <time>2012-08-22T07:53:59Z</time>
      </trkpt>
      <trkpt lat="42.97058" lon="0.64708">
        <ele>470.75</ele>
        <time>2012-08-22T07:54:05Z</time>
      </trkpt>
      <trkpt lat="42.97014" lon="0.6471">
        <ele>470.75</ele>
        <time>2012-08-22T07:54:11Z</time>
      </trkpt>
      <trkpt lat="42.96969" lon="0.64707">
        <ele>470.75</ele>
        <time>2012-08-22T07:54:17Z</time>
      </trkpt>
      <trkpt lat="42.96925" lon="0.64704">
        <ele>460.583344</ele>
        <time>2012-08-22T07:54:23Z</time>
      </trkpt>
      <trkpt lat="42.96881" lon="0.64702">
        <ele>460.583344</ele>
        <time>2012-08-22T07:54:29Z</time>
      </trkpt>
      <trkpt lat="42.96836" lon="0.64701">
        <ele>460.583344</ele>
        <time>2012-08-22T07:54:35Z</time>
      </trkpt>
      <trkpt lat="42.96793" lon="0.64698">
        <ele>460.583344</ele>
        <time>2012-08-22T07:54:41Z</time>
      </trkpt>
      <trkpt lat="42.96751" lon="0.64698">
        <ele>460.583344</ele>
        <time>2012-08-22T07:54:47Z</time>
      </trkpt>
      <trkpt lat="42.96728" lon="0.64659">
        <ele>460.583344</ele>
        <time>2012-08-22T07:54:53Z</time>
      </trkpt>
      <trkpt lat="42.96731" lon="0.64601">
        <ele>460.583344</ele>
        <time>2012-08-22T07:54:59Z</time>
      </trkpt>
      <trkpt lat="42.96728" lon="0.64545">
        <ele>460.583344</ele>
        <time>2012-08-22T07:55:05Z</time>
      </trkpt>
      <trkpt lat="42.96726" lon="0.6449">
        <ele>460.583344</ele>
        <time>2012-08-22T07:55:11Z</time>
      </trkpt>
      <trkpt lat="42.96723" lon="0.64431">
        <ele>460.583344</ele>
        <time>2012-08-22T07:55:17Z</time>
      </trkpt>
      <trkpt lat="42.96721" lon="0.64374">
        <ele>456.416656</ele>
        <time>2012-08-22T07:55:23Z</time>
      </trkpt>
      <trkpt lat="42.96718" lon="0.64317">
        <ele>456.416656</ele>
        <time>2012-08-22T07:55:29Z</time>
      </trkpt>
      <trkpt lat="42.96716" lon="0.64258">
        <ele>456.416656</ele>
        <time>2012-08-22T07:55:35Z</time>
      </trkpt>
      <trkpt lat="42.96712" lon="0.64201">
        <ele>456.416656</ele>
        <time>2012-08-22T07:55:41Z</time>
      </trkpt>
      <trkpt lat="42.96699" lon="0.64153">
        <ele>456.416656</ele>
        <time>2012-08-22T07:55:47Z</time>
      </trkpt>
      <trkpt lat="42.96682" lon="0.641">
        <ele>456.416656</ele>
        <time>2012-08-22T07:55:53Z</time>
      </trkpt>
      <trkpt lat="42.96661" lon="0.64051">
        <ele>456.416656</ele>
        <time>2012-08-22T07:55:59Z</time>
      </trkpt>
      <trkpt lat="42.96632" lon="0.64009">
        <ele>456.416656</ele>
        <time>2012-08-22T07:56:05Z</time>
      </trkpt>
      <trkpt lat="42.96604" lon="0.63965">
        <ele>456.416656</ele>
        <time>2012-08-22T07:56:11Z</time>
      </trkpt>
      <trkpt lat="42.96573" lon="0.63924">
        <ele>456.416656</ele>
        <time>2012-08-22T07:56:17Z</time>
      </trkpt>
      <trkpt lat="42.96544" lon="0.63881">
        <ele>461.25</ele>
        <time>2012-08-22T07:56:23Z</time>
      </trkpt>
      <trkpt lat="42.96532" lon="0.63828">
        <ele>461.25</ele>
        <time>2012-08-22T07:56:29Z</time>
      </trkpt>
      <trkpt lat="42.96542" lon="0.63763">
        <ele>461.25</ele>
        <time>2012-08-22T07:56:35Z</time>
      </trkpt>
      <trkpt lat="42.96552" lon="0.63706">
        <ele>461.25</ele>
        <time>2012-08-22T07:56:41Z</time>
      </trkpt>
      <trkpt lat="42.96563" lon="0.63647">
        <ele>461.25</ele>
        <time>2012-08-22T07:56:47Z</time>
      </trkpt>
      <trkpt lat="42.96571" lon="0.63591">
        <ele>461.25</ele>
        <time>2012-08-22T07:56:53Z</time>
      </trkpt>
      <trkpt lat="42.96578" lon="0.63534">
        <ele>461.25</ele>
        <time>2012-08-22T07:56:59Z</time>
      </trkpt>
      <trkpt lat="42.96586" lon="0.63477">
        <ele>461.25</ele>
        <time>2012-08-22T07:57:05Z</time>
      </trkpt>
      <trkpt lat="42.96596" lon="0.63422">
        <ele>461.25</ele>
        <time>2012-08-22T07:57:11Z</time>
      </trkpt>
      <trkpt lat="42.96605" lon="0.6337">
        <ele>461.25</ele>
        <time>2012-08-22T07:57:17Z</time>
      </trkpt>
      <trkpt lat="42.96611" lon="0.63314">
        <ele>462.666656</ele>
        <time>2012-08-22T07:57:24Z</time>
      </trkpt>
      <trkpt lat="42.96616" lon="0.63257">
        <ele>462.666656</ele>
        <time>2012-08-22T07:57:31Z</time>
      </trkpt>
      <trkpt lat="42.96616" lon="0.63196">
        <ele>462.666656</ele>
        <time>2012-08-22T07:57:39Z</time>
      </trkpt>
      <trkpt lat="42.96611" lon="0.63142">
        <ele>462.666656</ele>
        <time>2012-08-22T07:57:46Z</time>
      </trkpt>
      <trkpt lat="42.9661" lon="0.63082">
        <ele>462.666656</ele>
        <time>2012-08-22T07:57:54Z</time>
      </trkpt>
      <trkpt lat="42.96609" lon="0.63026">
        <ele>462.666656</ele>
        <time>2012-08-22T07:58:03Z</time>
      </trkpt>
      <trkpt lat="42.9661" lon="0.62977">
        <ele>462.666656</ele>
        <time>2012-08-22T07:58:16Z</time>
      </trkpt>
      <trkpt lat="42.96627" lon="0.62969">
        <ele>462.666656</ele>
        <time>2012-08-22T07:58:21Z</time>
      </trkpt>
      <trkpt lat="42.9663" lon="0.62918">
        <ele>462.666656</ele>
        <time>2012-08-22T07:58:29Z</time>
      </trkpt>
      <trkpt lat="42.96635" lon="0.62861">
        <ele>462.75</ele>
        <time>2012-08-22T07:58:37Z</time>
      </trkpt>
      <trkpt lat="42.9664" lon="0.628">
        <ele>462.75</ele>
        <time>2012-08-22T07:58:44Z</time>
      </trkpt>
      <trkpt lat="42.96631" lon="0.62744">
        <ele>462.75</ele>
        <time>2012-08-22T07:58:51Z</time>
      </trkpt>
      <trkpt lat="42.9663" lon="0.62682">
        <ele>462.75</ele>
        <time>2012-08-22T07:58:59Z</time>
      </trkpt>
      <trkpt lat="42.96635" lon="0.62621">
        <ele>462.75</ele>
        <time>2012-08-22T07:59:07Z</time>
      </trkpt>
      <trkpt lat="42.96639" lon="0.62557">
        <ele>462.75</ele>
        <time>2012-08-22T07:59:15Z</time>
      </trkpt>
      <trkpt lat="42.96642" lon="0.62506">
        <ele>462.75</ele>
        <time>2012-08-22T07:59:21Z</time>
      </trkpt>
      <trkpt lat="42.96645" lon="0.62448">
        <ele>466.166656</ele>
        <time>2012-08-22T07:59:28Z</time>
      </trkpt>
      <trkpt lat="42.96658" lon="0.6239">
        <ele>466.166656</ele>
        <time>2012-08-22T07:59:36Z</time>
      </trkpt>
      <trkpt lat="42.96691" lon="0.62358">
        <ele>466.166656</ele>
        <time>2012-08-22T07:59:44Z</time>
      </trkpt>
      <trkpt lat="42.96724" lon="0.62326">
        <ele>466.166656</ele>
        <time>2012-08-22T07:59:52Z</time>
      </trkpt>
      <trkpt lat="42.9674" lon="0.62309">
        <ele>466.166656</ele>
        <time>2012-08-22T07:59:57Z</time>
      </trkpt>
      <trkpt lat="42.96769" lon="0.62266">
        <ele>466.166656</ele>
        <time>2012-08-22T08:00:05Z</time>
      </trkpt>
      <trkpt lat="42.96786" lon="0.62215">
        <ele>466.166656</ele>
        <time>2012-08-22T08:00:13Z</time>
      </trkpt>
      <trkpt lat="42.96804" lon="0.6216">
        <ele>466.166656</ele>
        <time>2012-08-22T08:00:21Z</time>
      </trkpt>
      <trkpt lat="42.96813" lon="0.62102">
        <ele>465.083344</ele>
        <time>2012-08-22T08:00:29Z</time>
      </trkpt>
      <trkpt lat="42.96821" lon="0.62045">
        <ele>465.083344</ele>
        <time>2012-08-22T08:00:37Z</time>
      </trkpt>
      <trkpt lat="42.96834" lon="0.61989">
        <ele>465.083344</ele>
        <time>2012-08-22T08:00:45Z</time>
      </trkpt>
      <trkpt lat="42.96845" lon="0.61935">
        <ele>465.083344</ele>
        <time>2012-08-22T08:00:53Z</time>
      </trkpt>
      <trkpt lat="42.96855" lon="0.61878">
        <ele>465.083344</ele>
        <time>2012-08-22T08:01:01Z</time>
      </trkpt>
      <trkpt lat="42.96865" lon="0.61824">
        <ele>465.083344</ele>
        <time>2012-08-22T08:01:09Z</time>
      </trkpt>
      <trkpt lat="42.96881" lon="0.61773">
        <ele>465.083344</ele>
        <time>2012-08-22T08:01:17Z</time>
      </trkpt>
      <trkpt lat="42.96901" lon="0.61723">
        <ele>465.083344</ele>
        <time>2012-08-22T08:01:25Z</time>
      </trkpt>
      <trkpt lat="42.9692" lon="0.61673">
        <ele>473.583344</ele>
        <time>2012-08-22T08:01:33Z</time>
      </trkpt>
      <trkpt lat="42.96931" lon="0.61618">
        <ele>473.583344</ele>
        <time>2012-08-22T08:01:41Z</time>
      </trkpt>
      <trkpt lat="42.96935" lon="0.61566">
        <ele>473.583344</ele>
        <time>2012-08-22T08:01:49Z</time>
      </trkpt>
      <trkpt lat="42.96958" lon="0.61522">
        <ele>473.583344</ele>
        <time>2012-08-22T08:01:57Z</time>
      </trkpt>
      <trkpt lat="42.96964" lon="0.61497">
        <ele>473.583344</ele>
        <time>2012-08-22T08:02:02Z</time>
      </trkpt>
      <trkpt lat="42.96961" lon="0.61469">
        <ele>473.583344</ele>
        <time>2012-08-22T08:02:08Z</time>
      </trkpt>
      <trkpt lat="42.96952" lon="0.61444">
        <ele>473.583344</ele>
        <time>2012-08-22T08:02:13Z</time>
      </trkpt>
      <trkpt lat="42.96938" lon="0.6139">
        <ele>473.583344</ele>
        <time>2012-08-22T08:02:21Z</time>
      </trkpt>
      <trkpt lat="42.96907" lon="0.61351">
        <ele>479.666656</ele>
        <time>2012-08-22T08:02:29Z</time>
      </trkpt>
      <trkpt lat="42.96883" lon="0.61309">
        <ele>479.666656</ele>
        <time>2012-08-22T08:02:36Z</time>
      </trkpt>
      <trkpt lat="42.96872" lon="0.6126">
        <ele>479.666656</ele>
        <time>2012-08-22T08:02:44Z</time>
      </trkpt>
      <trkpt lat="42.96864" lon="0.61209">
        <ele>479.666656</ele>
        <time>2012-08-22T08:02:52Z</time>
      </trkpt>
      <trkpt lat="42.9686" lon="0.61181">
        <ele>479.666656</ele>
        <time>2012-08-22T08:02:57Z</time>
      </trkpt>
      <trkpt lat="42.9685" lon="0.61131">
        <ele>479.666656</ele>
        <time>2012-08-22T08:03:06Z</time>
      </trkpt>
      <trkpt lat="42.96839" lon="0.61077">
        <ele>479.666656</ele>
        <time>2012-08-22T08:03:16Z</time>
      </trkpt>
      <trkpt lat="42.96838" lon="0.61048">
        <ele>479.666656</ele>
        <time>2012-08-22T08:03:21Z</time>
      </trkpt>
      <trkpt lat="42.96844" lon="0.60996">
        <ele>487.916656</ele>
        <time>2012-08-22T08:03:31Z</time>
      </trkpt>
      <trkpt lat="42.96841" lon="0.60971">
        <ele>487.916656</ele>
        <time>2012-08-22T08:03:36Z</time>
      </trkpt>
      <trkpt lat="42.96835" lon="0.60946">
        <ele>487.916656</ele>
        <time>2012-08-22T08:03:41Z</time>
      </trkpt>
      <trkpt lat="42.96827" lon="0.6092">
        <ele>487.916656</ele>
        <time>2012-08-22T08:03:47Z</time>
      </trkpt>
      <trkpt lat="42.96818" lon="0.60897">
        <ele>487.916656</ele>
        <time>2012-08-22T08:03:54Z</time>
      </trkpt>
      <trkpt lat="42.96808" lon="0.60871">
        <ele>487.916656</ele>
        <time>2012-08-22T08:04:00Z</time>
      </trkpt>
      <trkpt lat="42.96797" lon="0.60846">
        <ele>487.916656</ele>
        <time>2012-08-22T08:04:05Z</time>
      </trkpt>
      <trkpt lat="42.96778" lon="0.608">
        <ele>487.916656</ele>
        <time>2012-08-22T08:04:17Z</time>
      </trkpt>
      <trkpt lat="42.96768" lon="0.60775">
        <ele>487.916656</ele>
        <time>2012-08-22T08:04:24Z</time>
      </trkpt>
      <trkpt lat="42.9676" lon="0.60749">
        <ele>501.916656</ele>
        <time>2012-08-22T08:04:30Z</time>
      </trkpt>
      <trkpt lat="42.96744" lon="0.60698">
        <ele>501.916656</ele>
        <time>2012-08-22T08:04:40Z</time>
      </trkpt>
      <trkpt lat="42.96732" lon="0.60677">
        <ele>501.916656</ele>
        <time>2012-08-22T08:04:45Z</time>
      </trkpt>
      <trkpt lat="42.96707" lon="0.60638">
        <ele>501.916656</ele>
        <time>2012-08-22T08:04:56Z</time>
      </trkpt>
      <trkpt lat="42.96704" lon="0.60611">
        <ele>501.916656</ele>
        <time>2012-08-22T08:05:05Z</time>
      </trkpt>
      <trkpt lat="42.96707" lon="0.60582">
        <ele>501.916656</ele>
        <time>2012-08-22T08:05:11Z</time>
      </trkpt>
      <trkpt lat="42.96703" lon="0.60553">
        <ele>501.916656</ele>
        <time>2012-08-22T08:05:18Z</time>
      </trkpt>
      <trkpt lat="42.967" lon="0.60497">
        <ele>501.916656</ele>
        <time>2012-08-22T08:05:28Z</time>
      </trkpt>
      <trkpt lat="42.967" lon="0.6047">
        <ele>509</ele>
        <time>2012-08-22T08:05:33Z</time>
      </trkpt>
      <trkpt lat="42.967" lon="0.60415">
        <ele>509</ele>
        <time>2012-08-22T08:05:42Z</time>
      </trkpt>
      <trkpt lat="42.96696" lon="0.60389">
        <ele>509</ele>
        <time>2012-08-22T08:05:48Z</time>
      </trkpt>
      <trkpt lat="42.96682" lon="0.60367">
        <ele>509</ele>
        <time>2012-08-22T08:05:54Z</time>
      </trkpt>
      <trkpt lat="42.9667" lon="0.60346">
        <ele>509</ele>
        <time>2012-08-22T08:06:00Z</time>
      </trkpt>
      <trkpt lat="42.96656" lon="0.60329">
        <ele>509</ele>
        <time>2012-08-22T08:06:06Z</time>
      </trkpt>
      <trkpt lat="42.96629" lon="0.60291">
        <ele>509</ele>
        <time>2012-08-22T08:06:15Z</time>
      </trkpt>
      <trkpt lat="42.96617" lon="0.6027">
        <ele>509</ele>
        <time>2012-08-22T08:06:20Z</time>
      </trkpt>
      <trkpt lat="42.96613" lon="0.60242">
        <ele>517</ele>
        <time>2012-08-22T08:06:26Z</time>
      </trkpt>
      <trkpt lat="42.96608" lon="0.60217">
        <ele>517</ele>
        <time>2012-08-22T08:06:32Z</time>
      </trkpt>
      <trkpt lat="42.966" lon="0.60193">
        <ele>517</ele>
        <time>2012-08-22T08:06:38Z</time>
      </trkpt>
      <trkpt lat="42.96591" lon="0.60171">
        <ele>517</ele>
        <time>2012-08-22T08:06:43Z</time>
      </trkpt>
      <trkpt lat="42.96583" lon="0.60145">
        <ele>517</ele>
        <time>2012-08-22T08:06:49Z</time>
      </trkpt>
      <trkpt lat="42.96579" lon="0.60119">
        <ele>517</ele>
        <time>2012-08-22T08:06:55Z</time>
      </trkpt>
      <trkpt lat="42.96571" lon="0.60091">
        <ele>517</ele>
        <time>2012-08-22T08:07:01Z</time>
      </trkpt>
      <trkpt lat="42.96562" lon="0.60042">
        <ele>517</ele>
        <time>2012-08-22T08:07:10Z</time>
      </trkpt>
      <trkpt lat="42.96561" lon="0.5999">
        <ele>517</ele>
        <time>2012-08-22T08:07:20Z</time>
      </trkpt>
      <trkpt lat="42.96554" lon="0.5994">
        <ele>517</ele>
        <time>2012-08-22T08:07:28Z</time>
      </trkpt>
      <trkpt lat="42.9655" lon="0.59887">
        <ele>529.416687</ele>
        <time>2012-08-22T08:07:37Z</time>
      </trkpt>
      <trkpt lat="42.96538" lon="0.59835">
        <ele>529.416687</ele>
        <time>2012-08-22T08:07:47Z</time>
      </trkpt>
      <trkpt lat="42.96536" lon="0.59805">
        <ele>529.416687</ele>
        <time>2012-08-22T08:07:52Z</time>
      </trkpt>
      <trkpt lat="42.96537" lon="0.59776">
        <ele>529.416687</ele>
        <time>2012-08-22T08:07:57Z</time>
      </trkpt>
      <trkpt lat="42.96532" lon="0.59724">
        <ele>529.416687</ele>
        <time>2012-08-22T08:08:06Z</time>
      </trkpt>
      <trkpt lat="42.96525" lon="0.59674">
        <ele>529.416687</ele>
        <time>2012-08-22T08:08:14Z</time>
      </trkpt>
      <trkpt lat="42.96518" lon="0.59623">
        <ele>529.416687</ele>
        <time>2012-08-22T08:08:22Z</time>
      </trkpt>
      <trkpt lat="42.96499" lon="0.59577">
        <ele>540.583313</ele>
        <time>2012-08-22T08:08:29Z</time>
      </trkpt>
      <trkpt lat="42.96488" lon="0.59519">
        <ele>540.583313</ele>
        <time>2012-08-22T08:08:39Z</time>
      </trkpt>
      <trkpt lat="42.96481" lon="0.59465">
        <ele>540.583313</ele>
        <time>2012-08-22T08:08:47Z</time>
      </trkpt>
      <trkpt lat="42.96454" lon="0.59418">
        <ele>540.583313</ele>
        <time>2012-08-22T08:08:55Z</time>
      </trkpt>
      <trkpt lat="42.9645" lon="0.59367">
        <ele>540.583313</ele>
        <time>2012-08-22T08:09:03Z</time>
      </trkpt>
      <trkpt lat="42.96453" lon="0.59312">
        <ele>540.583313</ele>
        <time>2012-08-22T08:09:11Z</time>
      </trkpt>
      <trkpt lat="42.96424" lon="0.5927">
        <ele>540.583313</ele>
        <time>2012-08-22T08:09:19Z</time>
      </trkpt>
      <trkpt lat="42.96386" lon="0.59242">
        <ele>540.583313</ele>
        <time>2012-08-22T08:09:27Z</time>
      </trkpt>
      <trkpt lat="42.96377" lon="0.59184">
        <ele>557.083313</ele>
        <time>2012-08-22T08:09:35Z</time>
      </trkpt>
      <trkpt lat="42.96388" lon="0.59133">
        <ele>557.083313</ele>
        <time>2012-08-22T08:09:43Z</time>
      </trkpt>
      <trkpt lat="42.96369" lon="0.59082">
        <ele>557.083313</ele>
        <time>2012-08-22T08:09:51Z</time>
      </trkpt>
      <trkpt lat="42.96325" lon="0.59066">
        <ele>557.083313</ele>
        <time>2012-08-22T08:09:59Z</time>
      </trkpt>
      <trkpt lat="42.9629" lon="0.59049">
        <ele>557.083313</ele>
        <time>2012-08-22T08:10:06Z</time>
      </trkpt>
      <trkpt lat="42.96248" lon="0.59065">
        <ele>557.083313</ele>
        <time>2012-08-22T08:10:12Z</time>
      </trkpt>
      <trkpt lat="42.96209" lon="0.59079">
        <ele>557.083313</ele>
        <time>2012-08-22T08:10:19Z</time>
      </trkpt>
      <trkpt lat="42.96168" lon="0.59067">
        <ele>570.083313</ele>
        <time>2012-08-22T08:10:27Z</time>
      </trkpt>
      <trkpt lat="42.96146" lon="0.59072">
        <ele>570.083313</ele>
        <time>2012-08-22T08:10:32Z</time>
      </trkpt>
      <trkpt lat="42.96108" lon="0.59079">
        <ele>570.083313</ele>
        <time>2012-08-22T08:10:42Z</time>
      </trkpt>
      <trkpt lat="42.96087" lon="0.59083">
        <ele>570.083313</ele>
        <time>2012-08-22T08:10:47Z</time>
      </trkpt>
      <trkpt lat="42.96067" lon="0.59085">
        <ele>570.083313</ele>
        <time>2012-08-22T08:10:53Z</time>
      </trkpt>
      <trkpt lat="42.96048" lon="0.59078">
        <ele>570.083313</ele>
        <time>2012-08-22T08:10:59Z</time>
      </trkpt>
      <trkpt lat="42.96034" lon="0.59063">
        <ele>570.083313</ele>
        <time>2012-08-22T08:11:04Z</time>
      </trkpt>
      <trkpt lat="42.96023" lon="0.59037">
        <ele>570.083313</ele>
        <time>2012-08-22T08:11:10Z</time>
      </trkpt>
      <trkpt lat="42.96004" lon="0.58991">
        <ele>570.083313</ele>
        <time>2012-08-22T08:11:21Z</time>
      </trkpt>
      <trkpt lat="42.95994" lon="0.58967">
        <ele>578.583313</ele>
        <time>2012-08-22T08:11:29Z</time>
      </trkpt>
      <trkpt lat="42.95985" lon="0.58943">
        <ele>578.583313</ele>
        <time>2012-08-22T08:11:35Z</time>
      </trkpt>
      <trkpt lat="42.95975" lon="0.5892">
        <ele>578.583313</ele>
        <time>2012-08-22T08:11:41Z</time>
      </trkpt>
      <trkpt lat="42.95963" lon="0.58897">
        <ele>578.583313</ele>
        <time>2012-08-22T08:11:47Z</time>
      </trkpt>
      <trkpt lat="42.95954" lon="0.58875">
        <ele>578.583313</ele>
        <time>2012-08-22T08:11:53Z</time>
      </trkpt>
      <trkpt lat="42.95945" lon="0.58853">
        <ele>578.583313</ele>
        <time>2012-08-22T08:11:59Z</time>
      </trkpt>
      <trkpt lat="42.95933" lon="0.58833">
        <ele>578.583313</ele>
        <time>2012-08-22T08:12:05Z</time>
      </trkpt>
      <trkpt lat="42.95918" lon="0.58814">
        <ele>578.583313</ele>
        <time>2012-08-22T08:12:11Z</time>
      </trkpt>
      <trkpt lat="42.95904" lon="0.58795">
        <ele>578.583313</ele>
        <time>2012-08-22T08:12:17Z</time>
      </trkpt>
      <trkpt lat="42.95891" lon="0.58776">
        <ele>593.25</ele>
        <time>2012-08-22T08:12:23Z</time>
      </trkpt>
      <trkpt lat="42.95877" lon="0.58759">
        <ele>593.25</ele>
        <time>2012-08-22T08:12:28Z</time>
      </trkpt>
      <trkpt lat="42.95863" lon="0.5874">
        <ele>593.25</ele>
        <time>2012-08-22T08:12:34Z</time>
      </trkpt>
      <trkpt lat="42.95847" lon="0.58723">
        <ele>593.25</ele>
        <time>2012-08-22T08:12:40Z</time>
      </trkpt>
      <trkpt lat="42.95827" lon="0.58713">
        <ele>593.25</ele>
        <time>2012-08-22T08:12:46Z</time>
      </trkpt>
      <trkpt lat="42.95791" lon="0.58694">
        <ele>593.25</ele>
        <time>2012-08-22T08:12:55Z</time>
      </trkpt>
      <trkpt lat="42.95767" lon="0.58645">
        <ele>593.25</ele>
        <time>2012-08-22T08:13:04Z</time>
      </trkpt>
      <trkpt lat="42.95752" lon="0.58599">
        <ele>593.25</ele>
        <time>2012-08-22T08:13:12Z</time>
      </trkpt>
      <trkpt lat="42.9574" lon="0.58548">
        <ele>593.25</ele>
        <time>2012-08-22T08:13:20Z</time>
      </trkpt>
      <trkpt lat="42.95725" lon="0.58496">
        <ele>593.25</ele>
        <time>2012-08-22T08:13:28Z</time>
      </trkpt>
      <trkpt lat="42.95713" lon="0.58448">
        <ele>600.416687</ele>
        <time>2012-08-22T08:13:37Z</time>
      </trkpt>
      <trkpt lat="42.95712" lon="0.58417">
        <ele>600.416687</ele>
        <time>2012-08-22T08:13:42Z</time>
      </trkpt>
      <trkpt lat="42.95711" lon="0.5836">
        <ele>600.416687</ele>
        <time>2012-08-22T08:13:51Z</time>
      </trkpt>
      <trkpt lat="42.95709" lon="0.5833">
        <ele>600.416687</ele>
        <time>2012-08-22T08:13:56Z</time>
      </trkpt>
      <trkpt lat="42.95704" lon="0.58268">
        <ele>600.416687</ele>
        <time>2012-08-22T08:14:04Z</time>
      </trkpt>
      <trkpt lat="42.95719" lon="0.58207">
        <ele>600.416687</ele>
        <time>2012-08-22T08:14:11Z</time>
      </trkpt>
      <trkpt lat="42.9574" lon="0.58154">
        <ele>600.416687</ele>
        <time>2012-08-22T08:14:17Z</time>
      </trkpt>
      <trkpt lat="42.95748" lon="0.581">
        <ele>603.916687</ele>
        <time>2012-08-22T08:14:23Z</time>
      </trkpt>
      <trkpt lat="42.95744" lon="0.58042">
        <ele>603.916687</ele>
        <time>2012-08-22T08:14:30Z</time>
      </trkpt>
      <trkpt lat="42.95746" lon="0.57991">
        <ele>603.916687</ele>
        <time>2012-08-22T08:14:38Z</time>
      </trkpt>
      <trkpt lat="42.95748" lon="0.57939">
        <ele>603.916687</ele>
        <time>2012-08-22T08:14:47Z</time>
      </trkpt>
      <trkpt lat="42.95751" lon="0.57879">
        <ele>603.916687</ele>
        <time>2012-08-22T08:14:56Z</time>
      </trkpt>
      <trkpt lat="42.95757" lon="0.57829">
        <ele>603.916687</ele>
        <time>2012-08-22T08:15:03Z</time>
      </trkpt>
      <trkpt lat="42.95764" lon="0.57773">
        <ele>603.916687</ele>
        <time>2012-08-22T08:15:09Z</time>
      </trkpt>
      <trkpt lat="42.95775" lon="0.57716">
        <ele>603.916687</ele>
        <time>2012-08-22T08:15:15Z</time>
      </trkpt>
      <trkpt lat="42.95803" lon="0.57672">
        <ele>603.916687</ele>
        <time>2012-08-22T08:15:22Z</time>
      </trkpt>
      <trkpt lat="42.9582" lon="0.57624">
        <ele>609.333313</ele>
        <time>2012-08-22T08:15:30Z</time>
      </trkpt>
      <trkpt lat="42.95822" lon="0.57538">
        <ele>609.333313</ele>
        <time>2012-08-22T08:15:38Z</time>
      </trkpt>
      <trkpt lat="42.95828" lon="0.57463">
        <ele>609.333313</ele>
        <time>2012-08-22T08:15:44Z</time>
      </trkpt>
      <trkpt lat="42.95864" lon="0.57323">
        <ele>609.333313</ele>
        <time>2012-08-22T08:15:56Z</time>
      </trkpt>
      <trkpt lat="42.95878" lon="0.57265">
        <ele>609.333313</ele>
        <time>2012-08-22T08:16:01Z</time>
      </trkpt>
      <trkpt lat="42.95892" lon="0.57178">
        <ele>609.333313</ele>
        <time>2012-08-22T08:16:09Z</time>
      </trkpt>
      <trkpt lat="42.95895" lon="0.57128">
        <ele>609.333313</ele>
        <time>2012-08-22T08:16:15Z</time>
      </trkpt>
      <trkpt lat="42.95902" lon="0.57077">
        <ele>609.333313</ele>
        <time>2012-08-22T08:16:21Z</time>
      </trkpt>
      <trkpt lat="42.95918" lon="0.57032">
        <ele>608.333313</ele>
        <time>2012-08-22T08:16:27Z</time>
      </trkpt>
      <trkpt lat="42.95964" lon="0.5701">
        <ele>608.333313</ele>
        <time>2012-08-22T08:16:34Z</time>
      </trkpt>
      <trkpt lat="42.96018" lon="0.56996">
        <ele>608.333313</ele>
        <time>2012-08-22T08:16:40Z</time>
      </trkpt>
      <trkpt lat="42.96057" lon="0.56965">
        <ele>608.333313</ele>
        <time>2012-08-22T08:16:45Z</time>
      </trkpt>
      <trkpt lat="42.96068" lon="0.56901">
        <ele>608.333313</ele>
        <time>2012-08-22T08:16:51Z</time>
      </trkpt>
      <trkpt lat="42.96047" lon="0.56848">
        <ele>608.333313</ele>
        <time>2012-08-22T08:16:57Z</time>
      </trkpt>
      <trkpt lat="42.96029" lon="0.56836">
        <ele>608.333313</ele>
        <time>2012-08-22T08:17:03Z</time>
      </trkpt>
      <trkpt lat="42.96007" lon="0.56839">
        <ele>608.333313</ele>
        <time>2012-08-22T08:17:08Z</time>
      </trkpt>
      <trkpt lat="42.95977" lon="0.5681">
        <ele>608.333313</ele>
        <time>2012-08-22T08:17:16Z</time>
      </trkpt>
      <trkpt lat="42.95954" lon="0.56766">
        <ele>608.333313</ele>
        <time>2012-08-22T08:17:23Z</time>
      </trkpt>
      <trkpt lat="42.95956" lon="0.5674">
        <ele>592.083313</ele>
        <time>2012-08-22T08:17:31Z</time>
      </trkpt>
      <trkpt lat="42.95975" lon="0.56731">
        <ele>592.083313</ele>
        <time>2012-08-22T08:17:36Z</time>
      </trkpt>
      <trkpt lat="42.95986" lon="0.56708">
        <ele>592.083313</ele>
        <time>2012-08-22T08:17:44Z</time>
      </trkpt>
      <trkpt lat="42.95995" lon="0.56683">
        <ele>592.083313</ele>
        <time>2012-08-22T08:17:51Z</time>
      </trkpt>
      <trkpt lat="42.96004" lon="0.56657">
        <ele>592.083313</ele>
        <time>2012-08-22T08:17:57Z</time>
      </trkpt>
      <trkpt lat="42.96017" lon="0.56636">
        <ele>592.083313</ele>
        <time>2012-08-22T08:18:04Z</time>
      </trkpt>
      <trkpt lat="42.9603" lon="0.56616">
        <ele>592.083313</ele>
        <time>2012-08-22T08:18:10Z</time>
      </trkpt>
      <trkpt lat="42.96046" lon="0.56604">
        <ele>592.083313</ele>
        <time>2012-08-22T08:18:16Z</time>
      </trkpt>
      <trkpt lat="42.96066" lon="0.56603">
        <ele>592.083313</ele>
        <time>2012-08-22T08:18:24Z</time>
      </trkpt>
      <trkpt lat="42.9608" lon="0.56582">
        <ele>578.416687</ele>
        <time>2012-08-22T08:18:30Z</time>
      </trkpt>
      <trkpt lat="42.96082" lon="0.56557">
        <ele>578.416687</ele>
        <time>2012-08-22T08:18:36Z</time>
      </trkpt>
      <trkpt lat="42.96068" lon="0.56539">
        <ele>578.416687</ele>
        <time>2012-08-22T08:18:45Z</time>
      </trkpt>
      <trkpt lat="42.96049" lon="0.56538">
        <ele>578.416687</ele>
        <time>2012-08-22T08:18:52Z</time>
      </trkpt>
      <trkpt lat="42.96029" lon="0.56534">
        <ele>578.416687</ele>
        <time>2012-08-22T08:18:59Z</time>
      </trkpt>
      <trkpt lat="42.96009" lon="0.56526">
        <ele>578.416687</ele>
        <time>2012-08-22T08:19:06Z</time>
      </trkpt>
      <trkpt lat="42.9599" lon="0.56519">
        <ele>578.416687</ele>
        <time>2012-08-22T08:19:13Z</time>
      </trkpt>
      <trkpt lat="42.95972" lon="0.56515">
        <ele>578.416687</ele>
        <time>2012-08-22T08:19:19Z</time>
      </trkpt>
      <trkpt lat="42.95954" lon="0.56505">
        <ele>578.416687</ele>
        <time>2012-08-22T08:19:26Z</time>
      </trkpt>
      <trkpt lat="42.95935" lon="0.56494">
        <ele>582</ele>
        <time>2012-08-22T08:19:33Z</time>
      </trkpt>
      <trkpt lat="42.95922" lon="0.56476">
        <ele>582</ele>
        <time>2012-08-22T08:19:40Z</time>
      </trkpt>
      <trkpt lat="42.95917" lon="0.5645">
        <ele>582</ele>
        <time>2012-08-22T08:19:48Z</time>
      </trkpt>
      <trkpt lat="42.9591" lon="0.56425">
        <ele>582</ele>
        <time>2012-08-22T08:19:56Z</time>
      </trkpt>
      <trkpt lat="42.95901" lon="0.564">
        <ele>582</ele>
        <time>2012-08-22T08:20:04Z</time>
      </trkpt>
      <trkpt lat="42.95888" lon="0.5638">
        <ele>582</ele>
        <time>2012-08-22T08:20:12Z</time>
      </trkpt>
      <trkpt lat="42.95876" lon="0.56359">
        <ele>582</ele>
        <time>2012-08-22T08:20:20Z</time>
      </trkpt>
      <trkpt lat="42.95872" lon="0.56334">
        <ele>582</ele>
        <time>2012-08-22T08:20:28Z</time>
      </trkpt>
      <trkpt lat="42.95871" lon="0.56307">
        <ele>595.583313</ele>
        <time>2012-08-22T08:20:37Z</time>
      </trkpt>
      <trkpt lat="42.95878" lon="0.56282">
        <ele>595.583313</ele>
        <time>2012-08-22T08:20:45Z</time>
      </trkpt>
      <trkpt lat="42.95884" lon="0.56258">
        <ele>595.583313</ele>
        <time>2012-08-22T08:20:52Z</time>
      </trkpt>
      <trkpt lat="42.95889" lon="0.56233">
        <ele>595.583313</ele>
        <time>2012-08-22T08:20:59Z</time>
      </trkpt>
      <trkpt lat="42.95884" lon="0.56207">
        <ele>595.583313</ele>
        <time>2012-08-22T08:21:08Z</time>
      </trkpt>
      <trkpt lat="42.95877" lon="0.56184">
        <ele>595.583313</ele>
        <time>2012-08-22T08:21:16Z</time>
      </trkpt>
      <trkpt lat="42.95869" lon="0.56159">
        <ele>595.583313</ele>
        <time>2012-08-22T08:21:24Z</time>
      </trkpt>
      <trkpt lat="42.95868" lon="0.56133">
        <ele>595.583313</ele>
        <time>2012-08-22T08:21:32Z</time>
      </trkpt>
      <trkpt lat="42.95863" lon="0.56106">
        <ele>610.5</ele>
        <time>2012-08-22T08:21:40Z</time>
      </trkpt>
      <trkpt lat="42.95854" lon="0.56082">
        <ele>610.5</ele>
        <time>2012-08-22T08:21:48Z</time>
      </trkpt>
      <trkpt lat="42.95845" lon="0.56058">
        <ele>610.5</ele>
        <time>2012-08-22T08:21:57Z</time>
      </trkpt>
      <trkpt lat="42.95834" lon="0.56037">
        <ele>610.5</ele>
        <time>2012-08-22T08:22:04Z</time>
      </trkpt>
      <trkpt lat="42.95817" lon="0.56021">
        <ele>610.5</ele>
        <time>2012-08-22T08:22:11Z</time>
      </trkpt>
      <trkpt lat="42.95799" lon="0.56006">
        <ele>610.5</ele>
        <time>2012-08-22T08:22:18Z</time>
      </trkpt>
      <trkpt lat="42.95785" lon="0.55986">
        <ele>610.5</ele>
        <time>2012-08-22T08:22:26Z</time>
      </trkpt>
      <trkpt lat="42.95775" lon="0.55964">
        <ele>619.166687</ele>
        <time>2012-08-22T08:22:33Z</time>
      </trkpt>
      <trkpt lat="42.95765" lon="0.55942">
        <ele>619.166687</ele>
        <time>2012-08-22T08:22:41Z</time>
      </trkpt>
      <trkpt lat="42.95756" lon="0.55919">
        <ele>619.166687</ele>
        <time>2012-08-22T08:22:49Z</time>
      </trkpt>
      <trkpt lat="42.95747" lon="0.55897">
        <ele>619.166687</ele>
        <time>2012-08-22T08:22:57Z</time>
      </trkpt>
      <trkpt lat="42.9574" lon="0.55872">
        <ele>619.166687</ele>
        <time>2012-08-22T08:23:06Z</time>
      </trkpt>
      <trkpt lat="42.9573" lon="0.55849">
        <ele>619.166687</ele>
        <time>2012-08-22T08:23:14Z</time>
      </trkpt>
      <trkpt lat="42.95713" lon="0.55836">
        <ele>619.166687</ele>
        <time>2012-08-22T08:23:20Z</time>
      </trkpt>
      <trkpt lat="42.95694" lon="0.55832">
        <ele>619.166687</ele>
        <time>2012-08-22T08:23:26Z</time>
      </trkpt>
      <trkpt lat="42.95656" lon="0.55835">
        <ele>632.416687</ele>
        <time>2012-08-22T08:23:40Z</time>
      </trkpt>
      <trkpt lat="42.95646" lon="0.55813">
        <ele>632.416687</ele>
        <time>2012-08-22T08:23:48Z</time>
      </trkpt>
      <trkpt lat="42.95639" lon="0.55788">
        <ele>632.416687</ele>
        <time>2012-08-22T08:23:56Z</time>
      </trkpt>
      <trkpt lat="42.95647" lon="0.55765">
        <ele>632.416687</ele>
        <time>2012-08-22T08:24:05Z</time>
      </trkpt>
      <trkpt lat="42.95656" lon="0.55743">
        <ele>632.416687</ele>
        <time>2012-08-22T08:24:12Z</time>
      </trkpt>
      <trkpt lat="42.95657" lon="0.55718">
        <ele>632.416687</ele>
        <time>2012-08-22T08:24:18Z</time>
      </trkpt>
      <trkpt lat="42.95661" lon="0.5569">
        <ele>632.416687</ele>
        <time>2012-08-22T08:24:25Z</time>
      </trkpt>
      <trkpt lat="42.9566" lon="0.55663">
        <ele>647.166687</ele>
        <time>2012-08-22T08:24:30Z</time>
      </trkpt>
      <trkpt lat="42.95647" lon="0.55612">
        <ele>647.166687</ele>
        <time>2012-08-22T08:24:38Z</time>
      </trkpt>
      <trkpt lat="42.95623" lon="0.55565">
        <ele>647.166687</ele>
        <time>2012-08-22T08:24:47Z</time>
      </trkpt>
      <trkpt lat="42.95614" lon="0.55538">
        <ele>647.166687</ele>
        <time>2012-08-22T08:24:52Z</time>
      </trkpt>
      <trkpt lat="42.95601" lon="0.55485">
        <ele>647.166687</ele>
        <time>2012-08-22T08:25:02Z</time>
      </trkpt>
      <trkpt lat="42.95605" lon="0.55458">
        <ele>647.166687</ele>
        <time>2012-08-22T08:25:08Z</time>
      </trkpt>
      <trkpt lat="42.95614" lon="0.55409">
        <ele>647.166687</ele>
        <time>2012-08-22T08:25:18Z</time>
      </trkpt>
      <trkpt lat="42.95596" lon="0.55359">
        <ele>647.166687</ele>
        <time>2012-08-22T08:25:29Z</time>
      </trkpt>
      <trkpt lat="42.95568" lon="0.55321">
        <ele>647.166687</ele>
        <time>2012-08-22T08:25:37Z</time>
      </trkpt>
      <trkpt lat="42.95536" lon="0.55284">
        <ele>660</ele>
        <time>2012-08-22T08:25:44Z</time>
      </trkpt>
      <trkpt lat="42.95516" lon="0.55236">
        <ele>660</ele>
        <time>2012-08-22T08:25:52Z</time>
      </trkpt>
      <trkpt lat="42.95487" lon="0.55184">
        <ele>660</ele>
        <time>2012-08-22T08:26:02Z</time>
      </trkpt>
      <trkpt lat="42.95482" lon="0.55132">
        <ele>660</ele>
        <time>2012-08-22T08:26:10Z</time>
      </trkpt>
      <trkpt lat="42.95493" lon="0.55078">
        <ele>660</ele>
        <time>2012-08-22T08:26:19Z</time>
      </trkpt>
      <trkpt lat="42.95513" lon="0.55036">
        <ele>660</ele>
        <time>2012-08-22T08:26:27Z</time>
      </trkpt>
      <trkpt lat="42.9554" lon="0.54997">
        <ele>660</ele>
        <time>2012-08-22T08:26:36Z</time>
      </trkpt>
      <trkpt lat="42.95548" lon="0.54944">
        <ele>660.833313</ele>
        <time>2012-08-22T08:26:45Z</time>
      </trkpt>
      <trkpt lat="42.95553" lon="0.54891">
        <ele>660.833313</ele>
        <time>2012-08-22T08:26:53Z</time>
      </trkpt>
      <trkpt lat="42.95557" lon="0.54866">
        <ele>660.833313</ele>
        <time>2012-08-22T08:26:58Z</time>
      </trkpt>
      <trkpt lat="42.95558" lon="0.5484">
        <ele>660.833313</ele>
        <time>2012-08-22T08:27:03Z</time>
      </trkpt>
      <trkpt lat="42.95562" lon="0.54786">
        <ele>660.833313</ele>
        <time>2012-08-22T08:27:13Z</time>
      </trkpt>
      <trkpt lat="42.95559" lon="0.54728">
        <ele>660.833313</ele>
        <time>2012-08-22T08:27:23Z</time>
      </trkpt>
      <trkpt lat="42.95584" lon="0.54683">
        <ele>660.833313</ele>
        <time>2012-08-22T08:27:29Z</time>
      </trkpt>
      <trkpt lat="42.95576" lon="0.54628">
        <ele>668.666687</ele>
        <time>2012-08-22T08:27:34Z</time>
      </trkpt>
      <trkpt lat="42.95576" lon="0.54577">
        <ele>668.666687</ele>
        <time>2012-08-22T08:27:42Z</time>
      </trkpt>
      <trkpt lat="42.95577" lon="0.5452">
        <ele>668.666687</ele>
        <time>2012-08-22T08:27:51Z</time>
      </trkpt>
      <trkpt lat="42.95587" lon="0.54469">
        <ele>668.666687</ele>
        <time>2012-08-22T08:27:59Z</time>
      </trkpt>
      <trkpt lat="42.95595" lon="0.54416">
        <ele>668.666687</ele>
        <time>2012-08-22T08:28:07Z</time>
      </trkpt>
      <trkpt lat="42.95589" lon="0.54362">
        <ele>668.666687</ele>
        <time>2012-08-22T08:28:15Z</time>
      </trkpt>
      <trkpt lat="42.95582" lon="0.54332">
        <ele>668.666687</ele>
        <time>2012-08-22T08:28:20Z</time>
      </trkpt>
      <trkpt lat="42.95561" lon="0.54287">
        <ele>668.666687</ele>
        <time>2012-08-22T08:28:28Z</time>
      </trkpt>
      <trkpt lat="42.95542" lon="0.54241">
        <ele>681.416687</ele>
        <time>2012-08-22T08:28:36Z</time>
      </trkpt>
      <trkpt lat="42.95525" lon="0.54189">
        <ele>681.416687</ele>
        <time>2012-08-22T08:28:43Z</time>
      </trkpt>
      <trkpt lat="42.95513" lon="0.54137">
        <ele>681.416687</ele>
        <time>2012-08-22T08:28:51Z</time>
      </trkpt>
      <trkpt lat="42.95489" lon="0.54092">
        <ele>681.416687</ele>
        <time>2012-08-22T08:28:59Z</time>
      </trkpt>
      <trkpt lat="42.95477" lon="0.54039">
        <ele>681.416687</ele>
        <time>2012-08-22T08:29:08Z</time>
      </trkpt>
      <trkpt lat="42.95463" lon="0.53986">
        <ele>681.416687</ele>
        <time>2012-08-22T08:29:16Z</time>
      </trkpt>
      <trkpt lat="42.95447" lon="0.5394">
        <ele>681.416687</ele>
        <time>2012-08-22T08:29:24Z</time>
      </trkpt>
      <trkpt lat="42.95429" lon="0.53891">
        <ele>681.416687</ele>
        <time>2012-08-22T08:29:32Z</time>
      </trkpt>
      <trkpt lat="42.9541" lon="0.53844">
        <ele>685.666687</ele>
        <time>2012-08-22T08:29:40Z</time>
      </trkpt>
      <trkpt lat="42.95382" lon="0.53799">
        <ele>685.666687</ele>
        <time>2012-08-22T08:29:48Z</time>
      </trkpt>
      <trkpt lat="42.95365" lon="0.53751">
        <ele>685.666687</ele>
        <time>2012-08-22T08:29:56Z</time>
      </trkpt>
      <trkpt lat="42.95333" lon="0.5372">
        <ele>685.666687</ele>
        <time>2012-08-22T08:30:04Z</time>
      </trkpt>
      <trkpt lat="42.95316" lon="0.53699">
        <ele>685.666687</ele>
        <time>2012-08-22T08:30:09Z</time>
      </trkpt>
      <trkpt lat="42.95279" lon="0.53663">
        <ele>685.666687</ele>
        <time>2012-08-22T08:30:17Z</time>
      </trkpt>
      <trkpt lat="42.95272" lon="0.5361">
        <ele>685.666687</ele>
        <time>2012-08-22T08:30:25Z</time>
      </trkpt>
      <trkpt lat="42.95279" lon="0.53555">
        <ele>682.916687</ele>
        <time>2012-08-22T08:30:34Z</time>
      </trkpt>
      <trkpt lat="42.95261" lon="0.53498">
        <ele>682.916687</ele>
        <time>2012-08-22T08:30:42Z</time>
      </trkpt>
      <trkpt lat="42.95239" lon="0.53448">
        <ele>682.916687</ele>
        <time>2012-08-22T08:30:51Z</time>
      </trkpt>
      <trkpt lat="42.95224" lon="0.5343">
        <ele>682.916687</ele>
        <time>2012-08-22T08:30:56Z</time>
      </trkpt>
      <trkpt lat="42.95194" lon="0.53398">
        <ele>682.916687</ele>
        <time>2012-08-22T08:31:06Z</time>
      </trkpt>
      <trkpt lat="42.95167" lon="0.53356">
        <ele>682.916687</ele>
        <time>2012-08-22T08:31:16Z</time>
      </trkpt>
      <trkpt lat="42.95142" lon="0.53309">
        <ele>682.916687</ele>
        <time>2012-08-22T08:31:26Z</time>
      </trkpt>
      <trkpt lat="42.95127" lon="0.5326">
        <ele>682.916687</ele>
        <time>2012-08-22T08:31:36Z</time>
      </trkpt>
      <trkpt lat="42.95118" lon="0.53233">
        <ele>691.666687</ele>
        <time>2012-08-22T08:31:42Z</time>
      </trkpt>
      <trkpt lat="42.95115" lon="0.53181">
        <ele>691.666687</ele>
        <time>2012-08-22T08:31:51Z</time>
      </trkpt>
      <trkpt lat="42.95113" lon="0.53128">
        <ele>691.666687</ele>
        <time>2012-08-22T08:32:00Z</time>
      </trkpt>
      <trkpt lat="42.95093" lon="0.5308">
        <ele>691.666687</ele>
        <time>2012-08-22T08:32:10Z</time>
      </trkpt>
      <trkpt lat="42.95088" lon="0.53051">
        <ele>691.666687</ele>
        <time>2012-08-22T08:32:15Z</time>
      </trkpt>
      <trkpt lat="42.95088" lon="0.52993">
        <ele>691.666687</ele>
        <time>2012-08-22T08:32:25Z</time>
      </trkpt>
      <trkpt lat="42.9508" lon="0.52935">
        <ele>691.666687</ele>
        <time>2012-08-22T08:32:35Z</time>
      </trkpt>
      <trkpt lat="42.95066" lon="0.52887">
        <ele>693</ele>
        <time>2012-08-22T08:32:43Z</time>
      </trkpt>
      <trkpt lat="42.95038" lon="0.52857">
        <ele>693</ele>
        <time>2012-08-22T08:32:51Z</time>
      </trkpt>
      <trkpt lat="42.95001" lon="0.52831">
        <ele>693</ele>
        <time>2012-08-22T08:33:00Z</time>
      </trkpt>
      <trkpt lat="42.94983" lon="0.52776">
        <ele>693</ele>
        <time>2012-08-22T08:33:10Z</time>
      </trkpt>
      <trkpt lat="42.94961" lon="0.52731">
        <ele>693</ele>
        <time>2012-08-22T08:33:19Z</time>
      </trkpt>
      <trkpt lat="42.94937" lon="0.52693">
        <ele>693</ele>
        <time>2012-08-22T08:33:29Z</time>
      </trkpt>
      <trkpt lat="42.94895" lon="0.52676">
        <ele>693</ele>
        <time>2012-08-22T08:33:36Z</time>
      </trkpt>
      <trkpt lat="42.9486" lon="0.52644">
        <ele>708.5</ele>
        <time>2012-08-22T08:33:47Z</time>
      </trkpt>
      <trkpt lat="42.94843" lon="0.52632">
        <ele>708.5</ele>
        <time>2012-08-22T08:33:52Z</time>
      </trkpt>
      <trkpt lat="42.94811" lon="0.526">
        <ele>708.5</ele>
        <time>2012-08-22T08:34:03Z</time>
      </trkpt>
      <trkpt lat="42.94785" lon="0.52565">
        <ele>708.5</ele>
        <time>2012-08-22T08:34:13Z</time>
      </trkpt>
      <trkpt lat="42.94769" lon="0.52546">
        <ele>708.5</ele>
        <time>2012-08-22T08:34:19Z</time>
      </trkpt>
      <trkpt lat="42.94756" lon="0.52526">
        <ele>708.5</ele>
        <time>2012-08-22T08:34:25Z</time>
      </trkpt>
      <trkpt lat="42.94737" lon="0.52485">
        <ele>708.5</ele>
        <time>2012-08-22T08:34:35Z</time>
      </trkpt>
      <trkpt lat="42.94667" lon="0.52515">
        <ele>713</ele>
        <time>2012-08-22T08:34:41Z</time>
      </trkpt>
      <trkpt lat="42.94626" lon="0.52515">
        <ele>713</ele>
        <time>2012-08-22T08:34:48Z</time>
      </trkpt>
      <trkpt lat="42.94593" lon="0.52481">
        <ele>713</ele>
        <time>2012-08-22T08:34:56Z</time>
      </trkpt>
      <trkpt lat="42.94573" lon="0.52436">
        <ele>713</ele>
        <time>2012-08-22T08:35:04Z</time>
      </trkpt>
      <trkpt lat="42.94559" lon="0.52387">
        <ele>713</ele>
        <time>2012-08-22T08:35:13Z</time>
      </trkpt>
      <trkpt lat="42.94558" lon="0.52359">
        <ele>713</ele>
        <time>2012-08-22T08:35:18Z</time>
      </trkpt>
      <trkpt lat="42.94557" lon="0.52329">
        <ele>713</ele>
        <time>2012-08-22T08:35:23Z</time>
      </trkpt>
      <trkpt lat="42.94553" lon="0.52302">
        <ele>719.833313</ele>
        <time>2012-08-22T08:35:28Z</time>
      </trkpt>
      <trkpt lat="42.94546" lon="0.52277">
        <ele>719.833313</ele>
        <time>2012-08-22T08:35:33Z</time>
      </trkpt>
      <trkpt lat="42.94514" lon="0.52246">
        <ele>719.833313</ele>
        <time>2012-08-22T08:35:44Z</time>
      </trkpt>
      <trkpt lat="42.94499" lon="0.52231">
        <ele>719.833313</ele>
        <time>2012-08-22T08:35:49Z</time>
      </trkpt>
      <trkpt lat="42.94487" lon="0.52208">
        <ele>719.833313</ele>
        <time>2012-08-22T08:35:54Z</time>
      </trkpt>
      <trkpt lat="42.94483" lon="0.52142">
        <ele>719.833313</ele>
        <time>2012-08-22T08:36:07Z</time>
      </trkpt>
      <trkpt lat="42.94477" lon="0.52116">
        <ele>719.833313</ele>
        <time>2012-08-22T08:36:13Z</time>
      </trkpt>
      <trkpt lat="42.94465" lon="0.52092">
        <ele>719.833313</ele>
        <time>2012-08-22T08:36:19Z</time>
      </trkpt>
      <trkpt lat="42.9445" lon="0.52076">
        <ele>719.833313</ele>
        <time>2012-08-22T08:36:25Z</time>
      </trkpt>
      <trkpt lat="42.94442" lon="0.52054">
        <ele>719.833313</ele>
        <time>2012-08-22T08:36:31Z</time>
      </trkpt>
      <trkpt lat="42.94433" lon="0.52029">
        <ele>726.083313</ele>
        <time>2012-08-22T08:36:38Z</time>
      </trkpt>
      <trkpt lat="42.94427" lon="0.52006">
        <ele>726.083313</ele>
        <time>2012-08-22T08:36:46Z</time>
      </trkpt>
      <trkpt lat="42.9441" lon="0.51992">
        <ele>726.083313</ele>
        <time>2012-08-22T08:36:54Z</time>
      </trkpt>
      <trkpt lat="42.94392" lon="0.51989">
        <ele>726.083313</ele>
        <time>2012-08-22T08:37:01Z</time>
      </trkpt>
      <trkpt lat="42.94372" lon="0.51985">
        <ele>726.083313</ele>
        <time>2012-08-22T08:37:08Z</time>
      </trkpt>
      <trkpt lat="42.94354" lon="0.51973">
        <ele>726.083313</ele>
        <time>2012-08-22T08:37:17Z</time>
      </trkpt>
      <trkpt lat="42.94336" lon="0.51965">
        <ele>726.083313</ele>
        <time>2012-08-22T08:37:23Z</time>
      </trkpt>
      <trkpt lat="42.94318" lon="0.51957">
        <ele>726.083313</ele>
        <time>2012-08-22T08:37:30Z</time>
      </trkpt>
      <trkpt lat="42.9428" lon="0.51955">
        <ele>743.916687</ele>
        <time>2012-08-22T08:37:38Z</time>
      </trkpt>
      <trkpt lat="42.94239" lon="0.51958">
        <ele>743.916687</ele>
        <time>2012-08-22T08:37:47Z</time>
      </trkpt>
      <trkpt lat="42.94205" lon="0.51926">
        <ele>743.916687</ele>
        <time>2012-08-22T08:37:57Z</time>
      </trkpt>
      <trkpt lat="42.94192" lon="0.51903">
        <ele>743.916687</ele>
        <time>2012-08-22T08:38:02Z</time>
      </trkpt>
      <trkpt lat="42.94171" lon="0.51861">
        <ele>743.916687</ele>
        <time>2012-08-22T08:38:10Z</time>
      </trkpt>
      <trkpt lat="42.94148" lon="0.51818">
        <ele>743.916687</ele>
        <time>2012-08-22T08:38:19Z</time>
      </trkpt>
      <trkpt lat="42.94114" lon="0.51794">
        <ele>743.916687</ele>
        <time>2012-08-22T08:38:29Z</time>
      </trkpt>
      <trkpt lat="42.94095" lon="0.51789">
        <ele>743.916687</ele>
        <time>2012-08-22T08:38:34Z</time>
      </trkpt>
      <trkpt lat="42.94053" lon="0.51785">
        <ele>745.416687</ele>
        <time>2012-08-22T08:38:43Z</time>
      </trkpt>
      <trkpt lat="42.94011" lon="0.51779">
        <ele>745.416687</ele>
        <time>2012-08-22T08:38:53Z</time>
      </trkpt>
      <trkpt lat="42.9397" lon="0.51777">
        <ele>745.416687</ele>
        <time>2012-08-22T08:39:03Z</time>
      </trkpt>
      <trkpt lat="42.93951" lon="0.51777">
        <ele>745.416687</ele>
        <time>2012-08-22T08:39:08Z</time>
      </trkpt>
      <trkpt lat="42.93931" lon="0.51774">
        <ele>745.416687</ele>
        <time>2012-08-22T08:39:14Z</time>
      </trkpt>
      <trkpt lat="42.93913" lon="0.51769">
        <ele>745.416687</ele>
        <time>2012-08-22T08:39:20Z</time>
      </trkpt>
      <trkpt lat="42.93894" lon="0.51764">
        <ele>745.416687</ele>
        <time>2012-08-22T08:39:27Z</time>
      </trkpt>
      <trkpt lat="42.93876" lon="0.51753">
        <ele>755.166687</ele>
        <time>2012-08-22T08:39:34Z</time>
      </trkpt>
      <trkpt lat="42.9384" lon="0.51737">
        <ele>755.166687</ele>
        <time>2012-08-22T08:39:45Z</time>
      </trkpt>
      <trkpt lat="42.93822" lon="0.51731">
        <ele>755.166687</ele>
        <time>2012-08-22T08:39:52Z</time>
      </trkpt>
      <trkpt lat="42.93803" lon="0.51718">
        <ele>755.166687</ele>
        <time>2012-08-22T08:39:58Z</time>
      </trkpt>
      <trkpt lat="42.93771" lon="0.51693">
        <ele>755.166687</ele>
        <time>2012-08-22T08:40:07Z</time>
      </trkpt>
      <trkpt lat="42.93761" lon="0.51669">
        <ele>755.166687</ele>
        <time>2012-08-22T08:40:13Z</time>
      </trkpt>
      <trkpt lat="42.93755" lon="0.51644">
        <ele>755.166687</ele>
        <time>2012-08-22T08:40:19Z</time>
      </trkpt>
      <trkpt lat="42.93747" lon="0.5162">
        <ele>755.166687</ele>
        <time>2012-08-22T08:40:25Z</time>
      </trkpt>
      <trkpt lat="42.93732" lon="0.51604">
        <ele>755.166687</ele>
        <time>2012-08-22T08:40:30Z</time>
      </trkpt>
      <trkpt lat="42.93702" lon="0.51569">
        <ele>756.333313</ele>
        <time>2012-08-22T08:40:40Z</time>
      </trkpt>
      <trkpt lat="42.93687" lon="0.51553">
        <ele>756.333313</ele>
        <time>2012-08-22T08:40:45Z</time>
      </trkpt>
      <trkpt lat="42.93658" lon="0.51522">
        <ele>756.333313</ele>
        <time>2012-08-22T08:40:56Z</time>
      </trkpt>
      <trkpt lat="42.93646" lon="0.51498">
        <ele>756.333313</ele>
        <time>2012-08-22T08:41:02Z</time>
      </trkpt>
      <trkpt lat="42.93633" lon="0.51476">
        <ele>756.333313</ele>
        <time>2012-08-22T08:41:08Z</time>
      </trkpt>
      <trkpt lat="42.93628" lon="0.51449">
        <ele>756.333313</ele>
        <time>2012-08-22T08:41:14Z</time>
      </trkpt>
      <trkpt lat="42.93626" lon="0.51425">
        <ele>756.333313</ele>
        <time>2012-08-22T08:41:20Z</time>
      </trkpt>
      <trkpt lat="42.93612" lon="0.51376">
        <ele>756.333313</ele>
        <time>2012-08-22T08:41:30Z</time>
      </trkpt>
      <trkpt lat="42.93596" lon="0.5136">
        <ele>777</ele>
        <time>2012-08-22T08:41:35Z</time>
      </trkpt>
      <trkpt lat="42.93565" lon="0.51323">
        <ele>777</ele>
        <time>2012-08-22T08:41:45Z</time>
      </trkpt>
      <trkpt lat="42.93549" lon="0.51275">
        <ele>777</ele>
        <time>2012-08-22T08:41:55Z</time>
      </trkpt>
      <trkpt lat="42.93536" lon="0.51255">
        <ele>777</ele>
        <time>2012-08-22T08:42:00Z</time>
      </trkpt>
      <trkpt lat="42.9352" lon="0.51244">
        <ele>777</ele>
        <time>2012-08-22T08:42:05Z</time>
      </trkpt>
      <trkpt lat="42.93498" lon="0.51242">
        <ele>777</ele>
        <time>2012-08-22T08:42:11Z</time>
      </trkpt>
      <trkpt lat="42.93479" lon="0.51232">
        <ele>777</ele>
        <time>2012-08-22T08:42:17Z</time>
      </trkpt>
      <trkpt lat="42.93464" lon="0.51215">
        <ele>777</ele>
        <time>2012-08-22T08:42:22Z</time>
      </trkpt>
      <trkpt lat="42.93447" lon="0.51197">
        <ele>787.666687</ele>
        <time>2012-08-22T08:42:28Z</time>
      </trkpt>
      <trkpt lat="42.93415" lon="0.51164">
        <ele>787.666687</ele>
        <time>2012-08-22T08:42:38Z</time>
      </trkpt>
      <trkpt lat="42.93395" lon="0.51122">
        <ele>787.666687</ele>
        <time>2012-08-22T08:42:47Z</time>
      </trkpt>
      <trkpt lat="42.93388" lon="0.51095">
        <ele>787.666687</ele>
        <time>2012-08-22T08:42:52Z</time>
      </trkpt>
      <trkpt lat="42.93366" lon="0.51056">
        <ele>787.666687</ele>
        <time>2012-08-22T08:43:00Z</time>
      </trkpt>
      <trkpt lat="42.93328" lon="0.51033">
        <ele>787.666687</ele>
        <time>2012-08-22T08:43:09Z</time>
      </trkpt>
      <trkpt lat="42.93315" lon="0.51009">
        <ele>787.666687</ele>
        <time>2012-08-22T08:43:15Z</time>
      </trkpt>
      <trkpt lat="42.93301" lon="0.50991">
        <ele>787.666687</ele>
        <time>2012-08-22T08:43:20Z</time>
      </trkpt>
      <trkpt lat="42.93284" lon="0.50976">
        <ele>787.666687</ele>
        <time>2012-08-22T08:43:26Z</time>
      </trkpt>
      <trkpt lat="42.93248" lon="0.50954">
        <ele>795</ele>
        <time>2012-08-22T08:43:35Z</time>
      </trkpt>
      <trkpt lat="42.93206" lon="0.50964">
        <ele>795</ele>
        <time>2012-08-22T08:43:43Z</time>
      </trkpt>
      <trkpt lat="42.93175" lon="0.50999">
        <ele>795</ele>
        <time>2012-08-22T08:43:51Z</time>
      </trkpt>
      <trkpt lat="42.93146" lon="0.51032">
        <ele>795</ele>
        <time>2012-08-22T08:44:00Z</time>
      </trkpt>
      <trkpt lat="42.93125" lon="0.51037">
        <ele>795</ele>
        <time>2012-08-22T08:44:06Z</time>
      </trkpt>
      <trkpt lat="42.93107" lon="0.51032">
        <ele>795</ele>
        <time>2012-08-22T08:44:13Z</time>
      </trkpt>
      <trkpt lat="42.93088" lon="0.5102">
        <ele>795</ele>
        <time>2012-08-22T08:44:19Z</time>
      </trkpt>
      <trkpt lat="42.93054" lon="0.51003">
        <ele>795</ele>
        <time>2012-08-22T08:44:27Z</time>
      </trkpt>
      <trkpt lat="42.93044" lon="0.5098">
        <ele>802.75</ele>
        <time>2012-08-22T08:44:32Z</time>
      </trkpt>
      <trkpt lat="42.93022" lon="0.50934">
        <ele>802.75</ele>
        <time>2012-08-22T08:44:42Z</time>
      </trkpt>
      <trkpt lat="42.93007" lon="0.50918">
        <ele>802.75</ele>
        <time>2012-08-22T08:44:47Z</time>
      </trkpt>
      <trkpt lat="42.92992" lon="0.50901">
        <ele>802.75</ele>
        <time>2012-08-22T08:44:54Z</time>
      </trkpt>
      <trkpt lat="42.92976" lon="0.50883">
        <ele>802.75</ele>
        <time>2012-08-22T08:45:02Z</time>
      </trkpt>
      <trkpt lat="42.92964" lon="0.50864">
        <ele>802.75</ele>
        <time>2012-08-22T08:45:08Z</time>
      </trkpt>
      <trkpt lat="42.92908" lon="0.50875">
        <ele>802.75</ele>
        <time>2012-08-22T08:45:15Z</time>
      </trkpt>
      <trkpt lat="42.92869" lon="0.5088">
        <ele>802.75</ele>
        <time>2012-08-22T08:45:22Z</time>
      </trkpt>
      <trkpt lat="42.92839" lon="0.50912">
        <ele>802.75</ele>
        <time>2012-08-22T08:45:30Z</time>
      </trkpt>
      <trkpt lat="42.92818" lon="0.5096">
        <ele>809.25</ele>
        <time>2012-08-22T08:45:39Z</time>
      </trkpt>
      <trkpt lat="42.92806" lon="0.50981">
        <ele>809.25</ele>
        <time>2012-08-22T08:45:45Z</time>
      </trkpt>
      <trkpt lat="42.92788" lon="0.50999">
        <ele>809.25</ele>
        <time>2012-08-22T08:45:50Z</time>
      </trkpt>
      <trkpt lat="42.92759" lon="0.51033">
        <ele>809.25</ele>
        <time>2012-08-22T08:45:58Z</time>
      </trkpt>
      <trkpt lat="42.92722" lon="0.51081">
        <ele>809.25</ele>
        <time>2012-08-22T08:46:10Z</time>
      </trkpt>
      <trkpt lat="42.92704" lon="0.51096">
        <ele>809.25</ele>
        <time>2012-08-22T08:46:16Z</time>
      </trkpt>
      <trkpt lat="42.92689" lon="0.51111">
        <ele>809.25</ele>
        <time>2012-08-22T08:46:22Z</time>
      </trkpt>
      <trkpt lat="42.92673" lon="0.5113">
        <ele>809.25</ele>
        <time>2012-08-22T08:46:28Z</time>
      </trkpt>
      <trkpt lat="42.92637" lon="0.51152">
        <ele>809.25</ele>
        <time>2012-08-22T08:46:36Z</time>
      </trkpt>
      <trkpt lat="42.92599" lon="0.5115">
        <ele>807.333313</ele>
        <time>2012-08-22T08:46:49Z</time>
      </trkpt>
      <trkpt lat="42.92586" lon="0.51129">
        <ele>807.333313</ele>
        <time>2012-08-22T08:46:57Z</time>
      </trkpt>
      <trkpt lat="42.92572" lon="0.5111">
        <ele>807.333313</ele>
        <time>2012-08-22T08:47:04Z</time>
      </trkpt>
      <trkpt lat="42.92558" lon="0.51092">
        <ele>807.333313</ele>
        <time>2012-08-22T08:47:10Z</time>
      </trkpt>
      <trkpt lat="42.9255" lon="0.5107">
        <ele>807.333313</ele>
        <time>2012-08-22T08:47:16Z</time>
      </trkpt>
      <trkpt lat="42.92536" lon="0.51048">
        <ele>807.333313</ele>
        <time>2012-08-22T08:47:23Z</time>
      </trkpt>
      <trkpt lat="42.92498" lon="0.51046">
        <ele>807.333313</ele>
        <time>2012-08-22T08:47:33Z</time>
      </trkpt>
      <trkpt lat="42.92478" lon="0.5105">
        <ele>821.166687</ele>
        <time>2012-08-22T08:47:38Z</time>
      </trkpt>
      <trkpt lat="42.9244" lon="0.51057">
        <ele>821.166687</ele>
        <time>2012-08-22T08:47:50Z</time>
      </trkpt>
      <trkpt lat="42.92423" lon="0.51074">
        <ele>821.166687</ele>
        <time>2012-08-22T08:47:57Z</time>
      </trkpt>
      <trkpt lat="42.92406" lon="0.51093">
        <ele>821.166687</ele>
        <time>2012-08-22T08:48:03Z</time>
      </trkpt>
      <trkpt lat="42.92391" lon="0.51109">
        <ele>821.166687</ele>
        <time>2012-08-22T08:48:10Z</time>
      </trkpt>
      <trkpt lat="42.92373" lon="0.51108">
        <ele>821.166687</ele>
        <time>2012-08-22T08:48:18Z</time>
      </trkpt>
      <trkpt lat="42.92354" lon="0.51111">
        <ele>821.166687</ele>
        <time>2012-08-22T08:48:26Z</time>
      </trkpt>
      <trkpt lat="42.92336" lon="0.51101">
        <ele>821.166687</ele>
        <time>2012-08-22T08:48:38Z</time>
      </trkpt>
      <trkpt lat="42.92324" lon="0.51082">
        <ele>831.916687</ele>
        <time>2012-08-22T08:48:47Z</time>
      </trkpt>
      <trkpt lat="42.92308" lon="0.5107">
        <ele>831.916687</ele>
        <time>2012-08-22T08:48:56Z</time>
      </trkpt>
      <trkpt lat="42.92287" lon="0.51062">
        <ele>831.916687</ele>
        <time>2012-08-22T08:49:03Z</time>
      </trkpt>
      <trkpt lat="42.92267" lon="0.51055">
        <ele>831.916687</ele>
        <time>2012-08-22T08:49:09Z</time>
      </trkpt>
      <trkpt lat="42.92249" lon="0.51057">
        <ele>831.916687</ele>
        <time>2012-08-22T08:49:15Z</time>
      </trkpt>
      <trkpt lat="42.92231" lon="0.51058">
        <ele>831.916687</ele>
        <time>2012-08-22T08:49:22Z</time>
      </trkpt>
      <trkpt lat="42.92212" lon="0.51054">
        <ele>831.916687</ele>
        <time>2012-08-22T08:49:31Z</time>
      </trkpt>
      <trkpt lat="42.92198" lon="0.51073">
        <ele>843.083313</ele>
        <time>2012-08-22T08:49:38Z</time>
      </trkpt>
      <trkpt lat="42.92183" lon="0.51088">
        <ele>843.083313</ele>
        <time>2012-08-22T08:49:46Z</time>
      </trkpt>
      <trkpt lat="42.92165" lon="0.51103">
        <ele>843.083313</ele>
        <time>2012-08-22T08:49:55Z</time>
      </trkpt>
      <trkpt lat="42.92131" lon="0.5112">
        <ele>843.083313</ele>
        <time>2012-08-22T08:50:03Z</time>
      </trkpt>
      <trkpt lat="42.92111" lon="0.51119">
        <ele>843.083313</ele>
        <time>2012-08-22T08:50:10Z</time>
      </trkpt>
      <trkpt lat="42.92092" lon="0.51121">
        <ele>843.083313</ele>
        <time>2012-08-22T08:50:16Z</time>
      </trkpt>
      <trkpt lat="42.92074" lon="0.51125">
        <ele>843.083313</ele>
        <time>2012-08-22T08:50:22Z</time>
      </trkpt>
      <trkpt lat="42.92055" lon="0.51127">
        <ele>843.083313</ele>
        <time>2012-08-22T08:50:30Z</time>
      </trkpt>
      <trkpt lat="42.92036" lon="0.51126">
        <ele>846.083313</ele>
        <time>2012-08-22T08:50:40Z</time>
      </trkpt>
      <trkpt lat="42.92019" lon="0.51134">
        <ele>846.083313</ele>
        <time>2012-08-22T08:50:50Z</time>
      </trkpt>
      <trkpt lat="42.92004" lon="0.51152">
        <ele>846.083313</ele>
        <time>2012-08-22T08:51:00Z</time>
      </trkpt>
      <trkpt lat="42.91951" lon="0.51181">
        <ele>846.083313</ele>
        <time>2012-08-22T08:51:07Z</time>
      </trkpt>
      <trkpt lat="42.91933" lon="0.51181">
        <ele>846.083313</ele>
        <time>2012-08-22T08:51:13Z</time>
      </trkpt>
      <trkpt lat="42.91913" lon="0.51171">
        <ele>846.083313</ele>
        <time>2012-08-22T08:51:21Z</time>
      </trkpt>
      <trkpt lat="42.91892" lon="0.51166">
        <ele>846.083313</ele>
        <time>2012-08-22T08:51:27Z</time>
      </trkpt>
      <trkpt lat="42.91851" lon="0.5122">
        <ele>846.083313</ele>
        <time>2012-08-22T08:51:36Z</time>
      </trkpt>
      <trkpt lat="42.91836" lon="0.51272">
        <ele>852.5</ele>
        <time>2012-08-22T08:51:44Z</time>
      </trkpt>
      <trkpt lat="42.91826" lon="0.51296">
        <ele>852.5</ele>
        <time>2012-08-22T08:51:49Z</time>
      </trkpt>
      <trkpt lat="42.91805" lon="0.51293">
        <ele>852.5</ele>
        <time>2012-08-22T08:51:54Z</time>
      </trkpt>
      <trkpt lat="42.91785" lon="0.5123">
        <ele>852.5</ele>
        <time>2012-08-22T08:52:02Z</time>
      </trkpt>
      <trkpt lat="42.9176" lon="0.51194">
        <ele>852.5</ele>
        <time>2012-08-22T08:52:10Z</time>
      </trkpt>
      <trkpt lat="42.91732" lon="0.51152">
        <ele>852.5</ele>
        <time>2012-08-22T08:52:20Z</time>
      </trkpt>
      <trkpt lat="42.91695" lon="0.51153">
        <ele>852.5</ele>
        <time>2012-08-22T08:52:31Z</time>
      </trkpt>
      <trkpt lat="42.91654" lon="0.51171">
        <ele>852.5</ele>
        <time>2012-08-22T08:52:39Z</time>
      </trkpt>
      <trkpt lat="42.9162" lon="0.51194">
        <ele>882.166687</ele>
        <time>2012-08-22T08:52:50Z</time>
      </trkpt>
      <trkpt lat="42.91599" lon="0.51201">
        <ele>882.166687</ele>
        <time>2012-08-22T08:52:56Z</time>
      </trkpt>
      <trkpt lat="42.91582" lon="0.51207">
        <ele>882.166687</ele>
        <time>2012-08-22T08:53:04Z</time>
      </trkpt>
      <trkpt lat="42.91564" lon="0.5122">
        <ele>882.166687</ele>
        <time>2012-08-22T08:53:14Z</time>
      </trkpt>
      <trkpt lat="42.91548" lon="0.51232">
        <ele>882.166687</ele>
        <time>2012-08-22T08:53:22Z</time>
      </trkpt>
      <trkpt lat="42.91531" lon="0.51247">
        <ele>882.166687</ele>
        <time>2012-08-22T08:53:30Z</time>
      </trkpt>
      <trkpt lat="42.91491" lon="0.51263">
        <ele>882.166687</ele>
        <time>2012-08-22T08:53:41Z</time>
      </trkpt>
      <trkpt lat="42.91472" lon="0.51267">
        <ele>895</ele>
        <time>2012-08-22T08:53:48Z</time>
      </trkpt>
      <trkpt lat="42.91463" lon="0.51293">
        <ele>895</ele>
        <time>2012-08-22T08:53:55Z</time>
      </trkpt>
      <trkpt lat="42.91436" lon="0.51336">
        <ele>895</ele>
        <time>2012-08-22T08:54:02Z</time>
      </trkpt>
      <trkpt lat="42.91421" lon="0.51353">
        <ele>895</ele>
        <time>2012-08-22T08:54:10Z</time>
      </trkpt>
      <trkpt lat="42.91402" lon="0.51354">
        <ele>895</ele>
        <time>2012-08-22T08:54:18Z</time>
      </trkpt>
      <trkpt lat="42.91386" lon="0.51342">
        <ele>895</ele>
        <time>2012-08-22T08:54:26Z</time>
      </trkpt>
      <trkpt lat="42.91369" lon="0.51326">
        <ele>895</ele>
        <time>2012-08-22T08:54:35Z</time>
      </trkpt>
      <trkpt lat="42.91351" lon="0.51324">
        <ele>896.333313</ele>
        <time>2012-08-22T08:54:42Z</time>
      </trkpt>
      <trkpt lat="42.91333" lon="0.51335">
        <ele>896.333313</ele>
        <time>2012-08-22T08:54:50Z</time>
      </trkpt>
      <trkpt lat="42.91319" lon="0.51355">
        <ele>896.333313</ele>
        <time>2012-08-22T08:54:57Z</time>
      </trkpt>
      <trkpt lat="42.91302" lon="0.51372">
        <ele>896.333313</ele>
        <time>2012-08-22T08:55:03Z</time>
      </trkpt>
      <trkpt lat="42.91266" lon="0.51389">
        <ele>896.333313</ele>
        <time>2012-08-22T08:55:13Z</time>
      </trkpt>
      <trkpt lat="42.9125" lon="0.51403">
        <ele>896.333313</ele>
        <time>2012-08-22T08:55:20Z</time>
      </trkpt>
      <trkpt lat="42.91234" lon="0.51419">
        <ele>896.333313</ele>
        <time>2012-08-22T08:55:25Z</time>
      </trkpt>
      <trkpt lat="42.91227" lon="0.51444">
        <ele>896.333313</ele>
        <time>2012-08-22T08:55:31Z</time>
      </trkpt>
      <trkpt lat="42.91224" lon="0.51469">
        <ele>925.166687</ele>
        <time>2012-08-22T08:55:37Z</time>
      </trkpt>
      <trkpt lat="42.91215" lon="0.51492">
        <ele>925.166687</ele>
        <time>2012-08-22T08:55:45Z</time>
      </trkpt>
      <trkpt lat="42.91196" lon="0.51491">
        <ele>925.166687</ele>
        <time>2012-08-22T08:55:54Z</time>
      </trkpt>
      <trkpt lat="42.91144" lon="0.51468">
        <ele>925.166687</ele>
        <time>2012-08-22T08:56:23Z</time>
      </trkpt>
      <trkpt lat="42.91126" lon="0.51457">
        <ele>925.166687</ele>
        <time>2012-08-22T08:56:37Z</time>
      </trkpt>
      <trkpt lat="42.91105" lon="0.51452">
        <ele>925.166687</ele>
        <time>2012-08-22T08:56:43Z</time>
      </trkpt>
      <trkpt lat="42.91086" lon="0.51454">
        <ele>925.166687</ele>
        <time>2012-08-22T08:56:50Z</time>
      </trkpt>
      <trkpt lat="42.91066" lon="0.51461">
        <ele>925.166687</ele>
        <time>2012-08-22T08:56:56Z</time>
      </trkpt>
      <trkpt lat="42.91047" lon="0.51468">
        <ele>940.916687</ele>
        <time>2012-08-22T08:57:02Z</time>
      </trkpt>
      <trkpt lat="42.91031" lon="0.5148">
        <ele>940.916687</ele>
        <time>2012-08-22T08:57:14Z</time>
      </trkpt>
      <trkpt lat="42.91013" lon="0.51481">
        <ele>940.916687</ele>
        <time>2012-08-22T08:57:26Z</time>
      </trkpt>
      <trkpt lat="42.90997" lon="0.5147">
        <ele>940.916687</ele>
        <time>2012-08-22T08:57:39Z</time>
      </trkpt>
      <trkpt lat="42.9098" lon="0.51459">
        <ele>940.916687</ele>
        <time>2012-08-22T08:57:49Z</time>
      </trkpt>
      <trkpt lat="42.90962" lon="0.51446">
        <ele>940.916687</ele>
        <time>2012-08-22T08:57:57Z</time>
      </trkpt>
      <trkpt lat="42.90924" lon="0.51438">
        <ele>954.416687</ele>
        <time>2012-08-22T08:58:07Z</time>
      </trkpt>
      <trkpt lat="42.90904" lon="0.51439">
        <ele>954.416687</ele>
        <time>2012-08-22T08:58:14Z</time>
      </trkpt>
      <trkpt lat="42.90886" lon="0.51432">
        <ele>954.416687</ele>
        <time>2012-08-22T08:58:23Z</time>
      </trkpt>
      <trkpt lat="42.90871" lon="0.51411">
        <ele>954.416687</ele>
        <time>2012-08-22T08:58:32Z</time>
      </trkpt>
      <trkpt lat="42.90857" lon="0.51392">
        <ele>954.416687</ele>
        <time>2012-08-22T08:58:40Z</time>
      </trkpt>
      <trkpt lat="42.90849" lon="0.51369">
        <ele>960.25</ele>
        <time>2012-08-22T08:58:48Z</time>
      </trkpt>
      <trkpt lat="42.90844" lon="0.51342">
        <ele>960.25</ele>
        <time>2012-08-22T08:58:57Z</time>
      </trkpt>
      <trkpt lat="42.9084" lon="0.51318">
        <ele>960.25</ele>
        <time>2012-08-22T08:59:04Z</time>
      </trkpt>
      <trkpt lat="42.90831" lon="0.51294">
        <ele>960.25</ele>
        <time>2012-08-22T08:59:12Z</time>
      </trkpt>
      <trkpt lat="42.90821" lon="0.51273">
        <ele>960.25</ele>
        <time>2012-08-22T08:59:21Z</time>
      </trkpt>
      <trkpt lat="42.90802" lon="0.51262">
        <ele>960.25</ele>
        <time>2012-08-22T08:59:30Z</time>
      </trkpt>
      <trkpt lat="42.90783" lon="0.51255">
        <ele>960.25</ele>
        <time>2012-08-22T08:59:36Z</time>
      </trkpt>
      <trkpt lat="42.90765" lon="0.51245">
        <ele>960.25</ele>
        <time>2012-08-22T08:59:42Z</time>
      </trkpt>
      <trkpt lat="42.90745" lon="0.51239">
        <ele>979.583313</ele>
        <time>2012-08-22T08:59:47Z</time>
      </trkpt>
      <trkpt lat="42.90706" lon="0.51241">
        <ele>979.583313</ele>
        <time>2012-08-22T09:00:02Z</time>
      </trkpt>
      <trkpt lat="42.90688" lon="0.51239">
        <ele>979.583313</ele>
        <time>2012-08-22T09:00:11Z</time>
      </trkpt>
      <trkpt lat="42.9067" lon="0.5123">
        <ele>979.583313</ele>
        <time>2012-08-22T09:00:21Z</time>
      </trkpt>
      <trkpt lat="42.9065" lon="0.51228">
        <ele>979.583313</ele>
        <time>2012-08-22T09:00:27Z</time>
      </trkpt>
      <trkpt lat="42.9063" lon="0.51233">
        <ele>979.583313</ele>
        <time>2012-08-22T09:00:33Z</time>
      </trkpt>
      <trkpt lat="42.9061" lon="0.51233">
        <ele>979.583313</ele>
        <time>2012-08-22T09:00:40Z</time>
      </trkpt>
      <trkpt lat="42.9059" lon="0.51231">
        <ele>1004.666687</ele>
        <time>2012-08-22T09:00:48Z</time>
      </trkpt>
      <trkpt lat="42.90571" lon="0.51231">
        <ele>1004.666687</ele>
        <time>2012-08-22T09:00:55Z</time>
      </trkpt>
      <trkpt lat="42.90553" lon="0.51234">
        <ele>1004.666687</ele>
        <time>2012-08-22T09:01:01Z</time>
      </trkpt>
      <trkpt lat="42.90534" lon="0.51241">
        <ele>1004.666687</ele>
        <time>2012-08-22T09:01:10Z</time>
      </trkpt>
      <trkpt lat="42.90517" lon="0.51229">
        <ele>1004.666687</ele>
        <time>2012-08-22T09:01:17Z</time>
      </trkpt>
      <trkpt lat="42.90504" lon="0.51209">
        <ele>1004.666687</ele>
        <time>2012-08-22T09:01:24Z</time>
      </trkpt>
      <trkpt lat="42.90493" lon="0.51186">
        <ele>1004.666687</ele>
        <time>2012-08-22T09:01:32Z</time>
      </trkpt>
      <trkpt lat="42.905" lon="0.51162">
        <ele>1004.666687</ele>
        <time>2012-08-22T09:01:40Z</time>
      </trkpt>
      <trkpt lat="42.90507" lon="0.51136">
        <ele>1011.083313</ele>
        <time>2012-08-22T09:01:48Z</time>
      </trkpt>
      <trkpt lat="42.90519" lon="0.51114">
        <ele>1011.083313</ele>
        <time>2012-08-22T09:01:54Z</time>
      </trkpt>
      <trkpt lat="42.90531" lon="0.51092">
        <ele>1011.083313</ele>
        <time>2012-08-22T09:02:02Z</time>
      </trkpt>
      <trkpt lat="42.90534" lon="0.51066">
        <ele>1011.083313</ele>
        <time>2012-08-22T09:02:08Z</time>
      </trkpt>
      <trkpt lat="42.90539" lon="0.51039">
        <ele>1011.083313</ele>
        <time>2012-08-22T09:02:15Z</time>
      </trkpt>
      <trkpt lat="42.9054" lon="0.50984">
        <ele>1011.083313</ele>
        <time>2012-08-22T09:02:24Z</time>
      </trkpt>
      <trkpt lat="42.90534" lon="0.50932">
        <ele>1011.083313</ele>
        <time>2012-08-22T09:02:33Z</time>
      </trkpt>
      <trkpt lat="42.90529" lon="0.50907">
        <ele>1011.083313</ele>
        <time>2012-08-22T09:02:38Z</time>
      </trkpt>
      <trkpt lat="42.90511" lon="0.50856">
        <ele>1038.833374</ele>
        <time>2012-08-22T09:02:49Z</time>
      </trkpt>
      <trkpt lat="42.90495" lon="0.50837">
        <ele>1038.833374</ele>
        <time>2012-08-22T09:02:55Z</time>
      </trkpt>
      <trkpt lat="42.90481" lon="0.5082">
        <ele>1038.833374</ele>
        <time>2012-08-22T09:03:01Z</time>
      </trkpt>
      <trkpt lat="42.90463" lon="0.50802">
        <ele>1038.833374</ele>
        <time>2012-08-22T09:03:06Z</time>
      </trkpt>
      <trkpt lat="42.90431" lon="0.50765">
        <ele>1038.833374</ele>
        <time>2012-08-22T09:03:16Z</time>
      </trkpt>
      <trkpt lat="42.90416" lon="0.50748">
        <ele>1038.833374</ele>
        <time>2012-08-22T09:03:23Z</time>
      </trkpt>
      <trkpt lat="42.90398" lon="0.50757">
        <ele>1038.833374</ele>
        <time>2012-08-22T09:03:28Z</time>
      </trkpt>
      <trkpt lat="42.90386" lon="0.50779">
        <ele>1038.833374</ele>
        <time>2012-08-22T09:03:33Z</time>
      </trkpt>
      <trkpt lat="42.90332" lon="0.50825">
        <ele>1058.75</ele>
        <time>2012-08-22T09:03:43Z</time>
      </trkpt>
      <trkpt lat="42.90303" lon="0.50863">
        <ele>1058.75</ele>
        <time>2012-08-22T09:03:54Z</time>
      </trkpt>
      <trkpt lat="42.90287" lon="0.50875">
        <ele>1058.75</ele>
        <time>2012-08-22T09:04:00Z</time>
      </trkpt>
      <trkpt lat="42.9027" lon="0.50864">
        <ele>1058.75</ele>
        <time>2012-08-22T09:04:07Z</time>
      </trkpt>
      <trkpt lat="42.90253" lon="0.50853">
        <ele>1058.75</ele>
        <time>2012-08-22T09:04:13Z</time>
      </trkpt>
      <trkpt lat="42.90236" lon="0.50839">
        <ele>1058.75</ele>
        <time>2012-08-22T09:04:20Z</time>
      </trkpt>
      <trkpt lat="42.9022" lon="0.50822">
        <ele>1058.75</ele>
        <time>2012-08-22T09:04:26Z</time>
      </trkpt>
      <trkpt lat="42.90205" lon="0.50807">
        <ele>1058.75</ele>
        <time>2012-08-22T09:04:32Z</time>
      </trkpt>
      <trkpt lat="42.90186" lon="0.50797">
        <ele>1070.5</ele>
        <time>2012-08-22T09:04:38Z</time>
      </trkpt>
      <trkpt lat="42.90168" lon="0.50789">
        <ele>1070.5</ele>
        <time>2012-08-22T09:04:46Z</time>
      </trkpt>
      <trkpt lat="42.90147" lon="0.50786">
        <ele>1070.5</ele>
        <time>2012-08-22T09:04:52Z</time>
      </trkpt>
      <trkpt lat="42.90128" lon="0.50789">
        <ele>1070.5</ele>
        <time>2012-08-22T09:04:59Z</time>
      </trkpt>
      <trkpt lat="42.90091" lon="0.50781">
        <ele>1070.5</ele>
        <time>2012-08-22T09:05:07Z</time>
      </trkpt>
      <trkpt lat="42.90051" lon="0.50766">
        <ele>1070.5</ele>
        <time>2012-08-22T09:05:15Z</time>
      </trkpt>
      <trkpt lat="42.90011" lon="0.50754">
        <ele>1070.5</ele>
        <time>2012-08-22T09:05:26Z</time>
      </trkpt>
      <trkpt lat="42.89993" lon="0.50748">
        <ele>1070.5</ele>
        <time>2012-08-22T09:05:31Z</time>
      </trkpt>
      <trkpt lat="42.89955" lon="0.50733">
        <ele>1070.5</ele>
        <time>2012-08-22T09:05:40Z</time>
      </trkpt>
      <trkpt lat="42.89926" lon="0.50697">
        <ele>1092.083374</ele>
        <time>2012-08-22T09:05:50Z</time>
      </trkpt>
      <trkpt lat="42.89924" lon="0.5067">
        <ele>1092.083374</ele>
        <time>2012-08-22T09:05:57Z</time>
      </trkpt>
      <trkpt lat="42.89959" lon="0.50728">
        <ele>1092.083374</ele>
        <time>2012-08-22T09:06:18Z</time>
      </trkpt>
      <trkpt lat="42.89979" lon="0.50734">
        <ele>1092.083374</ele>
        <time>2012-08-22T09:06:41Z</time>
      </trkpt>
      <trkpt lat="42.90015" lon="0.50751">
        <ele>1092.083374</ele>
        <time>2012-08-22T09:06:52Z</time>
      </trkpt>
      <trkpt lat="42.90035" lon="0.50759">
        <ele>1092.083374</ele>
        <time>2012-08-22T09:07:00Z</time>
      </trkpt>
      <trkpt lat="42.90055" lon="0.5076">
        <ele>1092.083374</ele>
        <time>2012-08-22T09:07:07Z</time>
      </trkpt>
      <trkpt lat="42.90075" lon="0.50753">
        <ele>1108.583374</ele>
        <time>2012-08-22T09:07:14Z</time>
      </trkpt>
      <trkpt lat="42.90092" lon="0.50742">
        <ele>1108.583374</ele>
        <time>2012-08-22T09:07:21Z</time>
      </trkpt>
      <trkpt lat="42.90107" lon="0.50729">
        <ele>1108.583374</ele>
        <time>2012-08-22T09:07:29Z</time>
      </trkpt>
      <trkpt lat="42.90125" lon="0.50726">
        <ele>1108.583374</ele>
        <time>2012-08-22T09:07:39Z</time>
      </trkpt>
      <trkpt lat="42.90144" lon="0.50729">
        <ele>1119.916626</ele>
        <time>2012-08-22T09:07:48Z</time>
      </trkpt>
      <trkpt lat="42.90162" lon="0.50734">
        <ele>1119.916626</ele>
        <time>2012-08-22T09:07:57Z</time>
      </trkpt>
      <trkpt lat="42.90179" lon="0.50747">
        <ele>1119.916626</ele>
        <time>2012-08-22T09:08:05Z</time>
      </trkpt>
      <trkpt lat="42.902" lon="0.50755">
        <ele>1119.916626</ele>
        <time>2012-08-22T09:08:12Z</time>
      </trkpt>
      <trkpt lat="42.9022" lon="0.5076">
        <ele>1119.916626</ele>
        <time>2012-08-22T09:08:18Z</time>
      </trkpt>
      <trkpt lat="42.90239" lon="0.50764">
        <ele>1119.916626</ele>
        <time>2012-08-22T09:08:25Z</time>
      </trkpt>
      <trkpt lat="42.90257" lon="0.50765">
        <ele>1119.916626</ele>
        <time>2012-08-22T09:08:32Z</time>
      </trkpt>
      <trkpt lat="42.9027" lon="0.50747">
        <ele>1119.916626</ele>
        <time>2012-08-22T09:08:39Z</time>
      </trkpt>
      <trkpt lat="42.90254" lon="0.50733">
        <ele>1148.833374</ele>
        <time>2012-08-22T09:08:48Z</time>
      </trkpt>
      <trkpt lat="42.90234" lon="0.50731">
        <ele>1148.833374</ele>
        <time>2012-08-22T09:08:55Z</time>
      </trkpt>
      <trkpt lat="42.90218" lon="0.50717">
        <ele>1148.833374</ele>
        <time>2012-08-22T09:09:04Z</time>
      </trkpt>
      <trkpt lat="42.90205" lon="0.50697">
        <ele>1148.833374</ele>
        <time>2012-08-22T09:09:12Z</time>
      </trkpt>
      <trkpt lat="42.90194" lon="0.50677">
        <ele>1148.833374</ele>
        <time>2012-08-22T09:09:19Z</time>
      </trkpt>
      <trkpt lat="42.90178" lon="0.50662">
        <ele>1148.833374</ele>
        <time>2012-08-22T09:09:28Z</time>
      </trkpt>
      <trkpt lat="42.9016" lon="0.50659">
        <ele>1148.833374</ele>
        <time>2012-08-22T09:09:34Z</time>
      </trkpt>
      <trkpt lat="42.90142" lon="0.50653">
        <ele>1148.833374</ele>
        <time>2012-08-22T09:09:42Z</time>
      </trkpt>
      <trkpt lat="42.90127" lon="0.50637">
        <ele>1161.666626</ele>
        <time>2012-08-22T09:09:51Z</time>
      </trkpt>
      <trkpt lat="42.90106" lon="0.50635">
        <ele>1161.666626</ele>
        <time>2012-08-22T09:09:58Z</time>
      </trkpt>
      <trkpt lat="42.90085" lon="0.50638">
        <ele>1161.666626</ele>
        <time>2012-08-22T09:10:05Z</time>
      </trkpt>
      <trkpt lat="42.90066" lon="0.50639">
        <ele>1161.666626</ele>
        <time>2012-08-22T09:10:11Z</time>
      </trkpt>
      <trkpt lat="42.90048" lon="0.50634">
        <ele>1161.666626</ele>
        <time>2012-08-22T09:10:20Z</time>
      </trkpt>
      <trkpt lat="42.90048" lon="0.50609">
        <ele>1161.666626</ele>
        <time>2012-08-22T09:10:30Z</time>
      </trkpt>
      <trkpt lat="42.9005" lon="0.50585">
        <ele>1161.666626</ele>
        <time>2012-08-22T09:10:38Z</time>
      </trkpt>
      <trkpt lat="42.90043" lon="0.50563">
        <ele>1161.666626</ele>
        <time>2012-08-22T09:10:49Z</time>
      </trkpt>
      <trkpt lat="42.90035" lon="0.5054">
        <ele>1169.833374</ele>
        <time>2012-08-22T09:10:56Z</time>
      </trkpt>
      <trkpt lat="42.90027" lon="0.50514">
        <ele>1169.833374</ele>
        <time>2012-08-22T09:11:05Z</time>
      </trkpt>
      <trkpt lat="42.90022" lon="0.50489">
        <ele>1169.833374</ele>
        <time>2012-08-22T09:11:13Z</time>
      </trkpt>
      <trkpt lat="42.90022" lon="0.50464">
        <ele>1169.833374</ele>
        <time>2012-08-22T09:11:21Z</time>
      </trkpt>
      <trkpt lat="42.90013" lon="0.50441">
        <ele>1169.833374</ele>
        <time>2012-08-22T09:11:29Z</time>
      </trkpt>
      <trkpt lat="42.90005" lon="0.50418">
        <ele>1169.833374</ele>
        <time>2012-08-22T09:11:38Z</time>
      </trkpt>
      <trkpt lat="42.90001" lon="0.50394">
        <ele>1169.833374</ele>
        <time>2012-08-22T09:11:46Z</time>
      </trkpt>
      <trkpt lat="42.8999" lon="0.50373">
        <ele>1173.833374</ele>
        <time>2012-08-22T09:11:55Z</time>
      </trkpt>
      <trkpt lat="42.8998" lon="0.50351">
        <ele>1173.833374</ele>
        <time>2012-08-22T09:12:02Z</time>
      </trkpt>
      <trkpt lat="42.89972" lon="0.50327">
        <ele>1173.833374</ele>
        <time>2012-08-22T09:12:09Z</time>
      </trkpt>
      <trkpt lat="42.8996" lon="0.50307">
        <ele>1173.833374</ele>
        <time>2012-08-22T09:12:17Z</time>
      </trkpt>
      <trkpt lat="42.89954" lon="0.50281">
        <ele>1173.833374</ele>
        <time>2012-08-22T09:12:25Z</time>
      </trkpt>
      <trkpt lat="42.89945" lon="0.5026">
        <ele>1173.833374</ele>
        <time>2012-08-22T09:12:32Z</time>
      </trkpt>
      <trkpt lat="42.8993" lon="0.50242">
        <ele>1173.833374</ele>
        <time>2012-08-22T09:12:38Z</time>
      </trkpt>
      <trkpt lat="42.89918" lon="0.50223">
        <ele>1180.25</ele>
        <time>2012-08-22T09:12:45Z</time>
      </trkpt>
      <trkpt lat="42.89911" lon="0.502">
        <ele>1180.25</ele>
        <time>2012-08-22T09:12:52Z</time>
      </trkpt>
      <trkpt lat="42.89901" lon="0.5018">
        <ele>1180.25</ele>
        <time>2012-08-22T09:13:00Z</time>
      </trkpt>
      <trkpt lat="42.89891" lon="0.50158">
        <ele>1180.25</ele>
        <time>2012-08-22T09:13:08Z</time>
      </trkpt>
      <trkpt lat="42.89882" lon="0.50133">
        <ele>1180.25</ele>
        <time>2012-08-22T09:13:20Z</time>
      </trkpt>
      <trkpt lat="42.8987" lon="0.50113">
        <ele>1180.25</ele>
        <time>2012-08-22T09:13:26Z</time>
      </trkpt>
      <trkpt lat="42.89859" lon="0.50092">
        <ele>1180.25</ele>
        <time>2012-08-22T09:13:32Z</time>
      </trkpt>
      <trkpt lat="42.89849" lon="0.50071">
        <ele>1180.25</ele>
        <time>2012-08-22T09:13:39Z</time>
      </trkpt>
      <trkpt lat="42.89841" lon="0.50048">
        <ele>1193.25</ele>
        <time>2012-08-22T09:13:47Z</time>
      </trkpt>
      <trkpt lat="42.89833" lon="0.50026">
        <ele>1193.25</ele>
        <time>2012-08-22T09:13:53Z</time>
      </trkpt>
      <trkpt lat="42.89825" lon="0.50002">
        <ele>1193.25</ele>
        <time>2012-08-22T09:14:00Z</time>
      </trkpt>
      <trkpt lat="42.8982" lon="0.49976">
        <ele>1193.25</ele>
        <time>2012-08-22T09:14:07Z</time>
      </trkpt>
      <trkpt lat="42.8979" lon="0.49962">
        <ele>1193.25</ele>
        <time>2012-08-22T09:14:13Z</time>
      </trkpt>
      <trkpt lat="42.89772" lon="0.49955">
        <ele>1193.25</ele>
        <time>2012-08-22T09:14:18Z</time>
      </trkpt>
      <trkpt lat="42.89735" lon="0.49937">
        <ele>1193.25</ele>
        <time>2012-08-22T09:14:27Z</time>
      </trkpt>
      <trkpt lat="42.89718" lon="0.49925">
        <ele>1193.25</ele>
        <time>2012-08-22T09:14:33Z</time>
      </trkpt>
      <trkpt lat="42.89701" lon="0.49914">
        <ele>1209.416626</ele>
        <time>2012-08-22T09:14:39Z</time>
      </trkpt>
      <trkpt lat="42.89681" lon="0.49904">
        <ele>1209.416626</ele>
        <time>2012-08-22T09:14:45Z</time>
      </trkpt>
      <trkpt lat="42.89662" lon="0.49893">
        <ele>1209.416626</ele>
        <time>2012-08-22T09:14:51Z</time>
      </trkpt>
      <trkpt lat="42.89647" lon="0.49879">
        <ele>1209.416626</ele>
        <time>2012-08-22T09:14:57Z</time>
      </trkpt>
      <trkpt lat="42.89632" lon="0.49862">
        <ele>1209.416626</ele>
        <time>2012-08-22T09:15:03Z</time>
      </trkpt>
      <trkpt lat="42.89619" lon="0.49843">
        <ele>1209.416626</ele>
        <time>2012-08-22T09:15:09Z</time>
      </trkpt>
      <trkpt lat="42.89604" lon="0.49828">
        <ele>1209.416626</ele>
        <time>2012-08-22T09:15:15Z</time>
      </trkpt>
      <trkpt lat="42.89586" lon="0.49813">
        <ele>1209.416626</ele>
        <time>2012-08-22T09:15:21Z</time>
      </trkpt>
      <trkpt lat="42.89575" lon="0.49793">
        <ele>1209.416626</ele>
        <time>2012-08-22T09:15:26Z</time>
      </trkpt>
      <trkpt lat="42.89565" lon="0.49772">
        <ele>1209.416626</ele>
        <time>2012-08-22T09:15:31Z</time>
      </trkpt>
      <trkpt lat="42.89549" lon="0.49753">
        <ele>1251.5</ele>
        <time>2012-08-22T09:15:37Z</time>
      </trkpt>
      <trkpt lat="42.89513" lon="0.49785">
        <ele>1251.5</ele>
        <time>2012-08-22T09:15:42Z</time>
      </trkpt>
      <trkpt lat="42.89504" lon="0.49837">
        <ele>1251.5</ele>
        <time>2012-08-22T09:15:50Z</time>
      </trkpt>
      <trkpt lat="42.8951" lon="0.49861">
        <ele>1251.5</ele>
        <time>2012-08-22T09:15:55Z</time>
      </trkpt>
      <trkpt lat="42.89517" lon="0.49884">
        <ele>1251.5</ele>
        <time>2012-08-22T09:16:00Z</time>
      </trkpt>
      <trkpt lat="42.89527" lon="0.4991">
        <ele>1251.5</ele>
        <time>2012-08-22T09:16:06Z</time>
      </trkpt>
      <trkpt lat="42.89552" lon="0.49967">
        <ele>1251.5</ele>
        <time>2012-08-22T09:16:19Z</time>
      </trkpt>
      <trkpt lat="42.89562" lon="0.49992">
        <ele>1251.5</ele>
        <time>2012-08-22T09:16:25Z</time>
      </trkpt>
      <trkpt lat="42.89585" lon="0.50035">
        <ele>1251.5</ele>
        <time>2012-08-22T09:16:35Z</time>
      </trkpt>
      <trkpt lat="42.89596" lon="0.5006">
        <ele>1251.5</ele>
        <time>2012-08-22T09:16:41Z</time>
      </trkpt>
      <trkpt lat="42.8961" lon="0.50112">
        <ele>1251.5</ele>
        <time>2012-08-22T09:16:51Z</time>
      </trkpt>
      <trkpt lat="42.89617" lon="0.50138">
        <ele>1261.083374</ele>
        <time>2012-08-22T09:16:57Z</time>
      </trkpt>
      <trkpt lat="42.89622" lon="0.50166">
        <ele>1261.083374</ele>
        <time>2012-08-22T09:17:02Z</time>
      </trkpt>
      <trkpt lat="42.8961" lon="0.50215">
        <ele>1261.083374</ele>
        <time>2012-08-22T09:17:13Z</time>
      </trkpt>
      <trkpt lat="42.89576" lon="0.50246">
        <ele>1261.083374</ele>
        <time>2012-08-22T09:17:24Z</time>
      </trkpt>
      <trkpt lat="42.89549" lon="0.50282">
        <ele>1261.083374</ele>
        <time>2012-08-22T09:17:32Z</time>
      </trkpt>
      <trkpt lat="42.89536" lon="0.5033">
        <ele>1261.083374</ele>
        <time>2012-08-22T09:17:40Z</time>
      </trkpt>
      <trkpt lat="42.89541" lon="0.50384">
        <ele>1261.083374</ele>
        <time>2012-08-22T09:17:48Z</time>
      </trkpt>
      <trkpt lat="42.89537" lon="0.50431">
        <ele>1269.916626</ele>
        <time>2012-08-22T09:17:57Z</time>
      </trkpt>
      <trkpt lat="42.8952" lon="0.50448">
        <ele>1269.916626</ele>
        <time>2012-08-22T09:18:02Z</time>
      </trkpt>
      <trkpt lat="42.89478" lon="0.50468">
        <ele>1269.916626</ele>
        <time>2012-08-22T09:18:10Z</time>
      </trkpt>
      <trkpt lat="42.89439" lon="0.5048">
        <ele>1269.916626</ele>
        <time>2012-08-22T09:18:19Z</time>
      </trkpt>
      <trkpt lat="42.89431" lon="0.50463">
        <ele>1269.916626</ele>
        <time>2012-08-22T09:18:35Z</time>
      </trkpt>
      <trkpt lat="42.89465" lon="0.50443">
        <ele>1269.916626</ele>
        <time>2012-08-22T09:18:45Z</time>
      </trkpt>
      <trkpt lat="42.8948" lon="0.50428">
        <ele>1269.916626</ele>
        <time>2012-08-22T09:18:51Z</time>
      </trkpt>
      <trkpt lat="42.89496" lon="0.50409">
        <ele>1283.583374</ele>
        <time>2012-08-22T09:18:58Z</time>
      </trkpt>
      <trkpt lat="42.89508" lon="0.50389">
        <ele>1283.583374</ele>
        <time>2012-08-22T09:19:04Z</time>
      </trkpt>
      <trkpt lat="42.89519" lon="0.50366">
        <ele>1283.583374</ele>
        <time>2012-08-22T09:19:11Z</time>
      </trkpt>
      <trkpt lat="42.89525" lon="0.50339">
        <ele>1283.583374</ele>
        <time>2012-08-22T09:19:19Z</time>
      </trkpt>
      <trkpt lat="42.89522" lon="0.50312">
        <ele>1283.583374</ele>
        <time>2012-08-22T09:19:26Z</time>
      </trkpt>
      <trkpt lat="42.89524" lon="0.50287">
        <ele>1283.583374</ele>
        <time>2012-08-22T09:19:33Z</time>
      </trkpt>
      <trkpt lat="42.89532" lon="0.50261">
        <ele>1283.583374</ele>
        <time>2012-08-22T09:19:42Z</time>
      </trkpt>
      <trkpt lat="42.89536" lon="0.50235">
        <ele>1293.666626</ele>
        <time>2012-08-22T09:19:49Z</time>
      </trkpt>
      <trkpt lat="42.89538" lon="0.50209">
        <ele>1293.666626</ele>
        <time>2012-08-22T09:19:57Z</time>
      </trkpt>
      <trkpt lat="42.89543" lon="0.50183">
        <ele>1293.666626</ele>
        <time>2012-08-22T09:20:04Z</time>
      </trkpt>
      <trkpt lat="42.89537" lon="0.5016">
        <ele>1293.666626</ele>
        <time>2012-08-22T09:20:12Z</time>
      </trkpt>
      <trkpt lat="42.8952" lon="0.50167">
        <ele>1293.666626</ele>
        <time>2012-08-22T09:20:20Z</time>
      </trkpt>
      <trkpt lat="42.8951" lon="0.5019">
        <ele>1293.666626</ele>
        <time>2012-08-22T09:20:26Z</time>
      </trkpt>
      <trkpt lat="42.89502" lon="0.50215">
        <ele>1293.666626</ele>
        <time>2012-08-22T09:20:33Z</time>
      </trkpt>
      <trkpt lat="42.89491" lon="0.50239">
        <ele>1293.666626</ele>
        <time>2012-08-22T09:20:40Z</time>
      </trkpt>
      <trkpt lat="42.89479" lon="0.50261">
        <ele>1313.666626</ele>
        <time>2012-08-22T09:20:47Z</time>
      </trkpt>
      <trkpt lat="42.89466" lon="0.5028">
        <ele>1313.666626</ele>
        <time>2012-08-22T09:20:55Z</time>
      </trkpt>
      <trkpt lat="42.89448" lon="0.50289">
        <ele>1313.666626</ele>
        <time>2012-08-22T09:21:02Z</time>
      </trkpt>
      <trkpt lat="42.89435" lon="0.50271">
        <ele>1313.666626</ele>
        <time>2012-08-22T09:21:10Z</time>
      </trkpt>
      <trkpt lat="42.89449" lon="0.50225">
        <ele>1313.666626</ele>
        <time>2012-08-22T09:21:22Z</time>
      </trkpt>
      <trkpt lat="42.89451" lon="0.50198">
        <ele>1313.666626</ele>
        <time>2012-08-22T09:21:29Z</time>
      </trkpt>
      <trkpt lat="42.89442" lon="0.50175">
        <ele>1313.666626</ele>
        <time>2012-08-22T09:21:36Z</time>
      </trkpt>
      <trkpt lat="42.89429" lon="0.50156">
        <ele>1313.666626</ele>
        <time>2012-08-22T09:21:42Z</time>
      </trkpt>
      <trkpt lat="42.89417" lon="0.50137">
        <ele>1320.166626</ele>
        <time>2012-08-22T09:21:48Z</time>
      </trkpt>
      <trkpt lat="42.89403" lon="0.50118">
        <ele>1320.166626</ele>
        <time>2012-08-22T09:21:59Z</time>
      </trkpt>
      <trkpt lat="42.89385" lon="0.50118">
        <ele>1320.166626</ele>
        <time>2012-08-22T09:22:06Z</time>
      </trkpt>
      <trkpt lat="42.89366" lon="0.50108">
        <ele>1320.166626</ele>
        <time>2012-08-22T09:22:13Z</time>
      </trkpt>
      <trkpt lat="42.89358" lon="0.50081">
        <ele>1320.166626</ele>
        <time>2012-08-22T09:22:19Z</time>
      </trkpt>
      <trkpt lat="42.89383" lon="0.50042">
        <ele>1320.166626</ele>
        <time>2012-08-22T09:22:31Z</time>
      </trkpt>
      <trkpt lat="42.89398" lon="0.50027">
        <ele>1320.166626</ele>
        <time>2012-08-22T09:22:37Z</time>
      </trkpt>
      <trkpt lat="42.89407" lon="0.50003">
        <ele>1320.166626</ele>
        <time>2012-08-22T09:22:45Z</time>
      </trkpt>
      <trkpt lat="42.89401" lon="0.49979">
        <ele>1329</ele>
        <time>2012-08-22T09:22:54Z</time>
      </trkpt>
      <trkpt lat="42.89385" lon="0.49962">
        <ele>1329</ele>
        <time>2012-08-22T09:23:01Z</time>
      </trkpt>
      <trkpt lat="42.89372" lon="0.49942">
        <ele>1329</ele>
        <time>2012-08-22T09:23:08Z</time>
      </trkpt>
      <trkpt lat="42.89358" lon="0.49924">
        <ele>1329</ele>
        <time>2012-08-22T09:23:15Z</time>
      </trkpt>
      <trkpt lat="42.89345" lon="0.49906">
        <ele>1329</ele>
        <time>2012-08-22T09:23:22Z</time>
      </trkpt>
      <trkpt lat="42.89336" lon="0.49885">
        <ele>1329</ele>
        <time>2012-08-22T09:23:29Z</time>
      </trkpt>
      <trkpt lat="42.89327" lon="0.49862">
        <ele>1329</ele>
        <time>2012-08-22T09:23:36Z</time>
      </trkpt>
      <trkpt lat="42.8932" lon="0.49839">
        <ele>1329</ele>
        <time>2012-08-22T09:23:43Z</time>
      </trkpt>
      <trkpt lat="42.89313" lon="0.49815">
        <ele>1343.666626</ele>
        <time>2012-08-22T09:23:50Z</time>
      </trkpt>
      <trkpt lat="42.89301" lon="0.49796">
        <ele>1343.666626</ele>
        <time>2012-08-22T09:23:57Z</time>
      </trkpt>
      <trkpt lat="42.89289" lon="0.49777">
        <ele>1343.666626</ele>
        <time>2012-08-22T09:24:04Z</time>
      </trkpt>
      <trkpt lat="42.89277" lon="0.49759">
        <ele>1343.666626</ele>
        <time>2012-08-22T09:24:11Z</time>
      </trkpt>
      <trkpt lat="42.89263" lon="0.49739">
        <ele>1343.666626</ele>
        <time>2012-08-22T09:24:19Z</time>
      </trkpt>
      <trkpt lat="42.89251" lon="0.4972">
        <ele>1343.666626</ele>
        <time>2012-08-22T09:24:26Z</time>
      </trkpt>
      <trkpt lat="42.89238" lon="0.49701">
        <ele>1343.666626</ele>
        <time>2012-08-22T09:24:34Z</time>
      </trkpt>
      <trkpt lat="42.89226" lon="0.49679">
        <ele>1343.666626</ele>
        <time>2012-08-22T09:24:42Z</time>
      </trkpt>
      <trkpt lat="42.89215" lon="0.49658">
        <ele>1364.166626</ele>
        <time>2012-08-22T09:24:50Z</time>
      </trkpt>
      <trkpt lat="42.89204" lon="0.49636">
        <ele>1364.166626</ele>
        <time>2012-08-22T09:24:58Z</time>
      </trkpt>
      <trkpt lat="42.89192" lon="0.49617">
        <ele>1364.166626</ele>
        <time>2012-08-22T09:25:06Z</time>
      </trkpt>
      <trkpt lat="42.89176" lon="0.496">
        <ele>1364.166626</ele>
        <time>2012-08-22T09:25:15Z</time>
      </trkpt>
      <trkpt lat="42.89162" lon="0.49584">
        <ele>1364.166626</ele>
        <time>2012-08-22T09:25:23Z</time>
      </trkpt>
      <trkpt lat="42.89149" lon="0.49565">
        <ele>1364.166626</ele>
        <time>2012-08-22T09:25:34Z</time>
      </trkpt>
      <trkpt lat="42.89131" lon="0.49566">
        <ele>1364.166626</ele>
        <time>2012-08-22T09:25:45Z</time>
      </trkpt>
      <trkpt lat="42.89127" lon="0.49593">
        <ele>1364.166626</ele>
        <time>2012-08-22T09:25:53Z</time>
      </trkpt>
      <trkpt lat="42.89137" lon="0.49615">
        <ele>1383.583374</ele>
        <time>2012-08-22T09:26:02Z</time>
      </trkpt>
      <trkpt lat="42.89148" lon="0.49637">
        <ele>1383.583374</ele>
        <time>2012-08-22T09:26:09Z</time>
      </trkpt>
      <trkpt lat="42.89172" lon="0.49689">
        <ele>1383.583374</ele>
        <time>2012-08-22T09:26:27Z</time>
      </trkpt>
      <trkpt lat="42.89179" lon="0.49713">
        <ele>1383.583374</ele>
        <time>2012-08-22T09:26:36Z</time>
      </trkpt>
      <trkpt lat="42.89187" lon="0.49736">
        <ele>1383.583374</ele>
        <time>2012-08-22T09:26:44Z</time>
      </trkpt>
      <trkpt lat="42.89195" lon="0.4976">
        <ele>1383.583374</ele>
        <time>2012-08-22T09:26:54Z</time>
      </trkpt>
      <trkpt lat="42.89204" lon="0.49782">
        <ele>1383.583374</ele>
        <time>2012-08-22T09:27:01Z</time>
      </trkpt>
      <trkpt lat="42.89214" lon="0.49806">
        <ele>1397.833374</ele>
        <time>2012-08-22T09:27:08Z</time>
      </trkpt>
      <trkpt lat="42.89222" lon="0.49829">
        <ele>1397.833374</ele>
        <time>2012-08-22T09:27:17Z</time>
      </trkpt>
      <trkpt lat="42.8923" lon="0.49851">
        <ele>1397.833374</ele>
        <time>2012-08-22T09:27:25Z</time>
      </trkpt>
      <trkpt lat="42.89238" lon="0.49875">
        <ele>1397.833374</ele>
        <time>2012-08-22T09:27:33Z</time>
      </trkpt>
      <trkpt lat="42.89244" lon="0.49901">
        <ele>1397.833374</ele>
        <time>2012-08-22T09:27:41Z</time>
      </trkpt>
      <trkpt lat="42.89249" lon="0.49925">
        <ele>1397.833374</ele>
        <time>2012-08-22T09:27:49Z</time>
      </trkpt>
      <trkpt lat="42.89249" lon="0.4995">
        <ele>1410.666626</ele>
        <time>2012-08-22T09:27:57Z</time>
      </trkpt>
      <trkpt lat="42.89237" lon="0.49972">
        <ele>1410.666626</ele>
        <time>2012-08-22T09:28:06Z</time>
      </trkpt>
      <trkpt lat="42.89224" lon="0.49991">
        <ele>1410.666626</ele>
        <time>2012-08-22T09:28:14Z</time>
      </trkpt>
      <trkpt lat="42.89209" lon="0.50005">
        <ele>1410.666626</ele>
        <time>2012-08-22T09:28:22Z</time>
      </trkpt>
      <trkpt lat="42.89196" lon="0.50023">
        <ele>1410.666626</ele>
        <time>2012-08-22T09:28:31Z</time>
      </trkpt>
      <trkpt lat="42.89182" lon="0.50044">
        <ele>1410.666626</ele>
        <time>2012-08-22T09:28:40Z</time>
      </trkpt>
      <trkpt lat="42.89171" lon="0.50064">
        <ele>1410.666626</ele>
        <time>2012-08-22T09:28:48Z</time>
      </trkpt>
      <trkpt lat="42.89156" lon="0.5008">
        <ele>1421.666626</ele>
        <time>2012-08-22T09:28:57Z</time>
      </trkpt>
      <trkpt lat="42.89141" lon="0.50094">
        <ele>1421.666626</ele>
        <time>2012-08-22T09:29:05Z</time>
      </trkpt>
      <trkpt lat="42.89124" lon="0.50108">
        <ele>1421.666626</ele>
        <time>2012-08-22T09:29:14Z</time>
      </trkpt>
      <trkpt lat="42.89107" lon="0.50119">
        <ele>1421.666626</ele>
        <time>2012-08-22T09:29:22Z</time>
      </trkpt>
      <trkpt lat="42.89094" lon="0.50136">
        <ele>1421.666626</ele>
        <time>2012-08-22T09:29:31Z</time>
      </trkpt>
      <trkpt lat="42.89081" lon="0.50157">
        <ele>1421.666626</ele>
        <time>2012-08-22T09:29:39Z</time>
      </trkpt>
      <trkpt lat="42.89068" lon="0.50179">
        <ele>1421.666626</ele>
        <time>2012-08-22T09:29:47Z</time>
      </trkpt>
      <trkpt lat="42.89052" lon="0.50196">
        <ele>1445.416626</ele>
        <time>2012-08-22T09:29:54Z</time>
      </trkpt>
      <trkpt lat="42.89042" lon="0.5022">
        <ele>1445.416626</ele>
        <time>2012-08-22T09:30:01Z</time>
      </trkpt>
      <trkpt lat="42.89035" lon="0.50243">
        <ele>1445.416626</ele>
        <time>2012-08-22T09:30:09Z</time>
      </trkpt>
      <trkpt lat="42.89024" lon="0.50263">
        <ele>1445.416626</ele>
        <time>2012-08-22T09:30:18Z</time>
      </trkpt>
      <trkpt lat="42.8901" lon="0.50278">
        <ele>1445.416626</ele>
        <time>2012-08-22T09:30:26Z</time>
      </trkpt>
      <trkpt lat="42.88994" lon="0.5029">
        <ele>1445.416626</ele>
        <time>2012-08-22T09:30:37Z</time>
      </trkpt>
      <trkpt lat="42.88975" lon="0.50286">
        <ele>1445.416626</ele>
        <time>2012-08-22T09:30:49Z</time>
      </trkpt>
      <trkpt lat="42.88956" lon="0.50285">
        <ele>1445.416626</ele>
        <time>2012-08-22T09:30:58Z</time>
      </trkpt>
      <trkpt lat="42.88937" lon="0.50278">
        <ele>1462</ele>
        <time>2012-08-22T09:31:06Z</time>
      </trkpt>
      <trkpt lat="42.88918" lon="0.50275">
        <ele>1462</ele>
        <time>2012-08-22T09:31:15Z</time>
      </trkpt>
      <trkpt lat="42.88898" lon="0.50278">
        <ele>1462</ele>
        <time>2012-08-22T09:31:24Z</time>
      </trkpt>
      <trkpt lat="42.88879" lon="0.5028">
        <ele>1462</ele>
        <time>2012-08-22T09:31:32Z</time>
      </trkpt>
      <trkpt lat="42.88862" lon="0.50294">
        <ele>1462</ele>
        <time>2012-08-22T09:31:40Z</time>
      </trkpt>
      <trkpt lat="42.88847" lon="0.50308">
        <ele>1462</ele>
        <time>2012-08-22T09:31:49Z</time>
      </trkpt>
      <trkpt lat="42.88828" lon="0.50313">
        <ele>1479.833374</ele>
        <time>2012-08-22T09:32:03Z</time>
      </trkpt>
      <trkpt lat="42.88808" lon="0.50309">
        <ele>1479.833374</ele>
        <time>2012-08-22T09:32:09Z</time>
      </trkpt>
      <trkpt lat="42.8879" lon="0.50311">
        <ele>1479.833374</ele>
        <time>2012-08-22T09:32:14Z</time>
      </trkpt>
      <trkpt lat="42.88771" lon="0.50313">
        <ele>1479.833374</ele>
        <time>2012-08-22T09:32:20Z</time>
      </trkpt>
      <trkpt lat="42.88754" lon="0.50305">
        <ele>1479.833374</ele>
        <time>2012-08-22T09:32:29Z</time>
      </trkpt>
      <trkpt lat="42.8874" lon="0.50288">
        <ele>1479.833374</ele>
        <time>2012-08-22T09:32:39Z</time>
      </trkpt>
      <trkpt lat="42.88723" lon="0.50278">
        <ele>1479.833374</ele>
        <time>2012-08-22T09:32:50Z</time>
      </trkpt>
      <trkpt lat="42.88705" lon="0.50271">
        <ele>1490.416626</ele>
        <time>2012-08-22T09:33:01Z</time>
      </trkpt>
      <trkpt lat="42.88687" lon="0.50262">
        <ele>1490.416626</ele>
        <time>2012-08-22T09:33:11Z</time>
      </trkpt>
      <trkpt lat="42.88673" lon="0.50247">
        <ele>1490.416626</ele>
        <time>2012-08-22T09:33:20Z</time>
      </trkpt>
      <trkpt lat="42.8866" lon="0.5023">
        <ele>1490.416626</ele>
        <time>2012-08-22T09:33:28Z</time>
      </trkpt>
      <trkpt lat="42.88645" lon="0.50214">
        <ele>1490.416626</ele>
        <time>2012-08-22T09:33:37Z</time>
      </trkpt>
      <trkpt lat="42.88631" lon="0.50198">
        <ele>1490.416626</ele>
        <time>2012-08-22T09:33:48Z</time>
      </trkpt>
      <trkpt lat="42.88613" lon="0.50193">
        <ele>1490.416626</ele>
        <time>2012-08-22T09:33:57Z</time>
      </trkpt>
      <trkpt lat="42.88594" lon="0.50188">
        <ele>1502</ele>
        <time>2012-08-22T09:34:06Z</time>
      </trkpt>
      <trkpt lat="42.88577" lon="0.50181">
        <ele>1502</ele>
        <time>2012-08-22T09:34:16Z</time>
      </trkpt>
      <trkpt lat="42.8856" lon="0.50167">
        <ele>1502</ele>
        <time>2012-08-22T09:34:25Z</time>
      </trkpt>
      <trkpt lat="42.88541" lon="0.50177">
        <ele>1502</ele>
        <time>2012-08-22T09:34:35Z</time>
      </trkpt>
      <trkpt lat="42.88526" lon="0.50192">
        <ele>1502</ele>
        <time>2012-08-22T09:34:41Z</time>
      </trkpt>
      <trkpt lat="42.8851" lon="0.50207">
        <ele>1502</ele>
        <time>2012-08-22T09:34:48Z</time>
      </trkpt>
      <trkpt lat="42.88497" lon="0.50226">
        <ele>1513.083374</ele>
        <time>2012-08-22T09:34:57Z</time>
      </trkpt>
      <trkpt lat="42.88484" lon="0.50246">
        <ele>1513.083374</ele>
        <time>2012-08-22T09:35:07Z</time>
      </trkpt>
      <trkpt lat="42.88469" lon="0.50264">
        <ele>1513.083374</ele>
        <time>2012-08-22T09:35:19Z</time>
      </trkpt>
      <trkpt lat="42.88464" lon="0.5029">
        <ele>1513.083374</ele>
        <time>2012-08-22T09:35:26Z</time>
      </trkpt>
      <trkpt lat="42.88454" lon="0.50312">
        <ele>1513.083374</ele>
        <time>2012-08-22T09:35:33Z</time>
      </trkpt>
      <trkpt lat="42.88438" lon="0.50324">
        <ele>1513.083374</ele>
        <time>2012-08-22T09:35:39Z</time>
      </trkpt>
      <trkpt lat="42.88438" lon="0.50352">
        <ele>1513.083374</ele>
        <time>2012-08-22T09:35:46Z</time>
      </trkpt>
      <trkpt lat="42.88438" lon="0.50377">
        <ele>1532.666626</ele>
        <time>2012-08-22T09:35:53Z</time>
      </trkpt>
      <trkpt lat="42.88445" lon="0.50405">
        <ele>1532.666626</ele>
        <time>2012-08-22T09:36:02Z</time>
      </trkpt>
      <trkpt lat="42.88452" lon="0.50429">
        <ele>1532.666626</ele>
        <time>2012-08-22T09:36:08Z</time>
      </trkpt>
      <trkpt lat="42.88433" lon="0.50473">
        <ele>1532.666626</ele>
        <time>2012-08-22T09:36:34Z</time>
      </trkpt>
      <trkpt lat="42.88414" lon="0.50466">
        <ele>1532.666626</ele>
        <time>2012-08-22T09:36:40Z</time>
      </trkpt>
      <trkpt lat="42.88399" lon="0.50454">
        <ele>1532.666626</ele>
        <time>2012-08-22T09:36:47Z</time>
      </trkpt>
      <trkpt lat="42.88386" lon="0.50437">
        <ele>1532.666626</ele>
        <time>2012-08-22T09:36:53Z</time>
      </trkpt>
      <trkpt lat="42.88372" lon="0.5042">
        <ele>1532.666626</ele>
        <time>2012-08-22T09:36:59Z</time>
      </trkpt>
      <trkpt lat="42.88355" lon="0.50403">
        <ele>1554.583374</ele>
        <time>2012-08-22T09:37:05Z</time>
      </trkpt>
      <trkpt lat="42.88337" lon="0.50398">
        <ele>1554.583374</ele>
        <time>2012-08-22T09:37:13Z</time>
      </trkpt>
      <trkpt lat="42.88316" lon="0.50392">
        <ele>1554.583374</ele>
        <time>2012-08-22T09:37:21Z</time>
      </trkpt>
      <trkpt lat="42.88296" lon="0.50388">
        <ele>1554.583374</ele>
        <time>2012-08-22T09:37:27Z</time>
      </trkpt>
      <trkpt lat="42.88259" lon="0.50398">
        <ele>1554.583374</ele>
        <time>2012-08-22T09:37:38Z</time>
      </trkpt>
      <trkpt lat="42.88222" lon="0.50396">
        <ele>1554.583374</ele>
        <time>2012-08-22T09:37:48Z</time>
      </trkpt>
      <trkpt lat="42.88202" lon="0.50396">
        <ele>1554.583374</ele>
        <time>2012-08-22T09:37:54Z</time>
      </trkpt>
      <trkpt lat="42.88184" lon="0.50396">
        <ele>1559.75</ele>
        <time>2012-08-22T09:38:00Z</time>
      </trkpt>
      <trkpt lat="42.88168" lon="0.50381">
        <ele>1559.75</ele>
        <time>2012-08-22T09:38:06Z</time>
      </trkpt>
      <trkpt lat="42.88158" lon="0.50359">
        <ele>1559.75</ele>
        <time>2012-08-22T09:38:13Z</time>
      </trkpt>
      <trkpt lat="42.88141" lon="0.50346">
        <ele>1559.75</ele>
        <time>2012-08-22T09:38:20Z</time>
      </trkpt>
      <trkpt lat="42.88123" lon="0.50336">
        <ele>1559.75</ele>
        <time>2012-08-22T09:38:28Z</time>
      </trkpt>
      <trkpt lat="42.88105" lon="0.50337">
        <ele>1559.75</ele>
        <time>2012-08-22T09:38:38Z</time>
      </trkpt>
      <trkpt lat="42.88087" lon="0.50327">
        <ele>1559.75</ele>
        <time>2012-08-22T09:38:47Z</time>
      </trkpt>
      <trkpt lat="42.88068" lon="0.50321">
        <ele>1559.75</ele>
        <time>2012-08-22T09:38:54Z</time>
      </trkpt>
      <trkpt lat="42.8805" lon="0.50314">
        <ele>1574.833374</ele>
        <time>2012-08-22T09:39:00Z</time>
      </trkpt>
      <trkpt lat="42.88032" lon="0.50304">
        <ele>1574.833374</ele>
        <time>2012-08-22T09:39:07Z</time>
      </trkpt>
      <trkpt lat="42.88016" lon="0.50286">
        <ele>1574.833374</ele>
        <time>2012-08-22T09:39:15Z</time>
      </trkpt>
      <trkpt lat="42.88004" lon="0.50267">
        <ele>1574.833374</ele>
        <time>2012-08-22T09:39:23Z</time>
      </trkpt>
      <trkpt lat="42.87993" lon="0.50246">
        <ele>1574.833374</ele>
        <time>2012-08-22T09:39:31Z</time>
      </trkpt>
      <trkpt lat="42.87985" lon="0.50222">
        <ele>1574.833374</ele>
        <time>2012-08-22T09:39:39Z</time>
      </trkpt>
      <trkpt lat="42.87983" lon="0.50195">
        <ele>1574.833374</ele>
        <time>2012-08-22T09:39:46Z</time>
      </trkpt>
      <trkpt lat="42.87974" lon="0.50172">
        <ele>1574.833374</ele>
        <time>2012-08-22T09:39:53Z</time>
      </trkpt>
      <trkpt lat="42.87963" lon="0.5015">
        <ele>1588.333374</ele>
        <time>2012-08-22T09:40:00Z</time>
      </trkpt>
      <trkpt lat="42.87943" lon="0.5014">
        <ele>1588.333374</ele>
        <time>2012-08-22T09:40:07Z</time>
      </trkpt>
      <trkpt lat="42.87923" lon="0.50142">
        <ele>1588.333374</ele>
        <time>2012-08-22T09:40:13Z</time>
      </trkpt>
      <trkpt lat="42.87905" lon="0.50149">
        <ele>1588.333374</ele>
        <time>2012-08-22T09:40:20Z</time>
      </trkpt>
      <trkpt lat="42.87885" lon="0.50159">
        <ele>1588.333374</ele>
        <time>2012-08-22T09:40:27Z</time>
      </trkpt>
      <trkpt lat="42.8787" lon="0.50174">
        <ele>1588.333374</ele>
        <time>2012-08-22T09:40:34Z</time>
      </trkpt>
      <trkpt lat="42.87862" lon="0.50198">
        <ele>1588.333374</ele>
        <time>2012-08-22T09:40:42Z</time>
      </trkpt>
      <trkpt lat="42.8787" lon="0.50223">
        <ele>1588.333374</ele>
        <time>2012-08-22T09:40:48Z</time>
      </trkpt>
      <trkpt lat="42.87876" lon="0.50249">
        <ele>1602.583374</ele>
        <time>2012-08-22T09:40:55Z</time>
      </trkpt>
      <trkpt lat="42.87884" lon="0.50275">
        <ele>1602.583374</ele>
        <time>2012-08-22T09:41:02Z</time>
      </trkpt>
      <trkpt lat="42.87893" lon="0.50298">
        <ele>1602.583374</ele>
        <time>2012-08-22T09:41:09Z</time>
      </trkpt>
      <trkpt lat="42.87897" lon="0.50326">
        <ele>1602.583374</ele>
        <time>2012-08-22T09:41:16Z</time>
      </trkpt>
      <trkpt lat="42.87892" lon="0.50353">
        <ele>1602.583374</ele>
        <time>2012-08-22T09:41:23Z</time>
      </trkpt>
      <trkpt lat="42.87881" lon="0.50374">
        <ele>1602.583374</ele>
        <time>2012-08-22T09:41:31Z</time>
      </trkpt>
      <trkpt lat="42.87863" lon="0.50383">
        <ele>1602.583374</ele>
        <time>2012-08-22T09:41:39Z</time>
      </trkpt>
      <trkpt lat="42.87845" lon="0.50394">
        <ele>1602.583374</ele>
        <time>2012-08-22T09:41:47Z</time>
      </trkpt>
      <trkpt lat="42.87832" lon="0.50411">
        <ele>1616.833374</ele>
        <time>2012-08-22T09:41:54Z</time>
      </trkpt>
      <trkpt lat="42.87817" lon="0.50427">
        <ele>1616.833374</ele>
        <time>2012-08-22T09:42:03Z</time>
      </trkpt>
      <trkpt lat="42.87802" lon="0.50446">
        <ele>1616.833374</ele>
        <time>2012-08-22T09:42:11Z</time>
      </trkpt>
      <trkpt lat="42.87786" lon="0.50458">
        <ele>1616.833374</ele>
        <time>2012-08-22T09:42:18Z</time>
      </trkpt>
      <trkpt lat="42.8777" lon="0.50473">
        <ele>1616.833374</ele>
        <time>2012-08-22T09:42:26Z</time>
      </trkpt>
      <trkpt lat="42.87753" lon="0.50482">
        <ele>1616.833374</ele>
        <time>2012-08-22T09:42:34Z</time>
      </trkpt>
      <trkpt lat="42.87736" lon="0.50494">
        <ele>1616.833374</ele>
        <time>2012-08-22T09:42:41Z</time>
      </trkpt>
      <trkpt lat="42.87719" lon="0.50503">
        <ele>1616.833374</ele>
        <time>2012-08-22T09:42:48Z</time>
      </trkpt>
      <trkpt lat="42.877" lon="0.50506">
        <ele>1631.333374</ele>
        <time>2012-08-22T09:42:56Z</time>
      </trkpt>
      <trkpt lat="42.87686" lon="0.50488">
        <ele>1631.333374</ele>
        <time>2012-08-22T09:43:05Z</time>
      </trkpt>
      <trkpt lat="42.87669" lon="0.50473">
        <ele>1631.333374</ele>
        <time>2012-08-22T09:43:14Z</time>
      </trkpt>
      <trkpt lat="42.87653" lon="0.50458">
        <ele>1631.333374</ele>
        <time>2012-08-22T09:43:22Z</time>
      </trkpt>
      <trkpt lat="42.87637" lon="0.50444">
        <ele>1631.333374</ele>
        <time>2012-08-22T09:43:31Z</time>
      </trkpt>
      <trkpt lat="42.8762" lon="0.50431">
        <ele>1631.333374</ele>
        <time>2012-08-22T09:43:40Z</time>
      </trkpt>
      <trkpt lat="42.87601" lon="0.5042">
        <ele>1631.333374</ele>
        <time>2012-08-22T09:43:48Z</time>
      </trkpt>
      <trkpt lat="42.87585" lon="0.50432">
        <ele>1631.333374</ele>
        <time>2012-08-22T09:43:54Z</time>
      </trkpt>
      <trkpt lat="42.87568" lon="0.50448">
        <ele>1647.416626</ele>
        <time>2012-08-22T09:44:01Z</time>
      </trkpt>
      <trkpt lat="42.87553" lon="0.50462">
        <ele>1647.416626</ele>
        <time>2012-08-22T09:44:08Z</time>
      </trkpt>
      <trkpt lat="42.87536" lon="0.50475">
        <ele>1647.416626</ele>
        <time>2012-08-22T09:44:16Z</time>
      </trkpt>
      <trkpt lat="42.87522" lon="0.5049">
        <ele>1647.416626</ele>
        <time>2012-08-22T09:44:23Z</time>
      </trkpt>
      <trkpt lat="42.87504" lon="0.50501">
        <ele>1647.416626</ele>
        <time>2012-08-22T09:44:32Z</time>
      </trkpt>
      <trkpt lat="42.87488" lon="0.50516">
        <ele>1647.416626</ele>
        <time>2012-08-22T09:44:40Z</time>
      </trkpt>
      <trkpt lat="42.87469" lon="0.50521">
        <ele>1647.416626</ele>
        <time>2012-08-22T09:44:47Z</time>
      </trkpt>
      <trkpt lat="42.87453" lon="0.5051">
        <ele>1660.083374</ele>
        <time>2012-08-22T09:44:55Z</time>
      </trkpt>
      <trkpt lat="42.87437" lon="0.50496">
        <ele>1660.083374</ele>
        <time>2012-08-22T09:45:04Z</time>
      </trkpt>
      <trkpt lat="42.8742" lon="0.50481">
        <ele>1660.083374</ele>
        <time>2012-08-22T09:45:13Z</time>
      </trkpt>
      <trkpt lat="42.87405" lon="0.50467">
        <ele>1660.083374</ele>
        <time>2012-08-22T09:45:21Z</time>
      </trkpt>
      <trkpt lat="42.87386" lon="0.50461">
        <ele>1660.083374</ele>
        <time>2012-08-22T09:45:29Z</time>
      </trkpt>
      <trkpt lat="42.87368" lon="0.50457">
        <ele>1660.083374</ele>
        <time>2012-08-22T09:45:37Z</time>
      </trkpt>
      <trkpt lat="42.87348" lon="0.50457">
        <ele>1660.083374</ele>
        <time>2012-08-22T09:45:45Z</time>
      </trkpt>
      <trkpt lat="42.87336" lon="0.50476">
        <ele>1660.083374</ele>
        <time>2012-08-22T09:45:53Z</time>
      </trkpt>
      <trkpt lat="42.87335" lon="0.50504">
        <ele>1671.666626</ele>
        <time>2012-08-22T09:46:01Z</time>
      </trkpt>
      <trkpt lat="42.87331" lon="0.50528">
        <ele>1671.666626</ele>
        <time>2012-08-22T09:46:08Z</time>
      </trkpt>
      <trkpt lat="42.87313" lon="0.50612">
        <ele>1671.666626</ele>
        <time>2012-08-22T09:46:32Z</time>
      </trkpt>
      <trkpt lat="42.87306" lon="0.50638">
        <ele>1671.666626</ele>
        <time>2012-08-22T09:46:39Z</time>
      </trkpt>
      <trkpt lat="42.87301" lon="0.50662">
        <ele>1671.666626</ele>
        <time>2012-08-22T09:46:46Z</time>
      </trkpt>
      <trkpt lat="42.87291" lon="0.5064">
        <ele>1671.666626</ele>
        <time>2012-08-22T09:47:00Z</time>
      </trkpt>
      <trkpt lat="42.87296" lon="0.50613">
        <ele>1671.666626</ele>
        <time>2012-08-22T09:47:07Z</time>
      </trkpt>
      <trkpt lat="42.87298" lon="0.50589">
        <ele>1681.75</ele>
        <time>2012-08-22T09:47:14Z</time>
      </trkpt>
      <trkpt lat="42.87301" lon="0.50563">
        <ele>1681.75</ele>
        <time>2012-08-22T09:47:22Z</time>
      </trkpt>
      <trkpt lat="42.87303" lon="0.50538">
        <ele>1681.75</ele>
        <time>2012-08-22T09:47:29Z</time>
      </trkpt>
      <trkpt lat="42.87305" lon="0.50513">
        <ele>1681.75</ele>
        <time>2012-08-22T09:47:36Z</time>
      </trkpt>
      <trkpt lat="42.87297" lon="0.50489">
        <ele>1681.75</ele>
        <time>2012-08-22T09:47:43Z</time>
      </trkpt>
      <trkpt lat="42.87285" lon="0.50469">
        <ele>1681.75</ele>
        <time>2012-08-22T09:47:50Z</time>
      </trkpt>
      <trkpt lat="42.8728" lon="0.50443">
        <ele>1691.583374</ele>
        <time>2012-08-22T09:47:58Z</time>
      </trkpt>
      <trkpt lat="42.87286" lon="0.50419">
        <ele>1691.583374</ele>
        <time>2012-08-22T09:48:05Z</time>
      </trkpt>
      <trkpt lat="42.87294" lon="0.50394">
        <ele>1691.583374</ele>
        <time>2012-08-22T09:48:13Z</time>
      </trkpt>
      <trkpt lat="42.87303" lon="0.50371">
        <ele>1691.583374</ele>
        <time>2012-08-22T09:48:20Z</time>
      </trkpt>
      <trkpt lat="42.87315" lon="0.50349">
        <ele>1691.583374</ele>
        <time>2012-08-22T09:48:28Z</time>
      </trkpt>
      <trkpt lat="42.87325" lon="0.50327">
        <ele>1691.583374</ele>
        <time>2012-08-22T09:48:36Z</time>
      </trkpt>
      <trkpt lat="42.87343" lon="0.50321">
        <ele>1691.583374</ele>
        <time>2012-08-22T09:48:43Z</time>
      </trkpt>
      <trkpt lat="42.87361" lon="0.50326">
        <ele>1691.583374</ele>
        <time>2012-08-22T09:48:50Z</time>
      </trkpt>
      <trkpt lat="42.87379" lon="0.5034">
        <ele>1706.916626</ele>
        <time>2012-08-22T09:48:58Z</time>
      </trkpt>
      <trkpt lat="42.87399" lon="0.50347">
        <ele>1706.916626</ele>
        <time>2012-08-22T09:49:06Z</time>
      </trkpt>
      <trkpt lat="42.87418" lon="0.50347">
        <ele>1706.916626</ele>
        <time>2012-08-22T09:49:13Z</time>
      </trkpt>
      <trkpt lat="42.87437" lon="0.50348">
        <ele>1706.916626</ele>
        <time>2012-08-22T09:49:20Z</time>
      </trkpt>
      <trkpt lat="42.87452" lon="0.50333">
        <ele>1706.916626</ele>
        <time>2012-08-22T09:49:28Z</time>
      </trkpt>
      <trkpt lat="42.87466" lon="0.50313">
        <ele>1706.916626</ele>
        <time>2012-08-22T09:49:37Z</time>
      </trkpt>
      <trkpt lat="42.8748" lon="0.50294">
        <ele>1706.916626</ele>
        <time>2012-08-22T09:49:46Z</time>
      </trkpt>
      <trkpt lat="42.87493" lon="0.50276">
        <ele>1706.916626</ele>
        <time>2012-08-22T09:49:53Z</time>
      </trkpt>
      <trkpt lat="42.87506" lon="0.50257">
        <ele>1720.166626</ele>
        <time>2012-08-22T09:50:01Z</time>
      </trkpt>
      <trkpt lat="42.87514" lon="0.50233">
        <ele>1720.166626</ele>
        <time>2012-08-22T09:50:09Z</time>
      </trkpt>
      <trkpt lat="42.87501" lon="0.50212">
        <ele>1720.166626</ele>
        <time>2012-08-22T09:50:16Z</time>
      </trkpt>
      <trkpt lat="42.87491" lon="0.5019">
        <ele>1720.166626</ele>
        <time>2012-08-22T09:50:24Z</time>
      </trkpt>
      <trkpt lat="42.87487" lon="0.50165">
        <ele>1720.166626</ele>
        <time>2012-08-22T09:50:33Z</time>
      </trkpt>
      <trkpt lat="42.87474" lon="0.50147">
        <ele>1720.166626</ele>
        <time>2012-08-22T09:50:39Z</time>
      </trkpt>
      <trkpt lat="42.87461" lon="0.50127">
        <ele>1720.166626</ele>
        <time>2012-08-22T09:50:46Z</time>
      </trkpt>
      <trkpt lat="42.87447" lon="0.50107">
        <ele>1720.166626</ele>
        <time>2012-08-22T09:50:54Z</time>
      </trkpt>
      <trkpt lat="42.87437" lon="0.50084">
        <ele>1734</ele>
        <time>2012-08-22T09:51:01Z</time>
      </trkpt>
      <trkpt lat="42.87424" lon="0.50065">
        <ele>1734</ele>
        <time>2012-08-22T09:51:09Z</time>
      </trkpt>
      <trkpt lat="42.87411" lon="0.50047">
        <ele>1734</ele>
        <time>2012-08-22T09:51:21Z</time>
      </trkpt>
      <trkpt lat="42.87445" lon="0.50127">
        <ele>1734</ele>
        <time>2012-08-22T10:03:23Z</time>
      </trkpt>
      <trkpt lat="42.87476" lon="0.50165">
        <ele>1734</ele>
        <time>2012-08-22T10:03:29Z</time>
      </trkpt>
      <trkpt lat="42.87499" lon="0.50208">
        <ele>1734</ele>
        <time>2012-08-22T10:03:36Z</time>
      </trkpt>
      <trkpt lat="42.87502" lon="0.50263">
        <ele>1734</ele>
        <time>2012-08-22T10:03:45Z</time>
      </trkpt>
      <trkpt lat="42.87468" lon="0.50299">
        <ele>1756.416626</ele>
        <time>2012-08-22T10:03:53Z</time>
      </trkpt>
      <trkpt lat="42.87456" lon="0.50364">
        <ele>1756.5</ele>
        <time>2012-08-22T10:03:59Z</time>
      </trkpt>
      <trkpt lat="42.87413" lon="0.50358">
        <ele>1755</ele>
        <time>2012-08-22T10:04:05Z</time>
      </trkpt>
      <trkpt lat="42.87369" lon="0.50337">
        <ele>1754.333374</ele>
        <time>2012-08-22T10:04:11Z</time>
      </trkpt>
      <trkpt lat="42.87335" lon="0.50326">
        <ele>1758.583374</ele>
        <time>2012-08-22T10:04:17Z</time>
      </trkpt>
      <trkpt lat="42.87304" lon="0.5036">
        <ele>1754</ele>
        <time>2012-08-22T10:04:23Z</time>
      </trkpt>
      <trkpt lat="42.87286" lon="0.5041">
        <ele>1754</ele>
        <time>2012-08-22T10:04:29Z</time>
      </trkpt>
      <trkpt lat="42.87276" lon="0.50467">
        <ele>1754</ele>
        <time>2012-08-22T10:04:37Z</time>
      </trkpt>
      <trkpt lat="42.87299" lon="0.50514">
        <ele>1754</ele>
        <time>2012-08-22T10:04:43Z</time>
      </trkpt>
      <trkpt lat="42.87298" lon="0.50576">
        <ele>1754</ele>
        <time>2012-08-22T10:04:51Z</time>
      </trkpt>
      <trkpt lat="42.87294" lon="0.50634">
        <ele>1755.416626</ele>
        <time>2012-08-22T10:04:57Z</time>
      </trkpt>
      <trkpt lat="42.87309" lon="0.50645">
        <ele>1755.416626</ele>
        <time>2012-08-22T10:05:09Z</time>
      </trkpt>
      <trkpt lat="42.87324" lon="0.50585">
        <ele>1755.416626</ele>
        <time>2012-08-22T10:05:16Z</time>
      </trkpt>
      <trkpt lat="42.87337" lon="0.50531">
        <ele>1755.416626</ele>
        <time>2012-08-22T10:05:22Z</time>
      </trkpt>
      <trkpt lat="42.87344" lon="0.50468">
        <ele>1755.416626</ele>
        <time>2012-08-22T10:05:29Z</time>
      </trkpt>
      <trkpt lat="42.87383" lon="0.50466">
        <ele>1755.416626</ele>
        <time>2012-08-22T10:05:34Z</time>
      </trkpt>
      <trkpt lat="42.87442" lon="0.50504">
        <ele>1755.416626</ele>
        <time>2012-08-22T10:05:40Z</time>
      </trkpt>
      <trkpt lat="42.87478" lon="0.50531">
        <ele>1755.416626</ele>
        <time>2012-08-22T10:05:46Z</time>
      </trkpt>
      <trkpt lat="42.87514" lon="0.505">
        <ele>1755.416626</ele>
        <time>2012-08-22T10:05:52Z</time>
      </trkpt>
      <trkpt lat="42.87561" lon="0.50468">
        <ele>1755.416626</ele>
        <time>2012-08-22T10:05:57Z</time>
      </trkpt>
      <trkpt lat="42.87596" lon="0.50436">
        <ele>1745.25</ele>
        <time>2012-08-22T10:06:02Z</time>
      </trkpt>
      <trkpt lat="42.8756" lon="0.50439">
        <ele>1745.25</ele>
        <time>2012-08-22T10:06:39Z</time>
      </trkpt>
      <trkpt lat="42.87544" lon="0.50454">
        <ele>1745.25</ele>
        <time>2012-08-22T10:06:48Z</time>
      </trkpt>
      <trkpt lat="42.87528" lon="0.50466">
        <ele>1745.25</ele>
        <time>2012-08-22T10:06:56Z</time>
      </trkpt>
      <trkpt lat="42.87512" lon="0.50479">
        <ele>1745.25</ele>
        <time>2012-08-22T10:07:04Z</time>
      </trkpt>
      <trkpt lat="42.87494" lon="0.50493">
        <ele>1745.25</ele>
        <time>2012-08-22T10:07:13Z</time>
      </trkpt>
      <trkpt lat="42.87479" lon="0.50508">
        <ele>1745.25</ele>
        <time>2012-08-22T10:07:22Z</time>
      </trkpt>
      <trkpt lat="42.87462" lon="0.50515">
        <ele>1745.25</ele>
        <time>2012-08-22T10:07:31Z</time>
      </trkpt>
      <trkpt lat="42.87445" lon="0.50504">
        <ele>1745.25</ele>
        <time>2012-08-22T10:07:44Z</time>
      </trkpt>
      <trkpt lat="42.87428" lon="0.50493">
        <ele>1710.666626</ele>
        <time>2012-08-22T10:07:57Z</time>
      </trkpt>
      <trkpt lat="42.87415" lon="0.50473">
        <ele>1710.666626</ele>
        <time>2012-08-22T10:08:09Z</time>
      </trkpt>
      <trkpt lat="42.87395" lon="0.50468">
        <ele>1710.666626</ele>
        <time>2012-08-22T10:08:17Z</time>
      </trkpt>
      <trkpt lat="42.87377" lon="0.50464">
        <ele>1710.666626</ele>
        <time>2012-08-22T10:08:26Z</time>
      </trkpt>
      <trkpt lat="42.87359" lon="0.50474">
        <ele>1710.666626</ele>
        <time>2012-08-22T10:08:38Z</time>
      </trkpt>
      <trkpt lat="42.8734" lon="0.50474">
        <ele>1710.666626</ele>
        <time>2012-08-22T10:08:52Z</time>
      </trkpt>
      <trkpt lat="42.87337" lon="0.50499">
        <ele>1710.666626</ele>
        <time>2012-08-22T10:09:05Z</time>
      </trkpt>
      <trkpt lat="42.87334" lon="0.50524">
        <ele>1667.666626</ele>
        <time>2012-08-22T10:09:15Z</time>
      </trkpt>
      <trkpt lat="42.87325" lon="0.50546">
        <ele>1667.666626</ele>
        <time>2012-08-22T10:09:26Z</time>
      </trkpt>
      <trkpt lat="42.87319" lon="0.5057">
        <ele>1667.666626</ele>
        <time>2012-08-22T10:09:34Z</time>
      </trkpt>
      <trkpt lat="42.87312" lon="0.50594">
        <ele>1667.666626</ele>
        <time>2012-08-22T10:09:41Z</time>
      </trkpt>
      <trkpt lat="42.87305" lon="0.50619">
        <ele>1667.666626</ele>
        <time>2012-08-22T10:09:49Z</time>
      </trkpt>
      <trkpt lat="42.873" lon="0.50644">
        <ele>1667.666626</ele>
        <time>2012-08-22T10:09:57Z</time>
      </trkpt>
      <trkpt lat="42.87292" lon="0.50667">
        <ele>1657.916626</ele>
        <time>2012-08-22T10:10:06Z</time>
      </trkpt>
      <trkpt lat="42.8729" lon="0.50642">
        <ele>1657.916626</ele>
        <time>2012-08-22T10:10:14Z</time>
      </trkpt>
      <trkpt lat="42.87291" lon="0.50616">
        <ele>1657.916626</ele>
        <time>2012-08-22T10:10:24Z</time>
      </trkpt>
      <trkpt lat="42.87294" lon="0.50591">
        <ele>1657.916626</ele>
        <time>2012-08-22T10:10:34Z</time>
      </trkpt>
      <trkpt lat="42.87298" lon="0.50566">
        <ele>1657.916626</ele>
        <time>2012-08-22T10:10:44Z</time>
      </trkpt>
      <trkpt lat="42.87304" lon="0.50543">
        <ele>1674.916626</ele>
        <time>2012-08-22T10:10:52Z</time>
      </trkpt>
      <trkpt lat="42.87305" lon="0.50517">
        <ele>1674.916626</ele>
        <time>2012-08-22T10:11:01Z</time>
      </trkpt>
      <trkpt lat="42.87301" lon="0.50491">
        <ele>1674.916626</ele>
        <time>2012-08-22T10:11:08Z</time>
      </trkpt>
      <trkpt lat="42.8729" lon="0.50469">
        <ele>1674.916626</ele>
        <time>2012-08-22T10:11:20Z</time>
      </trkpt>
      <trkpt lat="42.87292" lon="0.50443">
        <ele>1674.916626</ele>
        <time>2012-08-22T10:11:31Z</time>
      </trkpt>
      <trkpt lat="42.87302" lon="0.50423">
        <ele>1682.333374</ele>
        <time>2012-08-22T10:11:45Z</time>
      </trkpt>
      <trkpt lat="42.87302" lon="0.50397">
        <ele>1682.333374</ele>
        <time>2012-08-22T10:11:57Z</time>
      </trkpt>
      <trkpt lat="42.87312" lon="0.50374">
        <ele>1682.333374</ele>
        <time>2012-08-22T10:12:09Z</time>
      </trkpt>
      <trkpt lat="42.87331" lon="0.50373">
        <ele>1682.333374</ele>
        <time>2012-08-22T10:12:17Z</time>
      </trkpt>
      <trkpt lat="42.87334" lon="0.50348">
        <ele>1682.333374</ele>
        <time>2012-08-22T10:12:27Z</time>
      </trkpt>
      <trkpt lat="42.87347" lon="0.50327">
        <ele>1682.333374</ele>
        <time>2012-08-22T10:12:39Z</time>
      </trkpt>
      <trkpt lat="42.87365" lon="0.50329">
        <ele>1682.333374</ele>
        <time>2012-08-22T10:12:50Z</time>
      </trkpt>
      <trkpt lat="42.87381" lon="0.50342">
        <ele>1682.333374</ele>
        <time>2012-08-22T10:13:00Z</time>
      </trkpt>
      <trkpt lat="42.874" lon="0.50346">
        <ele>1687.916626</ele>
        <time>2012-08-22T10:13:11Z</time>
      </trkpt>
      <trkpt lat="42.8742" lon="0.50348">
        <ele>1687.916626</ele>
        <time>2012-08-22T10:13:21Z</time>
      </trkpt>
      <trkpt lat="42.87438" lon="0.50352">
        <ele>1687.916626</ele>
        <time>2012-08-22T10:13:30Z</time>
      </trkpt>
      <trkpt lat="42.87457" lon="0.50351">
        <ele>1687.916626</ele>
        <time>2012-08-22T10:13:39Z</time>
      </trkpt>
      <trkpt lat="42.8747" lon="0.50332">
        <ele>1687.916626</ele>
        <time>2012-08-22T10:13:46Z</time>
      </trkpt>
      <trkpt lat="42.87484" lon="0.50315">
        <ele>1687.916626</ele>
        <time>2012-08-22T10:13:55Z</time>
      </trkpt>
      <trkpt lat="42.87493" lon="0.50293">
        <ele>1699.333374</ele>
        <time>2012-08-22T10:14:05Z</time>
      </trkpt>
      <trkpt lat="42.8751" lon="0.50281">
        <ele>1699.333374</ele>
        <time>2012-08-22T10:14:15Z</time>
      </trkpt>
      <trkpt lat="42.87523" lon="0.50262">
        <ele>1699.333374</ele>
        <time>2012-08-22T10:14:24Z</time>
      </trkpt>
      <trkpt lat="42.87525" lon="0.50237">
        <ele>1699.333374</ele>
        <time>2012-08-22T10:14:34Z</time>
      </trkpt>
      <trkpt lat="42.87514" lon="0.50215">
        <ele>1699.333374</ele>
        <time>2012-08-22T10:14:43Z</time>
      </trkpt>
      <trkpt lat="42.87501" lon="0.50197">
        <ele>1714.083374</ele>
        <time>2012-08-22T10:14:52Z</time>
      </trkpt>
      <trkpt lat="42.87486" lon="0.50182">
        <ele>1714.083374</ele>
        <time>2012-08-22T10:15:01Z</time>
      </trkpt>
      <trkpt lat="42.87474" lon="0.50162">
        <ele>1714.083374</ele>
        <time>2012-08-22T10:15:11Z</time>
      </trkpt>
      <trkpt lat="42.87464" lon="0.50141">
        <ele>1714.083374</ele>
        <time>2012-08-22T10:15:22Z</time>
      </trkpt>
      <trkpt lat="42.87449" lon="0.50123">
        <ele>1714.083374</ele>
        <time>2012-08-22T10:15:35Z</time>
      </trkpt>
      <trkpt lat="42.87436" lon="0.50104">
        <ele>1714.083374</ele>
        <time>2012-08-22T10:15:44Z</time>
      </trkpt>
      <trkpt lat="42.87425" lon="0.50081">
        <ele>1731.75</ele>
        <time>2012-08-22T10:15:53Z</time>
      </trkpt>
      <trkpt lat="42.87459" lon="0.50135">
        <ele>1731.75</ele>
        <time>2012-08-22T10:18:47Z</time>
      </trkpt>
      <trkpt lat="42.87472" lon="0.50158">
        <ele>1731.75</ele>
        <time>2012-08-22T10:18:52Z</time>
      </trkpt>
      <trkpt lat="42.87498" lon="0.50199">
        <ele>1731.75</ele>
        <time>2012-08-22T10:19:00Z</time>
      </trkpt>
      <trkpt lat="42.87515" lon="0.50256">
        <ele>1731.75</ele>
        <time>2012-08-22T10:19:08Z</time>
      </trkpt>
      <trkpt lat="42.87482" lon="0.50297">
        <ele>1731.75</ele>
        <time>2012-08-22T10:19:14Z</time>
      </trkpt>
      <trkpt lat="42.8745" lon="0.50339">
        <ele>1731.75</ele>
        <time>2012-08-22T10:19:20Z</time>
      </trkpt>
      <trkpt lat="42.87409" lon="0.50348">
        <ele>1735.25</ele>
        <time>2012-08-22T10:19:26Z</time>
      </trkpt>
      <trkpt lat="42.87368" lon="0.50332">
        <ele>1735.25</ele>
        <time>2012-08-22T10:19:32Z</time>
      </trkpt>
      <trkpt lat="42.87331" lon="0.50323">
        <ele>1735.25</ele>
        <time>2012-08-22T10:19:38Z</time>
      </trkpt>
      <trkpt lat="42.87303" lon="0.50382">
        <ele>1735.25</ele>
        <time>2012-08-22T10:19:44Z</time>
      </trkpt>
      <trkpt lat="42.87288" lon="0.50441">
        <ele>1735.25</ele>
        <time>2012-08-22T10:19:50Z</time>
      </trkpt>
      <trkpt lat="42.87302" lon="0.50501">
        <ele>1735.25</ele>
        <time>2012-08-22T10:19:57Z</time>
      </trkpt>
      <trkpt lat="42.87303" lon="0.50572">
        <ele>1743.75</ele>
        <time>2012-08-22T10:20:03Z</time>
      </trkpt>
      <trkpt lat="42.873" lon="0.50625">
        <ele>1743.75</ele>
        <time>2012-08-22T10:20:08Z</time>
      </trkpt>
      <trkpt lat="42.87311" lon="0.50643">
        <ele>1743.75</ele>
        <time>2012-08-22T10:20:22Z</time>
      </trkpt>
      <trkpt lat="42.87323" lon="0.50589">
        <ele>1754</ele>
        <time>2012-08-22T10:20:30Z</time>
      </trkpt>
      <trkpt lat="42.87337" lon="0.50537">
        <ele>1754</ele>
        <time>2012-08-22T10:20:37Z</time>
      </trkpt>
      <trkpt lat="42.87343" lon="0.50486">
        <ele>1754</ele>
        <time>2012-08-22T10:20:43Z</time>
      </trkpt>
      <trkpt lat="42.87377" lon="0.50462">
        <ele>1754</ele>
        <time>2012-08-22T10:20:50Z</time>
      </trkpt>
      <trkpt lat="42.87437" lon="0.50502">
        <ele>1754</ele>
        <time>2012-08-22T10:20:58Z</time>
      </trkpt>
      <trkpt lat="42.87476" lon="0.50525">
        <ele>1754</ele>
        <time>2012-08-22T10:21:04Z</time>
      </trkpt>
      <trkpt lat="42.87515" lon="0.50499">
        <ele>1754</ele>
        <time>2012-08-22T10:21:10Z</time>
      </trkpt>
      <trkpt lat="42.87567" lon="0.5046">
        <ele>1754</ele>
        <time>2012-08-22T10:21:16Z</time>
      </trkpt>
      <trkpt lat="42.87605" lon="0.50425">
        <ele>1754</ele>
        <time>2012-08-22T10:21:22Z</time>
      </trkpt>
      <trkpt lat="42.87649" lon="0.50457">
        <ele>1742.916626</ele>
        <time>2012-08-22T10:21:28Z</time>
      </trkpt>
      <trkpt lat="42.87688" lon="0.50489">
        <ele>1742.916626</ele>
        <time>2012-08-22T10:21:34Z</time>
      </trkpt>
      <trkpt lat="42.87727" lon="0.50509">
        <ele>1742.916626</ele>
        <time>2012-08-22T10:21:44Z</time>
      </trkpt>
      <trkpt lat="42.87746" lon="0.50498">
        <ele>1742.916626</ele>
        <time>2012-08-22T10:21:58Z</time>
      </trkpt>
      <trkpt lat="42.87763" lon="0.50488">
        <ele>1742.916626</ele>
        <time>2012-08-22T10:22:05Z</time>
      </trkpt>
      <trkpt lat="42.87783" lon="0.50476">
        <ele>1742.916626</ele>
        <time>2012-08-22T10:22:10Z</time>
      </trkpt>
      <trkpt lat="42.87817" lon="0.5044">
        <ele>1742.916626</ele>
        <time>2012-08-22T10:22:17Z</time>
      </trkpt>
      <trkpt lat="42.87848" lon="0.50406">
        <ele>1742.916626</ele>
        <time>2012-08-22T10:22:23Z</time>
      </trkpt>
      <trkpt lat="42.87882" lon="0.50378">
        <ele>1706.333374</ele>
        <time>2012-08-22T10:22:29Z</time>
      </trkpt>
      <trkpt lat="42.87905" lon="0.50335">
        <ele>1706.333374</ele>
        <time>2012-08-22T10:22:35Z</time>
      </trkpt>
      <trkpt lat="42.87893" lon="0.50279">
        <ele>1706.333374</ele>
        <time>2012-08-22T10:22:41Z</time>
      </trkpt>
      <trkpt lat="42.87877" lon="0.50223">
        <ele>1706.333374</ele>
        <time>2012-08-22T10:22:47Z</time>
      </trkpt>
      <trkpt lat="42.87888" lon="0.50175">
        <ele>1706.333374</ele>
        <time>2012-08-22T10:23:12Z</time>
      </trkpt>
      <trkpt lat="42.87931" lon="0.50148">
        <ele>1706.333374</ele>
        <time>2012-08-22T10:23:18Z</time>
      </trkpt>
      <trkpt lat="42.87972" lon="0.50175">
        <ele>1706.333374</ele>
        <time>2012-08-22T10:23:24Z</time>
      </trkpt>
      <trkpt lat="42.87983" lon="0.50235">
        <ele>1706.333374</ele>
        <time>2012-08-22T10:23:30Z</time>
      </trkpt>
      <trkpt lat="42.88005" lon="0.5028">
        <ele>1706.333374</ele>
        <time>2012-08-22T10:23:40Z</time>
      </trkpt>
      <trkpt lat="42.88018" lon="0.50298">
        <ele>1706.333374</ele>
        <time>2012-08-22T10:23:45Z</time>
      </trkpt>
      <trkpt lat="42.88054" lon="0.50325">
        <ele>1674.25</ele>
        <time>2012-08-22T10:23:54Z</time>
      </trkpt>
      <trkpt lat="42.88096" lon="0.50336">
        <ele>1674.25</ele>
        <time>2012-08-22T10:24:01Z</time>
      </trkpt>
      <trkpt lat="42.88133" lon="0.50339">
        <ele>1674.25</ele>
        <time>2012-08-22T10:24:12Z</time>
      </trkpt>
      <trkpt lat="42.88161" lon="0.50362">
        <ele>1674.25</ele>
        <time>2012-08-22T10:27:08Z</time>
      </trkpt>
      <trkpt lat="42.88191" lon="0.50395">
        <ele>1674.25</ele>
        <time>2012-08-22T10:27:14Z</time>
      </trkpt>
      <trkpt lat="42.88243" lon="0.50409">
        <ele>1674.25</ele>
        <time>2012-08-22T10:27:20Z</time>
      </trkpt>
      <trkpt lat="42.88308" lon="0.50412">
        <ele>1674.25</ele>
        <time>2012-08-22T10:27:26Z</time>
      </trkpt>
      <trkpt lat="42.8837" lon="0.5043">
        <ele>1674.25</ele>
        <time>2012-08-22T10:27:32Z</time>
      </trkpt>
      <trkpt lat="42.88404" lon="0.50469">
        <ele>1638.5</ele>
        <time>2012-08-22T10:27:37Z</time>
      </trkpt>
      <trkpt lat="42.88451" lon="0.50476">
        <ele>1638.5</ele>
        <time>2012-08-22T10:27:43Z</time>
      </trkpt>
      <trkpt lat="42.88458" lon="0.50428">
        <ele>1638.5</ele>
        <time>2012-08-22T10:27:50Z</time>
      </trkpt>
      <trkpt lat="42.8845" lon="0.50334">
        <ele>1638.5</ele>
        <time>2012-08-22T10:27:56Z</time>
      </trkpt>
      <trkpt lat="42.88484" lon="0.50255">
        <ele>1638.5</ele>
        <time>2012-08-22T10:28:02Z</time>
      </trkpt>
      <trkpt lat="42.88535" lon="0.50184">
        <ele>1638.5</ele>
        <time>2012-08-22T10:28:08Z</time>
      </trkpt>
      <trkpt lat="42.88582" lon="0.50186">
        <ele>1611.416626</ele>
        <time>2012-08-22T10:28:13Z</time>
      </trkpt>
      <trkpt lat="42.8864" lon="0.50226">
        <ele>1611.416626</ele>
        <time>2012-08-22T10:28:19Z</time>
      </trkpt>
      <trkpt lat="42.88695" lon="0.50289">
        <ele>1611.416626</ele>
        <time>2012-08-22T10:28:26Z</time>
      </trkpt>
      <trkpt lat="42.8875" lon="0.50327">
        <ele>1611.416626</ele>
        <time>2012-08-22T10:28:32Z</time>
      </trkpt>
      <trkpt lat="42.88811" lon="0.50333">
        <ele>1611.416626</ele>
        <time>2012-08-22T10:28:38Z</time>
      </trkpt>
      <trkpt lat="42.88872" lon="0.50302">
        <ele>1611.416626</ele>
        <time>2012-08-22T10:28:45Z</time>
      </trkpt>
      <trkpt lat="42.88934" lon="0.50302">
        <ele>1583</ele>
        <time>2012-08-22T10:28:51Z</time>
      </trkpt>
      <trkpt lat="42.89" lon="0.50321">
        <ele>1583</ele>
        <time>2012-08-22T10:28:57Z</time>
      </trkpt>
      <trkpt lat="42.89041" lon="0.5026">
        <ele>1583</ele>
        <time>2012-08-22T10:29:03Z</time>
      </trkpt>
      <trkpt lat="42.89098" lon="0.50174">
        <ele>1583</ele>
        <time>2012-08-22T10:29:09Z</time>
      </trkpt>
      <trkpt lat="42.89164" lon="0.50097">
        <ele>1583</ele>
        <time>2012-08-22T10:29:15Z</time>
      </trkpt>
      <trkpt lat="42.89226" lon="0.50011">
        <ele>1581.25</ele>
        <time>2012-08-22T10:29:21Z</time>
      </trkpt>
      <trkpt lat="42.89254" lon="0.49933">
        <ele>1581.25</ele>
        <time>2012-08-22T10:29:27Z</time>
      </trkpt>
      <trkpt lat="42.89231" lon="0.49837">
        <ele>1581.25</ele>
        <time>2012-08-22T10:29:33Z</time>
      </trkpt>
      <trkpt lat="42.89195" lon="0.49723">
        <ele>1581.25</ele>
        <time>2012-08-22T10:29:39Z</time>
      </trkpt>
      <trkpt lat="42.89156" lon="0.49626">
        <ele>1581.25</ele>
        <time>2012-08-22T10:29:45Z</time>
      </trkpt>
      <trkpt lat="42.89149" lon="0.49565">
        <ele>1581.25</ele>
        <time>2012-08-22T10:29:53Z</time>
      </trkpt>
      <trkpt lat="42.89203" lon="0.49633">
        <ele>1581.25</ele>
        <time>2012-08-22T10:29:59Z</time>
      </trkpt>
      <trkpt lat="42.89256" lon="0.49729">
        <ele>1581.25</ele>
        <time>2012-08-22T10:30:05Z</time>
      </trkpt>
      <trkpt lat="42.89309" lon="0.4983">
        <ele>1581.25</ele>
        <time>2012-08-22T10:30:11Z</time>
      </trkpt>
      <trkpt lat="42.89359" lon="0.49934">
        <ele>1581.25</ele>
        <time>2012-08-22T10:30:17Z</time>
      </trkpt>
      <trkpt lat="42.8941" lon="0.50005">
        <ele>1537.5</ele>
        <time>2012-08-22T10:30:23Z</time>
      </trkpt>
      <trkpt lat="42.89384" lon="0.50051">
        <ele>1537.5</ele>
        <time>2012-08-22T10:30:28Z</time>
      </trkpt>
      <trkpt lat="42.89369" lon="0.50108">
        <ele>1537.5</ele>
        <time>2012-08-22T10:30:33Z</time>
      </trkpt>
      <trkpt lat="42.89411" lon="0.50135">
        <ele>1537.5</ele>
        <time>2012-08-22T10:30:39Z</time>
      </trkpt>
      <trkpt lat="42.89454" lon="0.50191">
        <ele>1537.5</ele>
        <time>2012-08-22T10:30:45Z</time>
      </trkpt>
      <trkpt lat="42.89442" lon="0.50267">
        <ele>1537.5</ele>
        <time>2012-08-22T10:30:51Z</time>
      </trkpt>
      <trkpt lat="42.89471" lon="0.50282">
        <ele>1537.5</ele>
        <time>2012-08-22T10:30:57Z</time>
      </trkpt>
      <trkpt lat="42.89505" lon="0.50209">
        <ele>1537.5</ele>
        <time>2012-08-22T10:31:03Z</time>
      </trkpt>
      <trkpt lat="42.89528" lon="0.50173">
        <ele>1537.5</ele>
        <time>2012-08-22T10:31:09Z</time>
      </trkpt>
      <trkpt lat="42.89533" lon="0.50227">
        <ele>1465.583374</ele>
        <time>2012-08-22T10:31:15Z</time>
      </trkpt>
      <trkpt lat="42.89523" lon="0.50314">
        <ele>1465.583374</ele>
        <time>2012-08-22T10:31:21Z</time>
      </trkpt>
      <trkpt lat="42.89504" lon="0.50402">
        <ele>1465.583374</ele>
        <time>2012-08-22T10:31:27Z</time>
      </trkpt>
      <trkpt lat="42.89442" lon="0.50464">
        <ele>1465.583374</ele>
        <time>2012-08-22T10:31:33Z</time>
      </trkpt>
      <trkpt lat="42.89436" lon="0.50492">
        <ele>1465.583374</ele>
        <time>2012-08-22T10:31:42Z</time>
      </trkpt>
      <trkpt lat="42.8948" lon="0.50482">
        <ele>1465.583374</ele>
        <time>2012-08-22T10:31:48Z</time>
      </trkpt>
      <trkpt lat="42.89522" lon="0.50453">
        <ele>1465.583374</ele>
        <time>2012-08-22T10:31:53Z</time>
      </trkpt>
      <trkpt lat="42.89559" lon="0.50377">
        <ele>1465.583374</ele>
        <time>2012-08-22T10:32:00Z</time>
      </trkpt>
      <trkpt lat="42.89561" lon="0.50314">
        <ele>1465.583374</ele>
        <time>2012-08-22T10:32:05Z</time>
      </trkpt>
      <trkpt lat="42.89584" lon="0.50246">
        <ele>1465.583374</ele>
        <time>2012-08-22T10:32:11Z</time>
      </trkpt>
      <trkpt lat="42.89629" lon="0.5019">
        <ele>1384.833374</ele>
        <time>2012-08-22T10:32:17Z</time>
      </trkpt>
      <trkpt lat="42.8962" lon="0.50108">
        <ele>1384.833374</ele>
        <time>2012-08-22T10:32:23Z</time>
      </trkpt>
      <trkpt lat="42.8959" lon="0.50035">
        <ele>1384.833374</ele>
        <time>2012-08-22T10:32:29Z</time>
      </trkpt>
      <trkpt lat="42.89554" lon="0.4996">
        <ele>1384.833374</ele>
        <time>2012-08-22T10:32:35Z</time>
      </trkpt>
      <trkpt lat="42.89519" lon="0.4989">
        <ele>1384.833374</ele>
        <time>2012-08-22T10:32:41Z</time>
      </trkpt>
      <trkpt lat="42.89497" lon="0.49817">
        <ele>1384.833374</ele>
        <time>2012-08-22T10:32:47Z</time>
      </trkpt>
      <trkpt lat="42.89532" lon="0.49774">
        <ele>1384.833374</ele>
        <time>2012-08-22T10:32:53Z</time>
      </trkpt>
      <trkpt lat="42.89571" lon="0.49807">
        <ele>1384.833374</ele>
        <time>2012-08-22T10:32:59Z</time>
      </trkpt>
      <trkpt lat="42.89608" lon="0.49846">
        <ele>1384.833374</ele>
        <time>2012-08-22T10:33:05Z</time>
      </trkpt>
      <trkpt lat="42.89647" lon="0.49898">
        <ele>1384.833374</ele>
        <time>2012-08-22T10:33:11Z</time>
      </trkpt>
      <trkpt lat="42.89684" lon="0.49922">
        <ele>1321.25</ele>
        <time>2012-08-22T10:33:18Z</time>
      </trkpt>
      <trkpt lat="42.89705" lon="0.4993">
        <ele>1321.25</ele>
        <time>2012-08-22T10:33:24Z</time>
      </trkpt>
      <trkpt lat="42.8974" lon="0.49959">
        <ele>1321.25</ele>
        <time>2012-08-22T10:33:31Z</time>
      </trkpt>
      <trkpt lat="42.89779" lon="0.49988">
        <ele>1321.25</ele>
        <time>2012-08-22T10:33:37Z</time>
      </trkpt>
      <trkpt lat="42.89795" lon="0.50053">
        <ele>1321.25</ele>
        <time>2012-08-22T10:33:42Z</time>
      </trkpt>
      <trkpt lat="42.89819" lon="0.50106">
        <ele>1321.25</ele>
        <time>2012-08-22T10:33:49Z</time>
      </trkpt>
      <trkpt lat="42.89856" lon="0.50178">
        <ele>1321.25</ele>
        <time>2012-08-22T10:33:56Z</time>
      </trkpt>
      <trkpt lat="42.89904" lon="0.50257">
        <ele>1321.25</ele>
        <time>2012-08-22T10:34:02Z</time>
      </trkpt>
      <trkpt lat="42.89948" lon="0.50365">
        <ele>1321.25</ele>
        <time>2012-08-22T10:34:08Z</time>
      </trkpt>
      <trkpt lat="42.89992" lon="0.50514">
        <ele>1321.25</ele>
        <time>2012-08-22T10:34:15Z</time>
      </trkpt>
      <trkpt lat="42.90027" lon="0.50619">
        <ele>1280.083374</ele>
        <time>2012-08-22T10:34:20Z</time>
      </trkpt>
      <trkpt lat="42.90053" lon="0.50673">
        <ele>1280.083374</ele>
        <time>2012-08-22T10:34:25Z</time>
      </trkpt>
      <trkpt lat="42.90117" lon="0.50655">
        <ele>1280.083374</ele>
        <time>2012-08-22T10:34:32Z</time>
      </trkpt>
      <trkpt lat="42.90184" lon="0.5071">
        <ele>1280.083374</ele>
        <time>2012-08-22T10:34:38Z</time>
      </trkpt>
      <trkpt lat="42.90242" lon="0.50749">
        <ele>1280.083374</ele>
        <time>2012-08-22T10:34:44Z</time>
      </trkpt>
      <trkpt lat="42.90272" lon="0.50775">
        <ele>1280.083374</ele>
        <time>2012-08-22T10:34:50Z</time>
      </trkpt>
      <trkpt lat="42.90222" lon="0.50754">
        <ele>1280.083374</ele>
        <time>2012-08-22T10:34:55Z</time>
      </trkpt>
      <trkpt lat="42.90151" lon="0.5073">
        <ele>1280.083374</ele>
        <time>2012-08-22T10:35:01Z</time>
      </trkpt>
      <trkpt lat="42.90081" lon="0.50745">
        <ele>1280.083374</ele>
        <time>2012-08-22T10:35:07Z</time>
      </trkpt>
      <trkpt lat="42.90004" lon="0.50745">
        <ele>1280.083374</ele>
        <time>2012-08-22T10:35:13Z</time>
      </trkpt>
      <trkpt lat="42.89943" lon="0.50707">
        <ele>1251.25</ele>
        <time>2012-08-22T10:35:19Z</time>
      </trkpt>
      <trkpt lat="42.89915" lon="0.50692">
        <ele>1251.25</ele>
        <time>2012-08-22T10:35:25Z</time>
      </trkpt>
      <trkpt lat="42.89935" lon="0.50744">
        <ele>1251.25</ele>
        <time>2012-08-22T10:35:31Z</time>
      </trkpt>
      <trkpt lat="42.89979" lon="0.50766">
        <ele>1251.25</ele>
        <time>2012-08-22T10:35:36Z</time>
      </trkpt>
      <trkpt lat="42.90036" lon="0.50794">
        <ele>1251.25</ele>
        <time>2012-08-22T10:35:42Z</time>
      </trkpt>
      <trkpt lat="42.90098" lon="0.50815">
        <ele>1251.25</ele>
        <time>2012-08-22T10:35:48Z</time>
      </trkpt>
      <trkpt lat="42.90165" lon="0.50822">
        <ele>1251.25</ele>
        <time>2012-08-22T10:35:54Z</time>
      </trkpt>
      <trkpt lat="42.90224" lon="0.50866">
        <ele>1251.25</ele>
        <time>2012-08-22T10:36:00Z</time>
      </trkpt>
      <trkpt lat="42.90286" lon="0.50897">
        <ele>1251.25</ele>
        <time>2012-08-22T10:36:06Z</time>
      </trkpt>
      <trkpt lat="42.90338" lon="0.50865">
        <ele>1251.25</ele>
        <time>2012-08-22T10:36:13Z</time>
      </trkpt>
      <trkpt lat="42.90371" lon="0.50791">
        <ele>1210.166626</ele>
        <time>2012-08-22T10:36:19Z</time>
      </trkpt>
      <trkpt lat="42.90396" lon="0.50797">
        <ele>1210.166626</ele>
        <time>2012-08-22T10:36:25Z</time>
      </trkpt>
      <trkpt lat="42.9043" lon="0.50837">
        <ele>1210.166626</ele>
        <time>2012-08-22T10:36:31Z</time>
      </trkpt>
      <trkpt lat="42.90497" lon="0.50903">
        <ele>1210.166626</ele>
        <time>2012-08-22T10:36:41Z</time>
      </trkpt>
      <trkpt lat="42.90521" lon="0.50979">
        <ele>1210.166626</ele>
        <time>2012-08-22T10:36:47Z</time>
      </trkpt>
      <trkpt lat="42.90525" lon="0.5106">
        <ele>1210.166626</ele>
        <time>2012-08-22T10:36:53Z</time>
      </trkpt>
      <trkpt lat="42.90491" lon="0.51136">
        <ele>1210.166626</ele>
        <time>2012-08-22T10:36:59Z</time>
      </trkpt>
      <trkpt lat="42.90474" lon="0.51224">
        <ele>1210.166626</ele>
        <time>2012-08-22T10:37:06Z</time>
      </trkpt>
      <trkpt lat="42.90519" lon="0.5127">
        <ele>1210.166626</ele>
        <time>2012-08-22T10:37:12Z</time>
      </trkpt>
      <trkpt lat="42.90586" lon="0.51266">
        <ele>1210.166626</ele>
        <time>2012-08-22T10:37:18Z</time>
      </trkpt>
      <trkpt lat="42.90656" lon="0.51275">
        <ele>1148.083374</ele>
        <time>2012-08-22T10:37:24Z</time>
      </trkpt>
      <trkpt lat="42.90719" lon="0.51267">
        <ele>1148.083374</ele>
        <time>2012-08-22T10:37:30Z</time>
      </trkpt>
      <trkpt lat="42.90786" lon="0.51307">
        <ele>1148.083374</ele>
        <time>2012-08-22T10:37:36Z</time>
      </trkpt>
      <trkpt lat="42.90814" lon="0.51378">
        <ele>1148.083374</ele>
        <time>2012-08-22T10:37:42Z</time>
      </trkpt>
      <trkpt lat="42.90852" lon="0.51449">
        <ele>1148.083374</ele>
        <time>2012-08-22T10:37:48Z</time>
      </trkpt>
      <trkpt lat="42.9091" lon="0.51471">
        <ele>1148.083374</ele>
        <time>2012-08-22T10:37:54Z</time>
      </trkpt>
      <trkpt lat="42.90976" lon="0.51501">
        <ele>1148.083374</ele>
        <time>2012-08-22T10:38:00Z</time>
      </trkpt>
      <trkpt lat="42.91049" lon="0.5149">
        <ele>1148.083374</ele>
        <time>2012-08-22T10:38:06Z</time>
      </trkpt>
      <trkpt lat="42.91123" lon="0.51492">
        <ele>1148.083374</ele>
        <time>2012-08-22T10:38:12Z</time>
      </trkpt>
      <trkpt lat="42.91202" lon="0.51508">
        <ele>1148.083374</ele>
        <time>2012-08-22T10:38:18Z</time>
      </trkpt>
      <trkpt lat="42.91242" lon="0.51478">
        <ele>1095.333374</ele>
        <time>2012-08-22T10:38:23Z</time>
      </trkpt>
      <trkpt lat="42.91269" lon="0.51404">
        <ele>1095.333374</ele>
        <time>2012-08-22T10:38:29Z</time>
      </trkpt>
      <trkpt lat="42.91322" lon="0.51357">
        <ele>1095.333374</ele>
        <time>2012-08-22T10:38:35Z</time>
      </trkpt>
      <trkpt lat="42.91386" lon="0.51359">
        <ele>1095.333374</ele>
        <time>2012-08-22T10:38:41Z</time>
      </trkpt>
      <trkpt lat="42.91433" lon="0.51334">
        <ele>1095.333374</ele>
        <time>2012-08-22T10:38:48Z</time>
      </trkpt>
      <trkpt lat="42.91464" lon="0.51273">
        <ele>1095.333374</ele>
        <time>2012-08-22T10:38:55Z</time>
      </trkpt>
      <trkpt lat="42.91521" lon="0.5125">
        <ele>1095.333374</ele>
        <time>2012-08-22T10:39:01Z</time>
      </trkpt>
      <trkpt lat="42.91588" lon="0.51218">
        <ele>1095.333374</ele>
        <time>2012-08-22T10:39:07Z</time>
      </trkpt>
      <trkpt lat="42.91665" lon="0.51188">
        <ele>1095.333374</ele>
        <time>2012-08-22T10:39:13Z</time>
      </trkpt>
      <trkpt lat="42.91725" lon="0.51192">
        <ele>1095.333374</ele>
        <time>2012-08-22T10:39:19Z</time>
      </trkpt>
      <trkpt lat="42.91773" lon="0.51239">
        <ele>1061.333374</ele>
        <time>2012-08-22T10:39:25Z</time>
      </trkpt>
      <trkpt lat="42.91804" lon="0.51281">
        <ele>1061.333374</ele>
        <time>2012-08-22T10:39:30Z</time>
      </trkpt>
      <trkpt lat="42.91837" lon="0.51296">
        <ele>1061.333374</ele>
        <time>2012-08-22T10:39:36Z</time>
      </trkpt>
      <trkpt lat="42.91854" lon="0.5124">
        <ele>1061.333374</ele>
        <time>2012-08-22T10:39:42Z</time>
      </trkpt>
      <trkpt lat="42.91882" lon="0.51189">
        <ele>1061.333374</ele>
        <time>2012-08-22T10:39:48Z</time>
      </trkpt>
      <trkpt lat="42.91924" lon="0.51191">
        <ele>1061.333374</ele>
        <time>2012-08-22T10:39:54Z</time>
      </trkpt>
      <trkpt lat="42.91963" lon="0.51192">
        <ele>1061.333374</ele>
        <time>2012-08-22T10:40:00Z</time>
      </trkpt>
      <trkpt lat="42.92013" lon="0.51149">
        <ele>1061.333374</ele>
        <time>2012-08-22T10:40:06Z</time>
      </trkpt>
      <trkpt lat="42.9208" lon="0.51151">
        <ele>1061.333374</ele>
        <time>2012-08-22T10:40:12Z</time>
      </trkpt>
      <trkpt lat="42.92143" lon="0.51125">
        <ele>1061.333374</ele>
        <time>2012-08-22T10:40:18Z</time>
      </trkpt>
      <trkpt lat="42.92195" lon="0.51074">
        <ele>985.583313</ele>
        <time>2012-08-22T10:40:24Z</time>
      </trkpt>
      <trkpt lat="42.92264" lon="0.51089">
        <ele>985.583313</ele>
        <time>2012-08-22T10:40:30Z</time>
      </trkpt>
      <trkpt lat="42.92339" lon="0.51123">
        <ele>985.583313</ele>
        <time>2012-08-22T10:40:36Z</time>
      </trkpt>
      <trkpt lat="42.92402" lon="0.51112">
        <ele>985.583313</ele>
        <time>2012-08-22T10:40:43Z</time>
      </trkpt>
      <trkpt lat="42.92438" lon="0.51073">
        <ele>985.583313</ele>
        <time>2012-08-22T10:40:48Z</time>
      </trkpt>
      <trkpt lat="42.92503" lon="0.5106">
        <ele>985.583313</ele>
        <time>2012-08-22T10:40:55Z</time>
      </trkpt>
      <trkpt lat="42.92544" lon="0.51068">
        <ele>985.583313</ele>
        <time>2012-08-22T10:41:03Z</time>
      </trkpt>
      <trkpt lat="42.92569" lon="0.51141">
        <ele>985.583313</ele>
        <time>2012-08-22T10:44:25Z</time>
      </trkpt>
      <trkpt lat="42.92606" lon="0.51173">
        <ele>985.583313</ele>
        <time>2012-08-22T10:44:31Z</time>
      </trkpt>
      <trkpt lat="42.92652" lon="0.51159">
        <ele>919.666687</ele>
        <time>2012-08-22T10:44:37Z</time>
      </trkpt>
      <trkpt lat="42.92705" lon="0.5111">
        <ele>919.666687</ele>
        <time>2012-08-22T10:44:44Z</time>
      </trkpt>
      <trkpt lat="42.92748" lon="0.51059">
        <ele>919.666687</ele>
        <time>2012-08-22T10:44:50Z</time>
      </trkpt>
      <trkpt lat="42.92785" lon="0.51001">
        <ele>919.666687</ele>
        <time>2012-08-22T10:44:56Z</time>
      </trkpt>
      <trkpt lat="42.92823" lon="0.50964">
        <ele>919.666687</ele>
        <time>2012-08-22T10:45:01Z</time>
      </trkpt>
      <trkpt lat="42.92867" lon="0.50913">
        <ele>919.666687</ele>
        <time>2012-08-22T10:45:07Z</time>
      </trkpt>
      <trkpt lat="42.92929" lon="0.50927">
        <ele>919.666687</ele>
        <time>2012-08-22T10:45:13Z</time>
      </trkpt>
      <trkpt lat="42.92989" lon="0.5094">
        <ele>919.666687</ele>
        <time>2012-08-22T10:45:19Z</time>
      </trkpt>
      <trkpt lat="42.93035" lon="0.50984">
        <ele>919.666687</ele>
        <time>2012-08-22T10:45:25Z</time>
      </trkpt>
      <trkpt lat="42.93061" lon="0.51033">
        <ele>919.666687</ele>
        <time>2012-08-22T10:45:30Z</time>
      </trkpt>
      <trkpt lat="42.93115" lon="0.51057">
        <ele>884.166687</ele>
        <time>2012-08-22T10:45:36Z</time>
      </trkpt>
      <trkpt lat="42.9317" lon="0.51035">
        <ele>884.166687</ele>
        <time>2012-08-22T10:45:42Z</time>
      </trkpt>
      <trkpt lat="42.93223" lon="0.50977">
        <ele>884.166687</ele>
        <time>2012-08-22T10:45:50Z</time>
      </trkpt>
      <trkpt lat="42.93269" lon="0.50992">
        <ele>884.166687</ele>
        <time>2012-08-22T10:45:56Z</time>
      </trkpt>
      <trkpt lat="42.93307" lon="0.5103">
        <ele>884.166687</ele>
        <time>2012-08-22T10:46:01Z</time>
      </trkpt>
      <trkpt lat="42.93348" lon="0.51088">
        <ele>836</ele>
        <time>2012-08-22T10:46:07Z</time>
      </trkpt>
      <trkpt lat="42.93395" lon="0.51147">
        <ele>836</ele>
        <time>2012-08-22T10:46:14Z</time>
      </trkpt>
      <trkpt lat="42.93428" lon="0.51187">
        <ele>836</ele>
        <time>2012-08-22T10:46:19Z</time>
      </trkpt>
      <trkpt lat="42.93466" lon="0.51231">
        <ele>836</ele>
        <time>2012-08-22T10:46:25Z</time>
      </trkpt>
      <trkpt lat="42.93511" lon="0.51255">
        <ele>838.666687</ele>
        <time>2012-08-22T10:46:31Z</time>
      </trkpt>
      <trkpt lat="42.93584" lon="0.51361">
        <ele>838.666687</ele>
        <time>2012-08-22T10:46:44Z</time>
      </trkpt>
      <trkpt lat="42.93618" lon="0.51406">
        <ele>838.666687</ele>
        <time>2012-08-22T10:46:50Z</time>
      </trkpt>
      <trkpt lat="42.93631" lon="0.51467">
        <ele>838.666687</ele>
        <time>2012-08-22T10:46:56Z</time>
      </trkpt>
      <trkpt lat="42.93651" lon="0.51523">
        <ele>838.666687</ele>
        <time>2012-08-22T10:47:02Z</time>
      </trkpt>
      <trkpt lat="42.93693" lon="0.51573">
        <ele>838.666687</ele>
        <time>2012-08-22T10:47:08Z</time>
      </trkpt>
      <trkpt lat="42.93738" lon="0.51629">
        <ele>838.666687</ele>
        <time>2012-08-22T10:47:14Z</time>
      </trkpt>
      <trkpt lat="42.93764" lon="0.51704">
        <ele>838.666687</ele>
        <time>2012-08-22T10:47:20Z</time>
      </trkpt>
      <trkpt lat="42.93807" lon="0.51755">
        <ele>838.666687</ele>
        <time>2012-08-22T10:47:26Z</time>
      </trkpt>
      <trkpt lat="42.93872" lon="0.51772">
        <ele>838.666687</ele>
        <time>2012-08-22T10:47:32Z</time>
      </trkpt>
      <trkpt lat="42.93939" lon="0.51795">
        <ele>823.75</ele>
        <time>2012-08-22T10:47:38Z</time>
      </trkpt>
      <trkpt lat="42.94006" lon="0.51801">
        <ele>823.75</ele>
        <time>2012-08-22T10:47:44Z</time>
      </trkpt>
      <trkpt lat="42.94072" lon="0.51813">
        <ele>823.75</ele>
        <time>2012-08-22T10:47:50Z</time>
      </trkpt>
      <trkpt lat="42.94135" lon="0.51845">
        <ele>823.75</ele>
        <time>2012-08-22T10:47:56Z</time>
      </trkpt>
      <trkpt lat="42.9417" lon="0.51909">
        <ele>823.75</ele>
        <time>2012-08-22T10:48:02Z</time>
      </trkpt>
      <trkpt lat="42.94204" lon="0.51973">
        <ele>823.75</ele>
        <time>2012-08-22T10:48:08Z</time>
      </trkpt>
      <trkpt lat="42.94259" lon="0.51991">
        <ele>823.75</ele>
        <time>2012-08-22T10:48:14Z</time>
      </trkpt>
      <trkpt lat="42.9432" lon="0.52018">
        <ele>823.75</ele>
        <time>2012-08-22T10:48:20Z</time>
      </trkpt>
      <trkpt lat="42.94388" lon="0.52047">
        <ele>823.75</ele>
        <time>2012-08-22T10:48:26Z</time>
      </trkpt>
      <trkpt lat="42.9445" lon="0.52095">
        <ele>823.75</ele>
        <time>2012-08-22T10:48:32Z</time>
      </trkpt>
      <trkpt lat="42.94477" lon="0.5218">
        <ele>805.083313</ele>
        <time>2012-08-22T10:48:38Z</time>
      </trkpt>
      <trkpt lat="42.9451" lon="0.52262">
        <ele>805.083313</ele>
        <time>2012-08-22T10:48:44Z</time>
      </trkpt>
      <trkpt lat="42.94542" lon="0.52347">
        <ele>805.083313</ele>
        <time>2012-08-22T10:48:50Z</time>
      </trkpt>
      <trkpt lat="42.94564" lon="0.52435">
        <ele>805.083313</ele>
        <time>2012-08-22T10:48:56Z</time>
      </trkpt>
      <trkpt lat="42.94599" lon="0.5251">
        <ele>805.083313</ele>
        <time>2012-08-22T10:49:02Z</time>
      </trkpt>
      <trkpt lat="42.94656" lon="0.52532">
        <ele>805.083313</ele>
        <time>2012-08-22T10:49:08Z</time>
      </trkpt>
      <trkpt lat="42.94712" lon="0.52553">
        <ele>805.083313</ele>
        <time>2012-08-22T10:49:14Z</time>
      </trkpt>
      <trkpt lat="42.94765" lon="0.5259">
        <ele>805.083313</ele>
        <time>2012-08-22T10:49:20Z</time>
      </trkpt>
      <trkpt lat="42.94815" lon="0.52641">
        <ele>805.083313</ele>
        <time>2012-08-22T10:49:26Z</time>
      </trkpt>
      <trkpt lat="42.94871" lon="0.52695">
        <ele>805.083313</ele>
        <time>2012-08-22T10:49:32Z</time>
      </trkpt>
      <trkpt lat="42.94924" lon="0.52749">
        <ele>779.166687</ele>
        <time>2012-08-22T10:49:38Z</time>
      </trkpt>
      <trkpt lat="42.94968" lon="0.5281">
        <ele>779.166687</ele>
        <time>2012-08-22T10:49:44Z</time>
      </trkpt>
      <trkpt lat="42.95003" lon="0.52876">
        <ele>779.166687</ele>
        <time>2012-08-22T10:49:50Z</time>
      </trkpt>
      <trkpt lat="42.95056" lon="0.52921">
        <ele>779.166687</ele>
        <time>2012-08-22T10:49:56Z</time>
      </trkpt>
      <trkpt lat="42.95078" lon="0.52998">
        <ele>779.166687</ele>
        <time>2012-08-22T10:50:02Z</time>
      </trkpt>
      <trkpt lat="42.95085" lon="0.53085">
        <ele>779.166687</ele>
        <time>2012-08-22T10:50:08Z</time>
      </trkpt>
      <trkpt lat="42.95106" lon="0.53163">
        <ele>779.166687</ele>
        <time>2012-08-22T10:50:14Z</time>
      </trkpt>
      <trkpt lat="42.95107" lon="0.53245">
        <ele>779.166687</ele>
        <time>2012-08-22T10:50:20Z</time>
      </trkpt>
      <trkpt lat="42.9512" lon="0.53328">
        <ele>779.166687</ele>
        <time>2012-08-22T10:50:26Z</time>
      </trkpt>
      <trkpt lat="42.95161" lon="0.53396">
        <ele>779.166687</ele>
        <time>2012-08-22T10:50:32Z</time>
      </trkpt>
      <trkpt lat="42.95213" lon="0.53438">
        <ele>754.666687</ele>
        <time>2012-08-22T10:50:38Z</time>
      </trkpt>
      <trkpt lat="42.95253" lon="0.53484">
        <ele>754.666687</ele>
        <time>2012-08-22T10:50:44Z</time>
      </trkpt>
      <trkpt lat="42.95272" lon="0.53541">
        <ele>754.666687</ele>
        <time>2012-08-22T10:50:49Z</time>
      </trkpt>
      <trkpt lat="42.95272" lon="0.53611">
        <ele>754.666687</ele>
        <time>2012-08-22T10:50:55Z</time>
      </trkpt>
      <trkpt lat="42.95275" lon="0.53673">
        <ele>754.666687</ele>
        <time>2012-08-22T10:51:01Z</time>
      </trkpt>
      <trkpt lat="42.95308" lon="0.53713">
        <ele>754.666687</ele>
        <time>2012-08-22T10:51:07Z</time>
      </trkpt>
      <trkpt lat="42.95355" lon="0.53773">
        <ele>754.666687</ele>
        <time>2012-08-22T10:51:14Z</time>
      </trkpt>
      <trkpt lat="42.95389" lon="0.53842">
        <ele>754.666687</ele>
        <time>2012-08-22T10:51:20Z</time>
      </trkpt>
      <trkpt lat="42.95424" lon="0.53913">
        <ele>754.666687</ele>
        <time>2012-08-22T10:51:27Z</time>
      </trkpt>
      <trkpt lat="42.95445" lon="0.53967">
        <ele>754.666687</ele>
        <time>2012-08-22T10:51:32Z</time>
      </trkpt>
      <trkpt lat="42.95462" lon="0.54022">
        <ele>725.083313</ele>
        <time>2012-08-22T10:51:37Z</time>
      </trkpt>
      <trkpt lat="42.95481" lon="0.54093">
        <ele>725.083313</ele>
        <time>2012-08-22T10:51:43Z</time>
      </trkpt>
      <trkpt lat="42.95507" lon="0.54175">
        <ele>725.083313</ele>
        <time>2012-08-22T10:51:50Z</time>
      </trkpt>
      <trkpt lat="42.95528" lon="0.54257">
        <ele>725.083313</ele>
        <time>2012-08-22T10:51:57Z</time>
      </trkpt>
      <trkpt lat="42.95574" lon="0.54329">
        <ele>725.083313</ele>
        <time>2012-08-22T10:52:05Z</time>
      </trkpt>
      <trkpt lat="42.95594" lon="0.54397">
        <ele>725.083313</ele>
        <time>2012-08-22T10:52:11Z</time>
      </trkpt>
      <trkpt lat="42.95582" lon="0.54455">
        <ele>725.083313</ele>
        <time>2012-08-22T10:52:16Z</time>
      </trkpt>
      <trkpt lat="42.95572" lon="0.54518">
        <ele>725.083313</ele>
        <time>2012-08-22T10:52:22Z</time>
      </trkpt>
      <trkpt lat="42.95569" lon="0.54578">
        <ele>725.083313</ele>
        <time>2012-08-22T10:52:27Z</time>
      </trkpt>
      <trkpt lat="42.95572" lon="0.54641">
        <ele>725.083313</ele>
        <time>2012-08-22T10:52:32Z</time>
      </trkpt>
      <trkpt lat="42.95566" lon="0.54702">
        <ele>697.166687</ele>
        <time>2012-08-22T10:52:37Z</time>
      </trkpt>
      <trkpt lat="42.95551" lon="0.54797">
        <ele>697.166687</ele>
        <time>2012-08-22T10:52:45Z</time>
      </trkpt>
      <trkpt lat="42.95545" lon="0.54875">
        <ele>697.166687</ele>
        <time>2012-08-22T10:52:51Z</time>
      </trkpt>
      <trkpt lat="42.95545" lon="0.54952">
        <ele>697.166687</ele>
        <time>2012-08-22T10:52:57Z</time>
      </trkpt>
      <trkpt lat="42.9553" lon="0.55009">
        <ele>697.166687</ele>
        <time>2012-08-22T10:53:02Z</time>
      </trkpt>
      <trkpt lat="42.95494" lon="0.55061">
        <ele>697.166687</ele>
        <time>2012-08-22T10:53:08Z</time>
      </trkpt>
      <trkpt lat="42.95476" lon="0.55117">
        <ele>697.166687</ele>
        <time>2012-08-22T10:53:13Z</time>
      </trkpt>
      <trkpt lat="42.9548" lon="0.5518">
        <ele>697.166687</ele>
        <time>2012-08-22T10:53:18Z</time>
      </trkpt>
      <trkpt lat="42.95508" lon="0.55246">
        <ele>697.166687</ele>
        <time>2012-08-22T10:53:24Z</time>
      </trkpt>
      <trkpt lat="42.95535" lon="0.55297">
        <ele>697.166687</ele>
        <time>2012-08-22T10:53:29Z</time>
      </trkpt>
      <trkpt lat="42.95571" lon="0.55345">
        <ele>679.75</ele>
        <time>2012-08-22T10:53:35Z</time>
      </trkpt>
      <trkpt lat="42.95598" lon="0.55391">
        <ele>679.75</ele>
        <time>2012-08-22T10:53:40Z</time>
      </trkpt>
      <trkpt lat="42.95602" lon="0.55455">
        <ele>679.75</ele>
        <time>2012-08-22T10:53:46Z</time>
      </trkpt>
      <trkpt lat="42.95608" lon="0.55526">
        <ele>679.75</ele>
        <time>2012-08-22T10:53:52Z</time>
      </trkpt>
      <trkpt lat="42.95637" lon="0.55605">
        <ele>679.75</ele>
        <time>2012-08-22T10:53:59Z</time>
      </trkpt>
      <trkpt lat="42.95662" lon="0.55683">
        <ele>679.75</ele>
        <time>2012-08-22T10:54:06Z</time>
      </trkpt>
      <trkpt lat="42.95639" lon="0.55765">
        <ele>679.75</ele>
        <time>2012-08-22T10:54:13Z</time>
      </trkpt>
      <trkpt lat="42.95644" lon="0.55844">
        <ele>679.75</ele>
        <time>2012-08-22T10:54:19Z</time>
      </trkpt>
      <trkpt lat="42.9568" lon="0.55864">
        <ele>679.75</ele>
        <time>2012-08-22T10:54:25Z</time>
      </trkpt>
      <trkpt lat="42.95727" lon="0.55908">
        <ele>679.75</ele>
        <time>2012-08-22T10:54:31Z</time>
      </trkpt>
      <trkpt lat="42.9576" lon="0.55987">
        <ele>673.916687</ele>
        <time>2012-08-22T10:54:37Z</time>
      </trkpt>
      <trkpt lat="42.95822" lon="0.56049">
        <ele>673.916687</ele>
        <time>2012-08-22T10:54:43Z</time>
      </trkpt>
      <trkpt lat="42.95856" lon="0.56152">
        <ele>673.916687</ele>
        <time>2012-08-22T10:54:49Z</time>
      </trkpt>
      <trkpt lat="42.95882" lon="0.56255">
        <ele>673.916687</ele>
        <time>2012-08-22T10:54:55Z</time>
      </trkpt>
      <trkpt lat="42.95873" lon="0.56344">
        <ele>673.916687</ele>
        <time>2012-08-22T10:55:01Z</time>
      </trkpt>
      <trkpt lat="42.95912" lon="0.56421">
        <ele>673.916687</ele>
        <time>2012-08-22T10:55:07Z</time>
      </trkpt>
      <trkpt lat="42.95958" lon="0.56504">
        <ele>673.916687</ele>
        <time>2012-08-22T10:55:13Z</time>
      </trkpt>
      <trkpt lat="42.96032" lon="0.56548">
        <ele>673.916687</ele>
        <time>2012-08-22T10:55:19Z</time>
      </trkpt>
      <trkpt lat="42.96083" lon="0.56582">
        <ele>673.916687</ele>
        <time>2012-08-22T10:55:26Z</time>
      </trkpt>
      <trkpt lat="42.96037" lon="0.5661">
        <ele>673.916687</ele>
        <time>2012-08-22T10:55:32Z</time>
      </trkpt>
      <trkpt lat="42.95985" lon="0.56673">
        <ele>666.416687</ele>
        <time>2012-08-22T10:55:39Z</time>
      </trkpt>
      <trkpt lat="42.95968" lon="0.5672">
        <ele>666.416687</ele>
        <time>2012-08-22T10:55:44Z</time>
      </trkpt>
      <trkpt lat="42.95939" lon="0.56749">
        <ele>666.416687</ele>
        <time>2012-08-22T10:55:54Z</time>
      </trkpt>
      <trkpt lat="42.9595" lon="0.56775">
        <ele>666.416687</ele>
        <time>2012-08-22T10:56:00Z</time>
      </trkpt>
      <trkpt lat="42.95961" lon="0.56798">
        <ele>666.416687</ele>
        <time>2012-08-22T10:56:05Z</time>
      </trkpt>
      <trkpt lat="42.95984" lon="0.5684">
        <ele>666.416687</ele>
        <time>2012-08-22T10:56:15Z</time>
      </trkpt>
      <trkpt lat="42.96017" lon="0.56855">
        <ele>666.416687</ele>
        <time>2012-08-22T10:56:22Z</time>
      </trkpt>
      <trkpt lat="42.96052" lon="0.5687">
        <ele>666.416687</ele>
        <time>2012-08-22T10:56:30Z</time>
      </trkpt>
      <trkpt lat="42.96097" lon="0.56894">
        <ele>666.416687</ele>
        <time>2012-08-22T10:56:36Z</time>
      </trkpt>
      <trkpt lat="42.96179" lon="0.56934">
        <ele>666.416687</ele>
        <time>2012-08-22T10:56:47Z</time>
      </trkpt>
      <trkpt lat="42.96228" lon="0.5696">
        <ele>652.083313</ele>
        <time>2012-08-22T10:56:53Z</time>
      </trkpt>
      <trkpt lat="42.96272" lon="0.5698">
        <ele>652.083313</ele>
        <time>2012-08-22T10:56:59Z</time>
      </trkpt>
      <trkpt lat="42.96315" lon="0.57008">
        <ele>652.083313</ele>
        <time>2012-08-22T10:57:06Z</time>
      </trkpt>
      <trkpt lat="42.96346" lon="0.5704">
        <ele>652.083313</ele>
        <time>2012-08-22T10:57:14Z</time>
      </trkpt>
      <trkpt lat="42.9637" lon="0.57084">
        <ele>652.083313</ele>
        <time>2012-08-22T10:57:23Z</time>
      </trkpt>
      <trkpt lat="42.96384" lon="0.57136">
        <ele>652.083313</ele>
        <time>2012-08-22T10:57:32Z</time>
      </trkpt>
      <trkpt lat="42.96409" lon="0.57185">
        <ele>652.083313</ele>
        <time>2012-08-22T10:57:40Z</time>
      </trkpt>
      <trkpt lat="42.96439" lon="0.5723">
        <ele>652.083313</ele>
        <time>2012-08-22T10:57:48Z</time>
      </trkpt>
      <trkpt lat="42.96466" lon="0.57265">
        <ele>652.083313</ele>
        <time>2012-08-22T10:57:54Z</time>
      </trkpt>
      <trkpt lat="42.96499" lon="0.57297">
        <ele>652.083313</ele>
        <time>2012-08-22T10:58:00Z</time>
      </trkpt>
      <trkpt lat="42.96533" lon="0.57316">
        <ele>607.5</ele>
        <time>2012-08-22T10:58:06Z</time>
      </trkpt>
      <trkpt lat="42.96575" lon="0.57318">
        <ele>607.5</ele>
        <time>2012-08-22T10:58:13Z</time>
      </trkpt>
      <trkpt lat="42.96614" lon="0.57309">
        <ele>607.5</ele>
        <time>2012-08-22T10:58:19Z</time>
      </trkpt>
      <trkpt lat="42.96658" lon="0.57326">
        <ele>607.5</ele>
        <time>2012-08-22T10:58:25Z</time>
      </trkpt>
      <trkpt lat="42.96726" lon="0.57345">
        <ele>607.5</ele>
        <time>2012-08-22T10:58:33Z</time>
      </trkpt>
      <trkpt lat="42.9678" lon="0.57367">
        <ele>607.5</ele>
        <time>2012-08-22T10:58:39Z</time>
      </trkpt>
      <trkpt lat="42.96826" lon="0.57421">
        <ele>607.5</ele>
        <time>2012-08-22T10:58:45Z</time>
      </trkpt>
      <trkpt lat="42.96867" lon="0.57484">
        <ele>607.5</ele>
        <time>2012-08-22T10:58:51Z</time>
      </trkpt>
      <trkpt lat="42.96921" lon="0.5754">
        <ele>578.5</ele>
        <time>2012-08-22T10:58:57Z</time>
      </trkpt>
      <trkpt lat="42.96977" lon="0.57603">
        <ele>578.5</ele>
        <time>2012-08-22T10:59:03Z</time>
      </trkpt>
      <trkpt lat="42.97037" lon="0.57663">
        <ele>578.5</ele>
        <time>2012-08-22T10:59:09Z</time>
      </trkpt>
      <trkpt lat="42.97101" lon="0.57709">
        <ele>578.5</ele>
        <time>2012-08-22T10:59:15Z</time>
      </trkpt>
      <trkpt lat="42.97165" lon="0.57751">
        <ele>578.5</ele>
        <time>2012-08-22T10:59:21Z</time>
      </trkpt>
      <trkpt lat="42.97228" lon="0.57787">
        <ele>578.5</ele>
        <time>2012-08-22T10:59:27Z</time>
      </trkpt>
      <trkpt lat="42.97281" lon="0.5783">
        <ele>578.5</ele>
        <time>2012-08-22T10:59:33Z</time>
      </trkpt>
      <trkpt lat="42.97339" lon="0.57856">
        <ele>578.5</ele>
        <time>2012-08-22T10:59:39Z</time>
      </trkpt>
      <trkpt lat="42.97402" lon="0.57866">
        <ele>572.666687</ele>
        <time>2012-08-22T10:59:45Z</time>
      </trkpt>
      <trkpt lat="42.97448" lon="0.57871">
        <ele>572.666687</ele>
        <time>2012-08-22T10:59:50Z</time>
      </trkpt>
      <trkpt lat="42.97478" lon="0.57822">
        <ele>572.666687</ele>
        <time>2012-08-22T10:59:55Z</time>
      </trkpt>
      <trkpt lat="42.97527" lon="0.57752">
        <ele>572.666687</ele>
        <time>2012-08-22T11:00:03Z</time>
      </trkpt>
      <trkpt lat="42.97564" lon="0.57705">
        <ele>572.666687</ele>
        <time>2012-08-22T11:00:09Z</time>
      </trkpt>
      <trkpt lat="42.97609" lon="0.57645">
        <ele>572.666687</ele>
        <time>2012-08-22T11:00:16Z</time>
      </trkpt>
      <trkpt lat="42.97656" lon="0.57589">
        <ele>572.666687</ele>
        <time>2012-08-22T11:00:23Z</time>
      </trkpt>
      <trkpt lat="42.97708" lon="0.57581">
        <ele>572.666687</ele>
        <time>2012-08-22T11:00:29Z</time>
      </trkpt>
      <trkpt lat="42.97777" lon="0.57603">
        <ele>572.666687</ele>
        <time>2012-08-22T11:00:37Z</time>
      </trkpt>
      <trkpt lat="42.97828" lon="0.57612">
        <ele>573.166687</ele>
        <time>2012-08-22T11:00:43Z</time>
      </trkpt>
      <trkpt lat="42.97875" lon="0.5762">
        <ele>573.166687</ele>
        <time>2012-08-22T11:00:49Z</time>
      </trkpt>
      <trkpt lat="42.97926" lon="0.57629">
        <ele>573.166687</ele>
        <time>2012-08-22T11:00:55Z</time>
      </trkpt>
      <trkpt lat="42.97974" lon="0.57652">
        <ele>573.166687</ele>
        <time>2012-08-22T11:01:01Z</time>
      </trkpt>
      <trkpt lat="42.98026" lon="0.57664">
        <ele>573.166687</ele>
        <time>2012-08-22T11:01:07Z</time>
      </trkpt>
      <trkpt lat="42.98075" lon="0.57637">
        <ele>573.166687</ele>
        <time>2012-08-22T11:01:13Z</time>
      </trkpt>
      <trkpt lat="42.98125" lon="0.57619">
        <ele>573.166687</ele>
        <time>2012-08-22T11:01:19Z</time>
      </trkpt>
      <trkpt lat="42.98176" lon="0.57633">
        <ele>573.166687</ele>
        <time>2012-08-22T11:01:25Z</time>
      </trkpt>
      <trkpt lat="42.98234" lon="0.57615">
        <ele>573.166687</ele>
        <time>2012-08-22T11:01:31Z</time>
      </trkpt>
      <trkpt lat="42.98289" lon="0.57568">
        <ele>573.166687</ele>
        <time>2012-08-22T11:01:38Z</time>
      </trkpt>
      <trkpt lat="42.98349" lon="0.57553">
        <ele>546.166687</ele>
        <time>2012-08-22T11:01:44Z</time>
      </trkpt>
      <trkpt lat="42.9841" lon="0.5754">
        <ele>546.166687</ele>
        <time>2012-08-22T11:01:50Z</time>
      </trkpt>
      <trkpt lat="42.98469" lon="0.57513">
        <ele>546.166687</ele>
        <time>2012-08-22T11:01:56Z</time>
      </trkpt>
      <trkpt lat="42.98524" lon="0.57484">
        <ele>546.166687</ele>
        <time>2012-08-22T11:02:02Z</time>
      </trkpt>
      <trkpt lat="42.98582" lon="0.57453">
        <ele>546.166687</ele>
        <time>2012-08-22T11:02:08Z</time>
      </trkpt>
      <trkpt lat="42.98639" lon="0.57429">
        <ele>546.166687</ele>
        <time>2012-08-22T11:02:14Z</time>
      </trkpt>
      <trkpt lat="42.98694" lon="0.57397">
        <ele>546.166687</ele>
        <time>2012-08-22T11:02:20Z</time>
      </trkpt>
      <trkpt lat="42.98733" lon="0.57362">
        <ele>546.166687</ele>
        <time>2012-08-22T11:02:25Z</time>
      </trkpt>
      <trkpt lat="42.98775" lon="0.57312">
        <ele>546.166687</ele>
        <time>2012-08-22T11:02:31Z</time>
      </trkpt>
      <trkpt lat="42.98844" lon="0.57282">
        <ele>529</ele>
        <time>2012-08-22T11:02:39Z</time>
      </trkpt>
      <trkpt lat="42.98886" lon="0.57282">
        <ele>529</ele>
        <time>2012-08-22T11:02:44Z</time>
      </trkpt>
      <trkpt lat="42.98931" lon="0.57282">
        <ele>529</ele>
        <time>2012-08-22T11:02:49Z</time>
      </trkpt>
      <trkpt lat="42.98995" lon="0.57286">
        <ele>529</ele>
        <time>2012-08-22T11:02:56Z</time>
      </trkpt>
      <trkpt lat="42.99049" lon="0.57292">
        <ele>529</ele>
        <time>2012-08-22T11:03:02Z</time>
      </trkpt>
      <trkpt lat="42.99114" lon="0.5733">
        <ele>529</ele>
        <time>2012-08-22T11:03:10Z</time>
      </trkpt>
      <trkpt lat="42.99165" lon="0.57341">
        <ele>529</ele>
        <time>2012-08-22T11:03:16Z</time>
      </trkpt>
      <trkpt lat="42.99241" lon="0.5735">
        <ele>529</ele>
        <time>2012-08-22T11:03:24Z</time>
      </trkpt>
      <trkpt lat="42.99294" lon="0.57343">
        <ele>529</ele>
        <time>2012-08-22T11:03:30Z</time>
      </trkpt>
      <trkpt lat="42.99341" lon="0.57343">
        <ele>529</ele>
        <time>2012-08-22T11:03:35Z</time>
      </trkpt>
      <trkpt lat="42.99406" lon="0.57381">
        <ele>521.916687</ele>
        <time>2012-08-22T11:03:43Z</time>
      </trkpt>
      <trkpt lat="42.99464" lon="0.57412">
        <ele>521.916687</ele>
        <time>2012-08-22T11:03:50Z</time>
      </trkpt>
      <trkpt lat="42.99515" lon="0.57445">
        <ele>521.916687</ele>
        <time>2012-08-22T11:03:56Z</time>
      </trkpt>
      <trkpt lat="42.99561" lon="0.57493">
        <ele>521.916687</ele>
        <time>2012-08-22T11:04:02Z</time>
      </trkpt>
      <trkpt lat="42.99595" lon="0.57532">
        <ele>521.916687</ele>
        <time>2012-08-22T11:04:07Z</time>
      </trkpt>
      <trkpt lat="42.99642" lon="0.57586">
        <ele>521.916687</ele>
        <time>2012-08-22T11:04:14Z</time>
      </trkpt>
      <trkpt lat="42.99676" lon="0.57625">
        <ele>521.916687</ele>
        <time>2012-08-22T11:04:19Z</time>
      </trkpt>
      <trkpt lat="42.99718" lon="0.57664">
        <ele>521.916687</ele>
        <time>2012-08-22T11:04:25Z</time>
      </trkpt>
      <trkpt lat="42.99766" lon="0.57693">
        <ele>521.916687</ele>
        <time>2012-08-22T11:04:31Z</time>
      </trkpt>
      <trkpt lat="42.99812" lon="0.57722">
        <ele>521.916687</ele>
        <time>2012-08-22T11:04:37Z</time>
      </trkpt>
      <trkpt lat="42.99864" lon="0.57756">
        <ele>515.166687</ele>
        <time>2012-08-22T11:04:43Z</time>
      </trkpt>
      <trkpt lat="42.99917" lon="0.57782">
        <ele>515.166687</ele>
        <time>2012-08-22T11:04:49Z</time>
      </trkpt>
      <trkpt lat="42.99962" lon="0.57829">
        <ele>515.166687</ele>
        <time>2012-08-22T11:04:55Z</time>
      </trkpt>
      <trkpt lat="43.00012" lon="0.5786">
        <ele>515.166687</ele>
        <time>2012-08-22T11:05:01Z</time>
      </trkpt>
      <trkpt lat="43.00055" lon="0.57876">
        <ele>515.166687</ele>
        <time>2012-08-22T11:05:06Z</time>
      </trkpt>
      <trkpt lat="43.001" lon="0.57887">
        <ele>515.166687</ele>
        <time>2012-08-22T11:05:11Z</time>
      </trkpt>
      <trkpt lat="43.00148" lon="0.57866">
        <ele>515.166687</ele>
        <time>2012-08-22T11:05:17Z</time>
      </trkpt>
      <trkpt lat="43.00195" lon="0.57838">
        <ele>515.166687</ele>
        <time>2012-08-22T11:05:23Z</time>
      </trkpt>
      <trkpt lat="43.00246" lon="0.5782">
        <ele>515.166687</ele>
        <time>2012-08-22T11:05:29Z</time>
      </trkpt>
      <trkpt lat="43.00303" lon="0.57807">
        <ele>507.583344</ele>
        <time>2012-08-22T11:05:35Z</time>
      </trkpt>
      <trkpt lat="43.0036" lon="0.57795">
        <ele>507.583344</ele>
        <time>2012-08-22T11:05:41Z</time>
      </trkpt>
      <trkpt lat="43.00419" lon="0.57777">
        <ele>507.583344</ele>
        <time>2012-08-22T11:05:47Z</time>
      </trkpt>
      <trkpt lat="43.00477" lon="0.57763">
        <ele>507.583344</ele>
        <time>2012-08-22T11:05:53Z</time>
      </trkpt>
      <trkpt lat="43.00526" lon="0.57766">
        <ele>507.583344</ele>
        <time>2012-08-22T11:05:58Z</time>
      </trkpt>
      <trkpt lat="43.00598" lon="0.57776">
        <ele>507.583344</ele>
        <time>2012-08-22T11:06:06Z</time>
      </trkpt>
      <trkpt lat="43.00662" lon="0.57764">
        <ele>507.583344</ele>
        <time>2012-08-22T11:06:13Z</time>
      </trkpt>
      <trkpt lat="43.00722" lon="0.57735">
        <ele>507.583344</ele>
        <time>2012-08-22T11:06:20Z</time>
      </trkpt>
      <trkpt lat="43.00776" lon="0.57708">
        <ele>507.583344</ele>
        <time>2012-08-22T11:06:26Z</time>
      </trkpt>
      <trkpt lat="43.00831" lon="0.57693">
        <ele>507.583344</ele>
        <time>2012-08-22T11:06:32Z</time>
      </trkpt>
      <trkpt lat="43.00901" lon="0.57701">
        <ele>497.333344</ele>
        <time>2012-08-22T11:06:40Z</time>
      </trkpt>
      <trkpt lat="43.00989" lon="0.57751">
        <ele>497.333344</ele>
        <time>2012-08-22T11:06:51Z</time>
      </trkpt>
      <trkpt lat="43.01037" lon="0.57786">
        <ele>497.333344</ele>
        <time>2012-08-22T11:06:57Z</time>
      </trkpt>
      <trkpt lat="43.01085" lon="0.57821">
        <ele>497.333344</ele>
        <time>2012-08-22T11:07:03Z</time>
      </trkpt>
      <trkpt lat="43.01147" lon="0.57868">
        <ele>497.333344</ele>
        <time>2012-08-22T11:07:11Z</time>
      </trkpt>
      <trkpt lat="43.0115" lon="0.5795">
        <ele>497.333344</ele>
        <time>2012-08-22T11:07:18Z</time>
      </trkpt>
      <trkpt lat="43.01153" lon="0.58011">
        <ele>497.333344</ele>
        <time>2012-08-22T11:07:23Z</time>
      </trkpt>
      <trkpt lat="43.01162" lon="0.58082">
        <ele>497.333344</ele>
        <time>2012-08-22T11:07:29Z</time>
      </trkpt>
      <trkpt lat="43.01168" lon="0.58144">
        <ele>497.333344</ele>
        <time>2012-08-22T11:07:34Z</time>
      </trkpt>
      <trkpt lat="43.01184" lon="0.58212">
        <ele>497.333344</ele>
        <time>2012-08-22T11:07:40Z</time>
      </trkpt>
      <trkpt lat="43.01223" lon="0.58273">
        <ele>497.333344</ele>
        <time>2012-08-22T11:07:46Z</time>
      </trkpt>
      <trkpt lat="43.01263" lon="0.58329">
        <ele>493.75</ele>
        <time>2012-08-22T11:07:52Z</time>
      </trkpt>
      <trkpt lat="43.013" lon="0.58401">
        <ele>493.75</ele>
        <time>2012-08-22T11:07:59Z</time>
      </trkpt>
      <trkpt lat="43.01294" lon="0.58462">
        <ele>493.75</ele>
        <time>2012-08-22T11:08:05Z</time>
      </trkpt>
      <trkpt lat="43.01272" lon="0.5851">
        <ele>493.75</ele>
        <time>2012-08-22T11:08:10Z</time>
      </trkpt>
      <trkpt lat="43.01274" lon="0.58578">
        <ele>493.75</ele>
        <time>2012-08-22T11:08:16Z</time>
      </trkpt>
      <trkpt lat="43.01288" lon="0.58639">
        <ele>493.75</ele>
        <time>2012-08-22T11:08:22Z</time>
      </trkpt>
      <trkpt lat="43.01314" lon="0.58687">
        <ele>493.75</ele>
        <time>2012-08-22T11:08:28Z</time>
      </trkpt>
      <trkpt lat="43.01351" lon="0.58731">
        <ele>493.75</ele>
        <time>2012-08-22T11:08:34Z</time>
      </trkpt>
      <trkpt lat="43.01391" lon="0.58776">
        <ele>493.75</ele>
        <time>2012-08-22T11:08:40Z</time>
      </trkpt>
      <trkpt lat="43.01449" lon="0.58809">
        <ele>488.333344</ele>
        <time>2012-08-22T11:08:47Z</time>
      </trkpt>
      <trkpt lat="43.01495" lon="0.58851">
        <ele>488.333344</ele>
        <time>2012-08-22T11:08:53Z</time>
      </trkpt>
      <trkpt lat="43.01539" lon="0.58923">
        <ele>488.333344</ele>
        <time>2012-08-22T11:09:00Z</time>
      </trkpt>
      <trkpt lat="43.01587" lon="0.58947">
        <ele>488.333344</ele>
        <time>2012-08-22T11:09:06Z</time>
      </trkpt>
      <trkpt lat="43.01635" lon="0.58939">
        <ele>488.333344</ele>
        <time>2012-08-22T11:09:12Z</time>
      </trkpt>
      <trkpt lat="43.01677" lon="0.58925">
        <ele>488.333344</ele>
        <time>2012-08-22T11:09:17Z</time>
      </trkpt>
      <trkpt lat="43.01732" lon="0.58904">
        <ele>488.333344</ele>
        <time>2012-08-22T11:09:23Z</time>
      </trkpt>
      <trkpt lat="43.01785" lon="0.58899">
        <ele>488.333344</ele>
        <time>2012-08-22T11:09:29Z</time>
      </trkpt>
      <trkpt lat="43.01829" lon="0.58908">
        <ele>488.333344</ele>
        <time>2012-08-22T11:09:34Z</time>
      </trkpt>
      <trkpt lat="43.01879" lon="0.58926">
        <ele>482.333344</ele>
        <time>2012-08-22T11:09:40Z</time>
      </trkpt>
      <trkpt lat="43.0192" lon="0.58944">
        <ele>482.333344</ele>
        <time>2012-08-22T11:09:46Z</time>
      </trkpt>
      <trkpt lat="43.01954" lon="0.58977">
        <ele>482.333344</ele>
        <time>2012-08-22T11:09:54Z</time>
      </trkpt>
      <trkpt lat="43.0199" lon="0.59005">
        <ele>482.333344</ele>
        <time>2012-08-22T11:10:01Z</time>
      </trkpt>
      <trkpt lat="43.02027" lon="0.59028">
        <ele>482.333344</ele>
        <time>2012-08-22T11:10:08Z</time>
      </trkpt>
      <trkpt lat="43.02071" lon="0.59047">
        <ele>482.333344</ele>
        <time>2012-08-22T11:10:16Z</time>
      </trkpt>
      <trkpt lat="43.02106" lon="0.59065">
        <ele>482.333344</ele>
        <time>2012-08-22T11:10:22Z</time>
      </trkpt>
      <trkpt lat="43.02144" lon="0.59085">
        <ele>482.333344</ele>
        <time>2012-08-22T11:10:28Z</time>
      </trkpt>
      <trkpt lat="43.02183" lon="0.59105">
        <ele>482.333344</ele>
        <time>2012-08-22T11:10:34Z</time>
      </trkpt>
      <trkpt lat="43.02222" lon="0.59132">
        <ele>482.333344</ele>
        <time>2012-08-22T11:10:41Z</time>
      </trkpt>
      <trkpt lat="43.02258" lon="0.59162">
        <ele>474</ele>
        <time>2012-08-22T11:10:47Z</time>
      </trkpt>
      <trkpt lat="43.02294" lon="0.59187">
        <ele>474</ele>
        <time>2012-08-22T11:10:53Z</time>
      </trkpt>
      <trkpt lat="43.0233" lon="0.59209">
        <ele>474</ele>
        <time>2012-08-22T11:10:59Z</time>
      </trkpt>
      <trkpt lat="43.02367" lon="0.59225">
        <ele>474</ele>
        <time>2012-08-22T11:11:05Z</time>
      </trkpt>
      <trkpt lat="43.02408" lon="0.59237">
        <ele>474</ele>
        <time>2012-08-22T11:11:11Z</time>
      </trkpt>
      <trkpt lat="43.02451" lon="0.59246">
        <ele>474</ele>
        <time>2012-08-22T11:11:17Z</time>
      </trkpt>
      <trkpt lat="43.02494" lon="0.59254">
        <ele>474</ele>
        <time>2012-08-22T11:11:23Z</time>
      </trkpt>
      <trkpt lat="43.02535" lon="0.59261">
        <ele>474</ele>
        <time>2012-08-22T11:11:29Z</time>
      </trkpt>
      <trkpt lat="43.02574" lon="0.59263">
        <ele>474</ele>
        <time>2012-08-22T11:11:35Z</time>
      </trkpt>
      <trkpt lat="43.02613" lon="0.59248">
        <ele>474</ele>
        <time>2012-08-22T11:11:41Z</time>
      </trkpt>
      <trkpt lat="43.02649" lon="0.5922">
        <ele>470.083344</ele>
        <time>2012-08-22T11:11:47Z</time>
      </trkpt>
      <trkpt lat="43.02686" lon="0.59188">
        <ele>470.083344</ele>
        <time>2012-08-22T11:11:53Z</time>
      </trkpt>
      <trkpt lat="43.02724" lon="0.59166">
        <ele>470.083344</ele>
        <time>2012-08-22T11:11:59Z</time>
      </trkpt>
      <trkpt lat="43.02766" lon="0.59161">
        <ele>470.083344</ele>
        <time>2012-08-22T11:12:05Z</time>
      </trkpt>
      <trkpt lat="43.02798" lon="0.59193">
        <ele>470.083344</ele>
        <time>2012-08-22T11:12:11Z</time>
      </trkpt>
      <trkpt lat="43.02828" lon="0.59231">
        <ele>470.083344</ele>
        <time>2012-08-22T11:12:17Z</time>
      </trkpt>
      <trkpt lat="43.02858" lon="0.59272">
        <ele>470.083344</ele>
        <time>2012-08-22T11:12:23Z</time>
      </trkpt>
      <trkpt lat="43.0289" lon="0.59315">
        <ele>470.083344</ele>
        <time>2012-08-22T11:12:29Z</time>
      </trkpt>
      <trkpt lat="43.0292" lon="0.59362">
        <ele>470.083344</ele>
        <time>2012-08-22T11:12:35Z</time>
      </trkpt>
      <trkpt lat="43.02944" lon="0.59421">
        <ele>467.583344</ele>
        <time>2012-08-22T11:12:41Z</time>
      </trkpt>
      <trkpt lat="43.02972" lon="0.59473">
        <ele>467.583344</ele>
        <time>2012-08-22T11:12:47Z</time>
      </trkpt>
      <trkpt lat="43.03022" lon="0.59488">
        <ele>467.583344</ele>
        <time>2012-08-22T11:12:53Z</time>
      </trkpt>
      <trkpt lat="43.03066" lon="0.59484">
        <ele>467.583344</ele>
        <time>2012-08-22T11:12:58Z</time>
      </trkpt>
      <trkpt lat="43.03112" lon="0.59481">
        <ele>467.583344</ele>
        <time>2012-08-22T11:13:05Z</time>
      </trkpt>
      <trkpt lat="43.0316" lon="0.59465">
        <ele>467.583344</ele>
        <time>2012-08-22T11:13:11Z</time>
      </trkpt>
      <trkpt lat="43.03211" lon="0.59448">
        <ele>467.583344</ele>
        <time>2012-08-22T11:13:17Z</time>
      </trkpt>
      <trkpt lat="43.03261" lon="0.59417">
        <ele>467.583344</ele>
        <time>2012-08-22T11:13:23Z</time>
      </trkpt>
      <trkpt lat="43.03309" lon="0.59375">
        <ele>467.583344</ele>
        <time>2012-08-22T11:13:29Z</time>
      </trkpt>
      <trkpt lat="43.03372" lon="0.59361">
        <ele>467.583344</ele>
        <time>2012-08-22T11:13:36Z</time>
      </trkpt>
      <trkpt lat="43.03427" lon="0.59342">
        <ele>466.583344</ele>
        <time>2012-08-22T11:13:42Z</time>
      </trkpt>
      <trkpt lat="43.03482" lon="0.59311">
        <ele>466.583344</ele>
        <time>2012-08-22T11:13:48Z</time>
      </trkpt>
      <trkpt lat="43.03547" lon="0.59319">
        <ele>466.583344</ele>
        <time>2012-08-22T11:13:55Z</time>
      </trkpt>
      <trkpt lat="43.03595" lon="0.5933">
        <ele>466.583344</ele>
        <time>2012-08-22T11:14:01Z</time>
      </trkpt>
      <trkpt lat="43.03638" lon="0.59321">
        <ele>466.583344</ele>
        <time>2012-08-22T11:14:07Z</time>
      </trkpt>
      <trkpt lat="43.03675" lon="0.59336">
        <ele>466.583344</ele>
        <time>2012-08-22T11:14:13Z</time>
      </trkpt>
      <trkpt lat="43.03704" lon="0.59376">
        <ele>466.583344</ele>
        <time>2012-08-22T11:14:19Z</time>
      </trkpt>
      <trkpt lat="43.03734" lon="0.59412">
        <ele>466.583344</ele>
        <time>2012-08-22T11:14:25Z</time>
      </trkpt>
      <trkpt lat="43.03765" lon="0.59448">
        <ele>466.583344</ele>
        <time>2012-08-22T11:14:31Z</time>
      </trkpt>
      <trkpt lat="43.03799" lon="0.59482">
        <ele>466.583344</ele>
        <time>2012-08-22T11:14:37Z</time>
      </trkpt>
      <trkpt lat="43.03829" lon="0.5952">
        <ele>467.5</ele>
        <time>2012-08-22T11:14:43Z</time>
      </trkpt>
      <trkpt lat="43.03857" lon="0.59556">
        <ele>467.5</ele>
        <time>2012-08-22T11:14:49Z</time>
      </trkpt>
      <trkpt lat="43.03887" lon="0.59591">
        <ele>467.5</ele>
        <time>2012-08-22T11:14:55Z</time>
      </trkpt>
      <trkpt lat="43.03922" lon="0.59611">
        <ele>467.5</ele>
        <time>2012-08-22T11:15:01Z</time>
      </trkpt>
      <trkpt lat="43.03962" lon="0.59608">
        <ele>467.5</ele>
        <time>2012-08-22T11:15:07Z</time>
      </trkpt>
      <trkpt lat="43.04" lon="0.59584">
        <ele>467.5</ele>
        <time>2012-08-22T11:15:13Z</time>
      </trkpt>
      <trkpt lat="43.0404" lon="0.59549">
        <ele>467.5</ele>
        <time>2012-08-22T11:15:19Z</time>
      </trkpt>
      <trkpt lat="43.04081" lon="0.59517">
        <ele>467.5</ele>
        <time>2012-08-22T11:15:25Z</time>
      </trkpt>
      <trkpt lat="43.04119" lon="0.59486">
        <ele>467.5</ele>
        <time>2012-08-22T11:15:31Z</time>
      </trkpt>
      <trkpt lat="43.04158" lon="0.59452">
        <ele>467.5</ele>
        <time>2012-08-22T11:15:37Z</time>
      </trkpt>
      <trkpt lat="43.04197" lon="0.5942">
        <ele>456.25</ele>
        <time>2012-08-22T11:15:43Z</time>
      </trkpt>
      <trkpt lat="43.04238" lon="0.59386">
        <ele>456.25</ele>
        <time>2012-08-22T11:15:50Z</time>
      </trkpt>
      <trkpt lat="43.04271" lon="0.59356">
        <ele>456.25</ele>
        <time>2012-08-22T11:15:56Z</time>
      </trkpt>
      <trkpt lat="43.04305" lon="0.59328">
        <ele>456.25</ele>
        <time>2012-08-22T11:16:03Z</time>
      </trkpt>
      <trkpt lat="43.04338" lon="0.59301">
        <ele>456.25</ele>
        <time>2012-08-22T11:16:16Z</time>
      </trkpt>
      <trkpt lat="43.04348" lon="0.59277">
        <ele>456.25</ele>
        <time>2012-08-22T11:16:23Z</time>
      </trkpt>
      <trkpt lat="43.04363" lon="0.59236">
        <ele>456.25</ele>
        <time>2012-08-22T11:16:33Z</time>
      </trkpt>
      <trkpt lat="43.04402" lon="0.59214">
        <ele>456.25</ele>
        <time>2012-08-22T11:16:41Z</time>
      </trkpt>
      <trkpt lat="43.04436" lon="0.59173">
        <ele>456.25</ele>
        <time>2012-08-22T11:16:49Z</time>
      </trkpt>
      <trkpt lat="43.04468" lon="0.59136">
        <ele>456.25</ele>
        <time>2012-08-22T11:16:56Z</time>
      </trkpt>
      <trkpt lat="43.045" lon="0.59102">
        <ele>450.5</ele>
        <time>2012-08-22T11:17:04Z</time>
      </trkpt>
      <trkpt lat="43.0454" lon="0.59071">
        <ele>450.5</ele>
        <time>2012-08-22T11:17:12Z</time>
      </trkpt>
      <trkpt lat="43.04583" lon="0.59043">
        <ele>450.5</ele>
        <time>2012-08-22T11:17:20Z</time>
      </trkpt>
      <trkpt lat="43.04622" lon="0.5902">
        <ele>450.5</ele>
        <time>2012-08-22T11:17:26Z</time>
      </trkpt>
      <trkpt lat="43.04663" lon="0.59008">
        <ele>450.5</ele>
        <time>2012-08-22T11:17:32Z</time>
      </trkpt>
      <trkpt lat="43.04708" lon="0.59008">
        <ele>450.5</ele>
        <time>2012-08-22T11:17:40Z</time>
      </trkpt>
      <trkpt lat="43.0475" lon="0.59008">
        <ele>450.5</ele>
        <time>2012-08-22T11:17:48Z</time>
      </trkpt>
      <trkpt lat="43.04792" lon="0.5901">
        <ele>450.5</ele>
        <time>2012-08-22T11:17:55Z</time>
      </trkpt>
      <trkpt lat="43.04833" lon="0.59018">
        <ele>450.5</ele>
        <time>2012-08-22T11:18:02Z</time>
      </trkpt>
      <trkpt lat="43.04872" lon="0.59024">
        <ele>450.5</ele>
        <time>2012-08-22T11:18:09Z</time>
      </trkpt>
      <trkpt lat="43.04892" lon="0.59029">
        <ele>459.083344</ele>
        <time>2012-08-22T11:18:14Z</time>
      </trkpt>
      <trkpt lat="43.04934" lon="0.5904">
        <ele>459.083344</ele>
        <time>2012-08-22T11:18:24Z</time>
      </trkpt>
      <trkpt lat="43.04971" lon="0.59051">
        <ele>459.083344</ele>
        <time>2012-08-22T11:18:33Z</time>
      </trkpt>
      <trkpt lat="43.05008" lon="0.59053">
        <ele>459.083344</ele>
        <time>2012-08-22T11:18:41Z</time>
      </trkpt>
      <trkpt lat="43.05051" lon="0.59043">
        <ele>459.083344</ele>
        <time>2012-08-22T11:18:47Z</time>
      </trkpt>
      <trkpt lat="43.0511" lon="0.59037">
        <ele>459.083344</ele>
        <time>2012-08-22T11:18:53Z</time>
      </trkpt>
      <trkpt lat="43.05177" lon="0.59044">
        <ele>459.083344</ele>
        <time>2012-08-22T11:18:59Z</time>
      </trkpt>
      <trkpt lat="43.05244" lon="0.59041">
        <ele>457</ele>
        <time>2012-08-22T11:19:05Z</time>
      </trkpt>
      <trkpt lat="43.05307" lon="0.59023">
        <ele>457</ele>
        <time>2012-08-22T11:19:11Z</time>
      </trkpt>
      <trkpt lat="43.05367" lon="0.59005">
        <ele>457</ele>
        <time>2012-08-22T11:19:17Z</time>
      </trkpt>
      <trkpt lat="43.05408" lon="0.58992">
        <ele>457</ele>
        <time>2012-08-22T11:19:22Z</time>
      </trkpt>
      <trkpt lat="43.05455" lon="0.58977">
        <ele>457</ele>
        <time>2012-08-22T11:19:28Z</time>
      </trkpt>
      <trkpt lat="43.05499" lon="0.58962">
        <ele>457</ele>
        <time>2012-08-22T11:19:34Z</time>
      </trkpt>
      <trkpt lat="43.05543" lon="0.58957">
        <ele>457</ele>
        <time>2012-08-22T11:19:40Z</time>
      </trkpt>
      <trkpt lat="43.05582" lon="0.58948">
        <ele>457</ele>
        <time>2012-08-22T11:19:46Z</time>
      </trkpt>
      <trkpt lat="43.05627" lon="0.58933">
        <ele>455.333344</ele>
        <time>2012-08-22T11:19:52Z</time>
      </trkpt>
      <trkpt lat="43.05668" lon="0.58926">
        <ele>455.333344</ele>
        <time>2012-08-22T11:20:00Z</time>
      </trkpt>
      <trkpt lat="43.05684" lon="0.58972">
        <ele>455.333344</ele>
        <time>2012-08-22T11:20:08Z</time>
      </trkpt>
      <trkpt lat="43.05703" lon="0.59026">
        <ele>455.333344</ele>
        <time>2012-08-22T11:20:16Z</time>
      </trkpt>
      <trkpt lat="43.05718" lon="0.59078">
        <ele>455.333344</ele>
        <time>2012-08-22T11:20:23Z</time>
      </trkpt>
      <trkpt lat="43.05751" lon="0.59102">
        <ele>455.333344</ele>
        <time>2012-08-22T11:20:31Z</time>
      </trkpt>
      <trkpt lat="43.05791" lon="0.59091">
        <ele>455.333344</ele>
        <time>2012-08-22T11:20:37Z</time>
      </trkpt>
      <trkpt lat="43.05839" lon="0.59087">
        <ele>455.333344</ele>
        <time>2012-08-22T11:20:43Z</time>
      </trkpt>
      <trkpt lat="43.05887" lon="0.59097">
        <ele>467.75</ele>
        <time>2012-08-22T11:20:49Z</time>
      </trkpt>
      <trkpt lat="43.05928" lon="0.59122">
        <ele>467.75</ele>
        <time>2012-08-22T11:20:55Z</time>
      </trkpt>
      <trkpt lat="43.05965" lon="0.59142">
        <ele>467.75</ele>
        <time>2012-08-22T11:21:01Z</time>
      </trkpt>
      <trkpt lat="43.06" lon="0.5919">
        <ele>467.75</ele>
        <time>2012-08-22T11:21:07Z</time>
      </trkpt>
      <trkpt lat="43.06026" lon="0.59241">
        <ele>467.75</ele>
        <time>2012-08-22T11:21:13Z</time>
      </trkpt>
      <trkpt lat="43.06058" lon="0.59266">
        <ele>467.75</ele>
        <time>2012-08-22T11:21:22Z</time>
      </trkpt>
      <trkpt lat="43.06088" lon="0.5924">
        <ele>467.75</ele>
        <time>2012-08-22T11:21:28Z</time>
      </trkpt>
      <trkpt lat="43.06123" lon="0.59242">
        <ele>467.75</ele>
        <time>2012-08-22T11:21:35Z</time>
      </trkpt>
      <trkpt lat="43.06163" lon="0.59265">
        <ele>467.75</ele>
        <time>2012-08-22T11:21:41Z</time>
      </trkpt>
      <trkpt lat="43.06203" lon="0.59286">
        <ele>467.75</ele>
        <time>2012-08-22T11:21:47Z</time>
      </trkpt>
      <trkpt lat="43.06244" lon="0.59314">
        <ele>460</ele>
        <time>2012-08-22T11:21:53Z</time>
      </trkpt>
      <trkpt lat="43.06279" lon="0.59341">
        <ele>460</ele>
        <time>2012-08-22T11:22:00Z</time>
      </trkpt>
      <trkpt lat="43.0632" lon="0.59366">
        <ele>460</ele>
        <time>2012-08-22T11:22:06Z</time>
      </trkpt>
      <trkpt lat="43.06361" lon="0.59393">
        <ele>460</ele>
        <time>2012-08-22T11:22:12Z</time>
      </trkpt>
      <trkpt lat="43.064" lon="0.59421">
        <ele>460</ele>
        <time>2012-08-22T11:22:18Z</time>
      </trkpt>
      <trkpt lat="43.06441" lon="0.59447">
        <ele>460</ele>
        <time>2012-08-22T11:22:24Z</time>
      </trkpt>
      <trkpt lat="43.06482" lon="0.59475">
        <ele>460</ele>
        <time>2012-08-22T11:22:30Z</time>
      </trkpt>
      <trkpt lat="43.06522" lon="0.59498">
        <ele>460</ele>
        <time>2012-08-22T11:22:36Z</time>
      </trkpt>
      <trkpt lat="43.06562" lon="0.5952">
        <ele>460</ele>
        <time>2012-08-22T11:22:42Z</time>
      </trkpt>
      <trkpt lat="43.066" lon="0.59549">
        <ele>449.666656</ele>
        <time>2012-08-22T11:22:48Z</time>
      </trkpt>
      <trkpt lat="43.06639" lon="0.59578">
        <ele>449.666656</ele>
        <time>2012-08-22T11:22:54Z</time>
      </trkpt>
      <trkpt lat="43.0668" lon="0.59602">
        <ele>449.666656</ele>
        <time>2012-08-22T11:23:00Z</time>
      </trkpt>
      <trkpt lat="43.06721" lon="0.59627">
        <ele>449.666656</ele>
        <time>2012-08-22T11:23:06Z</time>
      </trkpt>
      <trkpt lat="43.0676" lon="0.59656">
        <ele>449.666656</ele>
        <time>2012-08-22T11:23:12Z</time>
      </trkpt>
      <trkpt lat="43.06797" lon="0.59688">
        <ele>449.666656</ele>
        <time>2012-08-22T11:23:18Z</time>
      </trkpt>
      <trkpt lat="43.06835" lon="0.59717">
        <ele>449.666656</ele>
        <time>2012-08-22T11:23:24Z</time>
      </trkpt>
      <trkpt lat="43.06876" lon="0.5974">
        <ele>449.666656</ele>
        <time>2012-08-22T11:23:30Z</time>
      </trkpt>
      <trkpt lat="43.06917" lon="0.59764">
        <ele>449.666656</ele>
        <time>2012-08-22T11:23:36Z</time>
      </trkpt>
      <trkpt lat="43.06956" lon="0.5979">
        <ele>436.833344</ele>
        <time>2012-08-22T11:23:42Z</time>
      </trkpt>
      <trkpt lat="43.06995" lon="0.59817">
        <ele>436.833344</ele>
        <time>2012-08-22T11:23:48Z</time>
      </trkpt>
      <trkpt lat="43.07036" lon="0.59839">
        <ele>436.833344</ele>
        <time>2012-08-22T11:23:54Z</time>
      </trkpt>
      <trkpt lat="43.07075" lon="0.59863">
        <ele>436.833344</ele>
        <time>2012-08-22T11:24:00Z</time>
      </trkpt>
      <trkpt lat="43.07114" lon="0.5989">
        <ele>436.833344</ele>
        <time>2012-08-22T11:24:06Z</time>
      </trkpt>
      <trkpt lat="43.07153" lon="0.59913">
        <ele>436.833344</ele>
        <time>2012-08-22T11:24:12Z</time>
      </trkpt>
      <trkpt lat="43.0719" lon="0.59937">
        <ele>436.833344</ele>
        <time>2012-08-22T11:24:18Z</time>
      </trkpt>
      <trkpt lat="43.07228" lon="0.59958">
        <ele>436.833344</ele>
        <time>2012-08-22T11:24:24Z</time>
      </trkpt>
      <trkpt lat="43.07263" lon="0.5998">
        <ele>436.833344</ele>
        <time>2012-08-22T11:24:30Z</time>
      </trkpt>
      <trkpt lat="43.07298" lon="0.60008">
        <ele>436.833344</ele>
        <time>2012-08-22T11:24:39Z</time>
      </trkpt>
      <trkpt lat="43.07338" lon="0.60032">
        <ele>434.333344</ele>
        <time>2012-08-22T11:24:47Z</time>
      </trkpt>
      <trkpt lat="43.07379" lon="0.60057">
        <ele>434.333344</ele>
        <time>2012-08-22T11:24:55Z</time>
      </trkpt>
      <trkpt lat="43.07414" lon="0.60083">
        <ele>434.333344</ele>
        <time>2012-08-22T11:25:01Z</time>
      </trkpt>
      <trkpt lat="43.07449" lon="0.60107">
        <ele>434.333344</ele>
        <time>2012-08-22T11:25:07Z</time>
      </trkpt>
      <trkpt lat="43.07483" lon="0.60135">
        <ele>434.333344</ele>
        <time>2012-08-22T11:25:13Z</time>
      </trkpt>
      <trkpt lat="43.07515" lon="0.60166">
        <ele>434.333344</ele>
        <time>2012-08-22T11:25:19Z</time>
      </trkpt>
      <trkpt lat="43.07555" lon="0.6019">
        <ele>434.333344</ele>
        <time>2012-08-22T11:25:28Z</time>
      </trkpt>
      <trkpt lat="43.07585" lon="0.60151">
        <ele>434.333344</ele>
        <time>2012-08-22T11:25:36Z</time>
      </trkpt>
      <trkpt lat="43.0762" lon="0.6012">
        <ele>434.333344</ele>
        <time>2012-08-22T11:25:44Z</time>
      </trkpt>
      <trkpt lat="43.07654" lon="0.60085">
        <ele>434.333344</ele>
        <time>2012-08-22T11:25:51Z</time>
      </trkpt>
      <trkpt lat="43.07687" lon="0.60053">
        <ele>430</ele>
        <time>2012-08-22T11:25:57Z</time>
      </trkpt>
      <trkpt lat="43.07719" lon="0.60005">
        <ele>430</ele>
        <time>2012-08-22T11:26:03Z</time>
      </trkpt>
      <trkpt lat="43.07749" lon="0.59964">
        <ele>430</ele>
        <time>2012-08-22T11:26:09Z</time>
      </trkpt>
      <trkpt lat="43.07777" lon="0.59926">
        <ele>430</ele>
        <time>2012-08-22T11:26:15Z</time>
      </trkpt>
      <trkpt lat="43.07803" lon="0.59881">
        <ele>430</ele>
        <time>2012-08-22T11:26:22Z</time>
      </trkpt>
      <trkpt lat="43.07837" lon="0.59844">
        <ele>430</ele>
        <time>2012-08-22T11:26:29Z</time>
      </trkpt>
      <trkpt lat="43.07867" lon="0.59812">
        <ele>430</ele>
        <time>2012-08-22T11:26:35Z</time>
      </trkpt>
      <trkpt lat="43.07899" lon="0.59771">
        <ele>430</ele>
        <time>2012-08-22T11:26:43Z</time>
      </trkpt>
      <trkpt lat="43.07932" lon="0.59808">
        <ele>430</ele>
        <time>2012-08-22T11:26:56Z</time>
      </trkpt>
      <trkpt lat="43.07939" lon="0.59859">
        <ele>429.25</ele>
        <time>2012-08-22T11:27:02Z</time>
      </trkpt>
      <trkpt lat="43.07951" lon="0.59918">
        <ele>429.25</ele>
        <time>2012-08-22T11:27:09Z</time>
      </trkpt>
      <trkpt lat="43.07964" lon="0.59973">
        <ele>429.25</ele>
        <time>2012-08-22T11:27:15Z</time>
      </trkpt>
      <trkpt lat="43.07976" lon="0.60027">
        <ele>429.25</ele>
        <time>2012-08-22T11:27:21Z</time>
      </trkpt>
      <trkpt lat="43.07992" lon="0.60089">
        <ele>429.25</ele>
        <time>2012-08-22T11:27:27Z</time>
      </trkpt>
      <trkpt lat="43.08034" lon="0.60157">
        <ele>429.25</ele>
        <time>2012-08-22T11:27:35Z</time>
      </trkpt>
      <trkpt lat="43.08063" lon="0.60201">
        <ele>429.25</ele>
        <time>2012-08-22T11:27:41Z</time>
      </trkpt>
      <trkpt lat="43.08087" lon="0.60243">
        <ele>429.25</ele>
        <time>2012-08-22T11:27:47Z</time>
      </trkpt>
      <trkpt lat="43.08118" lon="0.60291">
        <ele>429.25</ele>
        <time>2012-08-22T11:27:55Z</time>
      </trkpt>
      <trkpt lat="43.08147" lon="0.60334">
        <ele>428.333344</ele>
        <time>2012-08-22T11:28:02Z</time>
      </trkpt>
      <trkpt lat="43.08173" lon="0.60375">
        <ele>428.333344</ele>
        <time>2012-08-22T11:28:08Z</time>
      </trkpt>
      <trkpt lat="43.08197" lon="0.60419">
        <ele>428.333344</ele>
        <time>2012-08-22T11:28:14Z</time>
      </trkpt>
      <trkpt lat="43.08219" lon="0.60467">
        <ele>428.333344</ele>
        <time>2012-08-22T11:28:20Z</time>
      </trkpt>
      <trkpt lat="43.08241" lon="0.60518">
        <ele>428.333344</ele>
        <time>2012-08-22T11:28:26Z</time>
      </trkpt>
      <trkpt lat="43.08259" lon="0.60572">
        <ele>428.333344</ele>
        <time>2012-08-22T11:28:32Z</time>
      </trkpt>
      <trkpt lat="43.08277" lon="0.6062">
        <ele>428.333344</ele>
        <time>2012-08-22T11:28:38Z</time>
      </trkpt>
      <trkpt lat="43.08294" lon="0.60669">
        <ele>428.333344</ele>
        <time>2012-08-22T11:28:44Z</time>
      </trkpt>
      <trkpt lat="43.08318" lon="0.60729">
        <ele>428.333344</ele>
        <time>2012-08-22T11:28:50Z</time>
      </trkpt>
      <trkpt lat="43.08342" lon="0.60787">
        <ele>429.333344</ele>
        <time>2012-08-22T11:28:56Z</time>
      </trkpt>
      <trkpt lat="43.08362" lon="0.60838">
        <ele>429.333344</ele>
        <time>2012-08-22T11:29:02Z</time>
      </trkpt>
      <trkpt lat="43.08384" lon="0.60894">
        <ele>429.333344</ele>
        <time>2012-08-22T11:29:08Z</time>
      </trkpt>
      <trkpt lat="43.08407" lon="0.60945">
        <ele>429.333344</ele>
        <time>2012-08-22T11:29:14Z</time>
      </trkpt>
      <trkpt lat="43.08435" lon="0.60996">
        <ele>429.333344</ele>
        <time>2012-08-22T11:29:20Z</time>
      </trkpt>
      <trkpt lat="43.08468" lon="0.61042">
        <ele>429.333344</ele>
        <time>2012-08-22T11:29:26Z</time>
      </trkpt>
      <trkpt lat="43.08502" lon="0.61089">
        <ele>429.333344</ele>
        <time>2012-08-22T11:29:32Z</time>
      </trkpt>
      <trkpt lat="43.08526" lon="0.6114">
        <ele>429.333344</ele>
        <time>2012-08-22T11:29:38Z</time>
      </trkpt>
      <trkpt lat="43.08549" lon="0.61197">
        <ele>429.333344</ele>
        <time>2012-08-22T11:29:44Z</time>
      </trkpt>
      <trkpt lat="43.0857" lon="0.61254">
        <ele>424.5</ele>
        <time>2012-08-22T11:29:50Z</time>
      </trkpt>
      <trkpt lat="43.08594" lon="0.6131">
        <ele>424.5</ele>
        <time>2012-08-22T11:29:56Z</time>
      </trkpt>
      <trkpt lat="43.0861" lon="0.61369">
        <ele>424.5</ele>
        <time>2012-08-22T11:30:02Z</time>
      </trkpt>
      <trkpt lat="43.08629" lon="0.61426">
        <ele>424.5</ele>
        <time>2012-08-22T11:30:08Z</time>
      </trkpt>
      <trkpt lat="43.08648" lon="0.61481">
        <ele>424.5</ele>
        <time>2012-08-22T11:30:14Z</time>
      </trkpt>
      <trkpt lat="43.08657" lon="0.61535">
        <ele>424.5</ele>
        <time>2012-08-22T11:30:22Z</time>
      </trkpt>
      <trkpt lat="43.08677" lon="0.61585">
        <ele>424.5</ele>
        <time>2012-08-22T11:30:28Z</time>
      </trkpt>
      <trkpt lat="43.08697" lon="0.61635">
        <ele>424.5</ele>
        <time>2012-08-22T11:30:34Z</time>
      </trkpt>
      <trkpt lat="43.08716" lon="0.61687">
        <ele>424.5</ele>
        <time>2012-08-22T11:30:40Z</time>
      </trkpt>
      <trkpt lat="43.08736" lon="0.61738">
        <ele>421.083344</ele>
        <time>2012-08-22T11:30:46Z</time>
      </trkpt>
      <trkpt lat="43.0875" lon="0.6179">
        <ele>421.083344</ele>
        <time>2012-08-22T11:30:52Z</time>
      </trkpt>
      <trkpt lat="43.0876" lon="0.61848">
        <ele>421.083344</ele>
        <time>2012-08-22T11:30:58Z</time>
      </trkpt>
      <trkpt lat="43.08769" lon="0.61903">
        <ele>421.083344</ele>
        <time>2012-08-22T11:31:04Z</time>
      </trkpt>
      <trkpt lat="43.08785" lon="0.61957">
        <ele>421.083344</ele>
        <time>2012-08-22T11:31:10Z</time>
      </trkpt>
      <trkpt lat="43.08798" lon="0.62013">
        <ele>421.083344</ele>
        <time>2012-08-22T11:31:16Z</time>
      </trkpt>
      <trkpt lat="43.08814" lon="0.6207">
        <ele>421.083344</ele>
        <time>2012-08-22T11:31:22Z</time>
      </trkpt>
      <trkpt lat="43.08833" lon="0.62126">
        <ele>421.083344</ele>
        <time>2012-08-22T11:31:28Z</time>
      </trkpt>
      <trkpt lat="43.08852" lon="0.62182">
        <ele>421.083344</ele>
        <time>2012-08-22T11:31:34Z</time>
      </trkpt>
      <trkpt lat="43.08869" lon="0.6224">
        <ele>421.083344</ele>
        <time>2012-08-22T11:31:40Z</time>
      </trkpt>
      <trkpt lat="43.08883" lon="0.62298">
        <ele>416</ele>
        <time>2012-08-22T11:31:46Z</time>
      </trkpt>
      <trkpt lat="43.08901" lon="0.62357">
        <ele>416</ele>
        <time>2012-08-22T11:31:52Z</time>
      </trkpt>
      <trkpt lat="43.08921" lon="0.62412">
        <ele>416</ele>
        <time>2012-08-22T11:31:58Z</time>
      </trkpt>
      <trkpt lat="43.08933" lon="0.6247">
        <ele>416</ele>
        <time>2012-08-22T11:32:04Z</time>
      </trkpt>
      <trkpt lat="43.08939" lon="0.62534">
        <ele>416</ele>
        <time>2012-08-22T11:32:10Z</time>
      </trkpt>
      <trkpt lat="43.08942" lon="0.62598">
        <ele>416</ele>
        <time>2012-08-22T11:32:16Z</time>
      </trkpt>
      <trkpt lat="43.08952" lon="0.6266">
        <ele>416</ele>
        <time>2012-08-22T11:32:22Z</time>
      </trkpt>
      <trkpt lat="43.08971" lon="0.62718">
        <ele>416</ele>
        <time>2012-08-22T11:32:28Z</time>
      </trkpt>
      <trkpt lat="43.08994" lon="0.62771">
        <ele>416</ele>
        <time>2012-08-22T11:32:34Z</time>
      </trkpt>
      <trkpt lat="43.09016" lon="0.62823">
        <ele>416</ele>
        <time>2012-08-22T11:32:40Z</time>
      </trkpt>
      <trkpt lat="43.09035" lon="0.62883">
        <ele>413.5</ele>
        <time>2012-08-22T11:32:46Z</time>
      </trkpt>
      <trkpt lat="43.09048" lon="0.62945">
        <ele>413.5</ele>
        <time>2012-08-22T11:32:52Z</time>
      </trkpt>
      <trkpt lat="43.09061" lon="0.63008">
        <ele>413.5</ele>
        <time>2012-08-22T11:32:58Z</time>
      </trkpt>
      <trkpt lat="43.09082" lon="0.63064">
        <ele>413.5</ele>
        <time>2012-08-22T11:33:04Z</time>
      </trkpt>
      <trkpt lat="43.0911" lon="0.63117">
        <ele>413.5</ele>
        <time>2012-08-22T11:33:10Z</time>
      </trkpt>
      <trkpt lat="43.09143" lon="0.63159">
        <ele>413.5</ele>
        <time>2012-08-22T11:33:16Z</time>
      </trkpt>
      <trkpt lat="43.09183" lon="0.63193">
        <ele>413.5</ele>
        <time>2012-08-22T11:33:22Z</time>
      </trkpt>
      <trkpt lat="43.09224" lon="0.63217">
        <ele>413.5</ele>
        <time>2012-08-22T11:33:27Z</time>
      </trkpt>
      <trkpt lat="43.0928" lon="0.63266">
        <ele>413.5</ele>
        <time>2012-08-22T11:33:35Z</time>
      </trkpt>
      <trkpt lat="43.09304" lon="0.63319">
        <ele>413.5</ele>
        <time>2012-08-22T11:33:41Z</time>
      </trkpt>
      <trkpt lat="43.09332" lon="0.63364">
        <ele>409.333344</ele>
        <time>2012-08-22T11:33:47Z</time>
      </trkpt>
      <trkpt lat="43.09368" lon="0.6339">
        <ele>409.333344</ele>
        <time>2012-08-22T11:33:54Z</time>
      </trkpt>
      <trkpt lat="43.0941" lon="0.63419">
        <ele>409.333344</ele>
        <time>2012-08-22T11:34:02Z</time>
      </trkpt>
      <trkpt lat="43.09446" lon="0.63441">
        <ele>409.333344</ele>
        <time>2012-08-22T11:34:08Z</time>
      </trkpt>
      <trkpt lat="43.09476" lon="0.63475">
        <ele>409.333344</ele>
        <time>2012-08-22T11:34:14Z</time>
      </trkpt>
      <trkpt lat="43.09534" lon="0.63487">
        <ele>409.333344</ele>
        <time>2012-08-22T11:34:20Z</time>
      </trkpt>
      <trkpt lat="43.09573" lon="0.63521">
        <ele>409.333344</ele>
        <time>2012-08-22T11:34:26Z</time>
      </trkpt>
      <trkpt lat="43.09615" lon="0.63564">
        <ele>409.333344</ele>
        <time>2012-08-22T11:34:32Z</time>
      </trkpt>
      <trkpt lat="43.09639" lon="0.63617">
        <ele>409.333344</ele>
        <time>2012-08-22T11:34:38Z</time>
      </trkpt>
      <trkpt lat="43.09683" lon="0.63689">
        <ele>409.333344</ele>
        <time>2012-08-22T11:34:46Z</time>
      </trkpt>
      <trkpt lat="43.09722" lon="0.63736">
        <ele>404.833344</ele>
        <time>2012-08-22T11:34:52Z</time>
      </trkpt>
      <trkpt lat="43.09759" lon="0.63778">
        <ele>404.833344</ele>
        <time>2012-08-22T11:34:58Z</time>
      </trkpt>
      <trkpt lat="43.09797" lon="0.63819">
        <ele>404.833344</ele>
        <time>2012-08-22T11:35:04Z</time>
      </trkpt>
      <trkpt lat="43.09832" lon="0.63859">
        <ele>404.833344</ele>
        <time>2012-08-22T11:35:10Z</time>
      </trkpt>
      <trkpt lat="43.09863" lon="0.63909">
        <ele>404.833344</ele>
        <time>2012-08-22T11:35:16Z</time>
      </trkpt>
      <trkpt lat="43.09892" lon="0.63962">
        <ele>404.833344</ele>
        <time>2012-08-22T11:35:22Z</time>
      </trkpt>
      <trkpt lat="43.09922" lon="0.64015">
        <ele>404.833344</ele>
        <time>2012-08-22T11:35:28Z</time>
      </trkpt>
      <trkpt lat="43.09948" lon="0.64069">
        <ele>404.833344</ele>
        <time>2012-08-22T11:35:34Z</time>
      </trkpt>
      <trkpt lat="43.09973" lon="0.64124">
        <ele>404.833344</ele>
        <time>2012-08-22T11:35:40Z</time>
      </trkpt>
      <trkpt lat="43.09998" lon="0.64178">
        <ele>404.833344</ele>
        <time>2012-08-22T11:35:46Z</time>
      </trkpt>
      <trkpt lat="43.10022" lon="0.64234">
        <ele>403.333344</ele>
        <time>2012-08-22T11:35:52Z</time>
      </trkpt>
      <trkpt lat="43.10047" lon="0.64287">
        <ele>403.333344</ele>
        <time>2012-08-22T11:35:58Z</time>
      </trkpt>
      <trkpt lat="43.10071" lon="0.64342">
        <ele>403.333344</ele>
        <time>2012-08-22T11:36:04Z</time>
      </trkpt>
      <trkpt lat="43.10095" lon="0.64396">
        <ele>403.333344</ele>
        <time>2012-08-22T11:36:10Z</time>
      </trkpt>
      <trkpt lat="43.1012" lon="0.64451">
        <ele>403.333344</ele>
        <time>2012-08-22T11:36:16Z</time>
      </trkpt>
      <trkpt lat="43.10144" lon="0.64506">
        <ele>403.333344</ele>
        <time>2012-08-22T11:36:22Z</time>
      </trkpt>
      <trkpt lat="43.10171" lon="0.64564">
        <ele>403.333344</ele>
        <time>2012-08-22T11:36:28Z</time>
      </trkpt>
      <trkpt lat="43.10197" lon="0.64622">
        <ele>403.333344</ele>
        <time>2012-08-22T11:36:34Z</time>
      </trkpt>
      <trkpt lat="43.10223" lon="0.6468">
        <ele>403.333344</ele>
        <time>2012-08-22T11:36:40Z</time>
      </trkpt>
      <trkpt lat="43.10243" lon="0.64743">
        <ele>399.5</ele>
        <time>2012-08-22T11:36:46Z</time>
      </trkpt>
      <trkpt lat="43.10274" lon="0.64859">
        <ele>399.5</ele>
        <time>2012-08-22T11:36:57Z</time>
      </trkpt>
      <trkpt lat="43.10288" lon="0.64919">
        <ele>399.5</ele>
        <time>2012-08-22T11:37:03Z</time>
      </trkpt>
      <trkpt lat="43.10303" lon="0.64982">
        <ele>399.5</ele>
        <time>2012-08-22T11:37:09Z</time>
      </trkpt>
      <trkpt lat="43.10319" lon="0.65045">
        <ele>399.5</ele>
        <time>2012-08-22T11:37:15Z</time>
      </trkpt>
      <trkpt lat="43.10335" lon="0.65107">
        <ele>399.5</ele>
        <time>2012-08-22T11:37:21Z</time>
      </trkpt>
      <trkpt lat="43.10353" lon="0.65171">
        <ele>399.5</ele>
        <time>2012-08-22T11:37:27Z</time>
      </trkpt>
      <trkpt lat="43.10369" lon="0.65234">
        <ele>399.5</ele>
        <time>2012-08-22T11:37:33Z</time>
      </trkpt>
      <trkpt lat="43.10381" lon="0.65299">
        <ele>399.5</ele>
        <time>2012-08-22T11:37:39Z</time>
      </trkpt>
      <trkpt lat="43.10395" lon="0.65363">
        <ele>399.5</ele>
        <time>2012-08-22T11:37:45Z</time>
      </trkpt>
      <trkpt lat="43.10411" lon="0.65426">
        <ele>391.25</ele>
        <time>2012-08-22T11:37:51Z</time>
      </trkpt>
      <trkpt lat="43.10423" lon="0.65479">
        <ele>391.25</ele>
        <time>2012-08-22T11:37:56Z</time>
      </trkpt>
      <trkpt lat="43.10438" lon="0.6554">
        <ele>391.25</ele>
        <time>2012-08-22T11:38:02Z</time>
      </trkpt>
      <trkpt lat="43.10451" lon="0.656">
        <ele>391.25</ele>
        <time>2012-08-22T11:38:08Z</time>
      </trkpt>
      <trkpt lat="43.10464" lon="0.65667">
        <ele>391.25</ele>
        <time>2012-08-22T11:38:14Z</time>
      </trkpt>
      <trkpt lat="43.10478" lon="0.65731">
        <ele>391.25</ele>
        <time>2012-08-22T11:38:20Z</time>
      </trkpt>
      <trkpt lat="43.10494" lon="0.65792">
        <ele>391.25</ele>
        <time>2012-08-22T11:38:26Z</time>
      </trkpt>
      <trkpt lat="43.10507" lon="0.65853">
        <ele>391.25</ele>
        <time>2012-08-22T11:38:32Z</time>
      </trkpt>
      <trkpt lat="43.10519" lon="0.65916">
        <ele>391.25</ele>
        <time>2012-08-22T11:38:38Z</time>
      </trkpt>
      <trkpt lat="43.10514" lon="0.65978">
        <ele>391.25</ele>
        <time>2012-08-22T11:38:44Z</time>
      </trkpt>
      <trkpt lat="43.10489" lon="0.66036">
        <ele>389.166656</ele>
        <time>2012-08-22T11:38:50Z</time>
      </trkpt>
      <trkpt lat="43.10453" lon="0.66078">
        <ele>389.166656</ele>
        <time>2012-08-22T11:38:56Z</time>
      </trkpt>
      <trkpt lat="43.10415" lon="0.66106">
        <ele>389.166656</ele>
        <time>2012-08-22T11:39:01Z</time>
      </trkpt>
      <trkpt lat="43.10376" lon="0.66145">
        <ele>389.166656</ele>
        <time>2012-08-22T11:39:07Z</time>
      </trkpt>
      <trkpt lat="43.10342" lon="0.66184">
        <ele>389.166656</ele>
        <time>2012-08-22T11:39:13Z</time>
      </trkpt>
      <trkpt lat="43.10308" lon="0.6622">
        <ele>389.166656</ele>
        <time>2012-08-22T11:39:19Z</time>
      </trkpt>
      <trkpt lat="43.10275" lon="0.66252">
        <ele>389.166656</ele>
        <time>2012-08-22T11:39:25Z</time>
      </trkpt>
      <trkpt lat="43.10251" lon="0.66305">
        <ele>389.166656</ele>
        <time>2012-08-22T11:39:32Z</time>
      </trkpt>
      <trkpt lat="43.10234" lon="0.66353">
        <ele>389.166656</ele>
        <time>2012-08-22T11:39:38Z</time>
      </trkpt>
      <trkpt lat="43.10225" lon="0.66419">
        <ele>389.166656</ele>
        <time>2012-08-22T11:39:44Z</time>
      </trkpt>
      <trkpt lat="43.10224" lon="0.66477">
        <ele>387.083344</ele>
        <time>2012-08-22T11:39:50Z</time>
      </trkpt>
      <trkpt lat="43.10227" lon="0.66529">
        <ele>387.083344</ele>
        <time>2012-08-22T11:39:55Z</time>
      </trkpt>
      <trkpt lat="43.10243" lon="0.66597">
        <ele>387.083344</ele>
        <time>2012-08-22T11:40:01Z</time>
      </trkpt>
      <trkpt lat="43.1026" lon="0.66648">
        <ele>387.083344</ele>
        <time>2012-08-22T11:40:06Z</time>
      </trkpt>
      <trkpt lat="43.10296" lon="0.66698">
        <ele>387.083344</ele>
        <time>2012-08-22T11:40:12Z</time>
      </trkpt>
      <trkpt lat="43.10269" lon="0.66732">
        <ele>387.083344</ele>
        <time>2012-08-22T11:40:19Z</time>
      </trkpt>
      <trkpt lat="43.10233" lon="0.66759">
        <ele>387.083344</ele>
        <time>2012-08-22T11:40:27Z</time>
      </trkpt>
      <trkpt lat="43.10195" lon="0.66789">
        <ele>387.083344</ele>
        <time>2012-08-22T11:40:34Z</time>
      </trkpt>
      <trkpt lat="43.1016" lon="0.66822">
        <ele>387.083344</ele>
        <time>2012-08-22T11:40:40Z</time>
      </trkpt>
      <trkpt lat="43.10117" lon="0.66839">
        <ele>387.083344</ele>
        <time>2012-08-22T11:40:47Z</time>
      </trkpt>
      <trkpt lat="43.10079" lon="0.66852">
        <ele>384.416656</ele>
        <time>2012-08-22T11:40:53Z</time>
      </trkpt>
      <trkpt lat="43.10037" lon="0.66859">
        <ele>384.416656</ele>
        <time>2012-08-22T11:40:59Z</time>
      </trkpt>
      <trkpt lat="43.10038" lon="0.66885">
        <ele>384.416656</ele>
        <time>2012-08-22T11:41:04Z</time>
      </trkpt>
      <trkpt lat="43.10048" lon="0.66942">
        <ele>384.416656</ele>
        <time>2012-08-22T11:41:12Z</time>
      </trkpt>
      <trkpt lat="43.10061" lon="0.66995">
        <ele>384.416656</ele>
        <time>2012-08-22T11:41:18Z</time>
      </trkpt>
      <trkpt lat="43.10081" lon="0.6704">
        <ele>384.416656</ele>
        <time>2012-08-22T11:41:23Z</time>
      </trkpt>
      <trkpt lat="43.10104" lon="0.67089">
        <ele>384.416656</ele>
        <time>2012-08-22T11:41:29Z</time>
      </trkpt>
      <trkpt lat="43.10109" lon="0.67147">
        <ele>384.416656</ele>
        <time>2012-08-22T11:41:35Z</time>
      </trkpt>
      <trkpt lat="43.10084" lon="0.67193">
        <ele>384.416656</ele>
        <time>2012-08-22T11:41:41Z</time>
      </trkpt>
      <trkpt lat="43.10073" lon="0.6726">
        <ele>384.416656</ele>
        <time>2012-08-22T11:41:47Z</time>
      </trkpt>
      <trkpt lat="43.10075" lon="0.67327">
        <ele>385.166656</ele>
        <time>2012-08-22T11:41:53Z</time>
      </trkpt>
      <trkpt lat="43.10095" lon="0.67412">
        <ele>385.166656</ele>
        <time>2012-08-22T11:42:01Z</time>
      </trkpt>
      <trkpt lat="43.10119" lon="0.67466">
        <ele>385.166656</ele>
        <time>2012-08-22T11:42:07Z</time>
      </trkpt>
      <trkpt lat="43.10138" lon="0.67519">
        <ele>385.166656</ele>
        <time>2012-08-22T11:42:13Z</time>
      </trkpt>
      <trkpt lat="43.10125" lon="0.67606">
        <ele>385.166656</ele>
        <time>2012-08-22T11:42:21Z</time>
      </trkpt>
      <trkpt lat="43.1011" lon="0.67669">
        <ele>385.166656</ele>
        <time>2012-08-22T11:42:27Z</time>
      </trkpt>
      <trkpt lat="43.101" lon="0.67733">
        <ele>385.166656</ele>
        <time>2012-08-22T11:42:33Z</time>
      </trkpt>
      <trkpt lat="43.10085" lon="0.67793">
        <ele>385.166656</ele>
        <time>2012-08-22T11:42:39Z</time>
      </trkpt>
      <trkpt lat="43.10064" lon="0.67839">
        <ele>385.166656</ele>
        <time>2012-08-22T11:42:45Z</time>
      </trkpt>
      <trkpt lat="43.10051" lon="0.67895">
        <ele>380.5</ele>
        <time>2012-08-22T11:42:51Z</time>
      </trkpt>
      <trkpt lat="43.1003" lon="0.67939">
        <ele>380.5</ele>
        <time>2012-08-22T11:42:57Z</time>
      </trkpt>
      <trkpt lat="43.1001" lon="0.67986">
        <ele>380.5</ele>
        <time>2012-08-22T11:43:03Z</time>
      </trkpt>
      <trkpt lat="43.09982" lon="0.68029">
        <ele>380.5</ele>
        <time>2012-08-22T11:43:09Z</time>
      </trkpt>
      <trkpt lat="43.09952" lon="0.68074">
        <ele>380.5</ele>
        <time>2012-08-22T11:43:15Z</time>
      </trkpt>
      <trkpt lat="43.09916" lon="0.68111">
        <ele>380.5</ele>
        <time>2012-08-22T11:43:21Z</time>
      </trkpt>
      <trkpt lat="43.09893" lon="0.68161">
        <ele>380.5</ele>
        <time>2012-08-22T11:43:27Z</time>
      </trkpt>
      <trkpt lat="43.09881" lon="0.6823">
        <ele>380.5</ele>
        <time>2012-08-22T11:43:33Z</time>
      </trkpt>
      <trkpt lat="43.09875" lon="0.68293">
        <ele>380.5</ele>
        <time>2012-08-22T11:43:38Z</time>
      </trkpt>
      <trkpt lat="43.09863" lon="0.68359">
        <ele>380.5</ele>
        <time>2012-08-22T11:43:44Z</time>
      </trkpt>
      <trkpt lat="43.09847" lon="0.68416">
        <ele>384.416656</ele>
        <time>2012-08-22T11:43:50Z</time>
      </trkpt>
      <trkpt lat="43.09834" lon="0.68508">
        <ele>384.416656</ele>
        <time>2012-08-22T11:43:58Z</time>
      </trkpt>
      <trkpt lat="43.0982" lon="0.68567">
        <ele>384.416656</ele>
        <time>2012-08-22T11:44:04Z</time>
      </trkpt>
      <trkpt lat="43.09811" lon="0.68625">
        <ele>384.416656</ele>
        <time>2012-08-22T11:44:09Z</time>
      </trkpt>
      <trkpt lat="43.09802" lon="0.68686">
        <ele>384.416656</ele>
        <time>2012-08-22T11:44:15Z</time>
      </trkpt>
      <trkpt lat="43.09787" lon="0.6874">
        <ele>384.416656</ele>
        <time>2012-08-22T11:44:21Z</time>
      </trkpt>
      <trkpt lat="43.09769" lon="0.68794">
        <ele>384.416656</ele>
        <time>2012-08-22T11:44:27Z</time>
      </trkpt>
      <trkpt lat="43.09751" lon="0.68855">
        <ele>384.416656</ele>
        <time>2012-08-22T11:44:33Z</time>
      </trkpt>
      <trkpt lat="43.09739" lon="0.68916">
        <ele>384.416656</ele>
        <time>2012-08-22T11:44:39Z</time>
      </trkpt>
      <trkpt lat="43.09729" lon="0.68972">
        <ele>384.416656</ele>
        <time>2012-08-22T11:44:45Z</time>
      </trkpt>
      <trkpt lat="43.09715" lon="0.69056">
        <ele>378.583344</ele>
        <time>2012-08-22T11:44:52Z</time>
      </trkpt>
      <trkpt lat="43.09709" lon="0.6914">
        <ele>378.583344</ele>
        <time>2012-08-22T11:44:59Z</time>
      </trkpt>
      <trkpt lat="43.09694" lon="0.69202">
        <ele>378.583344</ele>
        <time>2012-08-22T11:45:05Z</time>
      </trkpt>
      <trkpt lat="43.0968" lon="0.6926">
        <ele>378.583344</ele>
        <time>2012-08-22T11:45:11Z</time>
      </trkpt>
      <trkpt lat="43.09668" lon="0.69312">
        <ele>378.583344</ele>
        <time>2012-08-22T11:45:17Z</time>
      </trkpt>
      <trkpt lat="43.09661" lon="0.69371">
        <ele>378.583344</ele>
        <time>2012-08-22T11:45:23Z</time>
      </trkpt>
      <trkpt lat="43.09657" lon="0.69437">
        <ele>378.583344</ele>
        <time>2012-08-22T11:45:29Z</time>
      </trkpt>
      <trkpt lat="43.09662" lon="0.69507">
        <ele>378.583344</ele>
        <time>2012-08-22T11:45:35Z</time>
      </trkpt>
      <trkpt lat="43.09674" lon="0.69567">
        <ele>378.583344</ele>
        <time>2012-08-22T11:45:41Z</time>
      </trkpt>
      <trkpt lat="43.09687" lon="0.69626">
        <ele>378.583344</ele>
        <time>2012-08-22T11:45:47Z</time>
      </trkpt>
      <trkpt lat="43.097" lon="0.69684">
        <ele>374.083344</ele>
        <time>2012-08-22T11:45:53Z</time>
      </trkpt>
      <trkpt lat="43.09715" lon="0.69744">
        <ele>374.083344</ele>
        <time>2012-08-22T11:45:59Z</time>
      </trkpt>
      <trkpt lat="43.09728" lon="0.69808">
        <ele>374.083344</ele>
        <time>2012-08-22T11:46:05Z</time>
      </trkpt>
      <trkpt lat="43.09729" lon="0.69871">
        <ele>374.083344</ele>
        <time>2012-08-22T11:46:11Z</time>
      </trkpt>
      <trkpt lat="43.09728" lon="0.69933">
        <ele>374.083344</ele>
        <time>2012-08-22T11:46:17Z</time>
      </trkpt>
      <trkpt lat="43.09719" lon="0.69992">
        <ele>374.083344</ele>
        <time>2012-08-22T11:46:23Z</time>
      </trkpt>
      <trkpt lat="43.0971" lon="0.70049">
        <ele>374.083344</ele>
        <time>2012-08-22T11:46:29Z</time>
      </trkpt>
      <trkpt lat="43.097" lon="0.701">
        <ele>374.083344</ele>
        <time>2012-08-22T11:46:37Z</time>
      </trkpt>
      <trkpt lat="43.09661" lon="0.70128">
        <ele>374.083344</ele>
        <time>2012-08-22T11:46:44Z</time>
      </trkpt>
      <trkpt lat="43.09674" lon="0.70187">
        <ele>374.083344</ele>
        <time>2012-08-22T11:46:52Z</time>
      </trkpt>
      <trkpt lat="43.09693" lon="0.70265">
        <ele>372.166656</ele>
        <time>2012-08-22T11:47:01Z</time>
      </trkpt>
      <trkpt lat="43.09709" lon="0.70317">
        <ele>372.166656</ele>
        <time>2012-08-22T11:47:07Z</time>
      </trkpt>
      <trkpt lat="43.0971" lon="0.70371">
        <ele>372.166656</ele>
        <time>2012-08-22T11:47:13Z</time>
      </trkpt>
      <trkpt lat="43.09711" lon="0.70425">
        <ele>372.166656</ele>
        <time>2012-08-22T11:47:19Z</time>
      </trkpt>
      <trkpt lat="43.09728" lon="0.70484">
        <ele>372.166656</ele>
        <time>2012-08-22T11:47:25Z</time>
      </trkpt>
      <trkpt lat="43.09743" lon="0.70534">
        <ele>372.166656</ele>
        <time>2012-08-22T11:47:31Z</time>
      </trkpt>
      <trkpt lat="43.09719" lon="0.70584">
        <ele>372.166656</ele>
        <time>2012-08-22T11:47:39Z</time>
      </trkpt>
      <trkpt lat="43.09687" lon="0.70618">
        <ele>372.166656</ele>
        <time>2012-08-22T11:47:47Z</time>
      </trkpt>
      <trkpt lat="43.09646" lon="0.70625">
        <ele>372.166656</ele>
        <time>2012-08-22T11:47:55Z</time>
      </trkpt>
      <trkpt lat="43.09633" lon="0.70591">
        <ele>367.166656</ele>
        <time>2012-08-22T11:48:05Z</time>
      </trkpt>
      <trkpt lat="43.09658" lon="0.70557">
        <ele>367.166656</ele>
        <time>2012-08-22T11:48:13Z</time>
      </trkpt>
      <trkpt lat="43.09688" lon="0.70598">
        <ele>367.166656</ele>
        <time>2012-08-22T11:48:22Z</time>
      </trkpt>
      <trkpt lat="43.09728" lon="0.7063">
        <ele>367.166656</ele>
        <time>2012-08-22T11:48:30Z</time>
      </trkpt>
      <trkpt lat="43.09763" lon="0.70654">
        <ele>367.166656</ele>
        <time>2012-08-22T11:48:36Z</time>
      </trkpt>
      <trkpt lat="43.098" lon="0.70679">
        <ele>367.166656</ele>
        <time>2012-08-22T11:48:42Z</time>
      </trkpt>
      <trkpt lat="43.09832" lon="0.70717">
        <ele>367.166656</ele>
        <time>2012-08-22T11:48:48Z</time>
      </trkpt>
      <trkpt lat="43.09862" lon="0.7076">
        <ele>367.166656</ele>
        <time>2012-08-22T11:48:54Z</time>
      </trkpt>
      <trkpt lat="43.09857" lon="0.70815">
        <ele>367.166656</ele>
        <time>2012-08-22T11:49:01Z</time>
      </trkpt>
      <trkpt lat="43.0982" lon="0.70846">
        <ele>367.166656</ele>
        <time>2012-08-22T11:49:07Z</time>
      </trkpt>
      <trkpt lat="43.09781" lon="0.70883">
        <ele>367.25</ele>
        <time>2012-08-22T11:49:13Z</time>
      </trkpt>
      <trkpt lat="43.09752" lon="0.7093">
        <ele>367.25</ele>
        <time>2012-08-22T11:49:19Z</time>
      </trkpt>
      <trkpt lat="43.09737" lon="0.7099">
        <ele>367.25</ele>
        <time>2012-08-22T11:49:25Z</time>
      </trkpt>
      <trkpt lat="43.09731" lon="0.71052">
        <ele>367.25</ele>
        <time>2012-08-22T11:49:31Z</time>
      </trkpt>
      <trkpt lat="43.09721" lon="0.71112">
        <ele>367.25</ele>
        <time>2012-08-22T11:49:37Z</time>
      </trkpt>
      <trkpt lat="43.09706" lon="0.71168">
        <ele>367.25</ele>
        <time>2012-08-22T11:49:43Z</time>
      </trkpt>
      <trkpt lat="43.09688" lon="0.71224">
        <ele>367.25</ele>
        <time>2012-08-22T11:49:49Z</time>
      </trkpt>
      <trkpt lat="43.09667" lon="0.71276">
        <ele>367.25</ele>
        <time>2012-08-22T11:49:55Z</time>
      </trkpt>
      <trkpt lat="43.09647" lon="0.71333">
        <ele>367.25</ele>
        <time>2012-08-22T11:50:01Z</time>
      </trkpt>
      <trkpt lat="43.09627" lon="0.71388">
        <ele>365.083344</ele>
        <time>2012-08-22T11:50:07Z</time>
      </trkpt>
      <trkpt lat="43.09606" lon="0.71445">
        <ele>365.083344</ele>
        <time>2012-08-22T11:50:13Z</time>
      </trkpt>
      <trkpt lat="43.09585" lon="0.71503">
        <ele>365.083344</ele>
        <time>2012-08-22T11:50:19Z</time>
      </trkpt>
      <trkpt lat="43.09568" lon="0.71553">
        <ele>365.083344</ele>
        <time>2012-08-22T11:50:25Z</time>
      </trkpt>
      <trkpt lat="43.09548" lon="0.71611">
        <ele>365.083344</ele>
        <time>2012-08-22T11:50:31Z</time>
      </trkpt>
      <trkpt lat="43.09529" lon="0.71667">
        <ele>365.083344</ele>
        <time>2012-08-22T11:50:37Z</time>
      </trkpt>
      <trkpt lat="43.095" lon="0.71711">
        <ele>365.083344</ele>
        <time>2012-08-22T11:50:43Z</time>
      </trkpt>
      <trkpt lat="43.09488" lon="0.71764">
        <ele>365.083344</ele>
        <time>2012-08-22T11:50:49Z</time>
      </trkpt>
      <trkpt lat="43.09475" lon="0.71818">
        <ele>366.25</ele>
        <time>2012-08-22T11:50:55Z</time>
      </trkpt>
      <trkpt lat="43.09458" lon="0.71871">
        <ele>366.25</ele>
        <time>2012-08-22T11:51:01Z</time>
      </trkpt>
      <trkpt lat="43.09438" lon="0.71926">
        <ele>366.25</ele>
        <time>2012-08-22T11:51:07Z</time>
      </trkpt>
      <trkpt lat="43.09418" lon="0.71981">
        <ele>366.25</ele>
        <time>2012-08-22T11:51:13Z</time>
      </trkpt>
      <trkpt lat="43.09397" lon="0.72037">
        <ele>366.25</ele>
        <time>2012-08-22T11:51:19Z</time>
      </trkpt>
      <trkpt lat="43.09379" lon="0.72092">
        <ele>366.25</ele>
        <time>2012-08-22T11:51:25Z</time>
      </trkpt>
      <trkpt lat="43.09353" lon="0.72147">
        <ele>366.25</ele>
        <time>2012-08-22T11:51:31Z</time>
      </trkpt>
      <trkpt lat="43.09337" lon="0.72208">
        <ele>366.25</ele>
        <time>2012-08-22T11:51:37Z</time>
      </trkpt>
      <trkpt lat="43.09317" lon="0.72267">
        <ele>366.25</ele>
        <time>2012-08-22T11:51:43Z</time>
      </trkpt>
      <trkpt lat="43.09302" lon="0.72325">
        <ele>366.25</ele>
        <time>2012-08-22T11:51:49Z</time>
      </trkpt>
      <trkpt lat="43.09288" lon="0.72387">
        <ele>364.416656</ele>
        <time>2012-08-22T11:51:55Z</time>
      </trkpt>
      <trkpt lat="43.09278" lon="0.7245">
        <ele>364.416656</ele>
        <time>2012-08-22T11:52:01Z</time>
      </trkpt>
      <trkpt lat="43.09266" lon="0.72509">
        <ele>364.416656</ele>
        <time>2012-08-22T11:52:07Z</time>
      </trkpt>
      <trkpt lat="43.09255" lon="0.72571">
        <ele>364.416656</ele>
        <time>2012-08-22T11:52:13Z</time>
      </trkpt>
      <trkpt lat="43.09242" lon="0.72636">
        <ele>364.416656</ele>
        <time>2012-08-22T11:52:19Z</time>
      </trkpt>
      <trkpt lat="43.09231" lon="0.72699">
        <ele>364.416656</ele>
        <time>2012-08-22T11:52:25Z</time>
      </trkpt>
      <trkpt lat="43.09217" lon="0.72761">
        <ele>364.416656</ele>
        <time>2012-08-22T11:52:31Z</time>
      </trkpt>
      <trkpt lat="43.09205" lon="0.72821">
        <ele>364.416656</ele>
        <time>2012-08-22T11:52:37Z</time>
      </trkpt>
      <trkpt lat="43.09197" lon="0.72887">
        <ele>364.416656</ele>
        <time>2012-08-22T11:52:43Z</time>
      </trkpt>
      <trkpt lat="43.09197" lon="0.72951">
        <ele>364.416656</ele>
        <time>2012-08-22T11:52:49Z</time>
      </trkpt>
      <trkpt lat="43.09202" lon="0.73017">
        <ele>362.583344</ele>
        <time>2012-08-22T11:52:55Z</time>
      </trkpt>
      <trkpt lat="43.09213" lon="0.73076">
        <ele>362.583344</ele>
        <time>2012-08-22T11:53:01Z</time>
      </trkpt>
      <trkpt lat="43.0923" lon="0.73137">
        <ele>362.583344</ele>
        <time>2012-08-22T11:53:07Z</time>
      </trkpt>
      <trkpt lat="43.09252" lon="0.73194">
        <ele>362.583344</ele>
        <time>2012-08-22T11:53:13Z</time>
      </trkpt>
      <trkpt lat="43.09281" lon="0.73248">
        <ele>362.583344</ele>
        <time>2012-08-22T11:53:19Z</time>
      </trkpt>
      <trkpt lat="43.09314" lon="0.73301">
        <ele>362.583344</ele>
        <time>2012-08-22T11:53:25Z</time>
      </trkpt>
      <trkpt lat="43.09348" lon="0.73353">
        <ele>362.583344</ele>
        <time>2012-08-22T11:53:31Z</time>
      </trkpt>
      <trkpt lat="43.09381" lon="0.73404">
        <ele>362.583344</ele>
        <time>2012-08-22T11:53:37Z</time>
      </trkpt>
      <trkpt lat="43.09414" lon="0.73457">
        <ele>362.583344</ele>
        <time>2012-08-22T11:53:43Z</time>
      </trkpt>
      <trkpt lat="43.09448" lon="0.73507">
        <ele>362.583344</ele>
        <time>2012-08-22T11:53:49Z</time>
      </trkpt>
      <trkpt lat="43.0948" lon="0.73554">
        <ele>358.25</ele>
        <time>2012-08-22T11:53:55Z</time>
      </trkpt>
      <trkpt lat="43.0951" lon="0.736">
        <ele>358.25</ele>
        <time>2012-08-22T11:54:02Z</time>
      </trkpt>
      <trkpt lat="43.09515" lon="0.73629">
        <ele>358.25</ele>
        <time>2012-08-22T11:54:07Z</time>
      </trkpt>
      <trkpt lat="43.09486" lon="0.7367">
        <ele>358.25</ele>
        <time>2012-08-22T11:54:14Z</time>
      </trkpt>
      <trkpt lat="43.09448" lon="0.73697">
        <ele>358.25</ele>
        <time>2012-08-22T11:54:20Z</time>
      </trkpt>
      <trkpt lat="43.09408" lon="0.73732">
        <ele>358.25</ele>
        <time>2012-08-22T11:54:26Z</time>
      </trkpt>
      <trkpt lat="43.09377" lon="0.73766">
        <ele>358.25</ele>
        <time>2012-08-22T11:54:32Z</time>
      </trkpt>
      <trkpt lat="43.09339" lon="0.73797">
        <ele>358.25</ele>
        <time>2012-08-22T11:54:38Z</time>
      </trkpt>
      <trkpt lat="43.09302" lon="0.73823">
        <ele>358.25</ele>
        <time>2012-08-22T11:54:44Z</time>
      </trkpt>
      <trkpt lat="43.09273" lon="0.73865">
        <ele>358.25</ele>
        <time>2012-08-22T11:54:50Z</time>
      </trkpt>
      <trkpt lat="43.09245" lon="0.73906">
        <ele>358.75</ele>
        <time>2012-08-22T11:54:57Z</time>
      </trkpt>
      <trkpt lat="43.09209" lon="0.73936">
        <ele>358.75</ele>
        <time>2012-08-22T11:55:04Z</time>
      </trkpt>
      <trkpt lat="43.09179" lon="0.73972">
        <ele>358.75</ele>
        <time>2012-08-22T11:55:10Z</time>
      </trkpt>
      <trkpt lat="43.09195" lon="0.74026">
        <ele>358.75</ele>
        <time>2012-08-22T11:55:16Z</time>
      </trkpt>
      <trkpt lat="43.0917" lon="0.74072">
        <ele>358.75</ele>
        <time>2012-08-22T11:55:22Z</time>
      </trkpt>
      <trkpt lat="43.09147" lon="0.74121">
        <ele>358.75</ele>
        <time>2012-08-22T11:55:29Z</time>
      </trkpt>
      <trkpt lat="43.09147" lon="0.74176">
        <ele>358.75</ele>
        <time>2012-08-22T11:55:35Z</time>
      </trkpt>
      <trkpt lat="43.09143" lon="0.74236">
        <ele>358.75</ele>
        <time>2012-08-22T11:55:41Z</time>
      </trkpt>
      <trkpt lat="43.09145" lon="0.74294">
        <ele>358.75</ele>
        <time>2012-08-22T11:55:47Z</time>
      </trkpt>
      <trkpt lat="43.09144" lon="0.74354">
        <ele>358.75</ele>
        <time>2012-08-22T11:55:53Z</time>
      </trkpt>
      <trkpt lat="43.09139" lon="0.74418">
        <ele>356.583344</ele>
        <time>2012-08-22T11:55:59Z</time>
      </trkpt>
      <trkpt lat="43.09141" lon="0.7448">
        <ele>356.583344</ele>
        <time>2012-08-22T11:56:05Z</time>
      </trkpt>
      <trkpt lat="43.09146" lon="0.74544">
        <ele>356.583344</ele>
        <time>2012-08-22T11:56:11Z</time>
      </trkpt>
      <trkpt lat="43.09154" lon="0.74608">
        <ele>356.583344</ele>
        <time>2012-08-22T11:56:17Z</time>
      </trkpt>
      <trkpt lat="43.09161" lon="0.74677">
        <ele>356.583344</ele>
        <time>2012-08-22T11:56:23Z</time>
      </trkpt>
      <trkpt lat="43.09175" lon="0.7476">
        <ele>356.583344</ele>
        <time>2012-08-22T11:56:30Z</time>
      </trkpt>
      <trkpt lat="43.09184" lon="0.74829">
        <ele>356.583344</ele>
        <time>2012-08-22T11:56:36Z</time>
      </trkpt>
      <trkpt lat="43.09195" lon="0.74898">
        <ele>356.583344</ele>
        <time>2012-08-22T11:56:42Z</time>
      </trkpt>
      <trkpt lat="43.09209" lon="0.74968">
        <ele>356.583344</ele>
        <time>2012-08-22T11:56:48Z</time>
      </trkpt>
      <trkpt lat="43.09226" lon="0.75033">
        <ele>359.333344</ele>
        <time>2012-08-22T11:56:54Z</time>
      </trkpt>
      <trkpt lat="43.0926" lon="0.75139">
        <ele>359.333344</ele>
        <time>2012-08-22T11:57:04Z</time>
      </trkpt>
      <trkpt lat="43.09281" lon="0.75203">
        <ele>359.333344</ele>
        <time>2012-08-22T11:57:10Z</time>
      </trkpt>
      <trkpt lat="43.09303" lon="0.75266">
        <ele>359.333344</ele>
        <time>2012-08-22T11:57:16Z</time>
      </trkpt>
      <trkpt lat="43.09325" lon="0.75325">
        <ele>359.333344</ele>
        <time>2012-08-22T11:57:22Z</time>
      </trkpt>
      <trkpt lat="43.09336" lon="0.75377">
        <ele>359.333344</ele>
        <time>2012-08-22T11:57:28Z</time>
      </trkpt>
      <trkpt lat="43.0936" lon="0.75403">
        <ele>359.333344</ele>
        <time>2012-08-22T11:57:37Z</time>
      </trkpt>
      <trkpt lat="43.09383" lon="0.7536">
        <ele>359.333344</ele>
        <time>2012-08-22T11:57:44Z</time>
      </trkpt>
      <trkpt lat="43.09393" lon="0.75413">
        <ele>359.333344</ele>
        <time>2012-08-22T11:57:51Z</time>
      </trkpt>
      <trkpt lat="43.09398" lon="0.75467">
        <ele>359.333344</ele>
        <time>2012-08-22T11:57:57Z</time>
      </trkpt>
      <trkpt lat="43.09382" lon="0.75516">
        <ele>362.166656</ele>
        <time>2012-08-22T11:58:04Z</time>
      </trkpt>
      <trkpt lat="43.09381" lon="0.75574">
        <ele>362.166656</ele>
        <time>2012-08-22T11:58:11Z</time>
      </trkpt>
      <trkpt lat="43.09389" lon="0.75624">
        <ele>362.166656</ele>
        <time>2012-08-22T11:58:17Z</time>
      </trkpt>
      <trkpt lat="43.09394" lon="0.75682">
        <ele>362.166656</ele>
        <time>2012-08-22T11:58:23Z</time>
      </trkpt>
      <trkpt lat="43.09398" lon="0.75737">
        <ele>362.166656</ele>
        <time>2012-08-22T11:58:29Z</time>
      </trkpt>
      <trkpt lat="43.09403" lon="0.7579">
        <ele>362.166656</ele>
        <time>2012-08-22T11:58:35Z</time>
      </trkpt>
      <trkpt lat="43.09408" lon="0.75844">
        <ele>362.166656</ele>
        <time>2012-08-22T11:58:41Z</time>
      </trkpt>
      <trkpt lat="43.09415" lon="0.75899">
        <ele>362.166656</ele>
        <time>2012-08-22T11:58:47Z</time>
      </trkpt>
      <trkpt lat="43.09419" lon="0.75956">
        <ele>362.166656</ele>
        <time>2012-08-22T11:58:53Z</time>
      </trkpt>
      <trkpt lat="43.09413" lon="0.76012">
        <ele>362.166656</ele>
        <time>2012-08-22T11:58:59Z</time>
      </trkpt>
      <trkpt lat="43.09406" lon="0.76071">
        <ele>358</ele>
        <time>2012-08-22T11:59:05Z</time>
      </trkpt>
      <trkpt lat="43.09404" lon="0.76131">
        <ele>358</ele>
        <time>2012-08-22T11:59:11Z</time>
      </trkpt>
      <trkpt lat="43.09407" lon="0.76193">
        <ele>358</ele>
        <time>2012-08-22T11:59:17Z</time>
      </trkpt>
      <trkpt lat="43.09411" lon="0.76255">
        <ele>358</ele>
        <time>2012-08-22T11:59:23Z</time>
      </trkpt>
      <trkpt lat="43.09412" lon="0.76313">
        <ele>358</ele>
        <time>2012-08-22T11:59:29Z</time>
      </trkpt>
      <trkpt lat="43.09409" lon="0.76376">
        <ele>358</ele>
        <time>2012-08-22T11:59:35Z</time>
      </trkpt>
      <trkpt lat="43.09408" lon="0.76435">
        <ele>358</ele>
        <time>2012-08-22T11:59:41Z</time>
      </trkpt>
      <trkpt lat="43.09407" lon="0.7649">
        <ele>358</ele>
        <time>2012-08-22T11:59:47Z</time>
      </trkpt>
      <trkpt lat="43.09408" lon="0.76545">
        <ele>358</ele>
        <time>2012-08-22T11:59:53Z</time>
      </trkpt>
      <trkpt lat="43.09406" lon="0.76602">
        <ele>353.916656</ele>
        <time>2012-08-22T11:59:59Z</time>
      </trkpt>
      <trkpt lat="43.09404" lon="0.7666">
        <ele>353.916656</ele>
        <time>2012-08-22T12:00:05Z</time>
      </trkpt>
      <trkpt lat="43.09393" lon="0.76714">
        <ele>353.916656</ele>
        <time>2012-08-22T12:00:11Z</time>
      </trkpt>
      <trkpt lat="43.09384" lon="0.76772">
        <ele>353.916656</ele>
        <time>2012-08-22T12:00:17Z</time>
      </trkpt>
      <trkpt lat="43.09365" lon="0.76824">
        <ele>353.916656</ele>
        <time>2012-08-22T12:00:23Z</time>
      </trkpt>
      <trkpt lat="43.09347" lon="0.76875">
        <ele>353.916656</ele>
        <time>2012-08-22T12:00:29Z</time>
      </trkpt>
      <trkpt lat="43.09336" lon="0.76929">
        <ele>353.916656</ele>
        <time>2012-08-22T12:00:35Z</time>
      </trkpt>
      <trkpt lat="43.09321" lon="0.7698">
        <ele>353.916656</ele>
        <time>2012-08-22T12:00:41Z</time>
      </trkpt>
      <trkpt lat="43.09314" lon="0.77034">
        <ele>353.916656</ele>
        <time>2012-08-22T12:00:47Z</time>
      </trkpt>
      <trkpt lat="43.09305" lon="0.77097">
        <ele>353.916656</ele>
        <time>2012-08-22T12:00:53Z</time>
      </trkpt>
      <trkpt lat="43.09295" lon="0.77159">
        <ele>352.25</ele>
        <time>2012-08-22T12:00:59Z</time>
      </trkpt>
      <trkpt lat="43.09285" lon="0.77219">
        <ele>352.25</ele>
        <time>2012-08-22T12:01:05Z</time>
      </trkpt>
      <trkpt lat="43.09279" lon="0.77273">
        <ele>352.25</ele>
        <time>2012-08-22T12:01:11Z</time>
      </trkpt>
      <trkpt lat="43.09276" lon="0.77333">
        <ele>352.25</ele>
        <time>2012-08-22T12:01:17Z</time>
      </trkpt>
      <trkpt lat="43.09269" lon="0.77397">
        <ele>352.25</ele>
        <time>2012-08-22T12:01:23Z</time>
      </trkpt>
      <trkpt lat="43.09265" lon="0.77455">
        <ele>352.25</ele>
        <time>2012-08-22T12:01:29Z</time>
      </trkpt>
      <trkpt lat="43.09263" lon="0.77522">
        <ele>352.25</ele>
        <time>2012-08-22T12:01:35Z</time>
      </trkpt>
      <trkpt lat="43.09273" lon="0.77588">
        <ele>352.25</ele>
        <time>2012-08-22T12:01:41Z</time>
      </trkpt>
      <trkpt lat="43.09289" lon="0.77652">
        <ele>352.25</ele>
        <time>2012-08-22T12:01:47Z</time>
      </trkpt>
      <trkpt lat="43.09304" lon="0.77712">
        <ele>352.25</ele>
        <time>2012-08-22T12:01:53Z</time>
      </trkpt>
      <trkpt lat="43.0932" lon="0.77772">
        <ele>352</ele>
        <time>2012-08-22T12:01:59Z</time>
      </trkpt>
      <trkpt lat="43.0934" lon="0.77832">
        <ele>352</ele>
        <time>2012-08-22T12:02:05Z</time>
      </trkpt>
      <trkpt lat="43.09351" lon="0.77894">
        <ele>352</ele>
        <time>2012-08-22T12:02:11Z</time>
      </trkpt>
      <trkpt lat="43.09366" lon="0.77952">
        <ele>352</ele>
        <time>2012-08-22T12:02:17Z</time>
      </trkpt>
      <trkpt lat="43.09385" lon="0.78006">
        <ele>352</ele>
        <time>2012-08-22T12:02:23Z</time>
      </trkpt>
      <trkpt lat="43.09407" lon="0.78065">
        <ele>352</ele>
        <time>2012-08-22T12:02:29Z</time>
      </trkpt>
      <trkpt lat="43.09414" lon="0.78123">
        <ele>352</ele>
        <time>2012-08-22T12:02:35Z</time>
      </trkpt>
      <trkpt lat="43.09421" lon="0.78175">
        <ele>352</ele>
        <time>2012-08-22T12:02:41Z</time>
      </trkpt>
      <trkpt lat="43.09432" lon="0.78229">
        <ele>352</ele>
        <time>2012-08-22T12:02:48Z</time>
      </trkpt>
      <trkpt lat="43.09467" lon="0.78245">
        <ele>352</ele>
        <time>2012-08-22T12:02:56Z</time>
      </trkpt>
      <trkpt lat="43.09507" lon="0.78249">
        <ele>350.166656</ele>
        <time>2012-08-22T12:03:05Z</time>
      </trkpt>
      <trkpt lat="43.09549" lon="0.78248">
        <ele>350.166656</ele>
        <time>2012-08-22T12:03:14Z</time>
      </trkpt>
      <trkpt lat="43.09586" lon="0.78249">
        <ele>350.166656</ele>
        <time>2012-08-22T12:03:22Z</time>
      </trkpt>
      <trkpt lat="43.0963" lon="0.78254">
        <ele>350.166656</ele>
        <time>2012-08-22T12:03:30Z</time>
      </trkpt>
      <trkpt lat="43.09673" lon="0.78261">
        <ele>350.166656</ele>
        <time>2012-08-22T12:03:38Z</time>
      </trkpt>
      <trkpt lat="43.09691" lon="0.78272">
        <ele>350.166656</ele>
        <time>2012-08-22T12:03:43Z</time>
      </trkpt>
      <trkpt lat="43.09687" lon="0.7833">
        <ele>350.166656</ele>
        <time>2012-08-22T12:03:51Z</time>
      </trkpt>
      <trkpt lat="43.09681" lon="0.78383">
        <ele>350.166656</ele>
        <time>2012-08-22T12:03:57Z</time>
      </trkpt>
      <trkpt lat="43.09671" lon="0.78437">
        <ele>350.166656</ele>
        <time>2012-08-22T12:04:03Z</time>
      </trkpt>
      <trkpt lat="43.09659" lon="0.78494">
        <ele>350.166656</ele>
        <time>2012-08-22T12:04:09Z</time>
      </trkpt>
      <trkpt lat="43.09647" lon="0.78551">
        <ele>350.5</ele>
        <time>2012-08-22T12:04:15Z</time>
      </trkpt>
      <trkpt lat="43.09636" lon="0.78612">
        <ele>350.5</ele>
        <time>2012-08-22T12:04:21Z</time>
      </trkpt>
      <trkpt lat="43.09616" lon="0.78666">
        <ele>350.5</ele>
        <time>2012-08-22T12:04:27Z</time>
      </trkpt>
      <trkpt lat="43.09589" lon="0.78716">
        <ele>350.5</ele>
        <time>2012-08-22T12:04:33Z</time>
      </trkpt>
      <trkpt lat="43.09551" lon="0.78782">
        <ele>350.5</ele>
        <time>2012-08-22T12:04:41Z</time>
      </trkpt>
      <trkpt lat="43.09529" lon="0.78834">
        <ele>350.5</ele>
        <time>2012-08-22T12:04:47Z</time>
      </trkpt>
      <trkpt lat="43.09509" lon="0.78895">
        <ele>350.5</ele>
        <time>2012-08-22T12:04:53Z</time>
      </trkpt>
      <trkpt lat="43.09498" lon="0.78954">
        <ele>350.5</ele>
        <time>2012-08-22T12:04:58Z</time>
      </trkpt>
      <trkpt lat="43.09484" lon="0.79021">
        <ele>350.5</ele>
        <time>2012-08-22T12:05:04Z</time>
      </trkpt>
      <trkpt lat="43.09472" lon="0.79079">
        <ele>343.416656</ele>
        <time>2012-08-22T12:05:09Z</time>
      </trkpt>
      <trkpt lat="43.0946" lon="0.79133">
        <ele>343.416656</ele>
        <time>2012-08-22T12:05:15Z</time>
      </trkpt>
      <trkpt lat="43.09444" lon="0.79188">
        <ele>343.416656</ele>
        <time>2012-08-22T12:05:20Z</time>
      </trkpt>
      <trkpt lat="43.09432" lon="0.79247">
        <ele>343.416656</ele>
        <time>2012-08-22T12:05:26Z</time>
      </trkpt>
      <trkpt lat="43.09418" lon="0.79299">
        <ele>343.416656</ele>
        <time>2012-08-22T12:05:32Z</time>
      </trkpt>
      <trkpt lat="43.09379" lon="0.79301">
        <ele>343.416656</ele>
        <time>2012-08-22T12:05:39Z</time>
      </trkpt>
      <trkpt lat="43.09339" lon="0.79289">
        <ele>343.416656</ele>
        <time>2012-08-22T12:05:46Z</time>
      </trkpt>
      <trkpt lat="43.09294" lon="0.79274">
        <ele>343.416656</ele>
        <time>2012-08-22T12:05:54Z</time>
      </trkpt>
      <trkpt lat="43.09249" lon="0.79263">
        <ele>345.833344</ele>
        <time>2012-08-22T12:06:02Z</time>
      </trkpt>
      <trkpt lat="43.09203" lon="0.79251">
        <ele>345.833344</ele>
        <time>2012-08-22T12:06:10Z</time>
      </trkpt>
      <trkpt lat="43.0916" lon="0.79252">
        <ele>345.833344</ele>
        <time>2012-08-22T12:06:18Z</time>
      </trkpt>
      <trkpt lat="43.09123" lon="0.79236">
        <ele>345.833344</ele>
        <time>2012-08-22T12:06:26Z</time>
      </trkpt>
      <trkpt lat="43.09088" lon="0.79227">
        <ele>345.833344</ele>
        <time>2012-08-22T12:06:35Z</time>
      </trkpt>
      <trkpt lat="43.0905" lon="0.7924">
        <ele>345.833344</ele>
        <time>2012-08-22T12:06:43Z</time>
      </trkpt>
      <trkpt lat="43.0901" lon="0.79244">
        <ele>345.833344</ele>
        <time>2012-08-22T12:06:51Z</time>
      </trkpt>
      <trkpt lat="43.0897" lon="0.79248">
        <ele>345.833344</ele>
        <time>2012-08-22T12:06:59Z</time>
      </trkpt>
      <trkpt lat="43.08922" lon="0.7923">
        <ele>345.833344</ele>
        <time>2012-08-22T12:07:10Z</time>
      </trkpt>
      <trkpt lat="43.08912" lon="0.7918">
        <ele>345.833344</ele>
        <time>2012-08-22T12:07:18Z</time>
      </trkpt>
      <trkpt lat="43.08901" lon="0.79125">
        <ele>346.833344</ele>
        <time>2012-08-22T12:07:26Z</time>
      </trkpt>
      <trkpt lat="43.08857" lon="0.79122">
        <ele>346.833344</ele>
        <time>2012-08-22T12:07:32Z</time>
      </trkpt>
      <trkpt lat="43.08823" lon="0.79101">
        <ele>346.833344</ele>
        <time>2012-08-22T12:07:41Z</time>
      </trkpt>
      <trkpt lat="43.08817" lon="0.79047">
        <ele>346.833344</ele>
        <time>2012-08-22T12:07:48Z</time>
      </trkpt>
      <trkpt lat="43.08811" lon="0.78997">
        <ele>346.833344</ele>
        <time>2012-08-22T12:07:54Z</time>
      </trkpt>
      <trkpt lat="43.08799" lon="0.78945">
        <ele>346.833344</ele>
        <time>2012-08-22T12:08:00Z</time>
      </trkpt>
      <trkpt lat="43.08788" lon="0.78893">
        <ele>346.833344</ele>
        <time>2012-08-22T12:08:06Z</time>
      </trkpt>
      <trkpt lat="43.08788" lon="0.7884">
        <ele>346.833344</ele>
        <time>2012-08-22T12:08:12Z</time>
      </trkpt>
      <trkpt lat="43.08789" lon="0.78787">
        <ele>346.833344</ele>
        <time>2012-08-22T12:08:18Z</time>
      </trkpt>
      <trkpt lat="43.08788" lon="0.78735">
        <ele>342.833344</ele>
        <time>2012-08-22T12:08:24Z</time>
      </trkpt>
      <trkpt lat="43.08781" lon="0.78681">
        <ele>342.833344</ele>
        <time>2012-08-22T12:08:31Z</time>
      </trkpt>
    </trkseg>
  </trk>
</gpx>